<?xml version='1.0' encoding='UTF-8'?><gpx version="1.1" creator="JPX - https://github.com/jenetics/jpx" xmlns="http://www.topografix.com/GPX/1/1"><trk><trkseg><trkpt lat="42.03815778108547" lon="12.021090113827814"><ele>131.0</ele><time>2026-03-28T08:16:33Z</time></trkpt><trkpt lat="42.03813991993015" lon="12.021197671964211"><ele>131.0</ele><time>2026-03-28T08:23:33Z</time></trkpt><trkpt lat="42.03812818082119" lon="12.021296438226505"><ele>131.0</ele><time>2026-03-28T08:24:10Z</time></trkpt><trkpt lat="42.03805593959779" lon="12.021271586243763"><ele>131.0</ele><time>2026-03-28T08:24:13Z</time></trkpt><trkpt lat="42.03805372636374" lon="12.021163196505439"><ele>131.0</ele><time>2026-03-28T08:24:16Z</time></trkpt><trkpt lat="42.038085101430234" lon="12.021073804366795"><ele>131.0</ele><time>2026-03-28T08:24:19Z</time></trkpt><trkpt lat="42.03808204077104" lon="12.0211700967265"><ele>131.0</ele><time>2026-03-28T08:24:25Z</time></trkpt><trkpt lat="42.03799325966129" lon="12.0211662765189"><ele>131.0</ele><time>2026-03-28T08:24:27Z</time></trkpt><trkpt lat="42.03792043942954" lon="12.021165470341229"><ele>131.0</ele><time>2026-03-28T08:24:30Z</time></trkpt><trkpt lat="42.03791284411018" lon="12.021270328039476"><ele>131.0</ele><time>2026-03-28T08:24:34Z</time></trkpt><trkpt lat="42.038011721505434" lon="12.021257450347724"><ele>131.0</ele><time>2026-03-28T08:24:36Z</time></trkpt><trkpt lat="42.03808656904123" lon="12.021290715249563"><ele>131.0</ele><time>2026-03-28T08:24:38Z</time></trkpt><trkpt lat="42.03815337128281" lon="12.021259916367761"><ele>131.0</ele><time>2026-03-28T08:24:41Z</time></trkpt><trkpt lat="42.03814179717138" lon="12.021165217659842"><ele>131.0</ele><time>2026-03-28T08:25:12Z</time></trkpt><trkpt lat="42.03820440413832" lon="12.021121878776365"><ele>131.0</ele><time>2026-03-28T08:25:15Z</time></trkpt><trkpt lat="42.03813212804784" lon="12.02113921256087"><ele>131.0</ele><time>2026-03-28T08:25:41Z</time></trkpt><trkpt lat="42.03806356665657" lon="12.021211834027616"><ele>131.0</ele><time>2026-03-28T08:25:50Z</time></trkpt><trkpt lat="42.038090866074356" lon="12.021305272217532"><ele>131.0</ele><time>2026-03-28T08:25:53Z</time></trkpt><trkpt lat="42.03816031023072" lon="12.021268353371136"><ele>131.0</ele><time>2026-03-28T08:25:55Z</time></trkpt><trkpt lat="42.03809743708211" lon="12.021195352309812"><ele>131.0</ele><time>2026-03-28T08:26:38Z</time></trkpt><trkpt lat="42.03800259086106" lon="12.021215918891741"><ele>131.0</ele><time>2026-03-28T08:26:40Z</time></trkpt><trkpt lat="42.03788585586393" lon="12.021198583336774"><ele>131.0</ele><time>2026-03-28T08:26:42Z</time></trkpt><trkpt lat="42.03781492128937" lon="12.021175216147286"><ele>131.0</ele><time>2026-03-28T08:26:43Z</time></trkpt><trkpt lat="42.03774843024553" lon="12.021158525786818"><ele>131.0</ele><time>2026-03-28T08:26:44Z</time></trkpt><trkpt lat="42.03767730952414" lon="12.021141523550968"><ele>131.0</ele><time>2026-03-28T08:26:45Z</time></trkpt><trkpt lat="42.037606203372945" lon="12.021127584044402"><ele>131.0</ele><time>2026-03-28T08:26:46Z</time></trkpt><trkpt lat="42.037527310873124" lon="12.021114931714393"><ele>131.0</ele><time>2026-03-28T08:26:47Z</time></trkpt><trkpt lat="42.03745094835679" lon="12.02109454327915"><ele>131.0</ele><time>2026-03-28T08:26:48Z</time></trkpt><trkpt lat="42.03736276451056" lon="12.02107493580356"><ele>131.0</ele><time>2026-03-28T08:26:49Z</time></trkpt><trkpt lat="42.037278407977105" lon="12.021062318020798"><ele>131.0</ele><time>2026-03-28T08:26:50Z</time></trkpt><trkpt lat="42.03719424066048" lon="12.021039648077933"><ele>130.33333333333331</ele><time>2026-03-28T08:26:51Z</time></trkpt><trkpt lat="42.03711011498685" lon="12.021019661120754"><ele>129.66666666666666</ele><time>2026-03-28T08:26:52Z</time></trkpt><trkpt lat="42.03702394334329" lon="12.021004218382949"><ele>129.0</ele><time>2026-03-28T08:26:53Z</time></trkpt><trkpt lat="42.03695118402236" lon="12.020990577259676"><ele>128.33333333333334</ele><time>2026-03-28T08:26:54Z</time></trkpt><trkpt lat="42.036863979894704" lon="12.020973669799918"><ele>127.66666666666667</ele><time>2026-03-28T08:26:55Z</time></trkpt><trkpt lat="42.03678487904678" lon="12.020956912806152"><ele>127.0</ele><time>2026-03-28T08:26:56Z</time></trkpt><trkpt lat="42.03671001071479" lon="12.020940822241954"><ele>127.00000000000001</ele><time>2026-03-28T08:26:57Z</time></trkpt><trkpt lat="42.03663735493745" lon="12.02092163340051"><ele>127.0</ele><time>2026-03-28T08:26:58Z</time></trkpt><trkpt lat="42.03653071739186" lon="12.020894810531388"><ele>127.0</ele><time>2026-03-28T08:27:00Z</time></trkpt><trkpt lat="42.036466425988074" lon="12.020952371340108"><ele>127.0</ele><time>2026-03-28T08:27:02Z</time></trkpt><trkpt lat="42.03646192636413" lon="12.021036966179024"><ele>127.00000000000001</ele><time>2026-03-28T08:27:03Z</time></trkpt><trkpt lat="42.036462871161326" lon="12.02112721707064"><ele>127.0</ele><time>2026-03-28T08:27:04Z</time></trkpt><trkpt lat="42.03645970610792" lon="12.0212812828"><ele>126.0</ele><time>2026-03-28T08:27:06Z</time></trkpt><trkpt lat="42.03644862901162" lon="12.021435131502257"><ele>124.99999999999999</ele><time>2026-03-28T08:27:08Z</time></trkpt><trkpt lat="42.036444281120815" lon="12.02152317262571"><ele>123.99999999999999</ele><time>2026-03-28T08:27:09Z</time></trkpt><trkpt lat="42.03642514260525" lon="12.021674667255208"><ele>123.0</ele><time>2026-03-28T08:27:11Z</time></trkpt><trkpt lat="42.03636343513927" lon="12.021738705711076"><ele>122.0</ele><time>2026-03-28T08:27:14Z</time></trkpt><trkpt lat="42.03622812237079" lon="12.021696774948452"><ele>122.0</ele><time>2026-03-28T08:27:16Z</time></trkpt><trkpt lat="42.03615600089858" lon="12.021682185637134"><ele>121.99999999999999</ele><time>2026-03-28T08:27:17Z</time></trkpt><trkpt lat="42.03606630645974" lon="12.021655002347755"><ele>121.99999999999999</ele><time>2026-03-28T08:27:18Z</time></trkpt><trkpt lat="42.03596309013789" lon="12.021627816393204"><ele>122.0</ele><time>2026-03-28T08:27:19Z</time></trkpt><trkpt lat="42.03585484438067" lon="12.021623716650947"><ele>122.0</ele><time>2026-03-28T08:27:20Z</time></trkpt><trkpt lat="42.03576340216641" lon="12.02160531043422"><ele>121.33333333333333</ele><time>2026-03-28T08:27:21Z</time></trkpt><trkpt lat="42.03567477618235" lon="12.021577474127552"><ele>120.66666666666666</ele><time>2026-03-28T08:27:22Z</time></trkpt><trkpt lat="42.035587398800956" lon="12.021549159385462"><ele>120.0</ele><time>2026-03-28T08:27:23Z</time></trkpt><trkpt lat="42.03550396793083" lon="12.021516037525066"><ele>119.33333333333334</ele><time>2026-03-28T08:27:24Z</time></trkpt><trkpt lat="42.035422200423774" lon="12.021487322878407"><ele>118.66666666666667</ele><time>2026-03-28T08:27:25Z</time></trkpt><trkpt lat="42.03533302260554" lon="12.021444174121832"><ele>118.0</ele><time>2026-03-28T08:27:26Z</time></trkpt><trkpt lat="42.03524308232" lon="12.021403748631574"><ele>118.00000000000001</ele><time>2026-03-28T08:27:27Z</time></trkpt><trkpt lat="42.03516473499797" lon="12.021379379448081"><ele>118.0</ele><time>2026-03-28T08:27:28Z</time></trkpt><trkpt lat="42.035086133727944" lon="12.02136467928212"><ele>118.0</ele><time>2026-03-28T08:27:29Z</time></trkpt><trkpt lat="42.03500713297628" lon="12.021344410113993"><ele>118.0</ele><time>2026-03-28T08:27:30Z</time></trkpt><trkpt lat="42.03493299250715" lon="12.021324732812554"><ele>118.00000000000001</ele><time>2026-03-28T08:27:31Z</time></trkpt><trkpt lat="42.03485159185455" lon="12.021307238202146"><ele>118.0</ele><time>2026-03-28T08:27:32Z</time></trkpt><trkpt lat="42.0347871893903" lon="12.021310994887598"><ele>116.0</ele><time>2026-03-28T08:27:33Z</time></trkpt><trkpt lat="42.03470953119292" lon="12.02131805012304"><ele>114.00000000000001</ele><time>2026-03-28T08:27:34Z</time></trkpt><trkpt lat="42.03463000711445" lon="12.02131647175629"><ele>112.00000000000001</ele><time>2026-03-28T08:27:35Z</time></trkpt><trkpt lat="42.03453489930697" lon="12.021343155462917"><ele>110.0</ele><time>2026-03-28T08:27:36Z</time></trkpt><trkpt lat="42.03443536134005" lon="12.021397725437437"><ele>108.0</ele><time>2026-03-28T08:27:37Z</time></trkpt><trkpt lat="42.03433441868319" lon="12.021451053587057"><ele>108.0</ele><time>2026-03-28T08:27:38Z</time></trkpt><trkpt lat="42.034230349917806" lon="12.021520460986306"><ele>108.0</ele><time>2026-03-28T08:27:39Z</time></trkpt><trkpt lat="42.034141125831326" lon="12.0216087193555"><ele>108.0</ele><time>2026-03-28T08:27:40Z</time></trkpt><trkpt lat="42.03405083275978" lon="12.021714223744961"><ele>108.0</ele><time>2026-03-28T08:27:41Z</time></trkpt><trkpt lat="42.033959241465766" lon="12.021839300021266"><ele>104.5</ele><time>2026-03-28T08:27:42Z</time></trkpt><trkpt lat="42.033881495611126" lon="12.021972585384551"><ele>101.0</ele><time>2026-03-28T08:27:43Z</time></trkpt><trkpt lat="42.033818582171" lon="12.022124827252815"><ele>97.5</ele><time>2026-03-28T08:27:44Z</time></trkpt><trkpt lat="42.033768243289614" lon="12.022285699696258"><ele>94.0</ele><time>2026-03-28T08:27:45Z</time></trkpt><trkpt lat="42.03372362660359" lon="12.022446693652874"><ele>94.25</ele><time>2026-03-28T08:27:46Z</time></trkpt><trkpt lat="42.03365667006433" lon="12.022607838673208"><ele>94.5</ele><time>2026-03-28T08:27:47Z</time></trkpt><trkpt lat="42.03361587017787" lon="12.022751727330935"><ele>94.75</ele><time>2026-03-28T08:27:48Z</time></trkpt><trkpt lat="42.03360409723452" lon="12.022904725551626"><ele>95.0</ele><time>2026-03-28T08:27:49Z</time></trkpt><trkpt lat="42.03359038875362" lon="12.02304029094355"><ele>95.0</ele><time>2026-03-28T08:27:50Z</time></trkpt><trkpt lat="42.033583180981644" lon="12.023160883333224"><ele>95.0</ele><time>2026-03-28T08:27:51Z</time></trkpt><trkpt lat="42.03356014130988" lon="12.023263285852385"><ele>95.0</ele><time>2026-03-28T08:27:52Z</time></trkpt><trkpt lat="42.0335388479237" lon="12.023345492090662"><ele>95.0</ele><time>2026-03-28T08:27:53Z</time></trkpt><trkpt lat="42.03348092117516" lon="12.023378939854227"><ele>95.0</ele><time>2026-03-28T08:27:54Z</time></trkpt><trkpt lat="42.03340148610998" lon="12.023387071615016"><ele>95.0</ele><time>2026-03-28T08:27:55Z</time></trkpt><trkpt lat="42.03329741041082" lon="12.023309800812877"><ele>92.0</ele><time>2026-03-28T08:27:56Z</time></trkpt><trkpt lat="42.033177093105174" lon="12.023291570937898"><ele>89.0</ele><time>2026-03-28T08:27:57Z</time></trkpt><trkpt lat="42.03304663006964" lon="12.023273352710756"><ele>86.0</ele><time>2026-03-28T08:27:58Z</time></trkpt><trkpt lat="42.03290709428151" lon="12.023251973547818"><ele>83.0</ele><time>2026-03-28T08:27:59Z</time></trkpt><trkpt lat="42.03276924550298" lon="12.023229569820895"><ele>83.0</ele><time>2026-03-28T08:28:00Z</time></trkpt><trkpt lat="42.03262037732657" lon="12.023206494232264"><ele>83.0</ele><time>2026-03-28T08:28:01Z</time></trkpt><trkpt lat="42.03246372065341" lon="12.023185211363884"><ele>83.0</ele><time>2026-03-28T08:28:02Z</time></trkpt><trkpt lat="42.032297473982126" lon="12.02316262563789"><ele>79.66666666666667</ele><time>2026-03-28T08:28:03Z</time></trkpt><trkpt lat="42.03212327867687" lon="12.023138960025674"><ele>76.33333333333333</ele><time>2026-03-28T08:28:04Z</time></trkpt><trkpt lat="42.031958157312886" lon="12.023134647039672"><ele>73.0</ele><time>2026-03-28T08:28:05Z</time></trkpt><trkpt lat="42.03179354762266" lon="12.023083196415566"><ele>69.66666666666666</ele><time>2026-03-28T08:28:06Z</time></trkpt><trkpt lat="42.031629494853185" lon="12.02305158841927"><ele>66.33333333333333</ele><time>2026-03-28T08:28:07Z</time></trkpt><trkpt lat="42.0314538499309" lon="12.023017746963008"><ele>63.0</ele><time>2026-03-28T08:28:08Z</time></trkpt><trkpt lat="42.031292359702164" lon="12.02300099016914"><ele>63.0</ele><time>2026-03-28T08:28:09Z</time></trkpt><trkpt lat="42.03114767194106" lon="12.022958228668715"><ele>63.0</ele><time>2026-03-28T08:28:10Z</time></trkpt><trkpt lat="42.03098965450774" lon="12.022949153359578"><ele>63.0</ele><time>2026-03-28T08:28:11Z</time></trkpt><trkpt lat="42.030834982841306" lon="12.022919603417519"><ele>60.33333333333333</ele><time>2026-03-28T08:28:12Z</time></trkpt><trkpt lat="42.03068024150164" lon="12.022892178868986"><ele>57.666666666666664</ele><time>2026-03-28T08:28:13Z</time></trkpt><trkpt lat="42.030526174973645" lon="12.022863792230915"><ele>55.0</ele><time>2026-03-28T08:28:14Z</time></trkpt><trkpt lat="42.030377609763896" lon="12.02283234594235"><ele>55.0</ele><time>2026-03-28T08:28:15Z</time></trkpt><trkpt lat="42.0302333571454" lon="12.022784451726647"><ele>55.0</ele><time>2026-03-28T08:28:16Z</time></trkpt><trkpt lat="42.030084259315565" lon="12.022756220148532"><ele>55.0</ele><time>2026-03-28T08:28:17Z</time></trkpt><trkpt lat="42.02992861410375" lon="12.022724866820592"><ele>54.75</ele><time>2026-03-28T08:28:18Z</time></trkpt><trkpt lat="42.029787097347096" lon="12.022695399012633"><ele>54.5</ele><time>2026-03-28T08:28:19Z</time></trkpt><trkpt lat="42.02966008427708" lon="12.022667198596844"><ele>54.25</ele><time>2026-03-28T08:28:20Z</time></trkpt><trkpt lat="42.02955022891629" lon="12.022644662580765"><ele>54.0</ele><time>2026-03-28T08:28:21Z</time></trkpt><trkpt lat="42.029468249907154" lon="12.022637804562024"><ele>54.0</ele><time>2026-03-28T08:28:22Z</time></trkpt><trkpt lat="42.02939259019133" lon="12.022676394759289"><ele>54.0</ele><time>2026-03-28T08:28:23Z</time></trkpt><trkpt lat="42.029328442543914" lon="12.022704399388807"><ele>54.0</ele><time>2026-03-28T08:28:24Z</time></trkpt><trkpt lat="42.029291952348444" lon="12.022811999222332"><ele>54.0</ele><time>2026-03-28T08:28:25Z</time></trkpt><trkpt lat="42.02927145000842" lon="12.022920820494182"><ele>54.0</ele><time>2026-03-28T08:28:26Z</time></trkpt><trkpt lat="42.02926955924291" lon="12.023077157384161"><ele>54.0</ele><time>2026-03-28T08:28:27Z</time></trkpt><trkpt lat="42.02926614166337" lon="12.023235004800329"><ele>53.33333333333333</ele><time>2026-03-28T08:28:28Z</time></trkpt><trkpt lat="42.02925611536078" lon="12.023423425834896"><ele>52.666666666666664</ele><time>2026-03-28T08:28:29Z</time></trkpt><trkpt lat="42.0292493192516" lon="12.023638210813893"><ele>52.0</ele><time>2026-03-28T08:28:30Z</time></trkpt><trkpt lat="42.02923406915319" lon="12.02384650919945"><ele>52.0</ele><time>2026-03-28T08:28:31Z</time></trkpt><trkpt lat="42.0292289715455" lon="12.024072547769721"><ele>52.0</ele><time>2026-03-28T08:28:32Z</time></trkpt><trkpt lat="42.029213831504" lon="12.024290268136626"><ele>52.0</ele><time>2026-03-28T08:28:33Z</time></trkpt><trkpt lat="42.02919091300118" lon="12.024510174623336"><ele>48.33333333333333</ele><time>2026-03-28T08:28:34Z</time></trkpt><trkpt lat="42.02913556616506" lon="12.02471990195999"><ele>44.666666666666664</ele><time>2026-03-28T08:28:35Z</time></trkpt><trkpt lat="42.02910007050701" lon="12.024908144876909"><ele>41.0</ele><time>2026-03-28T08:28:36Z</time></trkpt><trkpt lat="42.029038044049884" lon="12.025090720261574"><ele>41.0</ele><time>2026-03-28T08:28:37Z</time></trkpt><trkpt lat="42.028967178315014" lon="12.025246074450687"><ele>41.0</ele><time>2026-03-28T08:28:38Z</time></trkpt><trkpt lat="42.028876742045334" lon="12.025365849828633"><ele>41.0</ele><time>2026-03-28T08:28:39Z</time></trkpt><trkpt lat="42.0287935843095" lon="12.025508811873356"><ele>41.0</ele><time>2026-03-28T08:28:40Z</time></trkpt><trkpt lat="42.028675903817636" lon="12.025605618916293"><ele>41.0</ele><time>2026-03-28T08:28:41Z</time></trkpt><trkpt lat="42.02854260779323" lon="12.02568357111241"><ele>41.0</ele><time>2026-03-28T08:28:42Z</time></trkpt><trkpt lat="42.028399643528864" lon="12.02573292664529"><ele>41.0</ele><time>2026-03-28T08:28:43Z</time></trkpt><trkpt lat="42.0282454549151" lon="12.025763549148229"><ele>41.0</ele><time>2026-03-28T08:28:44Z</time></trkpt><trkpt lat="42.0280904431441" lon="12.025789570796809"><ele>42.33333333333333</ele><time>2026-03-28T08:28:45Z</time></trkpt><trkpt lat="42.02792839378126" lon="12.025817620793632"><ele>43.666666666666664</ele><time>2026-03-28T08:28:46Z</time></trkpt><trkpt lat="42.02775638022048" lon="12.025832174314642"><ele>45.0</ele><time>2026-03-28T08:28:47Z</time></trkpt><trkpt lat="42.027584414390475" lon="12.025838030613835"><ele>45.666666666666664</ele><time>2026-03-28T08:28:48Z</time></trkpt><trkpt lat="42.02741272140228" lon="12.025837142671687"><ele>46.33333333333333</ele><time>2026-03-28T08:28:49Z</time></trkpt><trkpt lat="42.02723376968839" lon="12.025844867358831"><ele>47.0</ele><time>2026-03-28T08:28:50Z</time></trkpt><trkpt lat="42.0270503632888" lon="12.025873606931516"><ele>47.0</ele><time>2026-03-28T08:28:51Z</time></trkpt><trkpt lat="42.02687173729387" lon="12.025899402880578"><ele>47.0</ele><time>2026-03-28T08:28:52Z</time></trkpt><trkpt lat="42.02669555518153" lon="12.025916880468777"><ele>47.0</ele><time>2026-03-28T08:28:53Z</time></trkpt><trkpt lat="42.02653834763048" lon="12.02591254578478"><ele>47.0</ele><time>2026-03-28T08:28:54Z</time></trkpt><trkpt lat="42.026376196171924" lon="12.025927654444988"><ele>47.0</ele><time>2026-03-28T08:28:55Z</time></trkpt><trkpt lat="42.02621682563519" lon="12.025942573017888"><ele>47.0</ele><time>2026-03-28T08:28:56Z</time></trkpt><trkpt lat="42.02604578890381" lon="12.025960057228346"><ele>47.0</ele><time>2026-03-28T08:28:57Z</time></trkpt><trkpt lat="42.02587406321716" lon="12.025979266531847"><ele>47.0</ele><time>2026-03-28T08:28:58Z</time></trkpt><trkpt lat="42.02570339425856" lon="12.02602331551751"><ele>47.0</ele><time>2026-03-28T08:28:59Z</time></trkpt><trkpt lat="42.025538818572066" lon="12.026043997869827"><ele>46.5</ele><time>2026-03-28T08:29:00Z</time></trkpt><trkpt lat="42.0253867869325" lon="12.02606368293156"><ele>46.0</ele><time>2026-03-28T08:29:01Z</time></trkpt><trkpt lat="42.02527027326824" lon="12.026091889294458"><ele>45.5</ele><time>2026-03-28T08:29:02Z</time></trkpt><trkpt lat="42.025158354831426" lon="12.026120118405045"><ele>45.0</ele><time>2026-03-28T08:29:03Z</time></trkpt><trkpt lat="42.02508725603159" lon="12.026177696808803"><ele>45.0</ele><time>2026-03-28T08:29:04Z</time></trkpt><trkpt lat="42.025037436303755" lon="12.026274783750758"><ele>45.0</ele><time>2026-03-28T08:29:05Z</time></trkpt><trkpt lat="42.025039779804494" lon="12.026421517561346"><ele>45.0</ele><time>2026-03-28T08:29:06Z</time></trkpt><trkpt lat="42.02500002801526" lon="12.026578451845165"><ele>45.0</ele><time>2026-03-28T08:29:07Z</time></trkpt><trkpt lat="42.02498160979423" lon="12.026753178506642"><ele>45.75</ele><time>2026-03-28T08:29:08Z</time></trkpt><trkpt lat="42.024953451548754" lon="12.026943030418675"><ele>46.5</ele><time>2026-03-28T08:29:09Z</time></trkpt><trkpt lat="42.024915853289414" lon="12.027132965849164"><ele>47.25</ele><time>2026-03-28T08:29:10Z</time></trkpt><trkpt lat="42.02488227094008" lon="12.027320046254296"><ele>48.0</ele><time>2026-03-28T08:29:11Z</time></trkpt><trkpt lat="42.0248448265858" lon="12.02750902840944"><ele>48.5</ele><time>2026-03-28T08:29:12Z</time></trkpt><trkpt lat="42.024805117386116" lon="12.027702111403933"><ele>49.0</ele><time>2026-03-28T08:29:13Z</time></trkpt><trkpt lat="42.02477423778519" lon="12.027892842480018"><ele>49.5</ele><time>2026-03-28T08:29:14Z</time></trkpt><trkpt lat="42.02474076485892" lon="12.028077406938388"><ele>50.0</ele><time>2026-03-28T08:29:15Z</time></trkpt><trkpt lat="42.0247103576213" lon="12.028267427750162"><ele>50.25</ele><time>2026-03-28T08:29:16Z</time></trkpt><trkpt lat="42.024684424221164" lon="12.028445884572191"><ele>50.5</ele><time>2026-03-28T08:29:17Z</time></trkpt><trkpt lat="42.02466254015357" lon="12.028615503490489"><ele>50.75</ele><time>2026-03-28T08:29:18Z</time></trkpt><trkpt lat="42.02462460380288" lon="12.028794149753663"><ele>51.0</ele><time>2026-03-28T08:29:19Z</time></trkpt><trkpt lat="42.024593178364924" lon="12.028974867816428"><ele>51.0</ele><time>2026-03-28T08:29:20Z</time></trkpt><trkpt lat="42.02457425371257" lon="12.029125610811784"><ele>51.0</ele><time>2026-03-28T08:29:21Z</time></trkpt><trkpt lat="42.024541924682204" lon="12.029260124106441"><ele>51.0</ele><time>2026-03-28T08:29:22Z</time></trkpt><trkpt lat="42.02451861465727" lon="12.02938224096093"><ele>51.0</ele><time>2026-03-28T08:29:23Z</time></trkpt><trkpt lat="42.02450165009649" lon="12.029464725962292"><ele>51.0</ele><time>2026-03-28T08:29:24Z</time></trkpt><trkpt lat="42.02446956568679" lon="12.029569813810372"><ele>50.8</ele><time>2026-03-28T08:29:29Z</time></trkpt><trkpt lat="42.02435229446581" lon="12.029537639720852"><ele>50.599999999999994</ele><time>2026-03-28T08:29:31Z</time></trkpt><trkpt lat="42.02425077837976" lon="12.02948292832021"><ele>50.4</ele><time>2026-03-28T08:29:32Z</time></trkpt><trkpt lat="42.02415072429386" lon="12.029443139492917"><ele>50.2</ele><time>2026-03-28T08:29:33Z</time></trkpt><trkpt lat="42.024042838992784" lon="12.029407815141449"><ele>50.0</ele><time>2026-03-28T08:29:34Z</time></trkpt><trkpt lat="42.02391821648742" lon="12.029357634164569"><ele>49.5</ele><time>2026-03-28T08:29:35Z</time></trkpt><trkpt lat="42.02379681660902" lon="12.029309384624357"><ele>49.0</ele><time>2026-03-28T08:29:36Z</time></trkpt><trkpt lat="42.023672801712955" lon="12.029264679031966"><ele>48.5</ele><time>2026-03-28T08:29:37Z</time></trkpt><trkpt lat="42.023538919197975" lon="12.029217528172584"><ele>48.0</ele><time>2026-03-28T08:29:38Z</time></trkpt><trkpt lat="42.02340614613979" lon="12.029172079875758"><ele>47.8</ele><time>2026-03-28T08:29:39Z</time></trkpt><trkpt lat="42.0232904405766" lon="12.029134590244226"><ele>47.599999999999994</ele><time>2026-03-28T08:29:40Z</time></trkpt><trkpt lat="42.02317628942048" lon="12.02909667767615"><ele>47.400000000000006</ele><time>2026-03-28T08:29:41Z</time></trkpt><trkpt lat="42.02308732636117" lon="12.029068944617885"><ele>47.2</ele><time>2026-03-28T08:29:42Z</time></trkpt><trkpt lat="42.02299281799382" lon="12.0290221127277"><ele>47.0</ele><time>2026-03-28T08:29:44Z</time></trkpt><trkpt lat="42.022887754764945" lon="12.02929090429855"><ele>47.0</ele><time>2026-03-28T08:29:46Z</time></trkpt><trkpt lat="42.022853839260776" lon="12.029435911995986"><ele>47.0</ele><time>2026-03-28T08:29:47Z</time></trkpt><trkpt lat="42.02278415130521" lon="12.029576124586171"><ele>47.0</ele><time>2026-03-28T08:29:48Z</time></trkpt><trkpt lat="42.02272328201286" lon="12.029729866887832"><ele>47.0</ele><time>2026-03-28T08:29:49Z</time></trkpt><trkpt lat="42.02266558406419" lon="12.029911352714867"><ele>47.25</ele><time>2026-03-28T08:29:50Z</time></trkpt><trkpt lat="42.0225870510842" lon="12.030074383140883"><ele>47.5</ele><time>2026-03-28T08:29:51Z</time></trkpt><trkpt lat="42.02252003439556" lon="12.030244878505025"><ele>47.75</ele><time>2026-03-28T08:29:52Z</time></trkpt><trkpt lat="42.022452452527766" lon="12.030416811705733"><ele>48.0</ele><time>2026-03-28T08:29:53Z</time></trkpt><trkpt lat="42.02238495447111" lon="12.030617270704862"><ele>46.333333333333336</ele><time>2026-03-28T08:29:54Z</time></trkpt><trkpt lat="42.0223113683326" lon="12.030805243424169"><ele>44.66666666666667</ele><time>2026-03-28T08:29:55Z</time></trkpt><trkpt lat="42.02223986046201" lon="12.030987239279971"><ele>43.0</ele><time>2026-03-28T08:29:56Z</time></trkpt><trkpt lat="42.02215739299707" lon="12.031158594820052"><ele>43.0</ele><time>2026-03-28T08:29:57Z</time></trkpt><trkpt lat="42.02209119937562" lon="12.031353341245104"><ele>43.0</ele><time>2026-03-28T08:29:58Z</time></trkpt><trkpt lat="42.02202116066684" lon="12.031537085432422"><ele>43.0</ele><time>2026-03-28T08:29:59Z</time></trkpt><trkpt lat="42.021950161782996" lon="12.031727751984064"><ele>43.333333333333336</ele><time>2026-03-28T08:30:00Z</time></trkpt><trkpt lat="42.02189254364729" lon="12.031920893179096"><ele>43.666666666666664</ele><time>2026-03-28T08:30:01Z</time></trkpt><trkpt lat="42.021831541306796" lon="12.032096340793611"><ele>44.0</ele><time>2026-03-28T08:30:02Z</time></trkpt><trkpt lat="42.021805540225934" lon="12.032299970811595"><ele>43.666666666666664</ele><time>2026-03-28T08:30:03Z</time></trkpt><trkpt lat="42.02179167425607" lon="12.032493253212108"><ele>43.333333333333336</ele><time>2026-03-28T08:30:04Z</time></trkpt><trkpt lat="42.0218018628442" lon="12.032682287871504"><ele>43.0</ele><time>2026-03-28T08:30:05Z</time></trkpt><trkpt lat="42.02183113996978" lon="12.03290258630361"><ele>43.0</ele><time>2026-03-28T08:30:06Z</time></trkpt><trkpt lat="42.02186612362067" lon="12.033096388844765"><ele>43.0</ele><time>2026-03-28T08:30:07Z</time></trkpt><trkpt lat="42.02188994578662" lon="12.033300255182292"><ele>43.0</ele><time>2026-03-28T08:30:08Z</time></trkpt><trkpt lat="42.02192035974916" lon="12.03351821990676"><ele>43.25</ele><time>2026-03-28T08:30:09Z</time></trkpt><trkpt lat="42.02195259530192" lon="12.033722526830044"><ele>43.5</ele><time>2026-03-28T08:30:10Z</time></trkpt><trkpt lat="42.02197759038173" lon="12.033917601400764"><ele>43.75</ele><time>2026-03-28T08:30:11Z</time></trkpt><trkpt lat="42.022003421018354" lon="12.034107326484209"><ele>44.0</ele><time>2026-03-28T08:30:12Z</time></trkpt><trkpt lat="42.02203262181574" lon="12.03430189767861"><ele>44.0</ele><time>2026-03-28T08:30:13Z</time></trkpt><trkpt lat="42.02205929802572" lon="12.03448752349633"><ele>44.0</ele><time>2026-03-28T08:30:14Z</time></trkpt><trkpt lat="42.022086072749815" lon="12.034684228137792"><ele>44.0</ele><time>2026-03-28T08:30:15Z</time></trkpt><trkpt lat="42.02211618656078" lon="12.034885069657175"><ele>44.0</ele><time>2026-03-28T08:30:16Z</time></trkpt><trkpt lat="42.02214458056363" lon="12.035091554986886"><ele>44.0</ele><time>2026-03-28T08:30:17Z</time></trkpt><trkpt lat="42.02218005241739" lon="12.035297624747495"><ele>44.0</ele><time>2026-03-28T08:30:18Z</time></trkpt><trkpt lat="42.02220282993499" lon="12.035495287232516"><ele>44.0</ele><time>2026-03-28T08:30:19Z</time></trkpt><trkpt lat="42.022231581142826" lon="12.035697451657425"><ele>43.666666666666664</ele><time>2026-03-28T08:30:20Z</time></trkpt><trkpt lat="42.02226188537975" lon="12.03590347535645"><ele>43.333333333333336</ele><time>2026-03-28T08:30:21Z</time></trkpt><trkpt lat="42.022292485279586" lon="12.036112732103119"><ele>43.0</ele><time>2026-03-28T08:30:22Z</time></trkpt><trkpt lat="42.02233010980298" lon="12.036336229900611"><ele>43.0</ele><time>2026-03-28T08:30:23Z</time></trkpt><trkpt lat="42.02236502627781" lon="12.036558143054048"><ele>43.0</ele><time>2026-03-28T08:30:24Z</time></trkpt><trkpt lat="42.02239404653868" lon="12.036765065375993"><ele>43.0</ele><time>2026-03-28T08:30:25Z</time></trkpt><trkpt lat="42.022424885039015" lon="12.036975284695636"><ele>43.0</ele><time>2026-03-28T08:30:26Z</time></trkpt><trkpt lat="42.02245412657806" lon="12.037181669037066"><ele>43.0</ele><time>2026-03-28T08:30:27Z</time></trkpt><trkpt lat="42.0224801707838" lon="12.037389529293165"><ele>43.0</ele><time>2026-03-28T08:30:28Z</time></trkpt><trkpt lat="42.02250044630501" lon="12.037579418196463"><ele>44.0</ele><time>2026-03-28T08:30:29Z</time></trkpt><trkpt lat="42.02251914540751" lon="12.037780541864059"><ele>45.0</ele><time>2026-03-28T08:30:30Z</time></trkpt><trkpt lat="42.02253196586468" lon="12.037986575996023"><ele>46.0</ele><time>2026-03-28T08:30:31Z</time></trkpt><trkpt lat="42.02254289689236" lon="12.038189468294776"><ele>45.75</ele><time>2026-03-28T08:30:32Z</time></trkpt><trkpt lat="42.02255395692216" lon="12.038385417939745"><ele>45.5</ele><time>2026-03-28T08:30:33Z</time></trkpt><trkpt lat="42.02256066632797" lon="12.038582248441562"><ele>45.25</ele><time>2026-03-28T08:30:34Z</time></trkpt><trkpt lat="42.02257234177876" lon="12.038790755252778"><ele>45.0</ele><time>2026-03-28T08:30:35Z</time></trkpt><trkpt lat="42.022585404379626" lon="12.03898908121262"><ele>44.666666666666664</ele><time>2026-03-28T08:30:36Z</time></trkpt><trkpt lat="42.02259287605682" lon="12.039196543701578"><ele>44.33333333333333</ele><time>2026-03-28T08:30:37Z</time></trkpt><trkpt lat="42.022602850540984" lon="12.03941032514018"><ele>44.0</ele><time>2026-03-28T08:30:38Z</time></trkpt><trkpt lat="42.022611400623006" lon="12.039629056020408"><ele>44.0</ele><time>2026-03-28T08:30:39Z</time></trkpt><trkpt lat="42.02262116781933" lon="12.039840547148248"><ele>44.0</ele><time>2026-03-28T08:30:40Z</time></trkpt><trkpt lat="42.02262633579241" lon="12.040054755760417"><ele>44.0</ele><time>2026-03-28T08:30:41Z</time></trkpt><trkpt lat="42.02263516290966" lon="12.040263346189057"><ele>45.0</ele><time>2026-03-28T08:30:42Z</time></trkpt><trkpt lat="42.02263831408201" lon="12.040470722996929"><ele>46.0</ele><time>2026-03-28T08:30:43Z</time></trkpt><trkpt lat="42.022648280614014" lon="12.040677538853716"><ele>47.0</ele><time>2026-03-28T08:30:44Z</time></trkpt><trkpt lat="42.022659996695566" lon="12.040880966586109"><ele>48.33333333333333</ele><time>2026-03-28T08:30:45Z</time></trkpt><trkpt lat="42.02267077070546" lon="12.04108617525993"><ele>49.666666666666664</ele><time>2026-03-28T08:30:46Z</time></trkpt><trkpt lat="42.0226726814626" lon="12.041296754230641"><ele>51.0</ele><time>2026-03-28T08:30:47Z</time></trkpt><trkpt lat="42.02268149485291" lon="12.041495062017677"><ele>51.66666666666667</ele><time>2026-03-28T08:30:48Z</time></trkpt><trkpt lat="42.02269388329899" lon="12.041707016813914"><ele>52.333333333333336</ele><time>2026-03-28T08:30:49Z</time></trkpt><trkpt lat="42.022706397138634" lon="12.041917259504704"><ele>53.0</ele><time>2026-03-28T08:30:50Z</time></trkpt><trkpt lat="42.0227182593981" lon="12.042133205422184"><ele>53.0</ele><time>2026-03-28T08:30:51Z</time></trkpt><trkpt lat="42.02273753562604" lon="12.042350791568095"><ele>53.0</ele><time>2026-03-28T08:30:52Z</time></trkpt><trkpt lat="42.022741722710634" lon="12.04257543209434"><ele>53.0</ele><time>2026-03-28T08:30:53Z</time></trkpt><trkpt lat="42.02275055519574" lon="12.042801738616584"><ele>53.66666666666667</ele><time>2026-03-28T08:30:54Z</time></trkpt><trkpt lat="42.02276744835997" lon="12.043017339167537"><ele>54.33333333333333</ele><time>2026-03-28T08:30:55Z</time></trkpt><trkpt lat="42.02278155618657" lon="12.043242498870821"><ele>55.0</ele><time>2026-03-28T08:30:56Z</time></trkpt><trkpt lat="42.022783107317764" lon="12.0434574811423"><ele>55.0</ele><time>2026-03-28T08:30:57Z</time></trkpt><trkpt lat="42.0227817684949" lon="12.043686885369778"><ele>55.0</ele><time>2026-03-28T08:30:58Z</time></trkpt><trkpt lat="42.02277652756157" lon="12.04392047196418"><ele>55.0</ele><time>2026-03-28T08:30:59Z</time></trkpt><trkpt lat="42.02276335268618" lon="12.044149951710313"><ele>53.666666666666664</ele><time>2026-03-28T08:31:00Z</time></trkpt><trkpt lat="42.02274559292114" lon="12.044388921134056"><ele>52.33333333333333</ele><time>2026-03-28T08:31:01Z</time></trkpt><trkpt lat="42.022721553154454" lon="12.044637990808237"><ele>51.0</ele><time>2026-03-28T08:31:02Z</time></trkpt><trkpt lat="42.022698206015804" lon="12.04486940353634"><ele>50.66666666666667</ele><time>2026-03-28T08:31:03Z</time></trkpt><trkpt lat="42.022687018687265" lon="12.045098109633171"><ele>50.333333333333336</ele><time>2026-03-28T08:31:04Z</time></trkpt><trkpt lat="42.022667342975794" lon="12.045339338149493"><ele>50.0</ele><time>2026-03-28T08:31:05Z</time></trkpt><trkpt lat="42.022646234762824" lon="12.045584052221892"><ele>49.66666666666667</ele><time>2026-03-28T08:31:06Z</time></trkpt><trkpt lat="42.02262794082351" lon="12.045822667431556"><ele>49.33333333333333</ele><time>2026-03-28T08:31:07Z</time></trkpt><trkpt lat="42.02260635881215" lon="12.046057121334794"><ele>49.0</ele><time>2026-03-28T08:31:08Z</time></trkpt><trkpt lat="42.022587345309525" lon="12.046299095034128"><ele>49.0</ele><time>2026-03-28T08:31:09Z</time></trkpt><trkpt lat="42.02257016904292" lon="12.046531549567844"><ele>49.0</ele><time>2026-03-28T08:31:10Z</time></trkpt><trkpt lat="42.022547274914615" lon="12.046769067268727"><ele>49.0</ele><time>2026-03-28T08:31:11Z</time></trkpt><trkpt lat="42.02252305492155" lon="12.046999009223052"><ele>49.0</ele><time>2026-03-28T08:31:12Z</time></trkpt><trkpt lat="42.022506619212216" lon="12.04722445046038"><ele>49.0</ele><time>2026-03-28T08:31:13Z</time></trkpt><trkpt lat="42.02249055791881" lon="12.047443627050388"><ele>49.0</ele><time>2026-03-28T08:31:14Z</time></trkpt><trkpt lat="42.02246909181595" lon="12.04766647776493"><ele>49.0</ele><time>2026-03-28T08:31:15Z</time></trkpt><trkpt lat="42.02245197355378" lon="12.047888456157263"><ele>49.0</ele><time>2026-03-28T08:31:16Z</time></trkpt><trkpt lat="42.022426141106486" lon="12.048112301029377"><ele>49.0</ele><time>2026-03-28T08:31:17Z</time></trkpt><trkpt lat="42.022417752884955" lon="12.04833393006345"><ele>49.0</ele><time>2026-03-28T08:31:18Z</time></trkpt><trkpt lat="42.02238690397165" lon="12.048549975472199"><ele>49.0</ele><time>2026-03-28T08:31:19Z</time></trkpt><trkpt lat="42.0223821516195" lon="12.048779576302945"><ele>49.0</ele><time>2026-03-28T08:31:20Z</time></trkpt><trkpt lat="42.02236136929773" lon="12.049012359272504"><ele>49.0</ele><time>2026-03-28T08:31:21Z</time></trkpt><trkpt lat="42.02234673351301" lon="12.049239535100629"><ele>49.0</ele><time>2026-03-28T08:31:22Z</time></trkpt><trkpt lat="42.0223302437577" lon="12.049451561638081"><ele>49.0</ele><time>2026-03-28T08:31:23Z</time></trkpt><trkpt lat="42.022306687178045" lon="12.049639487247665"><ele>49.0</ele><time>2026-03-28T08:31:24Z</time></trkpt><trkpt lat="42.022259090108804" lon="12.049808940329727"><ele>49.0</ele><time>2026-03-28T08:31:25Z</time></trkpt><trkpt lat="42.022233330798365" lon="12.049968492831423"><ele>49.0</ele><time>2026-03-28T08:31:26Z</time></trkpt><trkpt lat="42.022189146387305" lon="12.050136144071097"><ele>49.0</ele><time>2026-03-28T08:31:27Z</time></trkpt><trkpt lat="42.02214900131627" lon="12.050299246045114"><ele>49.5</ele><time>2026-03-28T08:31:28Z</time></trkpt><trkpt lat="42.02210333886666" lon="12.050465792780079"><ele>50.0</ele><time>2026-03-28T08:31:29Z</time></trkpt><trkpt lat="42.022065680473894" lon="12.05061292283841"><ele>50.5</ele><time>2026-03-28T08:31:30Z</time></trkpt><trkpt lat="42.02203179825736" lon="12.050751279586269"><ele>51.0</ele><time>2026-03-28T08:31:31Z</time></trkpt><trkpt lat="42.02198075188756" lon="12.050877585635444"><ele>51.0</ele><time>2026-03-28T08:31:32Z</time></trkpt><trkpt lat="42.021945679918296" lon="12.051005080846819"><ele>51.0</ele><time>2026-03-28T08:31:33Z</time></trkpt><trkpt lat="42.02191563319476" lon="12.051112429262066"><ele>51.0</ele><time>2026-03-28T08:31:34Z</time></trkpt><trkpt lat="42.0218930110837" lon="12.051193251587023"><ele>51.0</ele><time>2026-03-28T08:31:35Z</time></trkpt><trkpt lat="42.022045628537434" lon="12.051338881801895"><ele>51.0</ele><time>2026-03-28T08:31:39Z</time></trkpt><trkpt lat="42.02212918074581" lon="12.051362392133827"><ele>51.0</ele><time>2026-03-28T08:31:40Z</time></trkpt><trkpt lat="42.02220180132783" lon="12.051428281045991"><ele>51.0</ele><time>2026-03-28T08:31:41Z</time></trkpt><trkpt lat="42.02228986472526" lon="12.051468285055263"><ele>51.0</ele><time>2026-03-28T08:31:42Z</time></trkpt><trkpt lat="42.02238151743345" lon="12.05152102572949"><ele>51.0</ele><time>2026-03-28T08:31:43Z</time></trkpt><trkpt lat="42.022471756960904" lon="12.051587246665317"><ele>51.0</ele><time>2026-03-28T08:31:44Z</time></trkpt><trkpt lat="42.02254538005672" lon="12.051633987132586"><ele>52.166666666666664</ele><time>2026-03-28T08:31:45Z</time></trkpt><trkpt lat="42.02261126104631" lon="12.051663928794275"><ele>53.33333333333333</ele><time>2026-03-28T08:31:46Z</time></trkpt><trkpt lat="42.02266954690356" lon="12.051714068328021"><ele>54.5</ele><time>2026-03-28T08:31:47Z</time></trkpt><trkpt lat="42.02275338314311" lon="12.051766711360516"><ele>55.666666666666664</ele><time>2026-03-28T08:31:48Z</time></trkpt><trkpt lat="42.022850885636494" lon="12.051806120868807"><ele>56.83333333333333</ele><time>2026-03-28T08:31:49Z</time></trkpt><trkpt lat="42.02293751129345" lon="12.051867907547052"><ele>58.0</ele><time>2026-03-28T08:31:50Z</time></trkpt><trkpt lat="42.02301563932528" lon="12.051918025627696"><ele>58.0</ele><time>2026-03-28T08:31:51Z</time></trkpt><trkpt lat="42.02308951196837" lon="12.051972130722175"><ele>58.0</ele><time>2026-03-28T08:31:52Z</time></trkpt><trkpt lat="42.02316751517704" lon="12.052019150924188"><ele>58.0</ele><time>2026-03-28T08:31:53Z</time></trkpt><trkpt lat="42.02325781790203" lon="12.052082637556266"><ele>58.0</ele><time>2026-03-28T08:31:54Z</time></trkpt><trkpt lat="42.02334998196441" lon="12.052135630709186"><ele>58.0</ele><time>2026-03-28T08:31:55Z</time></trkpt><trkpt lat="42.023465313084664" lon="12.052207165783594"><ele>59.0</ele><time>2026-03-28T08:31:56Z</time></trkpt><trkpt lat="42.0235869537806" lon="12.05228051794051"><ele>60.0</ele><time>2026-03-28T08:31:57Z</time></trkpt><trkpt lat="42.02370462997198" lon="12.052362747437913"><ele>61.0</ele><time>2026-03-28T08:31:58Z</time></trkpt><trkpt lat="42.02382772949963" lon="12.052429623614188"><ele>62.0</ele><time>2026-03-28T08:31:59Z</time></trkpt><trkpt lat="42.023963180393075" lon="12.052517023398334"><ele>62.0</ele><time>2026-03-28T08:32:00Z</time></trkpt><trkpt lat="42.024090002311404" lon="12.052602653267428"><ele>62.0</ele><time>2026-03-28T08:32:01Z</time></trkpt><trkpt lat="42.02422400010686" lon="12.052681348450328"><ele>62.0</ele><time>2026-03-28T08:32:02Z</time></trkpt><trkpt lat="42.02435374637991" lon="12.05277058523412"><ele>62.0</ele><time>2026-03-28T08:32:03Z</time></trkpt><trkpt lat="42.02447684379034" lon="12.052850031763047"><ele>64.0</ele><time>2026-03-28T08:32:04Z</time></trkpt><trkpt lat="42.0246022207393" lon="12.052941000812202"><ele>66.0</ele><time>2026-03-28T08:32:05Z</time></trkpt><trkpt lat="42.02472892695284" lon="12.053022001533977"><ele>68.0</ele><time>2026-03-28T08:32:06Z</time></trkpt><trkpt lat="42.02486038284804" lon="12.053097564644952"><ele>70.0</ele><time>2026-03-28T08:32:07Z</time></trkpt><trkpt lat="42.024991164455585" lon="12.053171054869924"><ele>70.5</ele><time>2026-03-28T08:32:08Z</time></trkpt><trkpt lat="42.025116522521316" lon="12.05324520720007"><ele>71.0</ele><time>2026-03-28T08:32:09Z</time></trkpt><trkpt lat="42.0252342505156" lon="12.053329367851862"><ele>71.5</ele><time>2026-03-28T08:32:10Z</time></trkpt><trkpt lat="42.02535892107094" lon="12.053415994028578"><ele>72.0</ele><time>2026-03-28T08:32:11Z</time></trkpt><trkpt lat="42.025491523687684" lon="12.0534896525197"><ele>72.0</ele><time>2026-03-28T08:32:12Z</time></trkpt><trkpt lat="42.02561779852375" lon="12.053568666927784"><ele>72.0</ele><time>2026-03-28T08:32:13Z</time></trkpt><trkpt lat="42.02574717521817" lon="12.053655030573497"><ele>72.0</ele><time>2026-03-28T08:32:14Z</time></trkpt><trkpt lat="42.02587869170649" lon="12.053741686050076"><ele>72.0</ele><time>2026-03-28T08:32:15Z</time></trkpt><trkpt lat="42.02601413766682" lon="12.053823240664133"><ele>72.0</ele><time>2026-03-28T08:32:16Z</time></trkpt><trkpt lat="42.02614698749" lon="12.053901608343327"><ele>72.0</ele><time>2026-03-28T08:32:17Z</time></trkpt><trkpt lat="42.0262806117434" lon="12.053982527115581"><ele>72.0</ele><time>2026-03-28T08:32:18Z</time></trkpt><trkpt lat="42.026412569185226" lon="12.054060456441215"><ele>72.0</ele><time>2026-03-28T08:32:19Z</time></trkpt><trkpt lat="42.02654215676167" lon="12.054134177665759"><ele>73.25</ele><time>2026-03-28T08:32:20Z</time></trkpt><trkpt lat="42.02666947747637" lon="12.054227778494424"><ele>74.5</ele><time>2026-03-28T08:32:21Z</time></trkpt><trkpt lat="42.026801258540154" lon="12.054298098382418"><ele>75.75</ele><time>2026-03-28T08:32:22Z</time></trkpt><trkpt lat="42.026926879618145" lon="12.054370278130508"><ele>77.0</ele><time>2026-03-28T08:32:23Z</time></trkpt><trkpt lat="42.02703810259144" lon="12.054430504569083"><ele>77.0</ele><time>2026-03-28T08:32:24Z</time></trkpt><trkpt lat="42.027147782611166" lon="12.054493057175518"><ele>77.0</ele><time>2026-03-28T08:32:25Z</time></trkpt><trkpt lat="42.02725779098941" lon="12.054565242716201"><ele>77.0</ele><time>2026-03-28T08:32:26Z</time></trkpt><trkpt lat="42.027364096123776" lon="12.054615748638698"><ele>77.0</ele><time>2026-03-28T08:32:27Z</time></trkpt><trkpt lat="42.027466468647965" lon="12.054671576787948"><ele>78.0</ele><time>2026-03-28T08:32:28Z</time></trkpt><trkpt lat="42.027562520545096" lon="12.05474274030184"><ele>79.0</ele><time>2026-03-28T08:32:29Z</time></trkpt><trkpt lat="42.02765508184287" lon="12.054810779998602"><ele>80.0</ele><time>2026-03-28T08:32:30Z</time></trkpt><trkpt lat="42.02773829755992" lon="12.054864032498264"><ele>81.0</ele><time>2026-03-28T08:32:31Z</time></trkpt><trkpt lat="42.02780217426922" lon="12.0549064302085"><ele>82.0</ele><time>2026-03-28T08:32:32Z</time></trkpt><trkpt lat="42.0278710411819" lon="12.05495370564839"><ele>82.6</ele><time>2026-03-28T08:32:34Z</time></trkpt><trkpt lat="42.02794454246342" lon="12.055009503694281"><ele>83.19999999999999</ele><time>2026-03-28T08:32:36Z</time></trkpt><trkpt lat="42.02801905584689" lon="12.055014002188342"><ele>83.8</ele><time>2026-03-28T08:32:37Z</time></trkpt><trkpt lat="42.02811898575666" lon="12.055060441028097"><ele>84.4</ele><time>2026-03-28T08:32:38Z</time></trkpt><trkpt lat="42.02823334047699" lon="12.055122251336751"><ele>85.0</ele><time>2026-03-28T08:32:39Z</time></trkpt><trkpt lat="42.028354780647014" lon="12.055185915872741"><ele>85.0</ele><time>2026-03-28T08:32:40Z</time></trkpt><trkpt lat="42.02849425477721" lon="12.055294806886119"><ele>85.0</ele><time>2026-03-28T08:32:41Z</time></trkpt><trkpt lat="42.02863616801004" lon="12.05537622597416"><ele>85.0</ele><time>2026-03-28T08:32:42Z</time></trkpt><trkpt lat="42.02877389223702" lon="12.055468738848477"><ele>85.0</ele><time>2026-03-28T08:32:43Z</time></trkpt><trkpt lat="42.028887784756044" lon="12.055554452753766"><ele>85.0</ele><time>2026-03-28T08:32:44Z</time></trkpt><trkpt lat="42.028970272648266" lon="12.055613659455222"><ele>85.0</ele><time>2026-03-28T08:32:45Z</time></trkpt><trkpt lat="42.029043988154164" lon="12.055656370844684"><ele>85.0</ele><time>2026-03-28T08:32:46Z</time></trkpt><trkpt lat="42.02912703890387" lon="12.055664332460077"><ele>85.0</ele><time>2026-03-28T08:32:47Z</time></trkpt><trkpt lat="42.02921600628907" lon="12.055577950685217"><ele>88.0</ele><time>2026-03-28T08:32:48Z</time></trkpt><trkpt lat="42.02932074640275" lon="12.055489493517229"><ele>91.0</ele><time>2026-03-28T08:32:49Z</time></trkpt><trkpt lat="42.02942372714946" lon="12.055425597322795"><ele>94.0</ele><time>2026-03-28T08:32:50Z</time></trkpt><trkpt lat="42.02952535191305" lon="12.055365949726166"><ele>97.0</ele><time>2026-03-28T08:32:51Z</time></trkpt><trkpt lat="42.0296355166993" lon="12.055290429847524"><ele>97.0</ele><time>2026-03-28T08:32:52Z</time></trkpt><trkpt lat="42.02973998520091" lon="12.055219915919633"><ele>97.0</ele><time>2026-03-28T08:32:53Z</time></trkpt><trkpt lat="42.02984584197313" lon="12.05516468029413"><ele>97.0</ele><time>2026-03-28T08:32:54Z</time></trkpt><trkpt lat="42.02994928707817" lon="12.05511406334839"><ele>97.0</ele><time>2026-03-28T08:32:55Z</time></trkpt><trkpt lat="42.03005843115757" lon="12.055066202234272"><ele>99.0</ele><time>2026-03-28T08:32:56Z</time></trkpt><trkpt lat="42.03016634893952" lon="12.055016136989567"><ele>101.0</ele><time>2026-03-28T08:32:57Z</time></trkpt><trkpt lat="42.03028146458614" lon="12.05495424447581"><ele>103.0</ele><time>2026-03-28T08:32:58Z</time></trkpt><trkpt lat="42.03039346274007" lon="12.05488099851428"><ele>105.0</ele><time>2026-03-28T08:32:59Z</time></trkpt><trkpt lat="42.03050487283288" lon="12.054820799733509"><ele>106.2</ele><time>2026-03-28T08:33:00Z</time></trkpt><trkpt lat="42.03059233083153" lon="12.054770025683256"><ele>107.4</ele><time>2026-03-28T08:33:01Z</time></trkpt><trkpt lat="42.03067872046713" lon="12.054718185853176"><ele>108.6</ele><time>2026-03-28T08:33:02Z</time></trkpt><trkpt lat="42.03077429553442" lon="12.054651205162495"><ele>109.8</ele><time>2026-03-28T08:33:03Z</time></trkpt><trkpt lat="42.03087896112775" lon="12.054580537048958"><ele>111.0</ele><time>2026-03-28T08:33:04Z</time></trkpt><trkpt lat="42.03097675621609" lon="12.054524055204148"><ele>111.0</ele><time>2026-03-28T08:33:05Z</time></trkpt><trkpt lat="42.03106434973442" lon="12.054468727918312"><ele>111.0</ele><time>2026-03-28T08:33:06Z</time></trkpt><trkpt lat="42.03116356228013" lon="12.054427759863575"><ele>111.0</ele><time>2026-03-28T08:33:07Z</time></trkpt><trkpt lat="42.031245007214615" lon="12.054426866201386"><ele>111.0</ele><time>2026-03-28T08:33:08Z</time></trkpt><trkpt lat="42.03133589515214" lon="12.054460814987431"><ele>111.0</ele><time>2026-03-28T08:33:09Z</time></trkpt><trkpt lat="42.03143754520226" lon="12.054511416837792"><ele>111.0</ele><time>2026-03-28T08:33:10Z</time></trkpt><trkpt lat="42.031555989905414" lon="12.054573916682841"><ele>111.0</ele><time>2026-03-28T08:33:11Z</time></trkpt><trkpt lat="42.03167791291958" lon="12.05464699434684"><ele>111.0</ele><time>2026-03-28T08:33:12Z</time></trkpt><trkpt lat="42.031794072646576" lon="12.05473067546563"><ele>111.0</ele><time>2026-03-28T08:33:13Z</time></trkpt><trkpt lat="42.031918897441706" lon="12.054822970288479"><ele>111.0</ele><time>2026-03-28T08:33:14Z</time></trkpt><trkpt lat="42.03204863743982" lon="12.05492084767629"><ele>111.0</ele><time>2026-03-28T08:33:15Z</time></trkpt><trkpt lat="42.03218149242806" lon="12.055015779208698"><ele>111.0</ele><time>2026-03-28T08:33:16Z</time></trkpt><trkpt lat="42.0322875843324" lon="12.055096299897993"><ele>111.0</ele><time>2026-03-28T08:33:17Z</time></trkpt><trkpt lat="42.032388499950805" lon="12.055171928598972"><ele>111.4</ele><time>2026-03-28T08:33:18Z</time></trkpt><trkpt lat="42.0324951462968" lon="12.055242328644402"><ele>111.8</ele><time>2026-03-28T08:33:19Z</time></trkpt><trkpt lat="42.03260762469854" lon="12.05531384822229"><ele>112.20000000000002</ele><time>2026-03-28T08:33:20Z</time></trkpt><trkpt lat="42.03270622870079" lon="12.055376685990876"><ele>112.60000000000001</ele><time>2026-03-28T08:33:21Z</time></trkpt><trkpt lat="42.032783858428886" lon="12.055430900082168"><ele>113.0</ele><time>2026-03-28T08:33:22Z</time></trkpt><trkpt lat="42.03284868081061" lon="12.055485500997206"><ele>113.0</ele><time>2026-03-28T08:33:23Z</time></trkpt><trkpt lat="42.03292941731533" lon="12.055551895743696"><ele>113.00000000000001</ele><time>2026-03-28T08:33:25Z</time></trkpt><trkpt lat="42.03299566697097" lon="12.05554590434358"><ele>113.00000000000001</ele><time>2026-03-28T08:33:27Z</time></trkpt><trkpt lat="42.033067191404825" lon="12.055411229346806"><ele>113.0</ele><time>2026-03-28T08:33:29Z</time></trkpt><trkpt lat="42.033100952041885" lon="12.055283647612203"><ele>113.0</ele><time>2026-03-28T08:33:30Z</time></trkpt><trkpt lat="42.033149188351366" lon="12.055147085244064"><ele>113.0</ele><time>2026-03-28T08:33:31Z</time></trkpt><trkpt lat="42.03317982950576" lon="12.055044308512919"><ele>113.00000000000001</ele><time>2026-03-28T08:33:32Z</time></trkpt><trkpt lat="42.03321891818862" lon="12.054941986331277"><ele>113.00000000000001</ele><time>2026-03-28T08:33:33Z</time></trkpt><trkpt lat="42.03326000339933" lon="12.054820965628332"><ele>113.0</ele><time>2026-03-28T08:33:34Z</time></trkpt><trkpt lat="42.0333000321369" lon="12.054686953207463"><ele>113.0</ele><time>2026-03-28T08:33:35Z</time></trkpt><trkpt lat="42.033354273245926" lon="12.054562407656832"><ele>110.2</ele><time>2026-03-28T08:33:36Z</time></trkpt><trkpt lat="42.033399195506675" lon="12.054438274992668"><ele>107.4</ele><time>2026-03-28T08:33:37Z</time></trkpt><trkpt lat="42.03344460726821" lon="12.054327420527121"><ele>104.60000000000001</ele><time>2026-03-28T08:33:38Z</time></trkpt><trkpt lat="42.03348723538122" lon="12.054221019093884"><ele>101.80000000000001</ele><time>2026-03-28T08:33:39Z</time></trkpt><trkpt lat="42.0335298014809" lon="12.054121606481342"><ele>99.0</ele><time>2026-03-28T08:33:40Z</time></trkpt><trkpt lat="42.03356520510244" lon="12.054024095901088"><ele>97.16666666666667</ele><time>2026-03-28T08:33:41Z</time></trkpt><trkpt lat="42.03359436495108" lon="12.05392942876013"><ele>95.33333333333333</ele><time>2026-03-28T08:33:42Z</time></trkpt><trkpt lat="42.03363020218779" lon="12.053846564940276"><ele>93.5</ele><time>2026-03-28T08:33:43Z</time></trkpt><trkpt lat="42.03366789793849" lon="12.053749981684962"><ele>91.66666666666666</ele><time>2026-03-28T08:33:44Z</time></trkpt><trkpt lat="42.033700907525024" lon="12.0536363103043"><ele>89.83333333333333</ele><time>2026-03-28T08:33:45Z</time></trkpt><trkpt lat="42.0337332615184" lon="12.05354133476664"><ele>88.0</ele><time>2026-03-28T08:33:46Z</time></trkpt><trkpt lat="42.03377019129205" lon="12.053455858201842"><ele>88.0</ele><time>2026-03-28T08:33:47Z</time></trkpt><trkpt lat="42.033804699735015" lon="12.053371709293817"><ele>88.0</ele><time>2026-03-28T08:33:48Z</time></trkpt><trkpt lat="42.03383496881372" lon="12.053284213493574"><ele>88.0</ele><time>2026-03-28T08:33:49Z</time></trkpt><trkpt lat="42.033883051568075" lon="12.053134165783783"><ele>88.0</ele><time>2026-03-28T08:33:51Z</time></trkpt><trkpt lat="42.03391692038709" lon="12.053049972037345"><ele>88.0</ele><time>2026-03-28T08:33:52Z</time></trkpt><trkpt lat="42.03394244926843" lon="12.052969282509785"><ele>88.0</ele><time>2026-03-28T08:33:53Z</time></trkpt><trkpt lat="42.03396026325291" lon="12.052873413950618"><ele>86.5</ele><time>2026-03-28T08:33:54Z</time></trkpt><trkpt lat="42.03399543979298" lon="12.052782845298177"><ele>85.0</ele><time>2026-03-28T08:33:55Z</time></trkpt><trkpt lat="42.034018976515725" lon="12.052698662123529"><ele>83.5</ele><time>2026-03-28T08:33:57Z</time></trkpt><trkpt lat="42.034065689150886" lon="12.052595421711406"><ele>82.0</ele><time>2026-03-28T08:34:45Z</time></trkpt><trkpt lat="42.034083281565366" lon="12.052507456334043"><ele>80.5</ele><time>2026-03-28T08:34:46Z</time></trkpt><trkpt lat="42.03411387428426" lon="12.052413707014392"><ele>79.0</ele><time>2026-03-28T08:34:47Z</time></trkpt><trkpt lat="42.03419209460932" lon="12.052314528548616"><ele>78.60000000000001</ele><time>2026-03-28T08:34:49Z</time></trkpt><trkpt lat="42.03429614354341" lon="12.052357253398574"><ele>78.2</ele><time>2026-03-28T08:34:51Z</time></trkpt><trkpt lat="42.03435367699582" lon="12.05242847224347"><ele>77.80000000000001</ele><time>2026-03-28T08:34:52Z</time></trkpt><trkpt lat="42.03442889653037" lon="12.05250876182999"><ele>77.4</ele><time>2026-03-28T08:34:53Z</time></trkpt><trkpt lat="42.03450641954974" lon="12.052516990250217"><ele>77.0</ele><time>2026-03-28T08:34:54Z</time></trkpt><trkpt lat="42.034607543852296" lon="12.052498931080727"><ele>77.0</ele><time>2026-03-28T08:34:55Z</time></trkpt><trkpt lat="42.03468730987938" lon="12.052501176437241"><ele>77.0</ele><time>2026-03-28T08:34:56Z</time></trkpt><trkpt lat="42.034760848145204" lon="12.052499891753378"><ele>77.0</ele><time>2026-03-28T08:34:57Z</time></trkpt><trkpt lat="42.034840194502195" lon="12.0524839189466"><ele>77.0</ele><time>2026-03-28T08:34:58Z</time></trkpt><trkpt lat="42.034920756061574" lon="12.05244756525348"><ele>77.0</ele><time>2026-03-28T08:34:59Z</time></trkpt><trkpt lat="42.03498997403927" lon="12.05243486853704"><ele>77.0</ele><time>2026-03-28T08:35:00Z</time></trkpt><trkpt lat="42.03509832171044" lon="12.05240046428052"><ele>77.0</ele><time>2026-03-28T08:35:02Z</time></trkpt><trkpt lat="42.035186888774895" lon="12.052424017686421"><ele>77.0</ele><time>2026-03-28T08:35:05Z</time></trkpt><trkpt lat="42.03524573494669" lon="12.05248500407755"><ele>77.0</ele><time>2026-03-28T08:35:06Z</time></trkpt><trkpt lat="42.03532111415713" lon="12.052532864073415"><ele>77.0</ele><time>2026-03-28T08:35:07Z</time></trkpt><trkpt lat="42.0353880126869" lon="12.052581741814452"><ele>77.0</ele><time>2026-03-28T08:35:08Z</time></trkpt><trkpt lat="42.03546437508056" lon="12.05264249972231"><ele>77.0</ele><time>2026-03-28T08:35:09Z</time></trkpt><trkpt lat="42.03553855039895" lon="12.052707389876232"><ele>77.33333333333334</ele><time>2026-03-28T08:35:10Z</time></trkpt><trkpt lat="42.035615808937735" lon="12.052763118247002"><ele>77.66666666666667</ele><time>2026-03-28T08:35:11Z</time></trkpt><trkpt lat="42.035678492568145" lon="12.052829591705365"><ele>78.0</ele><time>2026-03-28T08:35:12Z</time></trkpt><trkpt lat="42.035727012559846" lon="12.052900821245714"><ele>78.33333333333333</ele><time>2026-03-28T08:35:13Z</time></trkpt><trkpt lat="42.035780444380585" lon="12.0529726163985"><ele>78.66666666666666</ele><time>2026-03-28T08:35:14Z</time></trkpt><trkpt lat="42.035831681662074" lon="12.0530404516119"><ele>79.0</ele><time>2026-03-28T08:35:15Z</time></trkpt><trkpt lat="42.03588542875996" lon="12.053117029282715"><ele>79.0</ele><time>2026-03-28T08:35:16Z</time></trkpt><trkpt lat="42.035942252369566" lon="12.053183675179952"><ele>79.0</ele><time>2026-03-28T08:35:17Z</time></trkpt><trkpt lat="42.03601964039421" lon="12.05321158592206"><ele>79.0</ele><time>2026-03-28T08:35:18Z</time></trkpt><trkpt lat="42.0361091055772" lon="12.053242776656624"><ele>79.0</ele><time>2026-03-28T08:35:19Z</time></trkpt><trkpt lat="42.036165429295934" lon="12.053311518040125"><ele>79.0</ele><time>2026-03-28T08:35:20Z</time></trkpt><trkpt lat="42.036275056641145" lon="12.053379446280097"><ele>79.0</ele><time>2026-03-28T08:35:22Z</time></trkpt><trkpt lat="42.03635007945847" lon="12.053397324754652"><ele>80.0</ele><time>2026-03-28T08:35:24Z</time></trkpt><trkpt lat="42.03647201152594" lon="12.053432412952304"><ele>81.0</ele><time>2026-03-28T08:35:27Z</time></trkpt><trkpt lat="42.03654506062638" lon="12.053487928373134"><ele>82.0</ele><time>2026-03-28T08:35:28Z</time></trkpt><trkpt lat="42.03663558406082" lon="12.05351209499886"><ele>83.0</ele><time>2026-03-28T08:35:29Z</time></trkpt><trkpt lat="42.0367240667463" lon="12.053500794738888"><ele>84.0</ele><time>2026-03-28T08:35:30Z</time></trkpt><trkpt lat="42.03683083294631" lon="12.053516885615991"><ele>84.0</ele><time>2026-03-28T08:35:31Z</time></trkpt><trkpt lat="42.03694927154348" lon="12.053505791334613"><ele>84.0</ele><time>2026-03-28T08:35:32Z</time></trkpt><trkpt lat="42.03703844667794" lon="12.0534797806853"><ele>84.0</ele><time>2026-03-28T08:35:33Z</time></trkpt><trkpt lat="42.03713050942924" lon="12.05348648638028"><ele>84.0</ele><time>2026-03-28T08:35:34Z</time></trkpt><trkpt lat="42.03722753770306" lon="12.053469085259476"><ele>84.0</ele><time>2026-03-28T08:35:35Z</time></trkpt><trkpt lat="42.03732714558383" lon="12.053475651900222"><ele>84.0</ele><time>2026-03-28T08:35:36Z</time></trkpt><trkpt lat="42.037420786292195" lon="12.053469170651345"><ele>84.0</ele><time>2026-03-28T08:35:37Z</time></trkpt><trkpt lat="42.03753439732004" lon="12.053420081300223"><ele>84.0</ele><time>2026-03-28T08:35:39Z</time></trkpt><trkpt lat="42.03765196079948" lon="12.053400258812847"><ele>84.0</ele><time>2026-03-28T08:35:41Z</time></trkpt><trkpt lat="42.03776304311758" lon="12.053422877689503"><ele>84.0</ele><time>2026-03-28T08:35:42Z</time></trkpt><trkpt lat="42.03786350759385" lon="12.053439650713907"><ele>84.0</ele><time>2026-03-28T08:35:43Z</time></trkpt><trkpt lat="42.03795184815546" lon="12.053449325660276"><ele>84.0</ele><time>2026-03-28T08:35:44Z</time></trkpt><trkpt lat="42.038025701920645" lon="12.053453637858977"><ele>84.0</ele><time>2026-03-28T08:35:45Z</time></trkpt><trkpt lat="42.03811974030773" lon="12.053483979578344"><ele>84.0</ele><time>2026-03-28T08:35:47Z</time></trkpt><trkpt lat="42.03820662171631" lon="12.053537770111749"><ele>84.0</ele><time>2026-03-28T08:35:49Z</time></trkpt><trkpt lat="42.03824823021447" lon="12.053628621890919"><ele>84.0</ele><time>2026-03-28T08:35:50Z</time></trkpt><trkpt lat="42.038289544825794" lon="12.05372147905285"><ele>84.80000000000001</ele><time>2026-03-28T08:35:51Z</time></trkpt><trkpt lat="42.03831860997572" lon="12.053799826442628"><ele>85.60000000000001</ele><time>2026-03-28T08:35:52Z</time></trkpt><trkpt lat="42.03833064687902" lon="12.054012633224353"><ele>86.4</ele><time>2026-03-28T08:35:54Z</time></trkpt><trkpt lat="42.03831611301655" lon="12.054129977891613"><ele>87.2</ele><time>2026-03-28T08:35:55Z</time></trkpt><trkpt lat="42.03830968055457" lon="12.054222836225739"><ele>88.0</ele><time>2026-03-28T08:35:56Z</time></trkpt><trkpt lat="42.03831915902214" lon="12.054369527265495"><ele>88.66666666666666</ele><time>2026-03-28T08:35:58Z</time></trkpt><trkpt lat="42.03832984823785" lon="12.054505006209236"><ele>89.33333333333333</ele><time>2026-03-28T08:36:02Z</time></trkpt><trkpt lat="42.03832796472345" lon="12.054615439778551"><ele>90.0</ele><time>2026-03-28T08:36:03Z</time></trkpt><trkpt lat="42.03831932804678" lon="12.054732260326642"><ele>90.66666666666667</ele><time>2026-03-28T08:36:04Z</time></trkpt><trkpt lat="42.038330772021204" lon="12.054829600135713"><ele>91.33333333333334</ele><time>2026-03-28T08:36:05Z</time></trkpt><trkpt lat="42.03833241113044" lon="12.054918406180924"><ele>92.0</ele><time>2026-03-28T08:36:06Z</time></trkpt><trkpt lat="42.03831987000576" lon="12.055006387212122"><ele>94.19999999999999</ele><time>2026-03-28T08:36:07Z</time></trkpt><trkpt lat="42.038342369794165" lon="12.05518843383738"><ele>96.4</ele><time>2026-03-28T08:36:09Z</time></trkpt><trkpt lat="42.03838075923653" lon="12.05532017366875"><ele>98.6</ele><time>2026-03-28T08:36:10Z</time></trkpt><trkpt lat="42.03842284843101" lon="12.055449367242119"><ele>100.80000000000001</ele><time>2026-03-28T08:36:11Z</time></trkpt><trkpt lat="42.038469058548365" lon="12.055515708490864"><ele>103.0</ele><time>2026-03-28T08:36:12Z</time></trkpt><trkpt lat="42.038521812715096" lon="12.05560527726731"><ele>103.0</ele><time>2026-03-28T08:36:14Z</time></trkpt><trkpt lat="42.038473321328354" lon="12.055718221296477"><ele>103.0</ele><time>2026-03-28T08:36:17Z</time></trkpt><trkpt lat="42.03845650404111" lon="12.055845957900495"><ele>103.0</ele><time>2026-03-28T08:36:19Z</time></trkpt><trkpt lat="42.03844641688157" lon="12.056025955977354"><ele>103.0</ele><time>2026-03-28T08:36:20Z</time></trkpt><trkpt lat="42.03844352750728" lon="12.056173074960352"><ele>103.0</ele><time>2026-03-28T08:36:21Z</time></trkpt><trkpt lat="42.03845678807938" lon="12.056295341304802"><ele>104.33333333333334</ele><time>2026-03-28T08:36:23Z</time></trkpt><trkpt lat="42.03851774969054" lon="12.056368958496517"><ele>105.66666666666667</ele><time>2026-03-28T08:36:25Z</time></trkpt><trkpt lat="42.038541210582146" lon="12.056467736409996"><ele>107.0</ele><time>2026-03-28T08:36:32Z</time></trkpt><trkpt lat="42.03856990306457" lon="12.056616489017031"><ele>108.33333333333334</ele><time>2026-03-28T08:36:35Z</time></trkpt><trkpt lat="42.038562325774556" lon="12.056727717208279"><ele>109.66666666666667</ele><time>2026-03-28T08:36:37Z</time></trkpt><trkpt lat="42.03855152477286" lon="12.056819462696133"><ele>111.0</ele><time>2026-03-28T08:36:39Z</time></trkpt><trkpt lat="42.03852784360943" lon="12.056909336267218"><ele>112.0</ele><time>2026-03-28T08:36:41Z</time></trkpt><trkpt lat="42.038664749918496" lon="12.057058244773573"><ele>113.0</ele><time>2026-03-28T08:36:43Z</time></trkpt><trkpt lat="42.03864778197605" lon="12.057147945647717"><ele>114.0</ele><time>2026-03-28T08:36:45Z</time></trkpt><trkpt lat="42.03867797815265" lon="12.05723499813449"><ele>115.0</ele><time>2026-03-28T08:36:47Z</time></trkpt><trkpt lat="42.03874162444636" lon="12.05733571843146"><ele>116.0</ele><time>2026-03-28T08:36:49Z</time></trkpt><trkpt lat="42.038750349595155" lon="12.057449518384226"><ele>118.49999999999999</ele><time>2026-03-28T08:36:51Z</time></trkpt><trkpt lat="42.03878890500728" lon="12.057531856729488"><ele>121.0</ele><time>2026-03-28T08:36:53Z</time></trkpt><trkpt lat="42.03883003717295" lon="12.057605755467357"><ele>123.5</ele><time>2026-03-28T08:36:55Z</time></trkpt><trkpt lat="42.03894025399247" lon="12.05761557037959"><ele>126.0</ele><time>2026-03-28T08:36:58Z</time></trkpt><trkpt lat="42.03901598194629" lon="12.057687842648063"><ele>128.5</ele><time>2026-03-28T08:37:00Z</time></trkpt><trkpt lat="42.03910810110732" lon="12.057726109793304"><ele>131.0</ele><time>2026-03-28T08:37:03Z</time></trkpt><trkpt lat="42.039150116603906" lon="12.057799851844626"><ele>127.33333333333333</ele><time>2026-03-28T08:37:06Z</time></trkpt><trkpt lat="42.03920871931761" lon="12.057833237787374"><ele>123.66666666666666</ele><time>2026-03-28T08:37:08Z</time></trkpt><trkpt lat="42.039209152001405" lon="12.05794994249397"><ele>120.0</ele><time>2026-03-28T08:37:09Z</time></trkpt><trkpt lat="42.03922017694667" lon="12.058071922271333"><ele>116.33333333333334</ele><time>2026-03-28T08:37:11Z</time></trkpt><trkpt lat="42.03927045971466" lon="12.058129097882734"><ele>112.66666666666667</ele><time>2026-03-28T08:37:13Z</time></trkpt><trkpt lat="42.039298586543545" lon="12.058207792372947"><ele>109.0</ele><time>2026-03-28T08:37:17Z</time></trkpt><trkpt lat="42.03954399343236" lon="12.05854306059575"><ele>109.0</ele><time>2026-03-28T08:37:28Z</time></trkpt><trkpt lat="42.039818165672614" lon="12.058629694188992"><ele>109.0</ele><time>2026-03-28T08:37:38Z</time></trkpt><trkpt lat="42.03988355742056" lon="12.058640221993468"><ele>109.0</ele><time>2026-03-28T08:37:55Z</time></trkpt><trkpt lat="42.03993868663267" lon="12.058693479817075"><ele>109.0</ele><time>2026-03-28T08:38:02Z</time></trkpt><trkpt lat="42.0399685308258" lon="12.058786381667513"><ele>109.00000000000001</ele><time>2026-03-28T08:38:08Z</time></trkpt><trkpt lat="42.040020685435415" lon="12.05870526390338"><ele>109.0</ele><time>2026-03-28T08:44:42Z</time></trkpt><trkpt lat="42.039956156421674" lon="12.058682185495778"><ele>109.0</ele><time>2026-03-28T08:44:51Z</time></trkpt><trkpt lat="42.03989244347091" lon="12.058643640035454"><ele>109.0</ele><time>2026-03-28T08:44:58Z</time></trkpt><trkpt lat="42.0398436896713" lon="12.058533463785231"><ele>109.00000000000001</ele><time>2026-03-28T08:48:37Z</time></trkpt><trkpt lat="42.03974872887079" lon="12.058424623961546"><ele>109.0</ele><time>2026-03-28T08:48:40Z</time></trkpt><trkpt lat="42.03969459108928" lon="12.058367484658271"><ele>107.2</ele><time>2026-03-28T08:48:41Z</time></trkpt><trkpt lat="42.03963324260086" lon="12.058257904919133"><ele>105.4</ele><time>2026-03-28T08:48:43Z</time></trkpt><trkpt lat="42.03950884677826" lon="12.058219819215232"><ele>103.6</ele><time>2026-03-28T08:48:46Z</time></trkpt><trkpt lat="42.03946847689927" lon="12.058128237088338"><ele>101.8</ele><time>2026-03-28T08:48:49Z</time></trkpt><trkpt lat="42.03940285127523" lon="12.058059800069952"><ele>100.0</ele><time>2026-03-28T08:49:14Z</time></trkpt><trkpt lat="42.03930862829279" lon="12.058041359251586"><ele>100.00000000000001</ele><time>2026-03-28T08:49:16Z</time></trkpt><trkpt lat="42.03924381301304" lon="12.058065815365916"><ele>100.0</ele><time>2026-03-28T08:49:17Z</time></trkpt><trkpt lat="42.039153248565825" lon="12.058029868970031"><ele>100.0</ele><time>2026-03-28T08:49:19Z</time></trkpt><trkpt lat="42.03908905354208" lon="12.057995517297151"><ele>100.0</ele><time>2026-03-28T08:49:21Z</time></trkpt><trkpt lat="42.039002005441766" lon="12.05793067164327"><ele>100.00000000000001</ele><time>2026-03-28T08:49:23Z</time></trkpt><trkpt lat="42.03895282754596" lon="12.057841442333698"><ele>100.0</ele><time>2026-03-28T08:49:25Z</time></trkpt><trkpt lat="42.038882857321795" lon="12.057748583994943"><ele>102.66666666666667</ele><time>2026-03-28T08:49:27Z</time></trkpt><trkpt lat="42.038814810957504" lon="12.05769148971555"><ele>105.33333333333334</ele><time>2026-03-28T08:49:29Z</time></trkpt><trkpt lat="42.038783596557444" lon="12.057572789295982"><ele>108.0</ele><time>2026-03-28T08:49:31Z</time></trkpt><trkpt lat="42.038733554745356" lon="12.057472853386601"><ele>110.66666666666666</ele><time>2026-03-28T08:49:32Z</time></trkpt><trkpt lat="42.03870354962674" lon="12.057369048188633"><ele>113.33333333333333</ele><time>2026-03-28T08:49:33Z</time></trkpt><trkpt lat="42.03870030066617" lon="12.057254354758854"><ele>116.0</ele><time>2026-03-28T08:49:34Z</time></trkpt><trkpt lat="42.038677422383984" lon="12.05709898547133"><ele>115.99999999999999</ele><time>2026-03-28T08:49:35Z</time></trkpt><trkpt lat="42.038652172924884" lon="12.056984971269738"><ele>116.0</ele><time>2026-03-28T08:49:36Z</time></trkpt><trkpt lat="42.03862892238469" lon="12.056880948587144"><ele>116.0</ele><time>2026-03-28T08:49:38Z</time></trkpt><trkpt lat="42.038631538552266" lon="12.05678245844924"><ele>116.0</ele><time>2026-03-28T08:49:39Z</time></trkpt><trkpt lat="42.03864551466839" lon="12.056690423485808"><ele>115.99999999999999</ele><time>2026-03-28T08:49:40Z</time></trkpt><trkpt lat="42.0386227617459" lon="12.05655420190289"><ele>116.0</ele><time>2026-03-28T08:49:42Z</time></trkpt><trkpt lat="42.038600061938276" lon="12.05647279948112"><ele>115.0</ele><time>2026-03-28T08:49:43Z</time></trkpt><trkpt lat="42.038559734962156" lon="12.056381497084358"><ele>114.0</ele><time>2026-03-28T08:49:44Z</time></trkpt><trkpt lat="42.03850899344147" lon="12.056256761593483"><ele>113.0</ele><time>2026-03-28T08:49:46Z</time></trkpt><trkpt lat="42.03841650016363" lon="12.056226319566377"><ele>112.0</ele><time>2026-03-28T08:49:49Z</time></trkpt><trkpt lat="42.03843693523752" lon="12.056022207412372"><ele>111.0</ele><time>2026-03-28T08:49:52Z</time></trkpt><trkpt lat="42.03843792559187" lon="12.055915994063593"><ele>111.0</ele><time>2026-03-28T08:49:53Z</time></trkpt><trkpt lat="42.03842671597248" lon="12.055790156186333"><ele>111.0</ele><time>2026-03-28T08:49:54Z</time></trkpt><trkpt lat="42.0384042462483" lon="12.055644665357606"><ele>111.0</ele><time>2026-03-28T08:49:55Z</time></trkpt><trkpt lat="42.03839655554398" lon="12.055507156350862"><ele>111.0</ele><time>2026-03-28T08:49:57Z</time></trkpt><trkpt lat="42.03834151435816" lon="12.055418245872941"><ele>111.0</ele><time>2026-03-28T08:50:01Z</time></trkpt><trkpt lat="42.0383224220668" lon="12.055304135033497"><ele>109.4</ele><time>2026-03-28T08:50:02Z</time></trkpt><trkpt lat="42.03834682870438" lon="12.055180517520506"><ele>107.8</ele><time>2026-03-28T08:50:03Z</time></trkpt><trkpt lat="42.038357110792" lon="12.05507064729923"><ele>106.2</ele><time>2026-03-28T08:50:04Z</time></trkpt><trkpt lat="42.038323959408686" lon="12.054971230550011"><ele>104.60000000000001</ele><time>2026-03-28T08:50:05Z</time></trkpt><trkpt lat="42.038373176086395" lon="12.054886987977893"><ele>103.0</ele><time>2026-03-28T08:50:06Z</time></trkpt><trkpt lat="42.038368310288604" lon="12.054727037541705"><ele>101.16666666666667</ele><time>2026-03-28T08:50:08Z</time></trkpt><trkpt lat="42.03834688825228" lon="12.054634125008448"><ele>99.33333333333334</ele><time>2026-03-28T08:50:09Z</time></trkpt><trkpt lat="42.03832887161406" lon="12.054538951203353"><ele>97.5</ele><time>2026-03-28T08:50:10Z</time></trkpt><trkpt lat="42.03831988965886" lon="12.054434111021521"><ele>95.66666666666667</ele><time>2026-03-28T08:50:11Z</time></trkpt><trkpt lat="42.03831874984661" lon="12.054339148215611"><ele>93.83333333333334</ele><time>2026-03-28T08:50:13Z</time></trkpt><trkpt lat="42.03831230290247" lon="12.054174680499731"><ele>92.0</ele><time>2026-03-28T08:50:16Z</time></trkpt><trkpt lat="42.03831015519789" lon="12.054045731840798"><ele>90.66666666666667</ele><time>2026-03-28T08:50:17Z</time></trkpt><trkpt lat="42.0382758910012" lon="12.053933665673956"><ele>89.33333333333334</ele><time>2026-03-28T08:50:18Z</time></trkpt><trkpt lat="42.038285541322786" lon="12.053819087945385"><ele>88.0</ele><time>2026-03-28T08:50:19Z</time></trkpt><trkpt lat="42.03827621068708" lon="12.05372851077244"><ele>86.66666666666667</ele><time>2026-03-28T08:50:20Z</time></trkpt><trkpt lat="42.038251312597694" lon="12.053646925642969"><ele>85.33333333333333</ele><time>2026-03-28T08:50:21Z</time></trkpt><trkpt lat="42.038216575431505" lon="12.053566009281868"><ele>84.0</ele><time>2026-03-28T08:50:22Z</time></trkpt><trkpt lat="42.03815269858594" lon="12.053512604762293"><ele>84.0</ele><time>2026-03-28T08:50:23Z</time></trkpt><trkpt lat="42.03807256001371" lon="12.053455933863368"><ele>84.0</ele><time>2026-03-28T08:50:25Z</time></trkpt><trkpt lat="42.0379415355057" lon="12.053470078406969"><ele>84.0</ele><time>2026-03-28T08:50:27Z</time></trkpt><trkpt lat="42.03783918760653" lon="12.053453632996746"><ele>84.0</ele><time>2026-03-28T08:50:28Z</time></trkpt><trkpt lat="42.03774875872366" lon="12.053442015719337"><ele>84.0</ele><time>2026-03-28T08:50:29Z</time></trkpt><trkpt lat="42.037658078517346" lon="12.053432702891936"><ele>84.0</ele><time>2026-03-28T08:50:30Z</time></trkpt><trkpt lat="42.03757868587672" lon="12.053425603052366"><ele>84.0</ele><time>2026-03-28T08:50:31Z</time></trkpt><trkpt lat="42.037455905985574" lon="12.053431179098267"><ele>84.0</ele><time>2026-03-28T08:50:33Z</time></trkpt><trkpt lat="42.03734468360505" lon="12.053492193049323"><ele>84.0</ele><time>2026-03-28T08:50:35Z</time></trkpt><trkpt lat="42.03728072454301" lon="12.053506862313286"><ele>84.0</ele><time>2026-03-28T08:50:36Z</time></trkpt><trkpt lat="42.03721267064407" lon="12.05351429449942"><ele>84.0</ele><time>2026-03-28T08:50:37Z</time></trkpt><trkpt lat="42.0371469180995" lon="12.053557638009028"><ele>84.0</ele><time>2026-03-28T08:50:38Z</time></trkpt><trkpt lat="42.03707656302616" lon="12.053558064970971"><ele>84.0</ele><time>2026-03-28T08:50:39Z</time></trkpt><trkpt lat="42.03700041964421" lon="12.053561201945238"><ele>84.0</ele><time>2026-03-28T08:50:40Z</time></trkpt><trkpt lat="42.03691341302322" lon="12.053563826629802"><ele>84.0</ele><time>2026-03-28T08:50:41Z</time></trkpt><trkpt lat="42.03682959805732" lon="12.053570219804488"><ele>84.0</ele><time>2026-03-28T08:50:42Z</time></trkpt><trkpt lat="42.03674835085603" lon="12.05355585480871"><ele>84.0</ele><time>2026-03-28T08:50:43Z</time></trkpt><trkpt lat="42.036680771237926" lon="12.053536805783853"><ele>84.0</ele><time>2026-03-28T08:50:44Z</time></trkpt><trkpt lat="42.03661141937866" lon="12.053532801730132"><ele>84.0</ele><time>2026-03-28T08:50:45Z</time></trkpt><trkpt lat="42.036550301186054" lon="12.053502388341554"><ele>84.0</ele><time>2026-03-28T08:50:46Z</time></trkpt><trkpt lat="42.036491829002514" lon="12.053467535080177"><ele>84.0</ele><time>2026-03-28T08:50:47Z</time></trkpt><trkpt lat="42.03642791226162" lon="12.053428852761307"><ele>84.0</ele><time>2026-03-28T08:50:48Z</time></trkpt><trkpt lat="42.036363172403846" lon="12.053392997247709"><ele>84.0</ele><time>2026-03-28T08:50:49Z</time></trkpt><trkpt lat="42.03628039429709" lon="12.05337439961148"><ele>84.6</ele><time>2026-03-28T08:50:50Z</time></trkpt><trkpt lat="42.036214737367175" lon="12.053345646134828"><ele>85.2</ele><time>2026-03-28T08:50:51Z</time></trkpt><trkpt lat="42.03608423160976" lon="12.053258094635012"><ele>85.8</ele><time>2026-03-28T08:50:53Z</time></trkpt><trkpt lat="42.035993394218075" lon="12.053193322318334"><ele>86.39999999999999</ele><time>2026-03-28T08:50:54Z</time></trkpt><trkpt lat="42.03592796956167" lon="12.053150841564806"><ele>87.0</ele><time>2026-03-28T08:50:55Z</time></trkpt><trkpt lat="42.035841712380964" lon="12.053095774013611"><ele>85.66666666666667</ele><time>2026-03-28T08:50:56Z</time></trkpt><trkpt lat="42.03578503511094" lon="12.053036858302468"><ele>84.33333333333333</ele><time>2026-03-28T08:50:57Z</time></trkpt><trkpt lat="42.03572715567886" lon="12.052965278180862"><ele>83.0</ele><time>2026-03-28T08:50:58Z</time></trkpt><trkpt lat="42.03568135665626" lon="12.052868137811977"><ele>81.66666666666666</ele><time>2026-03-28T08:50:59Z</time></trkpt><trkpt lat="42.035617941953504" lon="12.052791640293854"><ele>80.33333333333333</ele><time>2026-03-28T08:51:00Z</time></trkpt><trkpt lat="42.03555369979646" lon="12.052720831415776"><ele>79.0</ele><time>2026-03-28T08:51:01Z</time></trkpt><trkpt lat="42.03547474182691" lon="12.052648352372124"><ele>79.0</ele><time>2026-03-28T08:51:02Z</time></trkpt><trkpt lat="42.03540907929417" lon="12.05258238870908"><ele>79.0</ele><time>2026-03-28T08:51:03Z</time></trkpt><trkpt lat="42.035326797836895" lon="12.05253467414054"><ele>79.0</ele><time>2026-03-28T08:51:04Z</time></trkpt><trkpt lat="42.03525205820365" lon="12.05249934634394"><ele>79.0</ele><time>2026-03-28T08:51:05Z</time></trkpt><trkpt lat="42.03518986578313" lon="12.052454196721152"><ele>79.0</ele><time>2026-03-28T08:51:06Z</time></trkpt><trkpt lat="42.03511362852682" lon="12.05239906497049"><ele>79.0</ele><time>2026-03-28T08:51:08Z</time></trkpt><trkpt lat="42.0350160871325" lon="12.052405525410848"><ele>78.66666666666666</ele><time>2026-03-28T08:51:10Z</time></trkpt><trkpt lat="42.034934547580555" lon="12.052451934256952"><ele>78.33333333333333</ele><time>2026-03-28T08:51:11Z</time></trkpt><trkpt lat="42.0348404886872" lon="12.052469328325486"><ele>78.0</ele><time>2026-03-28T08:51:12Z</time></trkpt><trkpt lat="42.034769644662155" lon="12.052482437491207"><ele>77.66666666666667</ele><time>2026-03-28T08:51:13Z</time></trkpt><trkpt lat="42.03471088704234" lon="12.052536795290958"><ele>77.33333333333334</ele><time>2026-03-28T08:51:14Z</time></trkpt><trkpt lat="42.034632733576544" lon="12.052544676719338"><ele>77.0</ele><time>2026-03-28T08:51:15Z</time></trkpt><trkpt lat="42.03452861108096" lon="12.052493643405736"><ele>77.0</ele><time>2026-03-28T08:51:16Z</time></trkpt><trkpt lat="42.03443816652536" lon="12.052475464080572"><ele>77.0</ele><time>2026-03-28T08:51:17Z</time></trkpt><trkpt lat="42.03436691664806" lon="12.052454613978622"><ele>77.0</ele><time>2026-03-28T08:51:18Z</time></trkpt><trkpt lat="42.03429423430362" lon="12.05236701992299"><ele>77.0</ele><time>2026-03-28T08:51:20Z</time></trkpt><trkpt lat="42.03424122735522" lon="12.052303214285882"><ele>77.0</ele><time>2026-03-28T08:51:21Z</time></trkpt><trkpt lat="42.03416862752784" lon="12.052338569805203"><ele>77.0</ele><time>2026-03-28T08:51:23Z</time></trkpt><trkpt lat="42.03413828464786" lon="12.052418835942692"><ele>77.33333333333334</ele><time>2026-03-28T08:51:24Z</time></trkpt><trkpt lat="42.034095962479434" lon="12.052546893059016"><ele>77.66666666666667</ele><time>2026-03-28T08:51:26Z</time></trkpt><trkpt lat="42.03407241072884" lon="12.052649889967936"><ele>78.0</ele><time>2026-03-28T08:51:42Z</time></trkpt><trkpt lat="42.03403388658562" lon="12.05273133367659"><ele>78.33333333333333</ele><time>2026-03-28T08:51:58Z</time></trkpt><trkpt lat="42.03401007007782" lon="12.052830313352395"><ele>78.66666666666666</ele><time>2026-03-28T08:52:00Z</time></trkpt><trkpt lat="42.03395823218497" lon="12.0529427490794"><ele>79.0</ele><time>2026-03-28T08:52:02Z</time></trkpt><trkpt lat="42.03389980944175" lon="12.053082806692656"><ele>79.0</ele><time>2026-03-28T08:52:04Z</time></trkpt><trkpt lat="42.033857477922076" lon="12.053207333947276"><ele>79.0</ele><time>2026-03-28T08:52:06Z</time></trkpt><trkpt lat="42.03381811099739" lon="12.053336528208696"><ele>79.0</ele><time>2026-03-28T08:52:08Z</time></trkpt><trkpt lat="42.03376837518313" lon="12.053477303079765"><ele>79.0</ele><time>2026-03-28T08:52:10Z</time></trkpt><trkpt lat="42.03374047333347" lon="12.053564754003194"><ele>79.0</ele><time>2026-03-28T08:52:11Z</time></trkpt><trkpt lat="42.03366657527001" lon="12.053707515725007"><ele>80.80000000000001</ele><time>2026-03-28T08:52:13Z</time></trkpt><trkpt lat="42.03363680456583" lon="12.053833835225259"><ele>82.60000000000001</ele><time>2026-03-28T08:52:14Z</time></trkpt><trkpt lat="42.033591514153855" lon="12.053960137910302"><ele>84.4</ele><time>2026-03-28T08:52:15Z</time></trkpt><trkpt lat="42.03355338390577" lon="12.054049161947646"><ele>86.2</ele><time>2026-03-28T08:52:16Z</time></trkpt><trkpt lat="42.033520733941" lon="12.054145487826139"><ele>88.0</ele><time>2026-03-28T08:52:17Z</time></trkpt><trkpt lat="42.0334780054333" lon="12.05426134751189"><ele>90.2</ele><time>2026-03-28T08:52:18Z</time></trkpt><trkpt lat="42.03343181863281" lon="12.054367014974776"><ele>92.4</ele><time>2026-03-28T08:52:19Z</time></trkpt><trkpt lat="42.03337813565683" lon="12.054492588325301"><ele>94.60000000000001</ele><time>2026-03-28T08:52:20Z</time></trkpt><trkpt lat="42.03332557762229" lon="12.054642417192206"><ele>96.80000000000001</ele><time>2026-03-28T08:52:21Z</time></trkpt><trkpt lat="42.03326997382206" lon="12.054784608432561"><ele>99.0</ele><time>2026-03-28T08:52:22Z</time></trkpt><trkpt lat="42.033215822391156" lon="12.054941729830611"><ele>101.80000000000001</ele><time>2026-03-28T08:52:23Z</time></trkpt><trkpt lat="42.03317549254154" lon="12.055083642386524"><ele>104.60000000000001</ele><time>2026-03-28T08:52:24Z</time></trkpt><trkpt lat="42.03314154712066" lon="12.055189332386343"><ele>107.4</ele><time>2026-03-28T08:52:25Z</time></trkpt><trkpt lat="42.03309518582579" lon="12.055299803267635"><ele>110.2</ele><time>2026-03-28T08:52:26Z</time></trkpt><trkpt lat="42.03305501123404" lon="12.055413151063359"><ele>113.0</ele><time>2026-03-28T08:52:27Z</time></trkpt><trkpt lat="42.03301734229817" lon="12.05550536317771"><ele>112.99999999999999</ele><time>2026-03-28T08:52:28Z</time></trkpt><trkpt lat="42.03293788748962" lon="12.055573776471306"><ele>113.0</ele><time>2026-03-28T08:52:30Z</time></trkpt><trkpt lat="42.03289279159395" lon="12.05564962228127"><ele>113.0</ele><time>2026-03-28T08:52:33Z</time></trkpt><trkpt lat="42.032960385709465" lon="12.055703589632715"><ele>113.0</ele><time>2026-03-28T08:52:48Z</time></trkpt><trkpt lat="42.03298861037173" lon="12.055800538219719"><ele>112.99999999999999</ele><time>2026-03-28T08:53:26Z</time></trkpt><trkpt lat="42.03297613355577" lon="12.055945538472175"><ele>113.0</ele><time>2026-03-28T08:53:28Z</time></trkpt><trkpt lat="42.032929065462575" lon="12.056041796589719"><ele>113.80000000000001</ele><time>2026-03-28T08:53:29Z</time></trkpt><trkpt lat="42.03288455187894" lon="12.056138516875023"><ele>114.60000000000001</ele><time>2026-03-28T08:53:30Z</time></trkpt><trkpt lat="42.03284425874582" lon="12.05624315904209"><ele>115.39999999999999</ele><time>2026-03-28T08:53:31Z</time></trkpt><trkpt lat="42.03278421892841" lon="12.056369114777562"><ele>116.19999999999999</ele><time>2026-03-28T08:53:32Z</time></trkpt><trkpt lat="42.032724018822776" lon="12.056494475341793"><ele>117.0</ele><time>2026-03-28T08:53:33Z</time></trkpt><trkpt lat="42.03267776829295" lon="12.05662850557883"><ele>118.5</ele><time>2026-03-28T08:53:34Z</time></trkpt><trkpt lat="42.03263271643882" lon="12.056760349918347"><ele>120.0</ele><time>2026-03-28T08:53:35Z</time></trkpt><trkpt lat="42.0325872430118" lon="12.056906435057265"><ele>121.5</ele><time>2026-03-28T08:53:36Z</time></trkpt><trkpt lat="42.03252475158917" lon="12.05705731301316"><ele>123.0</ele><time>2026-03-28T08:53:37Z</time></trkpt><trkpt lat="42.032456037628116" lon="12.057230222786405"><ele>121.60000000000001</ele><time>2026-03-28T08:53:38Z</time></trkpt><trkpt lat="42.032384205962806" lon="12.057394283304987"><ele>120.20000000000002</ele><time>2026-03-28T08:53:39Z</time></trkpt><trkpt lat="42.03234832648877" lon="12.05754325586723"><ele>118.8</ele><time>2026-03-28T08:53:40Z</time></trkpt><trkpt lat="42.03230359796559" lon="12.057617377874584"><ele>117.4</ele><time>2026-03-28T08:53:41Z</time></trkpt><trkpt lat="42.03230693104211" lon="12.057731080631468"><ele>116.0</ele><time>2026-03-28T08:53:43Z</time></trkpt><trkpt lat="42.03237038118015" lon="12.057778126414247"><ele>116.0</ele><time>2026-03-28T08:53:44Z</time></trkpt><trkpt lat="42.032432807094345" lon="12.057828401163428"><ele>116.0</ele><time>2026-03-28T08:53:45Z</time></trkpt><trkpt lat="42.032501869669005" lon="12.057872548099173"><ele>116.0</ele><time>2026-03-28T08:53:46Z</time></trkpt><trkpt lat="42.03252066761786" lon="12.057991942014308"><ele>116.0</ele><time>2026-03-28T08:53:48Z</time></trkpt><trkpt lat="42.03248961571003" lon="12.058176213554567"><ele>116.0</ele><time>2026-03-28T08:53:50Z</time></trkpt><trkpt lat="42.032483900608035" lon="12.058286571557652"><ele>115.99999999999999</ele><time>2026-03-28T08:53:51Z</time></trkpt><trkpt lat="42.03249288871831" lon="12.058380143867103"><ele>116.0</ele><time>2026-03-28T08:53:52Z</time></trkpt><trkpt lat="42.032483623054816" lon="12.058468162482423"><ele>116.0</ele><time>2026-03-28T08:53:53Z</time></trkpt><trkpt lat="42.03245811892039" lon="12.058553709997582"><ele>116.0</ele><time>2026-03-28T08:53:54Z</time></trkpt><trkpt lat="42.03242514515569" lon="12.05863983558441"><ele>115.99999999999999</ele><time>2026-03-28T08:53:55Z</time></trkpt><trkpt lat="42.032384908178386" lon="12.058707274487173"><ele>116.0</ele><time>2026-03-28T08:53:56Z</time></trkpt><trkpt lat="42.0323114735204" lon="12.058845769127911"><ele>115.99999999999999</ele><time>2026-03-28T08:53:58Z</time></trkpt><trkpt lat="42.03227111800799" lon="12.058928182836631"><ele>116.0</ele><time>2026-03-28T08:53:59Z</time></trkpt><trkpt lat="42.03223620676409" lon="12.059011338086606"><ele>116.0</ele><time>2026-03-28T08:54:00Z</time></trkpt><trkpt lat="42.03219496755249" lon="12.059102185119865"><ele>116.0</ele><time>2026-03-28T08:54:01Z</time></trkpt><trkpt lat="42.0321643258698" lon="12.05919284543922"><ele>115.99999999999999</ele><time>2026-03-28T08:54:02Z</time></trkpt><trkpt lat="42.03211552201868" lon="12.059259911254529"><ele>116.0</ele><time>2026-03-28T08:54:03Z</time></trkpt><trkpt lat="42.03208264062769" lon="12.059364646074508"><ele>115.49999999999999</ele><time>2026-03-28T08:54:04Z</time></trkpt><trkpt lat="42.03206169949963" lon="12.059456643951085"><ele>115.0</ele><time>2026-03-28T08:54:05Z</time></trkpt><trkpt lat="42.03204810189839" lon="12.059543081010519"><ele>114.5</ele><time>2026-03-28T08:54:06Z</time></trkpt><trkpt lat="42.03204938260508" lon="12.059636290182546"><ele>114.0</ele><time>2026-03-28T08:54:07Z</time></trkpt><trkpt lat="42.032023345932124" lon="12.059761534205716"><ele>113.49999999999999</ele><time>2026-03-28T08:54:09Z</time></trkpt><trkpt lat="42.03196757216865" lon="12.059876563591818"><ele>113.0</ele><time>2026-03-28T08:54:11Z</time></trkpt><trkpt lat="42.03195129458888" lon="12.05999713878875"><ele>112.0</ele><time>2026-03-28T08:54:13Z</time></trkpt><trkpt lat="42.03194361989957" lon="12.060087299356288"><ele>111.00000000000001</ele><time>2026-03-28T08:54:14Z</time></trkpt><trkpt lat="42.03189954734246" lon="12.060238035170473"><ele>110.00000000000001</ele><time>2026-03-28T08:54:16Z</time></trkpt><trkpt lat="42.031893131855284" lon="12.060380015003439"><ele>109.0</ele><time>2026-03-28T08:54:18Z</time></trkpt><trkpt lat="42.03185704792904" lon="12.060515447402622"><ele>108.0</ele><time>2026-03-28T08:54:20Z</time></trkpt><trkpt lat="42.031840798186614" lon="12.060637095564452"><ele>107.5</ele><time>2026-03-28T08:54:22Z</time></trkpt><trkpt lat="42.03184559682119" lon="12.060791719124484"><ele>107.0</ele><time>2026-03-28T08:54:24Z</time></trkpt><trkpt lat="42.03183470353606" lon="12.06088966645441"><ele>106.5</ele><time>2026-03-28T08:54:25Z</time></trkpt><trkpt lat="42.031823157509024" lon="12.060977071280728"><ele>106.0</ele><time>2026-03-28T08:54:26Z</time></trkpt><trkpt lat="42.031811685930286" lon="12.06106998042107"><ele>105.5</ele><time>2026-03-28T08:54:27Z</time></trkpt><trkpt lat="42.03180622375151" lon="12.061167861026156"><ele>105.0</ele><time>2026-03-28T08:54:28Z</time></trkpt><trkpt lat="42.03182260741588" lon="12.061267369128267"><ele>105.0</ele><time>2026-03-28T08:54:29Z</time></trkpt><trkpt lat="42.03185876443309" lon="12.061363923875629"><ele>105.0</ele><time>2026-03-28T08:54:30Z</time></trkpt><trkpt lat="42.03189837858277" lon="12.061439585434343"><ele>105.0</ele><time>2026-03-28T08:54:31Z</time></trkpt><trkpt lat="42.03197648838027" lon="12.061559118824613"><ele>105.0</ele><time>2026-03-28T08:54:33Z</time></trkpt><trkpt lat="42.032041804877394" lon="12.061616176249789"><ele>105.0</ele><time>2026-03-28T08:54:34Z</time></trkpt><trkpt lat="42.03211067627186" lon="12.061663165750849"><ele>105.0</ele><time>2026-03-28T08:54:37Z</time></trkpt><trkpt lat="42.03218076412461" lon="12.061815136453157"><ele>103.66666666666667</ele><time>2026-03-28T08:54:44Z</time></trkpt><trkpt lat="42.03220763921772" lon="12.061907109719607"><ele>102.33333333333334</ele><time>2026-03-28T08:54:45Z</time></trkpt><trkpt lat="42.03222989484236" lon="12.062001847342957"><ele>101.0</ele><time>2026-03-28T08:54:46Z</time></trkpt><trkpt lat="42.032256293312486" lon="12.062080568816272"><ele>99.66666666666667</ele><time>2026-03-28T08:54:47Z</time></trkpt><trkpt lat="42.032330179742374" lon="12.06223230380211"><ele>98.33333333333334</ele><time>2026-03-28T08:54:49Z</time></trkpt><trkpt lat="42.03240301546012" lon="12.062309096179503"><ele>97.0</ele><time>2026-03-28T08:54:50Z</time></trkpt><trkpt lat="42.03250346332033" lon="12.062386691661349"><ele>97.8</ele><time>2026-03-28T08:54:51Z</time></trkpt><trkpt lat="42.032571326611034" lon="12.062445665103489"><ele>98.6</ele><time>2026-03-28T08:54:52Z</time></trkpt><trkpt lat="42.032655158596434" lon="12.062546031208106"><ele>99.39999999999999</ele><time>2026-03-28T08:54:54Z</time></trkpt><trkpt lat="42.03272441984241" lon="12.062628963738904"><ele>100.19999999999999</ele><time>2026-03-28T08:54:56Z</time></trkpt><trkpt lat="42.0328189465254" lon="12.062750817876429"><ele>101.0</ele><time>2026-03-28T08:54:58Z</time></trkpt><trkpt lat="42.03288165905424" lon="12.062821882189338"><ele>100.99999999999999</ele><time>2026-03-28T08:54:59Z</time></trkpt><trkpt lat="42.0329493784781" lon="12.06285743132158"><ele>101.0</ele><time>2026-03-28T08:55:00Z</time></trkpt><trkpt lat="42.03303013607562" lon="12.062877046536554"><ele>101.0</ele><time>2026-03-28T08:55:01Z</time></trkpt><trkpt lat="42.033113178732656" lon="12.062895385892425"><ele>101.0</ele><time>2026-03-28T08:55:02Z</time></trkpt><trkpt lat="42.03317863047642" lon="12.062915332540252"><ele>100.99999999999999</ele><time>2026-03-28T08:55:03Z</time></trkpt><trkpt lat="42.03329892979677" lon="12.062951472156767"><ele>101.0</ele><time>2026-03-28T08:55:05Z</time></trkpt><trkpt lat="42.03340451685584" lon="12.062947621969865"><ele>103.49999999999999</ele><time>2026-03-28T08:55:07Z</time></trkpt><trkpt lat="42.03348216634539" lon="12.062937529072885"><ele>106.0</ele><time>2026-03-28T08:55:08Z</time></trkpt><trkpt lat="42.033559462522675" lon="12.062900422710713"><ele>108.5</ele><time>2026-03-28T08:55:09Z</time></trkpt><trkpt lat="42.03363365729574" lon="12.062882774783132"><ele>111.0</ele><time>2026-03-28T08:55:10Z</time></trkpt><trkpt lat="42.033752374129065" lon="12.062879352657534"><ele>113.49999999999999</ele><time>2026-03-28T08:55:12Z</time></trkpt><trkpt lat="42.03383414126084" lon="12.06290998301364"><ele>116.0</ele><time>2026-03-28T08:55:13Z</time></trkpt><trkpt lat="42.033914081358" lon="12.062941211025656"><ele>115.99999999999999</ele><time>2026-03-28T08:55:14Z</time></trkpt><trkpt lat="42.033980799104796" lon="12.062970350055746"><ele>116.0</ele><time>2026-03-28T08:55:15Z</time></trkpt><trkpt lat="42.034084303528864" lon="12.063046702325645"><ele>116.0</ele><time>2026-03-28T08:55:17Z</time></trkpt><trkpt lat="42.034161178155465" lon="12.063149643767462"><ele>116.0</ele><time>2026-03-28T08:55:19Z</time></trkpt><trkpt lat="42.03419147765587" lon="12.063231179976526"><ele>115.99999999999999</ele><time>2026-03-28T08:55:20Z</time></trkpt><trkpt lat="42.03421083781815" lon="12.063339710783293"><ele>116.0</ele><time>2026-03-28T08:55:21Z</time></trkpt><trkpt lat="42.03420501255105" lon="12.063430193650943"><ele>115.19999999999999</ele><time>2026-03-28T08:55:42Z</time></trkpt><trkpt lat="42.034244632634554" lon="12.06349880716244"><ele>114.39999999999999</ele><time>2026-03-28T08:55:49Z</time></trkpt><trkpt lat="42.03432511526323" lon="12.063562101609897"><ele>113.6</ele><time>2026-03-28T08:55:54Z</time></trkpt><trkpt lat="42.03440288190956" lon="12.063676415750638"><ele>112.8</ele><time>2026-03-28T08:55:56Z</time></trkpt><trkpt lat="42.03451084571571" lon="12.063752397324206"><ele>112.0</ele><time>2026-03-28T08:55:58Z</time></trkpt><trkpt lat="42.03459420610363" lon="12.063793132587877"><ele>112.00000000000001</ele><time>2026-03-28T08:55:59Z</time></trkpt><trkpt lat="42.03468308927687" lon="12.063826831290799"><ele>112.0</ele><time>2026-03-28T08:56:00Z</time></trkpt><trkpt lat="42.03475045176493" lon="12.063855899745915"><ele>112.0</ele><time>2026-03-28T08:56:01Z</time></trkpt><trkpt lat="42.034815028845415" lon="12.063857042722427"><ele>112.0</ele><time>2026-03-28T08:56:04Z</time></trkpt><trkpt lat="42.034878651971034" lon="12.063906564657298"><ele>112.00000000000001</ele><time>2026-03-28T08:56:08Z</time></trkpt><trkpt lat="42.0349541961636" lon="12.06394853874551"><ele>112.0</ele><time>2026-03-28T08:56:11Z</time></trkpt><trkpt lat="42.03502220389767" lon="12.064020844745714"><ele>112.39999999999999</ele><time>2026-03-28T08:56:13Z</time></trkpt><trkpt lat="42.03508705089499" lon="12.064104217935318"><ele>112.79999999999998</ele><time>2026-03-28T08:56:15Z</time></trkpt><trkpt lat="42.03517381115321" lon="12.064246457717688"><ele>113.2</ele><time>2026-03-28T08:56:17Z</time></trkpt><trkpt lat="42.03525016078711" lon="12.064225952802616"><ele>113.6</ele><time>2026-03-28T08:56:20Z</time></trkpt><trkpt lat="42.03532586118953" lon="12.064316196273905"><ele>114.0</ele><time>2026-03-28T08:56:24Z</time></trkpt><trkpt lat="42.035404818026876" lon="12.064358914714578"><ele>114.0</ele><time>2026-03-28T08:56:25Z</time></trkpt><trkpt lat="42.035476508282116" lon="12.064363511392504"><ele>114.0</ele><time>2026-03-28T08:56:28Z</time></trkpt><trkpt lat="42.03557304653179" lon="12.064355414137516"><ele>114.0</ele><time>2026-03-28T08:56:41Z</time></trkpt><trkpt lat="42.03566424150868" lon="12.06433369327441"><ele>114.0</ele><time>2026-03-28T08:56:44Z</time></trkpt><trkpt lat="42.0357321951389" lon="12.064336357749957"><ele>114.0</ele><time>2026-03-28T08:56:46Z</time></trkpt><trkpt lat="42.0357943390579" lon="12.064397574405177"><ele>114.0</ele><time>2026-03-28T08:56:48Z</time></trkpt><trkpt lat="42.03587301375351" lon="12.06447833513064"><ele>115.83333333333333</ele><time>2026-03-28T08:56:50Z</time></trkpt><trkpt lat="42.035949224955935" lon="12.064505642970646"><ele>117.66666666666666</ele><time>2026-03-28T08:56:52Z</time></trkpt><trkpt lat="42.036035038196836" lon="12.064574523162044"><ele>119.5</ele><time>2026-03-28T08:56:57Z</time></trkpt><trkpt lat="42.03607739888764" lon="12.064648226856379"><ele>121.33333333333333</ele><time>2026-03-28T08:57:00Z</time></trkpt><trkpt lat="42.03614384076316" lon="12.064704464636266"><ele>123.16666666666666</ele><time>2026-03-28T08:57:03Z</time></trkpt><trkpt lat="42.036183224303976" lon="12.064809623514728"><ele>125.0</ele><time>2026-03-28T08:57:05Z</time></trkpt><trkpt lat="42.0362679380893" lon="12.064867944357587"><ele>125.0</ele><time>2026-03-28T08:57:08Z</time></trkpt><trkpt lat="42.03633739913057" lon="12.064902706818962"><ele>125.0</ele><time>2026-03-28T08:57:10Z</time></trkpt><trkpt lat="42.03636917015623" lon="12.064999619810264"><ele>125.0</ele><time>2026-03-28T08:57:11Z</time></trkpt><trkpt lat="42.03648333930746" lon="12.065104237720751"><ele>125.0</ele><time>2026-03-28T08:57:14Z</time></trkpt><trkpt lat="42.03653447649175" lon="12.065174127373652"><ele>125.0</ele><time>2026-03-28T08:57:15Z</time></trkpt><trkpt lat="42.03657467950822" lon="12.065277614511189"><ele>125.6</ele><time>2026-03-28T08:57:16Z</time></trkpt><trkpt lat="42.03667247327936" lon="12.065452649819125"><ele>126.2</ele><time>2026-03-28T08:57:17Z</time></trkpt><trkpt lat="42.036734128252405" lon="12.06554650303587"><ele>126.80000000000001</ele><time>2026-03-28T08:57:18Z</time></trkpt><trkpt lat="42.03680390530037" lon="12.065593041786613"><ele>127.4</ele><time>2026-03-28T08:57:19Z</time></trkpt><trkpt lat="42.03684942886333" lon="12.065668910069656"><ele>128.0</ele><time>2026-03-28T08:57:24Z</time></trkpt><trkpt lat="42.036922820756146" lon="12.065810299724404"><ele>127.99999999999999</ele><time>2026-03-28T08:57:41Z</time></trkpt><trkpt lat="42.037053044276895" lon="12.065822841397466"><ele>128.0</ele><time>2026-03-28T08:59:40Z</time></trkpt><trkpt lat="42.03703627494832" lon="12.065938399947164"><ele>128.0</ele><time>2026-03-28T09:00:57Z</time></trkpt><trkpt lat="42.03702287323451" lon="12.066038456594164"><ele>128.0</ele><time>2026-03-28T09:01:21Z</time></trkpt><trkpt lat="42.03696198571026" lon="12.066118617882232"><ele>127.99999999999999</ele><time>2026-03-28T09:07:10Z</time></trkpt><trkpt lat="42.03702571481705" lon="12.066155737864396"><ele>128.0</ele><time>2026-03-28T09:07:17Z</time></trkpt><trkpt lat="42.0370713129725" lon="12.066219716350842"><ele>128.0</ele><time>2026-03-28T09:08:35Z</time></trkpt><trkpt lat="42.037115648095394" lon="12.066286426307835"><ele>127.99999999999999</ele><time>2026-03-28T09:08:40Z</time></trkpt><trkpt lat="42.03717159975069" lon="12.066360689075307"><ele>128.0</ele><time>2026-03-28T09:08:48Z</time></trkpt><trkpt lat="42.037236142954974" lon="12.066400867532964"><ele>128.0</ele><time>2026-03-28T09:08:50Z</time></trkpt><trkpt lat="42.037285722449255" lon="12.06645458866453"><ele>127.99999999999999</ele><time>2026-03-28T09:08:55Z</time></trkpt><trkpt lat="42.037347717298516" lon="12.066512718775437"><ele>128.0</ele><time>2026-03-28T09:08:58Z</time></trkpt><trkpt lat="42.03739066605324" lon="12.066604681322982"><ele>128.0</ele><time>2026-03-28T09:09:01Z</time></trkpt><trkpt lat="42.03745983130991" lon="12.06669031521873"><ele>129.0</ele><time>2026-03-28T09:09:03Z</time></trkpt><trkpt lat="42.037532011762295" lon="12.066734635215623"><ele>130.0</ele><time>2026-03-28T09:09:05Z</time></trkpt><trkpt lat="42.03758831028226" lon="12.06680078326548"><ele>131.0</ele><time>2026-03-28T09:09:08Z</time></trkpt><trkpt lat="42.03764585561488" lon="12.06683631976502"><ele>132.0</ele><time>2026-03-28T09:09:11Z</time></trkpt><trkpt lat="42.03770905911784" lon="12.066883566257113"><ele>133.0</ele><time>2026-03-28T09:09:13Z</time></trkpt><trkpt lat="42.0377711807088" lon="12.066932838267471"><ele>134.0</ele><time>2026-03-28T09:09:15Z</time></trkpt><trkpt lat="42.03781903938525" lon="12.067001803225248"><ele>135.0</ele><time>2026-03-28T09:09:20Z</time></trkpt><trkpt lat="42.03788031392099" lon="12.06706667371627"><ele>135.0</ele><time>2026-03-28T09:09:22Z</time></trkpt><trkpt lat="42.03795314207523" lon="12.067168322942315"><ele>135.0</ele><time>2026-03-28T09:09:25Z</time></trkpt><trkpt lat="42.03800502212297" lon="12.067247463054409"><ele>135.0</ele><time>2026-03-28T09:09:27Z</time></trkpt><trkpt lat="42.0380616258122" lon="12.067314491843065"><ele>135.0</ele><time>2026-03-28T09:09:30Z</time></trkpt><trkpt lat="42.038100109634335" lon="12.067390233653137"><ele>135.0</ele><time>2026-03-28T09:09:40Z</time></trkpt><trkpt lat="42.038170944532425" lon="12.067422700776362"><ele>135.0</ele><time>2026-03-28T09:09:43Z</time></trkpt><trkpt lat="42.03822166584819" lon="12.06749502010123"><ele>135.42857142857142</ele><time>2026-03-28T09:09:48Z</time></trkpt><trkpt lat="42.0382920107394" lon="12.06753336396538"><ele>135.85714285714283</ele><time>2026-03-28T09:09:55Z</time></trkpt><trkpt lat="42.038345605662144" lon="12.067618357620182"><ele>136.28571428571428</ele><time>2026-03-28T09:10:01Z</time></trkpt><trkpt lat="42.03839744790972" lon="12.06768952352275"><ele>136.71428571428572</ele><time>2026-03-28T09:10:05Z</time></trkpt><trkpt lat="42.03842374832845" lon="12.067770430014379"><ele>137.14285714285717</ele><time>2026-03-28T09:10:08Z</time></trkpt><trkpt lat="42.03846251843837" lon="12.067837961809325"><ele>137.57142857142858</ele><time>2026-03-28T09:10:13Z</time></trkpt><trkpt lat="42.03852970293694" lon="12.067898928557092"><ele>138.0</ele><time>2026-03-28T09:10:16Z</time></trkpt><trkpt lat="42.038590581386515" lon="12.06794227521994"><ele>138.85714285714286</ele><time>2026-03-28T09:10:18Z</time></trkpt><trkpt lat="42.03867096927354" lon="12.067938699990833"><ele>139.71428571428572</ele><time>2026-03-28T09:10:24Z</time></trkpt><trkpt lat="42.03872201414417" lon="12.067998853920011"><ele>140.57142857142858</ele><time>2026-03-28T09:10:28Z</time></trkpt><trkpt lat="42.0387884048934" lon="12.068007161103104"><ele>141.42857142857144</ele><time>2026-03-28T09:10:57Z</time></trkpt><trkpt lat="42.03886143290166" lon="12.06803204939375"><ele>142.28571428571428</ele><time>2026-03-28T09:11:02Z</time></trkpt><trkpt lat="42.03892405031977" lon="12.068073201652048"><ele>143.14285714285717</ele><time>2026-03-28T09:11:06Z</time></trkpt><trkpt lat="42.03897652796268" lon="12.06815959574709"><ele>144.0</ele><time>2026-03-28T09:11:13Z</time></trkpt><trkpt lat="42.039048218346316" lon="12.068264958382143"><ele>144.66666666666666</ele><time>2026-03-28T09:11:15Z</time></trkpt><trkpt lat="42.039096653477586" lon="12.068345945707861"><ele>145.33333333333334</ele><time>2026-03-28T09:11:17Z</time></trkpt><trkpt lat="42.039167484199965" lon="12.068384600322675"><ele>146.0</ele><time>2026-03-28T09:11:39Z</time></trkpt><trkpt lat="42.039190898247405" lon="12.068503933287287"><ele>146.66666666666669</ele><time>2026-03-28T09:11:42Z</time></trkpt><trkpt lat="42.03920118292252" lon="12.06860288244742"><ele>147.33333333333334</ele><time>2026-03-28T09:11:49Z</time></trkpt><trkpt lat="42.03919107160981" lon="12.0686973271253"><ele>148.0</ele><time>2026-03-28T09:11:56Z</time></trkpt><trkpt lat="42.03925525433716" lon="12.068705554930574"><ele>149.0</ele><time>2026-03-28T09:12:03Z</time></trkpt><trkpt lat="42.03932611449837" lon="12.06875765544688"><ele>150.0</ele><time>2026-03-28T09:12:14Z</time></trkpt><trkpt lat="42.039398268067444" lon="12.068765972473193"><ele>151.0</ele><time>2026-03-28T09:12:19Z</time></trkpt><trkpt lat="42.03943108067254" lon="12.068871338506026"><ele>152.0</ele><time>2026-03-28T09:12:22Z</time></trkpt><trkpt lat="42.03946908516043" lon="12.06894343636238"><ele>153.0</ele><time>2026-03-28T09:12:25Z</time></trkpt><trkpt lat="42.0394842317373" lon="12.069031798668723"><ele>154.0</ele><time>2026-03-28T09:12:28Z</time></trkpt><trkpt lat="42.039496946194646" lon="12.069115817909532"><ele>155.0</ele><time>2026-03-28T09:12:31Z</time></trkpt><trkpt lat="42.03955120271473" lon="12.069198695645927"><ele>155.85714285714286</ele><time>2026-03-28T09:12:44Z</time></trkpt><trkpt lat="42.0396158022138" lon="12.06920266660444"><ele>156.71428571428572</ele><time>2026-03-28T09:12:47Z</time></trkpt><trkpt lat="42.039682088285396" lon="12.06918825541716"><ele>157.57142857142856</ele><time>2026-03-28T09:12:51Z</time></trkpt><trkpt lat="42.03975740758862" lon="12.069159810770664"><ele>158.42857142857144</ele><time>2026-03-28T09:12:57Z</time></trkpt><trkpt lat="42.039820766537275" lon="12.069199884625926"><ele>159.28571428571428</ele><time>2026-03-28T09:13:01Z</time></trkpt><trkpt lat="42.03989037650639" lon="12.069211169128113"><ele>160.14285714285714</ele><time>2026-03-28T09:13:03Z</time></trkpt><trkpt lat="42.03995738803822" lon="12.069222346914959"><ele>161.0</ele><time>2026-03-28T09:13:06Z</time></trkpt><trkpt lat="42.04003600908925" lon="12.069267680686856"><ele>162.33333333333331</ele><time>2026-03-28T09:13:09Z</time></trkpt><trkpt lat="42.04012765274184" lon="12.069338287339445"><ele>163.66666666666666</ele><time>2026-03-28T09:13:12Z</time></trkpt><trkpt lat="42.04017216833208" lon="12.06940880997332"><ele>165.0</ele><time>2026-03-28T09:13:40Z</time></trkpt><trkpt lat="42.04023709581824" lon="12.06939357110729"><ele>166.33333333333334</ele><time>2026-03-28T09:13:45Z</time></trkpt><trkpt lat="42.04030298712828" lon="12.06938082356221"><ele>167.66666666666669</ele><time>2026-03-28T09:13:47Z</time></trkpt><trkpt lat="42.040393433727345" lon="12.069431341924997"><ele>169.0</ele><time>2026-03-28T09:13:49Z</time></trkpt><trkpt lat="42.040462900355564" lon="12.069438854896005"><ele>169.0</ele><time>2026-03-28T09:13:52Z</time></trkpt><trkpt lat="42.04052672965718" lon="12.069417458144363"><ele>169.0</ele><time>2026-03-28T09:13:54Z</time></trkpt><trkpt lat="42.040610090275024" lon="12.069473914560437"><ele>169.0</ele><time>2026-03-28T09:13:56Z</time></trkpt><trkpt lat="42.040707798233555" lon="12.069438226704188"><ele>169.0</ele><time>2026-03-28T09:13:58Z</time></trkpt><trkpt lat="42.04078646468969" lon="12.069487676247128"><ele>169.0</ele><time>2026-03-28T09:14:01Z</time></trkpt><trkpt lat="42.040851905488275" lon="12.06952934628966"><ele>169.0</ele><time>2026-03-28T09:14:03Z</time></trkpt><trkpt lat="42.04094901794005" lon="12.069480502991238"><ele>170.66666666666669</ele><time>2026-03-28T09:14:05Z</time></trkpt><trkpt lat="42.041012490458364" lon="12.06946894528551"><ele>172.33333333333334</ele><time>2026-03-28T09:14:06Z</time></trkpt><trkpt lat="42.04109285260936" lon="12.069463349752086"><ele>174.0</ele><time>2026-03-28T09:14:08Z</time></trkpt><trkpt lat="42.04116777110015" lon="12.06948763002612"><ele>175.66666666666666</ele><time>2026-03-28T09:14:11Z</time></trkpt><trkpt lat="42.041231493217886" lon="12.069595775477836"><ele>177.33333333333331</ele><time>2026-03-28T09:14:14Z</time></trkpt><trkpt lat="42.04131195197443" lon="12.069598838408165"><ele>179.0</ele><time>2026-03-28T09:14:16Z</time></trkpt><trkpt lat="42.04141365127332" lon="12.069579020255958"><ele>179.0</ele><time>2026-03-28T09:14:19Z</time></trkpt><trkpt lat="42.041526174563344" lon="12.069585194390417"><ele>179.0</ele><time>2026-03-28T09:14:46Z</time></trkpt><trkpt lat="42.04159562606057" lon="12.069664267660366"><ele>179.0</ele><time>2026-03-28T09:16:27Z</time></trkpt><trkpt lat="42.0416924463411" lon="12.069797417466585"><ele>179.0</ele><time>2026-03-28T09:16:29Z</time></trkpt><trkpt lat="42.04176326828031" lon="12.069902461063755"><ele>179.0</ele><time>2026-03-28T09:16:31Z</time></trkpt><trkpt lat="42.04174698707405" lon="12.070036176414154"><ele>180.0</ele><time>2026-03-28T09:16:33Z</time></trkpt><trkpt lat="42.041721165096504" lon="12.070144314432103"><ele>181.0</ele><time>2026-03-28T09:16:34Z</time></trkpt><trkpt lat="42.04167975577458" lon="12.070256311669528"><ele>182.0</ele><time>2026-03-28T09:16:35Z</time></trkpt><trkpt lat="42.04162703579529" lon="12.070355317359033"><ele>183.0</ele><time>2026-03-28T09:16:36Z</time></trkpt><trkpt lat="42.04156640818228" lon="12.070465938681728"><ele>184.0</ele><time>2026-03-28T09:16:37Z</time></trkpt><trkpt lat="42.04152937935462" lon="12.070573040266272"><ele>184.0</ele><time>2026-03-28T09:16:38Z</time></trkpt><trkpt lat="42.04150379763999" lon="12.070667649135594"><ele>184.0</ele><time>2026-03-28T09:16:39Z</time></trkpt><trkpt lat="42.04146667657963" lon="12.070736731714783"><ele>184.0</ele><time>2026-03-28T09:16:40Z</time></trkpt><trkpt lat="42.041435526976976" lon="12.070859106513051"><ele>184.0</ele><time>2026-03-28T09:16:41Z</time></trkpt><trkpt lat="42.041405788231586" lon="12.070966547103831"><ele>184.0</ele><time>2026-03-28T09:16:42Z</time></trkpt><trkpt lat="42.04135256921198" lon="12.071103580940614"><ele>184.0</ele><time>2026-03-28T09:16:44Z</time></trkpt><trkpt lat="42.041421891283434" lon="12.071223038216598"><ele>185.16666666666669</ele><time>2026-03-28T09:16:49Z</time></trkpt><trkpt lat="42.04150509008648" lon="12.07128106597789"><ele>186.33333333333334</ele><time>2026-03-28T09:16:50Z</time></trkpt><trkpt lat="42.0415809012335" lon="12.071344911201903"><ele>187.5</ele><time>2026-03-28T09:16:51Z</time></trkpt><trkpt lat="42.04163191904408" lon="12.071409153145115"><ele>188.66666666666666</ele><time>2026-03-28T09:16:52Z</time></trkpt><trkpt lat="42.04165455976934" lon="12.071505334207018"><ele>189.83333333333331</ele><time>2026-03-28T09:16:54Z</time></trkpt><trkpt lat="42.0415824854571" lon="12.071564626392416"><ele>191.0</ele><time>2026-03-28T09:16:58Z</time></trkpt><trkpt lat="42.041548183703505" lon="12.07166530185382"><ele>192.75</ele><time>2026-03-28T09:17:02Z</time></trkpt><trkpt lat="42.04145426748429" lon="12.071973322520355"><ele>194.5</ele><time>2026-03-28T09:17:04Z</time></trkpt><trkpt lat="42.041454692670165" lon="12.072059991020739"><ele>196.25</ele><time>2026-03-28T09:17:05Z</time></trkpt><trkpt lat="42.04142685743487" lon="12.072208866564733"><ele>198.0</ele><time>2026-03-28T09:17:07Z</time></trkpt><trkpt lat="42.04134974410308" lon="12.072263685164474"><ele>198.0</ele><time>2026-03-28T09:17:08Z</time></trkpt><trkpt lat="42.04129040446895" lon="12.072357624661882"><ele>198.0</ele><time>2026-03-28T09:17:09Z</time></trkpt><trkpt lat="42.04123203993867" lon="12.072420989837628"><ele>198.0</ele><time>2026-03-28T09:17:10Z</time></trkpt><trkpt lat="42.04119325391739" lon="12.072510037790073"><ele>198.0</ele><time>2026-03-28T09:17:11Z</time></trkpt><trkpt lat="42.04117743985787" lon="12.072620193129074"><ele>198.0</ele><time>2026-03-28T09:17:13Z</time></trkpt><trkpt lat="42.0411090548322" lon="12.072789930269186"><ele>199.8</ele><time>2026-03-28T09:17:15Z</time></trkpt><trkpt lat="42.04106387686038" lon="12.072902067360422"><ele>201.60000000000002</ele><time>2026-03-28T09:17:16Z</time></trkpt><trkpt lat="42.04105797379878" lon="12.073044088469512"><ele>203.39999999999998</ele><time>2026-03-28T09:17:19Z</time></trkpt><trkpt lat="42.04108937323825" lon="12.073192306511057"><ele>205.2</ele><time>2026-03-28T09:17:21Z</time></trkpt><trkpt lat="42.04114664008787" lon="12.073235079933616"><ele>207.0</ele><time>2026-03-28T09:17:22Z</time></trkpt><trkpt lat="42.04121347476329" lon="12.0733081872425"><ele>209.39999999999998</ele><time>2026-03-28T09:17:24Z</time></trkpt><trkpt lat="42.04129725682574" lon="12.073441050606414"><ele>211.79999999999998</ele><time>2026-03-28T09:17:26Z</time></trkpt><trkpt lat="42.04132402611567" lon="12.073523710534602"><ele>214.2</ele><time>2026-03-28T09:17:27Z</time></trkpt><trkpt lat="42.041343180356044" lon="12.073650064201907"><ele>216.6</ele><time>2026-03-28T09:17:28Z</time></trkpt><trkpt lat="42.04135639239709" lon="12.073782955398235"><ele>219.0</ele><time>2026-03-28T09:17:29Z</time></trkpt><trkpt lat="42.04135772624453" lon="12.073944662441555"><ele>219.0</ele><time>2026-03-28T09:17:31Z</time></trkpt><trkpt lat="42.04132076650985" lon="12.07403853696429"><ele>219.0</ele><time>2026-03-28T09:17:32Z</time></trkpt><trkpt lat="42.04124298387913" lon="12.074163198127625"><ele>219.0</ele><time>2026-03-28T09:17:34Z</time></trkpt><trkpt lat="42.04120186868697" lon="12.074252999291389"><ele>219.0</ele><time>2026-03-28T09:17:35Z</time></trkpt><trkpt lat="42.04114986675178" lon="12.07434176619348"><ele>219.0</ele><time>2026-03-28T09:17:36Z</time></trkpt><trkpt lat="42.04111483471936" lon="12.074418446167847"><ele>219.0</ele><time>2026-03-28T09:17:37Z</time></trkpt><trkpt lat="42.04105497584369" lon="12.074506507057706"><ele>223.0</ele><time>2026-03-28T09:17:39Z</time></trkpt><trkpt lat="42.04098051496568" lon="12.074592427674927"><ele>226.99999999999997</ele><time>2026-03-28T09:17:41Z</time></trkpt><trkpt lat="42.04089216988985" lon="12.0747016254633"><ele>230.99999999999997</ele><time>2026-03-28T09:17:43Z</time></trkpt><trkpt lat="42.04085438356621" lon="12.074782451785742"><ele>235.0</ele><time>2026-03-28T09:17:44Z</time></trkpt><trkpt lat="42.04075766237204" lon="12.074815413687094"><ele>239.0</ele><time>2026-03-28T09:17:46Z</time></trkpt><trkpt lat="42.04069197855479" lon="12.074873008846527"><ele>240.39999999999998</ele><time>2026-03-28T09:17:48Z</time></trkpt><trkpt lat="42.04060186544956" lon="12.074900716573659"><ele>241.79999999999998</ele><time>2026-03-28T09:17:49Z</time></trkpt><trkpt lat="42.04053282551412" lon="12.074910157163425"><ele>243.20000000000002</ele><time>2026-03-28T09:17:51Z</time></trkpt><trkpt lat="42.040443908288246" lon="12.07485877653159"><ele>244.60000000000002</ele><time>2026-03-28T09:17:53Z</time></trkpt><trkpt lat="42.04032805098488" lon="12.074839199705893"><ele>246.0</ele><time>2026-03-28T09:17:56Z</time></trkpt><trkpt lat="42.040190551338604" lon="12.07483399829049"><ele>246.0</ele><time>2026-03-28T09:17:58Z</time></trkpt><trkpt lat="42.040072450849884" lon="12.074811709353312"><ele>246.00000000000003</ele><time>2026-03-28T09:18:00Z</time></trkpt><trkpt lat="42.03998096291235" lon="12.074763967876432"><ele>246.00000000000003</ele><time>2026-03-28T09:18:01Z</time></trkpt><trkpt lat="42.03991805856176" lon="12.074757402749329"><ele>246.0</ele><time>2026-03-28T09:18:04Z</time></trkpt><trkpt lat="42.03985910184815" lon="12.074706940420734"><ele>246.0</ele><time>2026-03-28T09:18:06Z</time></trkpt><trkpt lat="42.03975494276391" lon="12.074748455673978"><ele>248.20000000000002</ele><time>2026-03-28T09:18:08Z</time></trkpt><trkpt lat="42.039643033044065" lon="12.074750280331708"><ele>250.40000000000003</ele><time>2026-03-28T09:18:09Z</time></trkpt><trkpt lat="42.03952635835741" lon="12.074745313242948"><ele>252.6</ele><time>2026-03-28T09:18:10Z</time></trkpt><trkpt lat="42.03945277879518" lon="12.074750215138426"><ele>254.8</ele><time>2026-03-28T09:18:11Z</time></trkpt><trkpt lat="42.039349874640436" lon="12.074784855465179"><ele>257.0</ele><time>2026-03-28T09:18:13Z</time></trkpt><trkpt lat="42.039247236905" lon="12.074809425193388"><ele>257.4</ele><time>2026-03-28T09:18:15Z</time></trkpt><trkpt lat="42.03905356437889" lon="12.07487134737732"><ele>257.79999999999995</ele><time>2026-03-28T09:18:18Z</time></trkpt><trkpt lat="42.03896170761601" lon="12.074888431707443"><ele>258.2</ele><time>2026-03-28T09:18:19Z</time></trkpt><trkpt lat="42.0388901926371" lon="12.074881258594557"><ele>258.59999999999997</ele><time>2026-03-28T09:18:20Z</time></trkpt><trkpt lat="42.03881782006821" lon="12.074829467252917"><ele>259.0</ele><time>2026-03-28T09:18:22Z</time></trkpt><trkpt lat="42.038738187993175" lon="12.074801934407901"><ele>259.0</ele><time>2026-03-28T09:18:24Z</time></trkpt><trkpt lat="42.038653556492704" lon="12.07480279703864"><ele>259.0</ele><time>2026-03-28T09:18:26Z</time></trkpt><trkpt lat="42.03860625682259" lon="12.074881388906622"><ele>259.0</ele><time>2026-03-28T09:18:28Z</time></trkpt><trkpt lat="42.0386001339522" lon="12.07500245958034"><ele>259.0</ele><time>2026-03-28T09:18:30Z</time></trkpt><trkpt lat="42.03855354773888" lon="12.075140190587053"><ele>259.0</ele><time>2026-03-28T09:18:32Z</time></trkpt><trkpt lat="42.0385030519892" lon="12.075213869496565"><ele>259.0</ele><time>2026-03-28T09:18:33Z</time></trkpt><trkpt lat="42.038437031997965" lon="12.075256455914122"><ele>260.8</ele><time>2026-03-28T09:18:35Z</time></trkpt><trkpt lat="42.03837151076194" lon="12.075196725073612"><ele>262.59999999999997</ele><time>2026-03-28T09:19:12Z</time></trkpt><trkpt lat="42.038281453043666" lon="12.075155149487763"><ele>264.4</ele><time>2026-03-28T09:19:15Z</time></trkpt><trkpt lat="42.03816080241913" lon="12.075205827008103"><ele>266.2</ele><time>2026-03-28T09:19:17Z</time></trkpt><trkpt lat="42.03806525662516" lon="12.075200243274818"><ele>268.0</ele><time>2026-03-28T09:19:19Z</time></trkpt><trkpt lat="42.03796935956593" lon="12.075157973809565"><ele>268.0</ele><time>2026-03-28T09:19:21Z</time></trkpt><trkpt lat="42.037881609249055" lon="12.075125555332603"><ele>268.0</ele><time>2026-03-28T09:19:23Z</time></trkpt><trkpt lat="42.0378230641599" lon="12.075024474417662"><ele>268.0</ele><time>2026-03-28T09:19:25Z</time></trkpt><trkpt lat="42.03775081419264" lon="12.075120012135947"><ele>268.0</ele><time>2026-03-28T09:19:28Z</time></trkpt><trkpt lat="42.03773365940072" lon="12.075211049982684"><ele>268.0</ele><time>2026-03-28T09:19:29Z</time></trkpt><trkpt lat="42.03769810299853" lon="12.075347460357069"><ele>268.0</ele><time>2026-03-28T09:19:31Z</time></trkpt><trkpt lat="42.03766041754214" lon="12.075447845726375"><ele>268.0</ele><time>2026-03-28T09:19:33Z</time></trkpt><trkpt lat="42.03759632630408" lon="12.075554814504237"><ele>268.0</ele><time>2026-03-28T09:19:35Z</time></trkpt><trkpt lat="42.03753011606776" lon="12.075643977063718"><ele>268.0</ele><time>2026-03-28T09:19:39Z</time></trkpt><trkpt lat="42.03743665819162" lon="12.075775206683913"><ele>268.0</ele><time>2026-03-28T09:19:42Z</time></trkpt><trkpt lat="42.0374037494439" lon="12.07585505123232"><ele>262.5</ele><time>2026-03-28T09:19:43Z</time></trkpt><trkpt lat="42.03737197558349" lon="12.075935910833781"><ele>257.0</ele><time>2026-03-28T09:19:44Z</time></trkpt><trkpt lat="42.03733498665637" lon="12.076004907145665"><ele>251.5</ele><time>2026-03-28T09:19:45Z</time></trkpt><trkpt lat="42.03730533145978" lon="12.076083523572294"><ele>246.0</ele><time>2026-03-28T09:19:46Z</time></trkpt><trkpt lat="42.03726166400334" lon="12.076226487064138"><ele>240.49999999999997</ele><time>2026-03-28T09:19:48Z</time></trkpt><trkpt lat="42.03722057959224" lon="12.07632106615116"><ele>235.0</ele><time>2026-03-28T09:19:50Z</time></trkpt><trkpt lat="42.03711938795815" lon="12.076336816266156"><ele>235.0</ele><time>2026-03-28T09:19:52Z</time></trkpt><trkpt lat="42.03702550633168" lon="12.07633974990289"><ele>235.0</ele><time>2026-03-28T09:19:54Z</time></trkpt><trkpt lat="42.03699017640617" lon="12.076433608244102"><ele>235.0</ele><time>2026-03-28T09:19:57Z</time></trkpt><trkpt lat="42.03693182961614" lon="12.076510541336896"><ele>235.0</ele><time>2026-03-28T09:20:00Z</time></trkpt><trkpt lat="42.03683651820249" lon="12.076648505601666"><ele>235.0</ele><time>2026-03-28T09:20:02Z</time></trkpt><trkpt lat="42.03677054551976" lon="12.07671673577845"><ele>233.66666666666666</ele><time>2026-03-28T09:20:03Z</time></trkpt><trkpt lat="42.036684858192416" lon="12.0767778721561"><ele>232.33333333333331</ele><time>2026-03-28T09:20:04Z</time></trkpt><trkpt lat="42.036626942040655" lon="12.07683805154853"><ele>231.0</ele><time>2026-03-28T09:20:05Z</time></trkpt><trkpt lat="42.03657316017939" lon="12.07689641261601"><ele>229.66666666666669</ele><time>2026-03-28T09:20:06Z</time></trkpt><trkpt lat="42.03647890860526" lon="12.07698005881574"><ele>228.33333333333334</ele><time>2026-03-28T09:20:08Z</time></trkpt><trkpt lat="42.03640224846049" lon="12.077041465628474"><ele>227.0</ele><time>2026-03-28T09:20:11Z</time></trkpt><trkpt lat="42.036358596288046" lon="12.07712935872471"><ele>227.0</ele><time>2026-03-28T09:20:13Z</time></trkpt><trkpt lat="42.03631433645329" lon="12.077198411893418"><ele>227.0</ele><time>2026-03-28T09:20:15Z</time></trkpt><trkpt lat="42.03616483734526" lon="12.077472186112468"><ele>227.0</ele><time>2026-03-28T09:20:17Z</time></trkpt><trkpt lat="42.036126181618215" lon="12.077567734784765"><ele>227.0</ele><time>2026-03-28T09:20:19Z</time></trkpt><trkpt lat="42.03602586361764" lon="12.07762597591579"><ele>232.25</ele><time>2026-03-28T09:20:21Z</time></trkpt><trkpt lat="42.03593156113424" lon="12.07768333409891"><ele>237.5</ele><time>2026-03-28T09:20:23Z</time></trkpt><trkpt lat="42.03586354169805" lon="12.077802176429454"><ele>242.75</ele><time>2026-03-28T09:20:25Z</time></trkpt><trkpt lat="42.03579480998109" lon="12.07791335849267"><ele>248.0</ele><time>2026-03-28T09:20:27Z</time></trkpt><trkpt lat="42.03568817088087" lon="12.078025573856008"><ele>248.16666666666669</ele><time>2026-03-28T09:20:29Z</time></trkpt><trkpt lat="42.035623571436425" lon="12.078076679834192"><ele>248.33333333333334</ele><time>2026-03-28T09:20:30Z</time></trkpt><trkpt lat="42.03556050801789" lon="12.078112884854146"><ele>248.5</ele><time>2026-03-28T09:20:31Z</time></trkpt><trkpt lat="42.03549950619612" lon="12.078137670926461"><ele>248.66666666666669</ele><time>2026-03-28T09:20:32Z</time></trkpt><trkpt lat="42.035406352801125" lon="12.078232064227446"><ele>248.83333333333334</ele><time>2026-03-28T09:20:34Z</time></trkpt><trkpt lat="42.03534188647509" lon="12.078289737205717"><ele>249.0</ele><time>2026-03-28T09:20:35Z</time></trkpt><trkpt lat="42.03525043034249" lon="12.078356272946664"><ele>250.6</ele><time>2026-03-28T09:20:36Z</time></trkpt><trkpt lat="42.03519149224474" lon="12.078409746924667"><ele>252.2</ele><time>2026-03-28T09:20:37Z</time></trkpt><trkpt lat="42.035107548795864" lon="12.078504336278145"><ele>253.79999999999998</ele><time>2026-03-28T09:20:39Z</time></trkpt><trkpt lat="42.03507076663904" lon="12.078660939468632"><ele>255.39999999999998</ele><time>2026-03-28T09:20:42Z</time></trkpt><trkpt lat="42.03502509527305" lon="12.078772430390515"><ele>257.0</ele><time>2026-03-28T09:20:44Z</time></trkpt><trkpt lat="42.03499926051734" lon="12.078936947147655"><ele>258.75</ele><time>2026-03-28T09:20:46Z</time></trkpt><trkpt lat="42.03500148051263" lon="12.079102915867422"><ele>260.5</ele><time>2026-03-28T09:20:48Z</time></trkpt><trkpt lat="42.03498546634955" lon="12.079289535463088"><ele>262.25</ele><time>2026-03-28T09:20:50Z</time></trkpt><trkpt lat="42.03497707376947" lon="12.07938152406526"><ele>264.0</ele><time>2026-03-28T09:20:51Z</time></trkpt><trkpt lat="42.034931029919086" lon="12.079534022358022"><ele>265.8333333333333</ele><time>2026-03-28T09:20:53Z</time></trkpt><trkpt lat="42.034886641647994" lon="12.079644262022953"><ele>267.6666666666667</ele><time>2026-03-28T09:20:54Z</time></trkpt><trkpt lat="42.03486061257041" lon="12.07973270048862"><ele>269.5</ele><time>2026-03-28T09:20:55Z</time></trkpt><trkpt lat="42.034879894490764" lon="12.0798242452476"><ele>271.33333333333337</ele><time>2026-03-28T09:20:57Z</time></trkpt><trkpt lat="42.03479886427849" lon="12.079946387688704"><ele>273.1666666666667</ele><time>2026-03-28T09:22:39Z</time></trkpt><trkpt lat="42.03472725996369" lon="12.080015865981025"><ele>275.0</ele><time>2026-03-28T09:22:40Z</time></trkpt><trkpt lat="42.034665031359566" lon="12.080085722788404"><ele>275.1666666666667</ele><time>2026-03-28T09:22:41Z</time></trkpt><trkpt lat="42.034600946257854" lon="12.080166721387299"><ele>275.33333333333337</ele><time>2026-03-28T09:22:42Z</time></trkpt><trkpt lat="42.03456234317678" lon="12.080249348960166"><ele>275.5</ele><time>2026-03-28T09:22:43Z</time></trkpt><trkpt lat="42.0344921916838" lon="12.080361164933583"><ele>275.6666666666667</ele><time>2026-03-28T09:22:45Z</time></trkpt><trkpt lat="42.034409460586865" lon="12.080451979590325"><ele>275.8333333333333</ele><time>2026-03-28T09:22:47Z</time></trkpt><trkpt lat="42.03435341450512" lon="12.080496269049416"><ele>276.0</ele><time>2026-03-28T09:22:48Z</time></trkpt><trkpt lat="42.03426582977584" lon="12.080575329303713"><ele>276.0</ele><time>2026-03-28T09:22:50Z</time></trkpt><trkpt lat="42.034172582822244" lon="12.080692199750962"><ele>276.0</ele><time>2026-03-28T09:22:52Z</time></trkpt><trkpt lat="42.03405675820058" lon="12.080677778587372"><ele>276.0</ele><time>2026-03-28T09:22:55Z</time></trkpt><trkpt lat="42.03397910406202" lon="12.080724744636969"><ele>276.0</ele><time>2026-03-28T09:22:57Z</time></trkpt><trkpt lat="42.033927367267005" lon="12.080773784856623"><ele>276.0</ele><time>2026-03-28T09:22:58Z</time></trkpt><trkpt lat="42.03382497121796" lon="12.080828906177127"><ele>271.5</ele><time>2026-03-28T09:23:00Z</time></trkpt><trkpt lat="42.033762134966736" lon="12.080839933749584"><ele>267.0</ele><time>2026-03-28T09:23:01Z</time></trkpt><trkpt lat="42.03368557333801" lon="12.080835996952892"><ele>262.5</ele><time>2026-03-28T09:23:02Z</time></trkpt><trkpt lat="42.03361927151216" lon="12.080814222911894"><ele>258.0</ele><time>2026-03-28T09:23:03Z</time></trkpt><trkpt lat="42.033556272378206" lon="12.08080772854079"><ele>253.5</ele><time>2026-03-28T09:23:04Z</time></trkpt><trkpt lat="42.03345053544862" lon="12.080863536455862"><ele>249.0</ele><time>2026-03-28T09:23:06Z</time></trkpt><trkpt lat="42.03336390230461" lon="12.080946603814773"><ele>249.2</ele><time>2026-03-28T09:23:08Z</time></trkpt><trkpt lat="42.03329836580101" lon="12.080980508349235"><ele>249.39999999999998</ele><time>2026-03-28T09:23:09Z</time></trkpt><trkpt lat="42.03318708881392" lon="12.08102059300724"><ele>249.6</ele><time>2026-03-28T09:23:11Z</time></trkpt><trkpt lat="42.03308783063406" lon="12.081049815143578"><ele>249.8</ele><time>2026-03-28T09:24:20Z</time></trkpt><trkpt lat="42.032999828788085" lon="12.081087910338205"><ele>250.0</ele><time>2026-03-28T09:24:22Z</time></trkpt><trkpt lat="42.0329285012365" lon="12.0810959562331"><ele>250.0</ele><time>2026-03-28T09:24:25Z</time></trkpt><trkpt lat="42.03284050674207" lon="12.081118768216156"><ele>250.0</ele><time>2026-03-28T09:24:28Z</time></trkpt><trkpt lat="42.0327426687032" lon="12.081115109783422"><ele>250.0</ele><time>2026-03-28T09:24:30Z</time></trkpt><trkpt lat="42.032660211463025" lon="12.081099131966583"><ele>250.0</ele><time>2026-03-28T09:24:32Z</time></trkpt><trkpt lat="42.03257150362882" lon="12.081136488055238"><ele>250.0</ele><time>2026-03-28T09:24:34Z</time></trkpt><trkpt lat="42.03246445943659" lon="12.081132770076762"><ele>253.66666666666666</ele><time>2026-03-28T09:24:37Z</time></trkpt><trkpt lat="42.032383739383576" lon="12.081080861237771"><ele>257.3333333333333</ele><time>2026-03-28T09:24:39Z</time></trkpt><trkpt lat="42.03230620202286" lon="12.081066625732946"><ele>261.0</ele><time>2026-03-28T09:24:41Z</time></trkpt><trkpt lat="42.03223605556946" lon="12.081085700305032"><ele>264.6666666666667</ele><time>2026-03-28T09:24:43Z</time></trkpt><trkpt lat="42.032167425240715" lon="12.081081108352123"><ele>268.33333333333337</ele><time>2026-03-28T09:24:45Z</time></trkpt><trkpt lat="42.03209911362122" lon="12.08109054100424"><ele>272.0</ele><time>2026-03-28T09:24:47Z</time></trkpt><trkpt lat="42.032002188717684" lon="12.081097302778286"><ele>272.0</ele><time>2026-03-28T09:24:50Z</time></trkpt><trkpt lat="42.03193630986056" lon="12.08111923356607"><ele>272.0</ele><time>2026-03-28T09:24:54Z</time></trkpt><trkpt lat="42.03184745534523" lon="12.081087262117414"><ele>272.0</ele><time>2026-03-28T09:24:57Z</time></trkpt><trkpt lat="42.03176853137115" lon="12.081067125531899"><ele>272.0</ele><time>2026-03-28T09:25:04Z</time></trkpt><trkpt lat="42.03168823207261" lon="12.081078976778752"><ele>272.0</ele><time>2026-03-28T09:25:18Z</time></trkpt><trkpt lat="42.03163136982557" lon="12.081029362191849"><ele>272.0</ele><time>2026-03-28T09:25:22Z</time></trkpt><trkpt lat="42.03156405479165" lon="12.080986501307267"><ele>275.57142857142856</ele><time>2026-03-28T09:25:49Z</time></trkpt><trkpt lat="42.03149808814238" lon="12.081012897287144"><ele>279.1428571428571</ele><time>2026-03-28T09:25:58Z</time></trkpt><trkpt lat="42.03144494671475" lon="12.081059844444882"><ele>282.7142857142857</ele><time>2026-03-28T09:26:02Z</time></trkpt><trkpt lat="42.03138040287041" lon="12.081086363573041"><ele>286.2857142857143</ele><time>2026-03-28T09:26:54Z</time></trkpt><trkpt lat="42.03134970513406" lon="12.081181746499736"><ele>289.8571428571429</ele><time>2026-03-28T09:27:44Z</time></trkpt><trkpt lat="42.031303633485706" lon="12.081248581682008"><ele>293.42857142857144</ele><time>2026-03-28T09:32:07Z</time></trkpt><trkpt lat="42.03123384761288" lon="12.081233391762272"><ele>297.0</ele><time>2026-03-28T09:32:54Z</time></trkpt><trkpt lat="42.03118153008976" lon="12.0812837923683"><ele>297.0</ele><time>2026-03-28T09:32:59Z</time></trkpt><trkpt lat="42.0311326317943" lon="12.081359169991313"><ele>297.0</ele><time>2026-03-28T09:36:36Z</time></trkpt><trkpt lat="42.03107402573185" lon="12.081390312140645"><ele>297.0</ele><time>2026-03-28T09:36:39Z</time></trkpt><trkpt lat="42.030996657058125" lon="12.081425736577366"><ele>297.0</ele><time>2026-03-28T09:36:41Z</time></trkpt><trkpt lat="42.030917953045666" lon="12.081433023515713"><ele>297.0</ele><time>2026-03-28T09:36:45Z</time></trkpt><trkpt lat="42.030861928945995" lon="12.081501934155565"><ele>297.0</ele><time>2026-03-28T09:36:50Z</time></trkpt><trkpt lat="42.03078278982923" lon="12.08150372293037"><ele>294.8333333333333</ele><time>2026-03-28T09:37:49Z</time></trkpt><trkpt lat="42.03071332406371" lon="12.081495775187204"><ele>292.6666666666667</ele><time>2026-03-28T09:37:53Z</time></trkpt><trkpt lat="42.030622861817626" lon="12.081511584794221"><ele>290.5</ele><time>2026-03-28T09:37:57Z</time></trkpt><trkpt lat="42.03053676859774" lon="12.081514010192246"><ele>288.33333333333337</ele><time>2026-03-28T09:38:00Z</time></trkpt><trkpt lat="42.030472632525814" lon="12.081500140558152"><ele>286.1666666666667</ele><time>2026-03-28T09:38:03Z</time></trkpt><trkpt lat="42.03040625788826" lon="12.081461267262531"><ele>284.0</ele><time>2026-03-28T09:38:10Z</time></trkpt><trkpt lat="42.030329553529036" lon="12.081457246141726"><ele>284.0</ele><time>2026-03-28T09:38:15Z</time></trkpt><trkpt lat="42.030263885663935" lon="12.081417892254724"><ele>284.0</ele><time>2026-03-28T09:38:18Z</time></trkpt><trkpt lat="42.03019303255585" lon="12.081407842898708"><ele>284.0</ele><time>2026-03-28T09:38:22Z</time></trkpt><trkpt lat="42.030133603417376" lon="12.081349284900414"><ele>284.0</ele><time>2026-03-28T09:38:25Z</time></trkpt><trkpt lat="42.03005341787222" lon="12.081350531104292"><ele>284.0</ele><time>2026-03-28T09:38:32Z</time></trkpt><trkpt lat="42.02998852681152" lon="12.081345582094205"><ele>284.0</ele><time>2026-03-28T09:38:38Z</time></trkpt><trkpt lat="42.029908563248945" lon="12.081295232309527"><ele>280.2857142857143</ele><time>2026-03-28T09:38:41Z</time></trkpt><trkpt lat="42.02983331963769" lon="12.08128754146761"><ele>276.57142857142856</ele><time>2026-03-28T09:38:43Z</time></trkpt><trkpt lat="42.02974685059349" lon="12.081246419852555"><ele>272.85714285714283</ele><time>2026-03-28T09:38:46Z</time></trkpt><trkpt lat="42.029682954452234" lon="12.081195674427779"><ele>269.1428571428571</ele><time>2026-03-28T09:38:50Z</time></trkpt><trkpt lat="42.029643628196354" lon="12.081113482718743"><ele>265.42857142857144</ele><time>2026-03-28T09:38:54Z</time></trkpt><trkpt lat="42.02958619311999" lon="12.081063969652044"><ele>261.71428571428567</ele><time>2026-03-28T09:39:11Z</time></trkpt><trkpt lat="42.02952335579993" lon="12.081032874809035"><ele>258.0</ele><time>2026-03-28T09:39:50Z</time></trkpt><trkpt lat="42.029455361028155" lon="12.081049230916742"><ele>258.0</ele><time>2026-03-28T09:40:01Z</time></trkpt><trkpt lat="42.029396397547906" lon="12.081083837248741"><ele>258.0</ele><time>2026-03-28T09:40:11Z</time></trkpt><trkpt lat="42.029483802576465" lon="12.081072501759445"><ele>258.0</ele><time>2026-03-28T09:53:59Z</time></trkpt><trkpt lat="42.029549469336814" lon="12.081067490939569"><ele>258.0</ele><time>2026-03-28T09:54:11Z</time></trkpt><trkpt lat="42.02964712828255" lon="12.081073102323026"><ele>258.0</ele><time>2026-03-28T09:55:18Z</time></trkpt><trkpt lat="42.029675516435155" lon="12.081170735921054"><ele>258.0</ele><time>2026-03-28T09:55:21Z</time></trkpt><trkpt lat="42.029724968498336" lon="12.08126639463077"><ele>258.0</ele><time>2026-03-28T09:55:26Z</time></trkpt><trkpt lat="42.02978825984634" lon="12.08129821799744"><ele>258.0</ele><time>2026-03-28T09:55:28Z</time></trkpt><trkpt lat="42.029868676044565" lon="12.081316536168073"><ele>258.0</ele><time>2026-03-28T09:55:31Z</time></trkpt><trkpt lat="42.029929206533396" lon="12.081341917545458"><ele>258.0</ele><time>2026-03-28T09:55:33Z</time></trkpt><trkpt lat="42.030007367857166" lon="12.08135635157536"><ele>258.0</ele><time>2026-03-28T09:55:44Z</time></trkpt><trkpt lat="42.03008805637531" lon="12.08135890538902"><ele>258.0</ele><time>2026-03-28T09:55:59Z</time></trkpt><trkpt lat="42.03015722334741" lon="12.081405736842186"><ele>262.3333333333333</ele><time>2026-03-28T09:56:02Z</time></trkpt><trkpt lat="42.0302315732021" lon="12.08144442051549"><ele>266.6666666666667</ele><time>2026-03-28T09:56:11Z</time></trkpt><trkpt lat="42.030305627466966" lon="12.081481592561238"><ele>271.0</ele><time>2026-03-28T09:56:15Z</time></trkpt><trkpt lat="42.03038324135551" lon="12.081488381585524"><ele>275.33333333333337</ele><time>2026-03-28T09:56:18Z</time></trkpt><trkpt lat="42.03044550213672" lon="12.08153486078862"><ele>279.6666666666667</ele><time>2026-03-28T09:56:21Z</time></trkpt><trkpt lat="42.03052088188241" lon="12.081527007864374"><ele>284.0</ele><time>2026-03-28T09:56:24Z</time></trkpt><trkpt lat="42.030615606599234" lon="12.081525500648478"><ele>284.0</ele><time>2026-03-28T09:56:27Z</time></trkpt><trkpt lat="42.030712803115364" lon="12.081539381082907"><ele>284.0</ele><time>2026-03-28T09:56:30Z</time></trkpt><trkpt lat="42.0307866569265" lon="12.081529483868703"><ele>284.0</ele><time>2026-03-28T09:56:33Z</time></trkpt><trkpt lat="42.030844892999816" lon="12.081471115229064"><ele>284.0</ele><time>2026-03-28T09:56:36Z</time></trkpt><trkpt lat="42.030932670225894" lon="12.081459077989148"><ele>284.0</ele><time>2026-03-28T09:56:40Z</time></trkpt><trkpt lat="42.0309978318376" lon="12.08143495673526"><ele>284.0</ele><time>2026-03-28T09:56:43Z</time></trkpt><trkpt lat="42.03106369444809" lon="12.08140166309343"><ele>286.1666666666667</ele><time>2026-03-28T09:56:47Z</time></trkpt><trkpt lat="42.03113614598373" lon="12.081354874039068"><ele>288.33333333333337</ele><time>2026-03-28T09:56:57Z</time></trkpt><trkpt lat="42.03120957815357" lon="12.081292912391541"><ele>290.5</ele><time>2026-03-28T09:57:14Z</time></trkpt><trkpt lat="42.03129738301663" lon="12.081286990616652"><ele>292.6666666666667</ele><time>2026-03-28T09:57:37Z</time></trkpt><trkpt lat="42.031324009203594" lon="12.081193592951458"><ele>294.8333333333333</ele><time>2026-03-28T09:57:41Z</time></trkpt><trkpt lat="42.031380665926804" lon="12.0811388077238"><ele>297.0</ele><time>2026-03-28T09:57:49Z</time></trkpt><trkpt lat="42.03143392426921" lon="12.081063567613056"><ele>297.0</ele><time>2026-03-28T09:57:53Z</time></trkpt><trkpt lat="42.03149137515236" lon="12.081015438177136"><ele>297.0</ele><time>2026-03-28T09:57:58Z</time></trkpt><trkpt lat="42.031524032802224" lon="12.080923212513154"><ele>297.0</ele><time>2026-03-28T09:58:56Z</time></trkpt><trkpt lat="42.031567454579175" lon="12.080985035629686"><ele>297.0</ele><time>2026-03-28T09:59:02Z</time></trkpt><trkpt lat="42.031621956527445" lon="12.081038791566554"><ele>297.0</ele><time>2026-03-28T09:59:12Z</time></trkpt><trkpt lat="42.031685252830904" lon="12.081078343366526"><ele>297.0</ele><time>2026-03-28T09:59:24Z</time></trkpt><trkpt lat="42.03177536632185" lon="12.081100614917439"><ele>297.0</ele><time>2026-03-28T09:59:28Z</time></trkpt><trkpt lat="42.031858066611065" lon="12.081125352650897"><ele>292.8333333333333</ele><time>2026-03-28T09:59:31Z</time></trkpt><trkpt lat="42.03193964278676" lon="12.08111631195499"><ele>288.6666666666667</ele><time>2026-03-28T09:59:34Z</time></trkpt><trkpt lat="42.03202267226715" lon="12.081112090023582"><ele>284.5</ele><time>2026-03-28T09:59:38Z</time></trkpt><trkpt lat="42.03210228481408" lon="12.081110402741752"><ele>280.33333333333337</ele><time>2026-03-28T09:59:41Z</time></trkpt><trkpt lat="42.03218589246805" lon="12.081093239413713"><ele>276.1666666666667</ele><time>2026-03-28T09:59:44Z</time></trkpt><trkpt lat="42.03228367997207" lon="12.081083368508336"><ele>272.0</ele><time>2026-03-28T09:59:47Z</time></trkpt><trkpt lat="42.0323580729522" lon="12.081112680133648"><ele>272.0</ele><time>2026-03-28T09:59:49Z</time></trkpt><trkpt lat="42.032431515046575" lon="12.081141912539943"><ele>272.0</ele><time>2026-03-28T09:59:52Z</time></trkpt><trkpt lat="42.03252170671072" lon="12.081131128305653"><ele>272.0</ele><time>2026-03-28T09:59:55Z</time></trkpt><trkpt lat="42.03259557618412" lon="12.081107794370103"><ele>272.0</ele><time>2026-03-28T09:59:58Z</time></trkpt><trkpt lat="42.032677390593676" lon="12.081121422292558"><ele>272.0</ele><time>2026-03-28T10:00:01Z</time></trkpt><trkpt lat="42.032750853196184" lon="12.08110371874581"><ele>272.0</ele><time>2026-03-28T10:00:03Z</time></trkpt><trkpt lat="42.03282471133075" lon="12.08109634564128"><ele>268.85714285714283</ele><time>2026-03-28T10:00:06Z</time></trkpt><trkpt lat="42.03289246759826" lon="12.081104390030879"><ele>265.7142857142857</ele><time>2026-03-28T10:00:09Z</time></trkpt><trkpt lat="42.032965791297315" lon="12.081063965448728"><ele>262.57142857142856</ele><time>2026-03-28T10:00:12Z</time></trkpt><trkpt lat="42.03302906258586" lon="12.081046945928938"><ele>259.42857142857144</ele><time>2026-03-28T10:00:37Z</time></trkpt><trkpt lat="42.03304970429635" lon="12.080952399984623"><ele>256.2857142857143</ele><time>2026-03-28T10:00:42Z</time></trkpt><trkpt lat="42.03303149113545" lon="12.080819854953765"><ele>253.14285714285714</ele><time>2026-03-28T10:00:44Z</time></trkpt><trkpt lat="42.03301390112065" lon="12.080738269727926"><ele>250.0</ele><time>2026-03-28T10:00:45Z</time></trkpt><trkpt lat="42.032985355735406" lon="12.080637782805645"><ele>248.6</ele><time>2026-03-28T10:00:46Z</time></trkpt><trkpt lat="42.03294286536377" lon="12.080514948784366"><ele>247.2</ele><time>2026-03-28T10:00:48Z</time></trkpt><trkpt lat="42.03293362680509" lon="12.080391848382526"><ele>245.8</ele><time>2026-03-28T10:00:50Z</time></trkpt><trkpt lat="42.03291676983066" lon="12.080286415437039"><ele>244.4</ele><time>2026-03-28T10:00:52Z</time></trkpt><trkpt lat="42.03287199299323" lon="12.08019225565476"><ele>243.0</ele><time>2026-03-28T10:00:54Z</time></trkpt><trkpt lat="42.03281170129792" lon="12.08007275524996"><ele>243.0</ele><time>2026-03-28T10:00:56Z</time></trkpt><trkpt lat="42.03275466088226" lon="12.079963443046749"><ele>243.0</ele><time>2026-03-28T10:00:58Z</time></trkpt><trkpt lat="42.03271137355484" lon="12.079875758272973"><ele>243.0</ele><time>2026-03-28T10:01:00Z</time></trkpt><trkpt lat="42.03265717135711" lon="12.07977223556268"><ele>243.0</ele><time>2026-03-28T10:01:02Z</time></trkpt><trkpt lat="42.03260751201118" lon="12.07965914844327"><ele>243.0</ele><time>2026-03-28T10:01:04Z</time></trkpt><trkpt lat="42.0325578999348" lon="12.07956230899028"><ele>243.83333333333334</ele><time>2026-03-28T10:01:06Z</time></trkpt><trkpt lat="42.03250586091444" lon="12.079445111216057"><ele>244.66666666666669</ele><time>2026-03-28T10:01:08Z</time></trkpt><trkpt lat="42.03244084206386" lon="12.079329483018808"><ele>245.5</ele><time>2026-03-28T10:01:10Z</time></trkpt><trkpt lat="42.032393017770644" lon="12.07923118781977"><ele>246.33333333333334</ele><time>2026-03-28T10:01:12Z</time></trkpt><trkpt lat="42.03235790731456" lon="12.079133275327868"><ele>247.16666666666669</ele><time>2026-03-28T10:01:14Z</time></trkpt><trkpt lat="42.03233067934936" lon="12.079047201342998"><ele>248.0</ele><time>2026-03-28T10:01:16Z</time></trkpt><trkpt lat="42.032276443635475" lon="12.07896773379992"><ele>244.42857142857144</ele><time>2026-03-28T10:01:19Z</time></trkpt><trkpt lat="42.03224350712831" lon="12.078884859655496"><ele>240.8571428571429</ele><time>2026-03-28T10:01:25Z</time></trkpt><trkpt lat="42.032226206836555" lon="12.07880261998491"><ele>237.28571428571428</ele><time>2026-03-28T10:01:29Z</time></trkpt><trkpt lat="42.03219665023162" lon="12.078717898917438"><ele>233.71428571428572</ele><time>2026-03-28T10:01:34Z</time></trkpt><trkpt lat="42.03215964795889" lon="12.078643660277265"><ele>230.14285714285714</ele><time>2026-03-28T10:01:38Z</time></trkpt><trkpt lat="42.03212665866066" lon="12.078569092794652"><ele>226.57142857142856</ele><time>2026-03-28T10:01:41Z</time></trkpt><trkpt lat="42.03207215385096" lon="12.07847799776063"><ele>223.0</ele><time>2026-03-28T10:01:44Z</time></trkpt><trkpt lat="42.032023471216576" lon="12.078386931185232"><ele>223.0</ele><time>2026-03-28T10:01:48Z</time></trkpt><trkpt lat="42.031987735079575" lon="12.078307873665093"><ele>223.0</ele><time>2026-03-28T10:01:51Z</time></trkpt><trkpt lat="42.031973540270236" lon="12.078224497709366"><ele>223.0</ele><time>2026-03-28T10:01:55Z</time></trkpt><trkpt lat="42.031941624960815" lon="12.078150551657435"><ele>223.0</ele><time>2026-03-28T10:01:58Z</time></trkpt><trkpt lat="42.031918991697914" lon="12.07804502479521"><ele>223.0</ele><time>2026-03-28T10:02:02Z</time></trkpt><trkpt lat="42.031894607135534" lon="12.077965062785971"><ele>223.0</ele><time>2026-03-28T10:02:06Z</time></trkpt><trkpt lat="42.031846771802385" lon="12.077897094889064"><ele>223.0</ele><time>2026-03-28T10:02:10Z</time></trkpt><trkpt lat="42.03182548126475" lon="12.077813226196438"><ele>219.83333333333331</ele><time>2026-03-28T10:02:14Z</time></trkpt><trkpt lat="42.03178464005761" lon="12.077725713412727"><ele>216.66666666666666</ele><time>2026-03-28T10:02:18Z</time></trkpt><trkpt lat="42.0317400323817" lon="12.0776464242455"><ele>213.5</ele><time>2026-03-28T10:02:23Z</time></trkpt><trkpt lat="42.03169702696148" lon="12.077567339944316"><ele>210.33333333333331</ele><time>2026-03-28T10:02:31Z</time></trkpt><trkpt lat="42.03165349221255" lon="12.077494718476858"><ele>207.16666666666666</ele><time>2026-03-28T10:02:35Z</time></trkpt><trkpt lat="42.031604256995124" lon="12.077417333403913"><ele>204.0</ele><time>2026-03-28T10:02:39Z</time></trkpt><trkpt lat="42.031543921767025" lon="12.077341937294383"><ele>200.71428571428572</ele><time>2026-03-28T10:02:43Z</time></trkpt><trkpt lat="42.0314872911956" lon="12.07728656457177"><ele>197.42857142857144</ele><time>2026-03-28T10:02:47Z</time></trkpt><trkpt lat="42.031431770757855" lon="12.077219843873161"><ele>194.14285714285714</ele><time>2026-03-28T10:02:50Z</time></trkpt><trkpt lat="42.03137415071545" lon="12.077136260360797"><ele>190.85714285714286</ele><time>2026-03-28T10:02:54Z</time></trkpt><trkpt lat="42.03130321882151" lon="12.077091560626457"><ele>187.57142857142856</ele><time>2026-03-28T10:02:58Z</time></trkpt><trkpt lat="42.03124050689389" lon="12.077070419410395"><ele>184.28571428571428</ele><time>2026-03-28T10:03:01Z</time></trkpt><trkpt lat="42.03117542470214" lon="12.077064143221786"><ele>181.0</ele><time>2026-03-28T10:03:04Z</time></trkpt><trkpt lat="42.03110782198537" lon="12.077028075716978"><ele>181.0</ele><time>2026-03-28T10:03:08Z</time></trkpt><trkpt lat="42.031042854096604" lon="12.076963435349349"><ele>181.0</ele><time>2026-03-28T10:03:11Z</time></trkpt><trkpt lat="42.03097429674175" lon="12.076922634715537"><ele>181.0</ele><time>2026-03-28T10:03:14Z</time></trkpt><trkpt lat="42.0308588197609" lon="12.076865607466422"><ele>181.0</ele><time>2026-03-28T10:03:30Z</time></trkpt><trkpt lat="42.030789727519156" lon="12.076841250132613"><ele>181.0</ele><time>2026-03-28T10:03:52Z</time></trkpt><trkpt lat="42.03066977131592" lon="12.076831140046027"><ele>180.33333333333334</ele><time>2026-03-28T10:04:32Z</time></trkpt><trkpt lat="42.03060156048911" lon="12.076748889660495"><ele>179.66666666666669</ele><time>2026-03-28T10:04:35Z</time></trkpt><trkpt lat="42.03051709670765" lon="12.07670594141344"><ele>179.0</ele><time>2026-03-28T10:04:38Z</time></trkpt><trkpt lat="42.030414292274536" lon="12.076661719064028"><ele>178.33333333333334</ele><time>2026-03-28T10:04:40Z</time></trkpt><trkpt lat="42.03034159171168" lon="12.076644592351515"><ele>177.66666666666666</ele><time>2026-03-28T10:04:42Z</time></trkpt><trkpt lat="42.03027245881132" lon="12.076611647531246"><ele>177.0</ele><time>2026-03-28T10:04:44Z</time></trkpt><trkpt lat="42.03023870181034" lon="12.07653433365386"><ele>175.0</ele><time>2026-03-28T10:04:47Z</time></trkpt><trkpt lat="42.030166870016345" lon="12.076469752499646"><ele>173.0</ele><time>2026-03-28T10:04:50Z</time></trkpt><trkpt lat="42.03011842785845" lon="12.076402611252457"><ele>171.0</ele><time>2026-03-28T10:04:53Z</time></trkpt><trkpt lat="42.03006250455004" lon="12.076294821507775"><ele>169.0</ele><time>2026-03-28T10:04:55Z</time></trkpt><trkpt lat="42.03001946831266" lon="12.076209160498852"><ele>167.0</ele><time>2026-03-28T10:04:57Z</time></trkpt><trkpt lat="42.02998252652354" lon="12.076135029320502"><ele>165.0</ele><time>2026-03-28T10:04:59Z</time></trkpt><trkpt lat="42.0299157224237" lon="12.076046317600259"><ele>164.0</ele><time>2026-03-28T10:05:02Z</time></trkpt><trkpt lat="42.0298564297357" lon="12.076000902228131"><ele>163.0</ele><time>2026-03-28T10:05:05Z</time></trkpt><trkpt lat="42.02978244906486" lon="12.075974222250109"><ele>162.0</ele><time>2026-03-28T10:05:08Z</time></trkpt><trkpt lat="42.02971423757184" lon="12.075920044257309"><ele>161.0</ele><time>2026-03-28T10:05:11Z</time></trkpt><trkpt lat="42.02964827387511" lon="12.075851041526677"><ele>160.0</ele><time>2026-03-28T10:05:14Z</time></trkpt><trkpt lat="42.02957799038196" lon="12.075800443392183"><ele>159.0</ele><time>2026-03-28T10:05:15Z</time></trkpt><trkpt lat="42.029468601354225" lon="12.075726155492152"><ele>157.33333333333334</ele><time>2026-03-28T10:05:17Z</time></trkpt><trkpt lat="42.02937311346794" lon="12.075683566246946"><ele>155.66666666666666</ele><time>2026-03-28T10:05:19Z</time></trkpt><trkpt lat="42.02930777629956" lon="12.075665897700237"><ele>154.0</ele><time>2026-03-28T10:05:30Z</time></trkpt><trkpt lat="42.02924886984025" lon="12.075607083516662"><ele>152.33333333333331</ele><time>2026-03-28T10:05:33Z</time></trkpt><trkpt lat="42.02918617270642" lon="12.075560630374815"><ele>150.66666666666666</ele><time>2026-03-28T10:05:35Z</time></trkpt><trkpt lat="42.029097309700404" lon="12.075493078016592"><ele>149.0</ele><time>2026-03-28T10:05:37Z</time></trkpt><trkpt lat="42.02898653318961" lon="12.075451812756096"><ele>147.6</ele><time>2026-03-28T10:05:41Z</time></trkpt><trkpt lat="42.02889110108225" lon="12.075424736792389"><ele>146.2</ele><time>2026-03-28T10:05:43Z</time></trkpt><trkpt lat="42.02877459360249" lon="12.075404100121649"><ele>144.79999999999998</ele><time>2026-03-28T10:05:45Z</time></trkpt><trkpt lat="42.02867316271518" lon="12.075349123682837"><ele>143.4</ele><time>2026-03-28T10:05:47Z</time></trkpt><trkpt lat="42.02860484954732" lon="12.075298601143611"><ele>142.0</ele><time>2026-03-28T10:05:49Z</time></trkpt><trkpt lat="42.02851697362959" lon="12.075221184307882"><ele>142.0</ele><time>2026-03-28T10:06:04Z</time></trkpt><trkpt lat="42.02845502861803" lon="12.075180937449911"><ele>142.0</ele><time>2026-03-28T10:06:05Z</time></trkpt><trkpt lat="42.02839851815069" lon="12.075143412542678"><ele>142.0</ele><time>2026-03-28T10:06:06Z</time></trkpt><trkpt lat="42.02831612053244" lon="12.075057973264226"><ele>142.0</ele><time>2026-03-28T10:06:08Z</time></trkpt><trkpt lat="42.028286222715046" lon="12.074977721331331"><ele>142.0</ele><time>2026-03-28T10:06:09Z</time></trkpt><trkpt lat="42.028261538127964" lon="12.074886998257956"><ele>142.0</ele><time>2026-03-28T10:06:10Z</time></trkpt><trkpt lat="42.02822711929164" lon="12.074812578328736"><ele>142.0</ele><time>2026-03-28T10:06:11Z</time></trkpt><trkpt lat="42.028173731779695" lon="12.074745355234748"><ele>140.0</ele><time>2026-03-28T10:06:12Z</time></trkpt><trkpt lat="42.02810866857711" lon="12.074674900620531"><ele>138.0</ele><time>2026-03-28T10:06:13Z</time></trkpt><trkpt lat="42.02804850450241" lon="12.07460214639711"><ele>136.0</ele><time>2026-03-28T10:06:14Z</time></trkpt><trkpt lat="42.027993658460986" lon="12.074532185563804"><ele>134.0</ele><time>2026-03-28T10:06:15Z</time></trkpt><trkpt lat="42.02794264193122" lon="12.074466976537966"><ele>132.0</ele><time>2026-03-28T10:06:16Z</time></trkpt><trkpt lat="42.02788202931821" lon="12.074392828723479"><ele>130.0</ele><time>2026-03-28T10:06:17Z</time></trkpt><trkpt lat="42.02780925461616" lon="12.074319468575148"><ele>130.0</ele><time>2026-03-28T10:06:18Z</time></trkpt><trkpt lat="42.027743359276194" lon="12.07424980896094"><ele>130.0</ele><time>2026-03-28T10:06:19Z</time></trkpt><trkpt lat="42.02766955252936" lon="12.074172102305786"><ele>130.0</ele><time>2026-03-28T10:06:20Z</time></trkpt><trkpt lat="42.02760560855347" lon="12.074095085107565"><ele>130.0</ele><time>2026-03-28T10:06:21Z</time></trkpt><trkpt lat="42.027546295147935" lon="12.074026904434112"><ele>130.0</ele><time>2026-03-28T10:06:22Z</time></trkpt><trkpt lat="42.027485777981894" lon="12.0739681109256"><ele>130.0</ele><time>2026-03-28T10:06:23Z</time></trkpt><trkpt lat="42.02742395400606" lon="12.07390333465897"><ele>129.0</ele><time>2026-03-28T10:06:24Z</time></trkpt><trkpt lat="42.02736364608271" lon="12.073843253565672"><ele>128.0</ele><time>2026-03-28T10:06:25Z</time></trkpt><trkpt lat="42.02730538374503" lon="12.073780515536763"><ele>127.0</ele><time>2026-03-28T10:06:26Z</time></trkpt><trkpt lat="42.02724252782543" lon="12.07370837584766"><ele>126.0</ele><time>2026-03-28T10:06:27Z</time></trkpt><trkpt lat="42.02718264875" lon="12.073632120625543"><ele>125.00000000000001</ele><time>2026-03-28T10:06:28Z</time></trkpt><trkpt lat="42.027119404840086" lon="12.073558253493037"><ele>124.0</ele><time>2026-03-28T10:06:29Z</time></trkpt><trkpt lat="42.02705174932055" lon="12.073499470299438"><ele>124.00000000000001</ele><time>2026-03-28T10:06:30Z</time></trkpt><trkpt lat="42.02698689459736" lon="12.073442218149982"><ele>124.0</ele><time>2026-03-28T10:06:31Z</time></trkpt><trkpt lat="42.02692681686814" lon="12.073376153557485"><ele>124.0</ele><time>2026-03-28T10:06:32Z</time></trkpt><trkpt lat="42.02686921108704" lon="12.073314856096523"><ele>124.0</ele><time>2026-03-28T10:06:33Z</time></trkpt><trkpt lat="42.02680107756303" lon="12.07326221313497"><ele>124.00000000000001</ele><time>2026-03-28T10:06:34Z</time></trkpt><trkpt lat="42.026732254438905" lon="12.073230265424572"><ele>124.0</ele><time>2026-03-28T10:06:35Z</time></trkpt><trkpt lat="42.026664115903806" lon="12.07321005882045"><ele>122.66666666666667</ele><time>2026-03-28T10:06:36Z</time></trkpt><trkpt lat="42.02659147383696" lon="12.07317753916343"><ele>121.33333333333334</ele><time>2026-03-28T10:06:37Z</time></trkpt><trkpt lat="42.02652130749465" lon="12.073127102580854"><ele>120.0</ele><time>2026-03-28T10:06:38Z</time></trkpt><trkpt lat="42.02645726886867" lon="12.073063403903255"><ele>118.66666666666666</ele><time>2026-03-28T10:06:39Z</time></trkpt><trkpt lat="42.02639318685804" lon="12.072992256233151"><ele>117.33333333333333</ele><time>2026-03-28T10:06:40Z</time></trkpt><trkpt lat="42.0263280468251" lon="12.072928071959264"><ele>116.0</ele><time>2026-03-28T10:06:41Z</time></trkpt><trkpt lat="42.026261556931246" lon="12.072864851172282"><ele>115.99999999999999</ele><time>2026-03-28T10:06:42Z</time></trkpt><trkpt lat="42.02619565163383" lon="12.072798080259302"><ele>116.0</ele><time>2026-03-28T10:06:43Z</time></trkpt><trkpt lat="42.02614094629913" lon="12.072729324457743"><ele>116.0</ele><time>2026-03-28T10:06:44Z</time></trkpt><trkpt lat="42.0260933724296" lon="12.072647259228225"><ele>116.0</ele><time>2026-03-28T10:06:45Z</time></trkpt><trkpt lat="42.02603248881077" lon="12.072571035932251"><ele>115.99999999999999</ele><time>2026-03-28T10:06:46Z</time></trkpt><trkpt lat="42.025962856665316" lon="12.072501668589318"><ele>116.0</ele><time>2026-03-28T10:06:47Z</time></trkpt><trkpt lat="42.02590150211787" lon="12.072443217329782"><ele>115.99999999999999</ele><time>2026-03-28T10:06:48Z</time></trkpt><trkpt lat="42.025818001596306" lon="12.072367634744708"><ele>116.0</ele><time>2026-03-28T10:06:50Z</time></trkpt><trkpt lat="42.025767122723586" lon="12.072307404914374"><ele>116.0</ele><time>2026-03-28T10:06:52Z</time></trkpt><trkpt lat="42.02570420297635" lon="12.072282770381037"><ele>116.0</ele><time>2026-03-28T10:07:10Z</time></trkpt><trkpt lat="42.02577514949894" lon="12.072341320780495"><ele>115.99999999999999</ele><time>2026-03-28T10:07:16Z</time></trkpt><trkpt lat="42.02583782594672" lon="12.072382835012906"><ele>116.0</ele><time>2026-03-28T10:07:17Z</time></trkpt><trkpt lat="42.02589638267179" lon="12.07245704528299"><ele>115.99999999999999</ele><time>2026-03-28T10:07:18Z</time></trkpt><trkpt lat="42.02596633232041" lon="12.072456475428517"><ele>116.0</ele><time>2026-03-28T10:07:33Z</time></trkpt><trkpt lat="42.02603051229864" lon="12.072423112627162"><ele>116.0</ele><time>2026-03-28T10:08:19Z</time></trkpt><trkpt lat="42.026085879263235" lon="12.072465554053677"><ele>116.0</ele><time>2026-03-28T10:08:21Z</time></trkpt><trkpt lat="42.02614659107994" lon="12.072539272302793"><ele>115.99999999999999</ele><time>2026-03-28T10:08:24Z</time></trkpt><trkpt lat="42.02619960315774" lon="12.072612819571159"><ele>116.0</ele><time>2026-03-28T10:08:27Z</time></trkpt><trkpt lat="42.02626883245881" lon="12.072689242955922"><ele>115.99999999999999</ele><time>2026-03-28T10:08:40Z</time></trkpt><trkpt lat="42.026321477278294" lon="12.072756652941436"><ele>116.0</ele><time>2026-03-28T10:08:47Z</time></trkpt><trkpt lat="42.026286636385606" lon="12.072831935400446"><ele>116.0</ele><time>2026-03-28T10:08:49Z</time></trkpt><trkpt lat="42.026316390519575" lon="12.072912997327023"><ele>116.0</ele><time>2026-03-28T10:08:53Z</time></trkpt><trkpt lat="42.0264087670914" lon="12.072994982835578"><ele>115.99999999999999</ele><time>2026-03-28T10:08:55Z</time></trkpt><trkpt lat="42.026498973135986" lon="12.073096959217384"><ele>116.0</ele><time>2026-03-28T10:08:57Z</time></trkpt><trkpt lat="42.02658780096295" lon="12.073170178378684"><ele>116.5</ele><time>2026-03-28T10:08:59Z</time></trkpt><trkpt lat="42.02665223912332" lon="12.073203717003079"><ele>117.0</ele><time>2026-03-28T10:09:00Z</time></trkpt><trkpt lat="42.02675457384379" lon="12.073246631832777"><ele>117.5</ele><time>2026-03-28T10:09:02Z</time></trkpt><trkpt lat="42.0268207059615" lon="12.073292814937806"><ele>118.0</ele><time>2026-03-28T10:09:04Z</time></trkpt><trkpt lat="42.02699906839053" lon="12.073447791613694"><ele>119.00000000000001</ele><time>2026-03-28T10:09:06Z</time></trkpt><trkpt lat="42.02704670162258" lon="12.073511502907651"><ele>120.0</ele><time>2026-03-28T10:09:07Z</time></trkpt><trkpt lat="42.02714903721643" lon="12.073600927907263"><ele>121.0</ele><time>2026-03-28T10:09:09Z</time></trkpt><trkpt lat="42.02719758007869" lon="12.073655024113833"><ele>122.0</ele><time>2026-03-28T10:09:10Z</time></trkpt><trkpt lat="42.02725181193885" lon="12.073720529580868"><ele>123.00000000000001</ele><time>2026-03-28T10:09:11Z</time></trkpt><trkpt lat="42.02730145508848" lon="12.07378013639097"><ele>124.0</ele><time>2026-03-28T10:09:12Z</time></trkpt><trkpt lat="42.02735335342342" lon="12.073841816932022"><ele>124.0</ele><time>2026-03-28T10:09:13Z</time></trkpt><trkpt lat="42.02740068342009" lon="12.07390321326512"><ele>124.0</ele><time>2026-03-28T10:09:14Z</time></trkpt><trkpt lat="42.027499858905074" lon="12.073981553758836"><ele>124.0</ele><time>2026-03-28T10:09:16Z</time></trkpt><trkpt lat="42.02755077553578" lon="12.074037372865067"><ele>124.0</ele><time>2026-03-28T10:09:17Z</time></trkpt><trkpt lat="42.02763201238447" lon="12.074144267731633"><ele>124.0</ele><time>2026-03-28T10:09:19Z</time></trkpt><trkpt lat="42.02772032370874" lon="12.0742252673608"><ele>125.2</ele><time>2026-03-28T10:09:21Z</time></trkpt><trkpt lat="42.02780713415369" lon="12.074315852003519"><ele>126.4</ele><time>2026-03-28T10:09:23Z</time></trkpt><trkpt lat="42.02785561106576" lon="12.074372190036218"><ele>127.6</ele><time>2026-03-28T10:09:24Z</time></trkpt><trkpt lat="42.02792430299847" lon="12.074477028526374"><ele>128.8</ele><time>2026-03-28T10:09:26Z</time></trkpt><trkpt lat="42.02799934059682" lon="12.074574369657041"><ele>130.0</ele><time>2026-03-28T10:09:28Z</time></trkpt><trkpt lat="42.02808508168217" lon="12.074661650618804"><ele>130.0</ele><time>2026-03-28T10:09:30Z</time></trkpt><trkpt lat="42.0281609230905" lon="12.074769346342183"><ele>130.0</ele><time>2026-03-28T10:09:32Z</time></trkpt><trkpt lat="42.028231692118645" lon="12.074858952389416"><ele>130.0</ele><time>2026-03-28T10:09:34Z</time></trkpt><trkpt lat="42.02829843852017" lon="12.0749820630979"><ele>130.0</ele><time>2026-03-28T10:09:36Z</time></trkpt><trkpt lat="42.02832859333024" lon="12.07507715188324"><ele>130.0</ele><time>2026-03-28T10:09:38Z</time></trkpt><trkpt lat="42.02839842393739" lon="12.075149415845184"><ele>132.0</ele><time>2026-03-28T10:09:40Z</time></trkpt><trkpt lat="42.02848362418681" lon="12.075207512249813"><ele>134.0</ele><time>2026-03-28T10:09:42Z</time></trkpt><trkpt lat="42.028551140018614" lon="12.075269537150584"><ele>136.0</ele><time>2026-03-28T10:09:44Z</time></trkpt><trkpt lat="42.028607259679276" lon="12.075325936456172"><ele>138.0</ele><time>2026-03-28T10:09:46Z</time></trkpt><trkpt lat="42.02867827005911" lon="12.075359842335583"><ele>140.0</ele><time>2026-03-28T10:09:48Z</time></trkpt><trkpt lat="42.02876836521696" lon="12.075379716158919"><ele>142.0</ele><time>2026-03-28T10:09:51Z</time></trkpt><trkpt lat="42.02885934066332" lon="12.075395259103566"><ele>142.0</ele><time>2026-03-28T10:09:54Z</time></trkpt><trkpt lat="42.02895506157296" lon="12.075409198615237"><ele>142.0</ele><time>2026-03-28T10:10:08Z</time></trkpt><trkpt lat="42.02904782680858" lon="12.075458952687818"><ele>142.0</ele><time>2026-03-28T10:10:12Z</time></trkpt><trkpt lat="42.02913448474894" lon="12.075534119995977"><ele>142.0</ele><time>2026-03-28T10:10:15Z</time></trkpt><trkpt lat="42.02923601546488" lon="12.07559058801945"><ele>142.0</ele><time>2026-03-28T10:10:17Z</time></trkpt><trkpt lat="42.02930263137787" lon="12.075629554013634"><ele>143.16666666666669</ele><time>2026-03-28T10:10:19Z</time></trkpt><trkpt lat="42.0293656123037" lon="12.075667506370854"><ele>144.33333333333334</ele><time>2026-03-28T10:10:21Z</time></trkpt><trkpt lat="42.02942397821423" lon="12.075712962443115"><ele>145.5</ele><time>2026-03-28T10:10:24Z</time></trkpt><trkpt lat="42.02949437892436" lon="12.075769682095281"><ele>146.66666666666666</ele><time>2026-03-28T10:10:27Z</time></trkpt><trkpt lat="42.02957227056156" lon="12.07582384766047"><ele>147.83333333333331</ele><time>2026-03-28T10:10:29Z</time></trkpt><trkpt lat="42.029653354335444" lon="12.07586490296499"><ele>149.0</ele><time>2026-03-28T10:10:32Z</time></trkpt><trkpt lat="42.029717616924266" lon="12.075913791673894"><ele>151.0</ele><time>2026-03-28T10:10:35Z</time></trkpt><trkpt lat="42.02981602586369" lon="12.075957409707335"><ele>153.0</ele><time>2026-03-28T10:10:56Z</time></trkpt><trkpt lat="42.02988236496345" lon="12.076078555863456"><ele>155.0</ele><time>2026-03-28T10:11:48Z</time></trkpt><trkpt lat="42.02986408039923" lon="12.07599700384323"><ele>157.0</ele><time>2026-03-28T10:12:18Z</time></trkpt><trkpt lat="42.029768262213246" lon="12.075950138946181"><ele>159.0</ele><time>2026-03-28T10:12:21Z</time></trkpt><trkpt lat="42.02971117880611" lon="12.07587517815854"><ele>159.0</ele><time>2026-03-28T10:12:25Z</time></trkpt><trkpt lat="42.02964218214294" lon="12.075827906039367"><ele>159.0</ele><time>2026-03-28T10:12:28Z</time></trkpt><trkpt lat="42.029583140503384" lon="12.075763840966054"><ele>159.0</ele><time>2026-03-28T10:12:30Z</time></trkpt><trkpt lat="42.02949904739511" lon="12.075717326439486"><ele>159.0</ele><time>2026-03-28T10:12:32Z</time></trkpt><trkpt lat="42.02942623750977" lon="12.075681360142541"><ele>159.0</ele><time>2026-03-28T10:12:34Z</time></trkpt><trkpt lat="42.02936182162908" lon="12.075644899704294"><ele>159.0</ele><time>2026-03-28T10:12:36Z</time></trkpt><trkpt lat="42.029284709706864" lon="12.075605413729523"><ele>157.33333333333334</ele><time>2026-03-28T10:12:38Z</time></trkpt><trkpt lat="42.02921724492275" lon="12.075520882748076"><ele>155.66666666666666</ele><time>2026-03-28T10:12:40Z</time></trkpt><trkpt lat="42.02916740693987" lon="12.075451229405521"><ele>154.0</ele><time>2026-03-28T10:12:44Z</time></trkpt><trkpt lat="42.02904011280527" lon="12.075406689244932"><ele>152.33333333333331</ele><time>2026-03-28T10:13:06Z</time></trkpt><trkpt lat="42.02897524997851" lon="12.075367400022454"><ele>150.66666666666666</ele><time>2026-03-28T10:14:35Z</time></trkpt><trkpt lat="42.028974158438025" lon="12.075276584934375"><ele>149.0</ele><time>2026-03-28T10:14:37Z</time></trkpt><trkpt lat="42.02919233334667" lon="12.075360661447743"><ele>149.0</ele><time>2026-03-28T10:14:48Z</time></trkpt><trkpt lat="42.02927600276052" lon="12.075410617804243"><ele>149.0</ele><time>2026-03-28T10:14:50Z</time></trkpt><trkpt lat="42.02933422189229" lon="12.07547622134068"><ele>149.0</ele><time>2026-03-28T10:14:58Z</time></trkpt><trkpt lat="42.029401079173574" lon="12.075489141332564"><ele>149.0</ele><time>2026-03-28T10:15:06Z</time></trkpt><trkpt lat="42.02946075361397" lon="12.07543956731447"><ele>149.0</ele><time>2026-03-28T10:15:11Z</time></trkpt><trkpt lat="42.02946186699019" lon="12.075331052120518"><ele>149.0</ele><time>2026-03-28T10:15:14Z</time></trkpt><trkpt lat="42.02944722336997" lon="12.075241453558304"><ele>149.0</ele><time>2026-03-28T10:15:17Z</time></trkpt><trkpt lat="42.02948978425615" lon="12.075168882910994"><ele>149.0</ele><time>2026-03-28T10:15:21Z</time></trkpt><trkpt lat="42.029526096007" lon="12.075055746048175"><ele>149.0</ele><time>2026-03-28T10:15:26Z</time></trkpt><trkpt lat="42.029546258956294" lon="12.074970040394712"><ele>149.0</ele><time>2026-03-28T10:15:28Z</time></trkpt><trkpt lat="42.02957476633078" lon="12.074877078185027"><ele>149.0</ele><time>2026-03-28T10:15:32Z</time></trkpt><trkpt lat="42.029639018243756" lon="12.07476471383538"><ele>149.0</ele><time>2026-03-28T10:17:36Z</time></trkpt><trkpt lat="42.02970602528808" lon="12.074766017948626"><ele>149.0</ele><time>2026-03-28T10:17:45Z</time></trkpt><trkpt lat="42.029773335950004" lon="12.074790512364086"><ele>149.0</ele><time>2026-03-28T10:17:52Z</time></trkpt><trkpt lat="42.02986159735169" lon="12.074839229703526"><ele>149.0</ele><time>2026-03-28T10:17:56Z</time></trkpt><trkpt lat="42.02989447111625" lon="12.074948557520187"><ele>149.0</ele><time>2026-03-28T10:18:00Z</time></trkpt><trkpt lat="42.029930463858065" lon="12.075046577884537"><ele>149.0</ele><time>2026-03-28T10:18:03Z</time></trkpt><trkpt lat="42.029952572535834" lon="12.075133080509245"><ele>149.0</ele><time>2026-03-28T10:18:05Z</time></trkpt><trkpt lat="42.0299916710123" lon="12.075222356331434"><ele>150.5</ele><time>2026-03-28T10:18:11Z</time></trkpt><trkpt lat="42.030037041001094" lon="12.075309226222942"><ele>152.0</ele><time>2026-03-28T10:18:27Z</time></trkpt><trkpt lat="42.030099830824284" lon="12.075386879619101"><ele>153.5</ele><time>2026-03-28T10:18:31Z</time></trkpt><trkpt lat="42.03015741072443" lon="12.075454679786667"><ele>155.0</ele><time>2026-03-28T10:19:30Z</time></trkpt><trkpt lat="42.03011096174105" lon="12.0753819020427"><ele>156.5</ele><time>2026-03-28T10:19:54Z</time></trkpt><trkpt lat="42.03008275267657" lon="12.075298222901196"><ele>158.0</ele><time>2026-03-28T10:19:58Z</time></trkpt><trkpt lat="42.03004268913669" lon="12.075221845264805"><ele>158.00000000000003</ele><time>2026-03-28T10:20:02Z</time></trkpt><trkpt lat="42.030000097576355" lon="12.075129333155088"><ele>158.0</ele><time>2026-03-28T10:20:06Z</time></trkpt><trkpt lat="42.02997255817699" lon="12.07505189284406"><ele>158.0</ele><time>2026-03-28T10:20:12Z</time></trkpt><trkpt lat="42.02997256337217" lon="12.074952043570958"><ele>158.0</ele><time>2026-03-28T10:20:23Z</time></trkpt><trkpt lat="42.029929984671405" lon="12.074883751635719"><ele>158.0</ele><time>2026-03-28T10:20:27Z</time></trkpt><trkpt lat="42.02985521170183" lon="12.074843565351982"><ele>158.00000000000003</ele><time>2026-03-28T10:20:32Z</time></trkpt><trkpt lat="42.02978385593497" lon="12.074787003301266"><ele>158.0</ele><time>2026-03-28T10:20:36Z</time></trkpt><trkpt lat="42.029700341852646" lon="12.074744508506114"><ele>156.5</ele><time>2026-03-28T10:20:50Z</time></trkpt><trkpt lat="42.02962699780658" lon="12.074809428469479"><ele>155.0</ele><time>2026-03-28T10:20:54Z</time></trkpt><trkpt lat="42.02957377454778" lon="12.074898690780167"><ele>153.5</ele><time>2026-03-28T10:20:56Z</time></trkpt><trkpt lat="42.02954600392286" lon="12.075011337609698"><ele>152.0</ele><time>2026-03-28T10:20:58Z</time></trkpt><trkpt lat="42.02953464157111" lon="12.075134533287681"><ele>150.5</ele><time>2026-03-28T10:21:01Z</time></trkpt><trkpt lat="42.02950931228777" lon="12.075222208749672"><ele>149.0</ele><time>2026-03-28T10:21:05Z</time></trkpt><trkpt lat="42.02951865989167" lon="12.07530801252682"><ele>149.0</ele><time>2026-03-28T10:21:09Z</time></trkpt><trkpt lat="42.02948948201434" lon="12.075392722472973"><ele>149.0</ele><time>2026-03-28T10:21:11Z</time></trkpt><trkpt lat="42.02942040519919" lon="12.075398386459618"><ele>149.0</ele><time>2026-03-28T10:21:16Z</time></trkpt><trkpt lat="42.029341824715" lon="12.075379125280117"><ele>149.0</ele><time>2026-03-28T10:21:20Z</time></trkpt><trkpt lat="42.029283150450794" lon="12.075310968288084"><ele>149.0</ele><time>2026-03-28T10:21:22Z</time></trkpt><trkpt lat="42.02922812737661" lon="12.075228187481311"><ele>149.0</ele><time>2026-03-28T10:21:25Z</time></trkpt><trkpt lat="42.02916354911812" lon="12.07523829599965"><ele>149.0</ele><time>2026-03-28T10:21:27Z</time></trkpt><trkpt lat="42.02909368912153" lon="12.075256986162948"><ele>147.6</ele><time>2026-03-28T10:21:29Z</time></trkpt><trkpt lat="42.029060137934124" lon="12.075332766398338"><ele>146.2</ele><time>2026-03-28T10:21:32Z</time></trkpt><trkpt lat="42.028969544352115" lon="12.075356478506565"><ele>144.79999999999998</ele><time>2026-03-28T10:21:39Z</time></trkpt><trkpt lat="42.02881673678033" lon="12.075348379381927"><ele>143.4</ele><time>2026-03-28T10:21:43Z</time></trkpt><trkpt lat="42.028714389351144" lon="12.07530765389727"><ele>142.0</ele><time>2026-03-28T10:21:45Z</time></trkpt><trkpt lat="42.02866284185365" lon="12.075258013986865"><ele>142.0</ele><time>2026-03-28T10:21:47Z</time></trkpt><trkpt lat="42.02859690202913" lon="12.075248403063277"><ele>142.0</ele><time>2026-03-28T10:21:55Z</time></trkpt><trkpt lat="42.0285284264721" lon="12.07521375502402"><ele>142.0</ele><time>2026-03-28T10:22:21Z</time></trkpt><trkpt lat="42.02844844107057" lon="12.075137614303328"><ele>142.0</ele><time>2026-03-28T10:22:23Z</time></trkpt><trkpt lat="42.02837843808173" lon="12.075090566687258"><ele>142.0</ele><time>2026-03-28T10:22:25Z</time></trkpt><trkpt lat="42.0283773103722" lon="12.075227175649019"><ele>142.0</ele><time>2026-03-28T10:22:30Z</time></trkpt><trkpt lat="42.02838173988926" lon="12.075313117574199"><ele>140.5</ele><time>2026-03-28T10:22:31Z</time></trkpt><trkpt lat="42.02830763906307" lon="12.075416938307455"><ele>139.0</ele><time>2026-03-28T10:22:33Z</time></trkpt><trkpt lat="42.02824520226225" lon="12.075461131549327"><ele>137.5</ele><time>2026-03-28T10:22:34Z</time></trkpt><trkpt lat="42.02818316082944" lon="12.075514292206819"><ele>136.0</ele><time>2026-03-28T10:22:35Z</time></trkpt><trkpt lat="42.02812435058347" lon="12.075576155704733"><ele>134.5</ele><time>2026-03-28T10:22:36Z</time></trkpt><trkpt lat="42.028071532711024" lon="12.075625748275083"><ele>133.0</ele><time>2026-03-28T10:22:37Z</time></trkpt><trkpt lat="42.027993265050455" lon="12.07570207354847"><ele>133.0</ele><time>2026-03-28T10:22:39Z</time></trkpt><trkpt lat="42.027895768853384" lon="12.075730612538896"><ele>133.0</ele><time>2026-03-28T10:22:41Z</time></trkpt><trkpt lat="42.02780720764348" lon="12.075802413400629"><ele>133.0</ele><time>2026-03-28T10:22:43Z</time></trkpt><trkpt lat="42.02771503496941" lon="12.07587427135559"><ele>133.0</ele><time>2026-03-28T10:22:45Z</time></trkpt><trkpt lat="42.02768095951157" lon="12.076016426224285"><ele>133.0</ele><time>2026-03-28T10:22:47Z</time></trkpt><trkpt lat="42.02767501382893" lon="12.076104137167496"><ele>133.20000000000002</ele><time>2026-03-28T10:22:48Z</time></trkpt><trkpt lat="42.02769905756469" lon="12.076243991321574"><ele>133.4</ele><time>2026-03-28T10:22:50Z</time></trkpt><trkpt lat="42.0277157714506" lon="12.076346951722556"><ele>133.60000000000002</ele><time>2026-03-28T10:22:52Z</time></trkpt><trkpt lat="42.02770470535529" lon="12.076474326478737"><ele>133.8</ele><time>2026-03-28T10:22:54Z</time></trkpt><trkpt lat="42.02762436757638" lon="12.076490529850386"><ele>134.0</ele><time>2026-03-28T10:22:57Z</time></trkpt><trkpt lat="42.02751021703047" lon="12.076562740657847"><ele>133.2</ele><time>2026-03-28T10:23:00Z</time></trkpt><trkpt lat="42.02744574233066" lon="12.07661788086542"><ele>132.4</ele><time>2026-03-28T10:23:02Z</time></trkpt><trkpt lat="42.02730864202006" lon="12.076630566563967"><ele>131.6</ele><time>2026-03-28T10:23:04Z</time></trkpt><trkpt lat="42.02723056364318" lon="12.076650129328199"><ele>130.8</ele><time>2026-03-28T10:23:05Z</time></trkpt><trkpt lat="42.02711176160973" lon="12.076688682633705"><ele>130.0</ele><time>2026-03-28T10:23:07Z</time></trkpt><trkpt lat="42.027031023241555" lon="12.076738439678019"><ele>130.0</ele><time>2026-03-28T10:23:08Z</time></trkpt><trkpt lat="42.02695284104087" lon="12.076767250320849"><ele>130.0</ele><time>2026-03-28T10:23:09Z</time></trkpt><trkpt lat="42.0268719796822" lon="12.076752547452092"><ele>130.0</ele><time>2026-03-28T10:23:12Z</time></trkpt><trkpt lat="42.02681469495829" lon="12.07679323743868"><ele>130.0</ele><time>2026-03-28T10:23:13Z</time></trkpt><trkpt lat="42.026761698192104" lon="12.076892320551233"><ele>130.0</ele><time>2026-03-28T10:23:15Z</time></trkpt><trkpt lat="42.02672696207365" lon="12.077008413209816"><ele>130.0</ele><time>2026-03-28T10:23:16Z</time></trkpt><trkpt lat="42.02667762006923" lon="12.077126020613086"><ele>129.0</ele><time>2026-03-28T10:23:17Z</time></trkpt><trkpt lat="42.02662921847969" lon="12.07723474309089"><ele>128.0</ele><time>2026-03-28T10:23:18Z</time></trkpt><trkpt lat="42.02659111108994" lon="12.077311029794554"><ele>127.0</ele><time>2026-03-28T10:23:19Z</time></trkpt><trkpt lat="42.02652089589683" lon="12.077372950143111"><ele>126.0</ele><time>2026-03-28T10:23:28Z</time></trkpt><trkpt lat="42.02645088385942" lon="12.07733704923582"><ele>125.00000000000001</ele><time>2026-03-28T10:23:30Z</time></trkpt><trkpt lat="42.02635801915771" lon="12.077297930281215"><ele>124.0</ele><time>2026-03-28T10:23:32Z</time></trkpt><trkpt lat="42.02630049809197" lon="12.07733722929794"><ele>124.00000000000001</ele><time>2026-03-28T10:23:33Z</time></trkpt><trkpt lat="42.02621584955279" lon="12.077380955883678"><ele>124.0</ele><time>2026-03-28T10:23:34Z</time></trkpt><trkpt lat="42.02611894086413" lon="12.077390841020524"><ele>124.0</ele><time>2026-03-28T10:23:35Z</time></trkpt><trkpt lat="42.026024409458074" lon="12.07738012376506"><ele>124.0</ele><time>2026-03-28T10:23:36Z</time></trkpt><trkpt lat="42.02593865640169" lon="12.077370097818877"><ele>124.00000000000001</ele><time>2026-03-28T10:23:37Z</time></trkpt><trkpt lat="42.02586930845357" lon="12.077352281091613"><ele>124.0</ele><time>2026-03-28T10:23:38Z</time></trkpt><trkpt lat="42.02577052265441" lon="12.07728322828084"><ele>122.2</ele><time>2026-03-28T10:23:40Z</time></trkpt><trkpt lat="42.025676398144164" lon="12.077135640318064"><ele>120.4</ele><time>2026-03-28T10:23:42Z</time></trkpt><trkpt lat="42.02562864404683" lon="12.077080305900338"><ele>118.6</ele><time>2026-03-28T10:23:43Z</time></trkpt><trkpt lat="42.02554433980823" lon="12.07709916411778"><ele>116.8</ele><time>2026-03-28T10:23:45Z</time></trkpt><trkpt lat="42.02547931441406" lon="12.077206688251659"><ele>115.0</ele><time>2026-03-28T10:23:47Z</time></trkpt><trkpt lat="42.025408301744854" lon="12.07726843109981"><ele>115.0</ele><time>2026-03-28T10:23:49Z</time></trkpt><trkpt lat="42.02527117438659" lon="12.077214768459417"><ele>115.0</ele><time>2026-03-28T10:23:51Z</time></trkpt><trkpt lat="42.025187128396716" lon="12.077134520625078"><ele>115.0</ele><time>2026-03-28T10:23:52Z</time></trkpt><trkpt lat="42.02509521408753" lon="12.077053659230637"><ele>115.0</ele><time>2026-03-28T10:23:53Z</time></trkpt><trkpt lat="42.02500515204018" lon="12.076980256121677"><ele>113.50000000000001</ele><time>2026-03-28T10:23:54Z</time></trkpt><trkpt lat="42.02493125053273" lon="12.076912890813986"><ele>112.0</ele><time>2026-03-28T10:23:55Z</time></trkpt><trkpt lat="42.0248685537485" lon="12.076858989299563"><ele>110.5</ele><time>2026-03-28T10:23:56Z</time></trkpt><trkpt lat="42.0247882103903" lon="12.076832741897814"><ele>109.0</ele><time>2026-03-28T10:23:58Z</time></trkpt><trkpt lat="42.02469807171007" lon="12.076890290444169"><ele>107.50000000000001</ele><time>2026-03-28T10:24:00Z</time></trkpt><trkpt lat="42.024655912246054" lon="12.076959969621011"><ele>106.0</ele><time>2026-03-28T10:24:01Z</time></trkpt><trkpt lat="42.0246086687864" lon="12.077034169166328"><ele>106.0</ele><time>2026-03-28T10:24:02Z</time></trkpt><trkpt lat="42.02452046804056" lon="12.077114586200912"><ele>106.0</ele><time>2026-03-28T10:24:04Z</time></trkpt><trkpt lat="42.024419942057065" lon="12.077085990676329"><ele>106.0</ele><time>2026-03-28T10:24:06Z</time></trkpt><trkpt lat="42.024354882490805" lon="12.077039921812533"><ele>106.0</ele><time>2026-03-28T10:24:07Z</time></trkpt><trkpt lat="42.02428335588869" lon="12.07698585347303"><ele>106.0</ele><time>2026-03-28T10:24:08Z</time></trkpt><trkpt lat="42.02421327919909" lon="12.076914155193032"><ele>105.6</ele><time>2026-03-28T10:24:09Z</time></trkpt><trkpt lat="42.024131869421794" lon="12.076832642068428"><ele>105.19999999999999</ele><time>2026-03-28T10:24:10Z</time></trkpt><trkpt lat="42.02405100759651" lon="12.076736216906754"><ele>104.80000000000001</ele><time>2026-03-28T10:24:11Z</time></trkpt><trkpt lat="42.02397384831294" lon="12.076642348908152"><ele>104.4</ele><time>2026-03-28T10:24:12Z</time></trkpt><trkpt lat="42.023891861185" lon="12.076564219393116"><ele>104.0</ele><time>2026-03-28T10:24:13Z</time></trkpt><trkpt lat="42.02382458094742" lon="12.076499134457173"><ele>102.83333333333333</ele><time>2026-03-28T10:24:14Z</time></trkpt><trkpt lat="42.02376590810384" lon="12.076425113395922"><ele>101.66666666666666</ele><time>2026-03-28T10:24:15Z</time></trkpt><trkpt lat="42.02372122712892" lon="12.07636498110977"><ele>100.5</ele><time>2026-03-28T10:24:16Z</time></trkpt><trkpt lat="42.02363226790934" lon="12.076272453046315"><ele>99.33333333333334</ele><time>2026-03-28T10:24:18Z</time></trkpt><trkpt lat="42.02355021967872" lon="12.076232158120309"><ele>98.16666666666667</ele><time>2026-03-28T10:24:19Z</time></trkpt><trkpt lat="42.02345270903124" lon="12.076183646094483"><ele>97.0</ele><time>2026-03-28T10:24:20Z</time></trkpt><trkpt lat="42.02335421285841" lon="12.076110073567369"><ele>96.8</ele><time>2026-03-28T10:24:21Z</time></trkpt><trkpt lat="42.0232627517428" lon="12.076002071638454"><ele>96.6</ele><time>2026-03-28T10:24:22Z</time></trkpt><trkpt lat="42.02318939359111" lon="12.075910156522918"><ele>96.39999999999999</ele><time>2026-03-28T10:24:23Z</time></trkpt><trkpt lat="42.02312790234358" lon="12.075794294862702"><ele>96.19999999999999</ele><time>2026-03-28T10:24:24Z</time></trkpt><trkpt lat="42.023083617989684" lon="12.075666348002182"><ele>96.0</ele><time>2026-03-28T10:24:25Z</time></trkpt><trkpt lat="42.02306604739944" lon="12.075528757279585"><ele>94.19999999999999</ele><time>2026-03-28T10:24:26Z</time></trkpt><trkpt lat="42.02305934513173" lon="12.075376695842307"><ele>92.39999999999999</ele><time>2026-03-28T10:24:27Z</time></trkpt><trkpt lat="42.02304093311509" lon="12.07524795346717"><ele>90.6</ele><time>2026-03-28T10:24:28Z</time></trkpt><trkpt lat="42.02302419131916" lon="12.075141326239176"><ele>88.8</ele><time>2026-03-28T10:24:29Z</time></trkpt><trkpt lat="42.023021044989825" lon="12.07505250859796"><ele>87.0</ele><time>2026-03-28T10:24:30Z</time></trkpt><trkpt lat="42.02308885265828" lon="12.07490309177623"><ele>87.0</ele><time>2026-03-28T10:24:32Z</time></trkpt><trkpt lat="42.02316322285529" lon="12.074802371556132"><ele>87.0</ele><time>2026-03-28T10:24:33Z</time></trkpt><trkpt lat="42.023251999684824" lon="12.074686550209078"><ele>87.0</ele><time>2026-03-28T10:24:34Z</time></trkpt><trkpt lat="42.023348761475596" lon="12.074545342448232"><ele>87.0</ele><time>2026-03-28T10:24:35Z</time></trkpt><trkpt lat="42.02344488578172" lon="12.074390105300022"><ele>87.0</ele><time>2026-03-28T10:24:36Z</time></trkpt><trkpt lat="42.023537805798334" lon="12.074245648885723"><ele>87.0</ele><time>2026-03-28T10:24:37Z</time></trkpt><trkpt lat="42.02363134352759" lon="12.074112226342917"><ele>87.0</ele><time>2026-03-28T10:24:38Z</time></trkpt><trkpt lat="42.023724521769445" lon="12.073987796719472"><ele>87.0</ele><time>2026-03-28T10:24:39Z</time></trkpt><trkpt lat="42.023820870016806" lon="12.073865706864252"><ele>88.5</ele><time>2026-03-28T10:24:40Z</time></trkpt><trkpt lat="42.02392113741494" lon="12.073746183878393"><ele>90.0</ele><time>2026-03-28T10:24:41Z</time></trkpt><trkpt lat="42.02401910157354" lon="12.073617957758783"><ele>91.5</ele><time>2026-03-28T10:24:42Z</time></trkpt><trkpt lat="42.02412037590492" lon="12.073473209344236"><ele>93.0</ele><time>2026-03-28T10:24:43Z</time></trkpt><trkpt lat="42.024226746411976" lon="12.07333537528531"><ele>96.25</ele><time>2026-03-28T10:24:44Z</time></trkpt><trkpt lat="42.02432494748117" lon="12.073209040083958"><ele>99.5</ele><time>2026-03-28T10:24:45Z</time></trkpt><trkpt lat="42.024424715524205" lon="12.073084665796344"><ele>102.75</ele><time>2026-03-28T10:24:46Z</time></trkpt><trkpt lat="42.02452464715127" lon="12.072974420631168"><ele>106.0</ele><time>2026-03-28T10:24:47Z</time></trkpt><trkpt lat="42.02461824362056" lon="12.072868516618199"><ele>106.0</ele><time>2026-03-28T10:24:48Z</time></trkpt><trkpt lat="42.024713178329705" lon="12.072755668555896"><ele>106.0</ele><time>2026-03-28T10:24:49Z</time></trkpt><trkpt lat="42.02480485213407" lon="12.07263113158274"><ele>106.0</ele><time>2026-03-28T10:24:50Z</time></trkpt><trkpt lat="42.02488797923811" lon="12.072504553512173"><ele>106.0</ele><time>2026-03-28T10:24:51Z</time></trkpt><trkpt lat="42.024964587744776" lon="12.072372458848795"><ele>106.8</ele><time>2026-03-28T10:24:52Z</time></trkpt><trkpt lat="42.025031606441445" lon="12.072244570549792"><ele>107.6</ele><time>2026-03-28T10:24:53Z</time></trkpt><trkpt lat="42.02509271735608" lon="12.072123824091191"><ele>108.4</ele><time>2026-03-28T10:24:54Z</time></trkpt><trkpt lat="42.025135958948766" lon="12.072032427981085"><ele>109.2</ele><time>2026-03-28T10:24:55Z</time></trkpt><trkpt lat="42.02518060359282" lon="12.071933681223452"><ele>110.0</ele><time>2026-03-28T10:24:57Z</time></trkpt><trkpt lat="42.025019906928215" lon="12.071844112269872"><ele>109.6</ele><time>2026-03-28T10:25:33Z</time></trkpt><trkpt lat="42.024934085109585" lon="12.071796211035144"><ele>109.2</ele><time>2026-03-28T10:25:34Z</time></trkpt><trkpt lat="42.02482259469598" lon="12.071750639955576"><ele>108.80000000000001</ele><time>2026-03-28T10:25:35Z</time></trkpt><trkpt lat="42.02472067632532" lon="12.071682551454117"><ele>108.4</ele><time>2026-03-28T10:25:36Z</time></trkpt><trkpt lat="42.0246053051991" lon="12.071620962985198"><ele>108.0</ele><time>2026-03-28T10:25:37Z</time></trkpt><trkpt lat="42.024487221786366" lon="12.07155895599914"><ele>108.0</ele><time>2026-03-28T10:25:38Z</time></trkpt><trkpt lat="42.024372458807555" lon="12.071499553838398"><ele>108.0</ele><time>2026-03-28T10:25:39Z</time></trkpt><trkpt lat="42.02424655328756" lon="12.071462569118498"><ele>108.0</ele><time>2026-03-28T10:25:40Z</time></trkpt><trkpt lat="42.02412593528099" lon="12.071404923102039"><ele>108.0</ele><time>2026-03-28T10:25:41Z</time></trkpt><trkpt lat="42.024013856450026" lon="12.07132999182088"><ele>107.0</ele><time>2026-03-28T10:25:42Z</time></trkpt><trkpt lat="42.02385579569368" lon="12.071273094796586"><ele>106.0</ele><time>2026-03-28T10:25:43Z</time></trkpt><trkpt lat="42.02370583625106" lon="12.071178459610103"><ele>105.0</ele><time>2026-03-28T10:25:44Z</time></trkpt><trkpt lat="42.02359242410951" lon="12.07112331975837"><ele>105.0</ele><time>2026-03-28T10:25:45Z</time></trkpt><trkpt lat="42.02347884961638" lon="12.071095874710167"><ele>105.0</ele><time>2026-03-28T10:25:46Z</time></trkpt><trkpt lat="42.02337153574309" lon="12.071040988378446"><ele>105.0</ele><time>2026-03-28T10:25:47Z</time></trkpt><trkpt lat="42.02325918553534" lon="12.070988342744883"><ele>105.0</ele><time>2026-03-28T10:25:48Z</time></trkpt><trkpt lat="42.0231559504856" lon="12.07093226752327"><ele>104.8</ele><time>2026-03-28T10:25:49Z</time></trkpt><trkpt lat="42.02304942055356" lon="12.070878625455268"><ele>104.6</ele><time>2026-03-28T10:25:50Z</time></trkpt><trkpt lat="42.022946916367694" lon="12.070834261351965"><ele>104.4</ele><time>2026-03-28T10:25:51Z</time></trkpt><trkpt lat="42.02284713252035" lon="12.070788908355041"><ele>104.2</ele><time>2026-03-28T10:25:52Z</time></trkpt><trkpt lat="42.02274634153966" lon="12.070740428740276"><ele>104.0</ele><time>2026-03-28T10:25:53Z</time></trkpt><trkpt lat="42.022654279439195" lon="12.07068825860828"><ele>103.75</ele><time>2026-03-28T10:25:54Z</time></trkpt><trkpt lat="42.02256057866596" lon="12.070641755804896"><ele>103.5</ele><time>2026-03-28T10:25:55Z</time></trkpt><trkpt lat="42.02245503041403" lon="12.070567624520677"><ele>103.25</ele><time>2026-03-28T10:25:56Z</time></trkpt><trkpt lat="42.022314517936465" lon="12.070523423171382"><ele>103.0</ele><time>2026-03-28T10:25:57Z</time></trkpt><trkpt lat="42.02219105949657" lon="12.07043984026386"><ele>103.0</ele><time>2026-03-28T10:25:58Z</time></trkpt><trkpt lat="42.02204789761264" lon="12.07039215975771"><ele>103.0</ele><time>2026-03-28T10:25:59Z</time></trkpt><trkpt lat="42.021922387612285" lon="12.07030763462828"><ele>103.0</ele><time>2026-03-28T10:26:00Z</time></trkpt><trkpt lat="42.02179171857069" lon="12.070267783605281"><ele>103.0</ele><time>2026-03-28T10:26:01Z</time></trkpt><trkpt lat="42.0216797312657" lon="12.07021104289178"><ele>102.75</ele><time>2026-03-28T10:26:02Z</time></trkpt><trkpt lat="42.02155973237987" lon="12.070149004303026"><ele>102.5</ele><time>2026-03-28T10:26:03Z</time></trkpt><trkpt lat="42.021459107820895" lon="12.07007339708179"><ele>102.25</ele><time>2026-03-28T10:26:04Z</time></trkpt><trkpt lat="42.021358730052725" lon="12.070008467122461"><ele>102.0</ele><time>2026-03-28T10:26:05Z</time></trkpt><trkpt lat="42.02125259838337" lon="12.069942887413212"><ele>100.5</ele><time>2026-03-28T10:26:06Z</time></trkpt><trkpt lat="42.0211417932576" lon="12.069880721238604"><ele>99.0</ele><time>2026-03-28T10:26:07Z</time></trkpt><trkpt lat="42.0210304545161" lon="12.069821692335324"><ele>97.5</ele><time>2026-03-28T10:26:08Z</time></trkpt><trkpt lat="42.020918040771576" lon="12.069762408874043"><ele>96.0</ele><time>2026-03-28T10:26:09Z</time></trkpt><trkpt lat="42.020804137166046" lon="12.069723801937537"><ele>95.6</ele><time>2026-03-28T10:26:10Z</time></trkpt><trkpt lat="42.02071002247559" lon="12.069648597450207"><ele>95.19999999999999</ele><time>2026-03-28T10:26:11Z</time></trkpt><trkpt lat="42.0206134183526" lon="12.069591956978948"><ele>94.80000000000001</ele><time>2026-03-28T10:26:12Z</time></trkpt><trkpt lat="42.02051166956629" lon="12.069525579811565"><ele>94.4</ele><time>2026-03-28T10:26:13Z</time></trkpt><trkpt lat="42.02041562742758" lon="12.06946048093471"><ele>94.0</ele><time>2026-03-28T10:26:14Z</time></trkpt><trkpt lat="42.02033651105726" lon="12.069404427610587"><ele>94.0</ele><time>2026-03-28T10:26:15Z</time></trkpt><trkpt lat="42.02026994931056" lon="12.069356663502537"><ele>94.0</ele><time>2026-03-28T10:26:16Z</time></trkpt><trkpt lat="42.020191505434795" lon="12.069314657322671"><ele>94.0</ele><time>2026-03-28T10:26:17Z</time></trkpt><trkpt lat="42.02013769848341" lon="12.06925564439593"><ele>94.0</ele><time>2026-03-28T10:26:18Z</time></trkpt><trkpt lat="42.020053885261035" lon="12.069189695461857"><ele>94.0</ele><time>2026-03-28T10:26:20Z</time></trkpt><trkpt lat="42.01997837092901" lon="12.069130996437146"><ele>94.0</ele><time>2026-03-28T10:26:23Z</time></trkpt><trkpt lat="42.019919906140935" lon="12.069092542926175"><ele>92.80000000000001</ele><time>2026-03-28T10:26:26Z</time></trkpt><trkpt lat="42.01986337958578" lon="12.069040970986254"><ele>91.60000000000001</ele><time>2026-03-28T10:26:47Z</time></trkpt><trkpt lat="42.019885082438776" lon="12.068885819728626"><ele>90.4</ele><time>2026-03-28T10:26:50Z</time></trkpt><trkpt lat="42.01991510456134" lon="12.068744858516302"><ele>89.2</ele><time>2026-03-28T10:26:51Z</time></trkpt><trkpt lat="42.019935951245486" lon="12.06865370545594"><ele>88.0</ele><time>2026-03-28T10:26:52Z</time></trkpt><trkpt lat="42.01997327459168" lon="12.068495118428372"><ele>87.4</ele><time>2026-03-28T10:26:54Z</time></trkpt><trkpt lat="42.02000673925009" lon="12.068350532306065"><ele>86.80000000000001</ele><time>2026-03-28T10:26:56Z</time></trkpt><trkpt lat="42.02002394203296" lon="12.068233529102386"><ele>86.2</ele><time>2026-03-28T10:26:58Z</time></trkpt><trkpt lat="42.02006247050317" lon="12.068086847143984"><ele>85.6</ele><time>2026-03-28T10:27:00Z</time></trkpt><trkpt lat="42.0201029969837" lon="12.067968089283323"><ele>85.0</ele><time>2026-03-28T10:27:02Z</time></trkpt><trkpt lat="42.02014486074991" lon="12.06785125430188"><ele>84.5</ele><time>2026-03-28T10:27:04Z</time></trkpt><trkpt lat="42.020170413725296" lon="12.067732355879635"><ele>84.0</ele><time>2026-03-28T10:27:06Z</time></trkpt><trkpt lat="42.02018491143409" lon="12.067633335846645"><ele>83.5</ele><time>2026-03-28T10:27:08Z</time></trkpt><trkpt lat="42.02017268433113" lon="12.067546747202776"><ele>83.0</ele><time>2026-03-28T10:27:11Z</time></trkpt><trkpt lat="42.02016070885577" lon="12.06745768929311"><ele>82.5</ele><time>2026-03-28T10:27:12Z</time></trkpt><trkpt lat="42.020154332308685" lon="12.067352390022725"><ele>82.0</ele><time>2026-03-28T10:27:13Z</time></trkpt><trkpt lat="42.02011166470479" lon="12.067230393870265"><ele>81.33333333333333</ele><time>2026-03-28T10:27:15Z</time></trkpt><trkpt lat="42.02005921166787" lon="12.06712986057231"><ele>80.66666666666666</ele><time>2026-03-28T10:27:17Z</time></trkpt><trkpt lat="42.020015283043655" lon="12.067058572259548"><ele>80.0</ele><time>2026-03-28T10:27:19Z</time></trkpt><trkpt lat="42.019974735968276" lon="12.066981573969379"><ele>79.33333333333333</ele><time>2026-03-28T10:27:21Z</time></trkpt><trkpt lat="42.01994271610774" lon="12.066880382146824"><ele>78.66666666666667</ele><time>2026-03-28T10:27:23Z</time></trkpt><trkpt lat="42.01988952347309" lon="12.066762642149408"><ele>78.0</ele><time>2026-03-28T10:27:25Z</time></trkpt><trkpt lat="42.01985088150961" lon="12.066694502821328"><ele>76.8</ele><time>2026-03-28T10:27:26Z</time></trkpt><trkpt lat="42.019815390754914" lon="12.06662334052012"><ele>75.6</ele><time>2026-03-28T10:27:27Z</time></trkpt><trkpt lat="42.019773531029145" lon="12.066507636403992"><ele>74.4</ele><time>2026-03-28T10:27:29Z</time></trkpt><trkpt lat="42.0197235369151" lon="12.066365970149203"><ele>73.2</ele><time>2026-03-28T10:27:31Z</time></trkpt><trkpt lat="42.019670981516" lon="12.066244042741653"><ele>72.0</ele><time>2026-03-28T10:27:33Z</time></trkpt><trkpt lat="42.01959455637355" lon="12.066154304955576"><ele>71.0</ele><time>2026-03-28T10:27:35Z</time></trkpt><trkpt lat="42.01950546352821" lon="12.066095359130587"><ele>70.0</ele><time>2026-03-28T10:27:37Z</time></trkpt><trkpt lat="42.0194429641012" lon="12.066010751051868"><ele>69.0</ele><time>2026-03-28T10:27:39Z</time></trkpt><trkpt lat="42.01938208143764" lon="12.065921095485624"><ele>68.0</ele><time>2026-03-28T10:27:41Z</time></trkpt><trkpt lat="42.0193149907548" lon="12.06582747781011"><ele>67.0</ele><time>2026-03-28T10:27:44Z</time></trkpt><trkpt lat="42.019254367264736" lon="12.065723550519545"><ele>66.83333333333333</ele><time>2026-03-28T10:27:46Z</time></trkpt><trkpt lat="42.01916761859659" lon="12.065686837319769"><ele>66.66666666666666</ele><time>2026-03-28T10:27:48Z</time></trkpt><trkpt lat="42.019106396174955" lon="12.065657712737892"><ele>66.5</ele><time>2026-03-28T10:27:50Z</time></trkpt><trkpt lat="42.019032443007795" lon="12.065620612913577"><ele>66.33333333333333</ele><time>2026-03-28T10:27:53Z</time></trkpt><trkpt lat="42.01897045804552" lon="12.065560379566767"><ele>66.16666666666667</ele><time>2026-03-28T10:27:56Z</time></trkpt><trkpt lat="42.01891341297475" lon="12.065486074003504"><ele>66.0</ele><time>2026-03-28T10:27:59Z</time></trkpt><trkpt lat="42.01880231889054" lon="12.065339992816492"><ele>65.66666666666667</ele><time>2026-03-28T10:28:01Z</time></trkpt><trkpt lat="42.018765408399844" lon="12.065242115797775"><ele>65.33333333333333</ele><time>2026-03-28T10:28:03Z</time></trkpt><trkpt lat="42.01874801947388" lon="12.065127595875772"><ele>65.0</ele><time>2026-03-28T10:28:05Z</time></trkpt><trkpt lat="42.018745132540424" lon="12.065037152165125"><ele>64.66666666666666</ele><time>2026-03-28T10:28:06Z</time></trkpt><trkpt lat="42.01874384115659" lon="12.064949707783299"><ele>64.33333333333333</ele><time>2026-03-28T10:28:07Z</time></trkpt><trkpt lat="42.01873113450579" lon="12.064857217407061"><ele>64.0</ele><time>2026-03-28T10:28:09Z</time></trkpt><trkpt lat="42.018721271630504" lon="12.064724041074244"><ele>62.666666666666664</ele><time>2026-03-28T10:28:11Z</time></trkpt><trkpt lat="42.018680833957816" lon="12.064618892287957"><ele>61.33333333333333</ele><time>2026-03-28T10:28:14Z</time></trkpt><trkpt lat="42.01864445219556" lon="12.064539866506719"><ele>60.0</ele><time>2026-03-28T10:28:16Z</time></trkpt><trkpt lat="42.01862705000185" lon="12.064428066497825"><ele>58.66666666666667</ele><time>2026-03-28T10:28:18Z</time></trkpt><trkpt lat="42.01861325483773" lon="12.064327539477897"><ele>57.333333333333336</ele><time>2026-03-28T10:28:21Z</time></trkpt><trkpt lat="42.01858349904027" lon="12.064248843295736"><ele>56.0</ele><time>2026-03-28T10:28:23Z</time></trkpt><trkpt lat="42.01855192935852" lon="12.064154293955903"><ele>55.00000000000001</ele><time>2026-03-28T10:28:26Z</time></trkpt><trkpt lat="42.01852476246558" lon="12.064045066459808"><ele>54.0</ele><time>2026-03-28T10:28:29Z</time></trkpt><trkpt lat="42.0184837474078" lon="12.063929072807808"><ele>53.0</ele><time>2026-03-28T10:28:32Z</time></trkpt><trkpt lat="42.018443446368885" lon="12.063822092811161"><ele>52.0</ele><time>2026-03-28T10:28:35Z</time></trkpt><trkpt lat="42.01842306262194" lon="12.063732779679158"><ele>51.00000000000001</ele><time>2026-03-28T10:28:37Z</time></trkpt><trkpt lat="42.01839964729956" lon="12.063645162189998"><ele>50.0</ele><time>2026-03-28T10:28:39Z</time></trkpt><trkpt lat="42.018386036974405" lon="12.063558019861327"><ele>50.00000000000001</ele><time>2026-03-28T10:28:41Z</time></trkpt><trkpt lat="42.018378698431256" lon="12.063430718471345"><ele>50.0</ele><time>2026-03-28T10:28:44Z</time></trkpt><trkpt lat="42.018354597946" lon="12.063301853311946"><ele>50.0</ele><time>2026-03-28T10:28:46Z</time></trkpt><trkpt lat="42.018344791755126" lon="12.063215066645363"><ele>50.0</ele><time>2026-03-28T10:28:48Z</time></trkpt><trkpt lat="42.01830816449684" lon="12.063108736012085"><ele>50.00000000000001</ele><time>2026-03-28T10:28:50Z</time></trkpt><trkpt lat="42.01828760707388" lon="12.062994166170213"><ele>50.0</ele><time>2026-03-28T10:28:52Z</time></trkpt><trkpt lat="42.01828657878848" lon="12.06288353029332"><ele>49.00000000000001</ele><time>2026-03-28T10:28:55Z</time></trkpt><trkpt lat="42.01831508598797" lon="12.062781559546954"><ele>48.0</ele><time>2026-03-28T10:28:57Z</time></trkpt><trkpt lat="42.01829310763615" lon="12.062686869815565"><ele>47.0</ele><time>2026-03-28T10:28:59Z</time></trkpt><trkpt lat="42.018271774601395" lon="12.062579052770445"><ele>46.0</ele><time>2026-03-28T10:29:01Z</time></trkpt><trkpt lat="42.01826899018521" lon="12.062464761849757"><ele>45.0</ele><time>2026-03-28T10:29:03Z</time></trkpt><trkpt lat="42.01825309703398" lon="12.062354691128746"><ele>44.0</ele><time>2026-03-28T10:29:06Z</time></trkpt><trkpt lat="42.01824993430336" lon="12.062254165056805"><ele>43.83333333333333</ele><time>2026-03-28T10:32:26Z</time></trkpt><trkpt lat="42.01822911156396" lon="12.062109207888165"><ele>43.666666666666664</ele><time>2026-03-28T10:35:01Z</time></trkpt><trkpt lat="42.01821342323246" lon="12.06198053733961"><ele>43.5</ele><time>2026-03-28T10:35:03Z</time></trkpt><trkpt lat="42.018262113623734" lon="12.061880417703662"><ele>43.333333333333336</ele><time>2026-03-28T10:35:06Z</time></trkpt><trkpt lat="42.0182980452216" lon="12.06181065732765"><ele>43.16666666666667</ele><time>2026-03-28T10:35:16Z</time></trkpt><trkpt lat="42.018281275097024" lon="12.061726096376821"><ele>43.0</ele><time>2026-03-28T10:35:32Z</time></trkpt><trkpt lat="42.01827845150341" lon="12.061810848144871"><ele>43.00000000000001</ele><time>2026-03-28T10:36:07Z</time></trkpt><trkpt lat="42.01825098112657" lon="12.061897162573372"><ele>43.0</ele><time>2026-03-28T10:36:28Z</time></trkpt><trkpt lat="42.01819467813815" lon="12.061947297587299"><ele>43.0</ele><time>2026-03-28T10:36:30Z</time></trkpt><trkpt lat="42.01820746421966" lon="12.06203173628626"><ele>43.0</ele><time>2026-03-28T10:36:32Z</time></trkpt><trkpt lat="42.01821781664646" lon="12.062127882346575"><ele>43.0</ele><time>2026-03-28T10:36:34Z</time></trkpt><trkpt lat="42.01823196011763" lon="12.06221775034635"><ele>43.00000000000001</ele><time>2026-03-28T10:36:36Z</time></trkpt><trkpt lat="42.01828744179693" lon="12.062291154239448"><ele>43.0</ele><time>2026-03-28T10:36:39Z</time></trkpt><trkpt lat="42.018347199528336" lon="12.062329853386675"><ele>43.5</ele><time>2026-03-28T10:36:41Z</time></trkpt><trkpt lat="42.01835890405583" lon="12.062465839503705"><ele>44.0</ele><time>2026-03-28T10:36:43Z</time></trkpt><trkpt lat="42.018362613258525" lon="12.06255049527739"><ele>44.5</ele><time>2026-03-28T10:36:44Z</time></trkpt><trkpt lat="42.01836774017432" lon="12.0626552147351"><ele>45.0</ele><time>2026-03-28T10:36:45Z</time></trkpt><trkpt lat="42.01836527821168" lon="12.062757312123074"><ele>45.5</ele><time>2026-03-28T10:36:46Z</time></trkpt><trkpt lat="42.01836078458612" lon="12.062856749459202"><ele>46.0</ele><time>2026-03-28T10:36:47Z</time></trkpt><trkpt lat="42.01837011122131" lon="12.062962535238084"><ele>46.0</ele><time>2026-03-28T10:36:48Z</time></trkpt><trkpt lat="42.018387685238" lon="12.063055221050124"><ele>46.0</ele><time>2026-03-28T10:36:49Z</time></trkpt><trkpt lat="42.018408667140505" lon="12.063162983220087"><ele>46.0</ele><time>2026-03-28T10:36:50Z</time></trkpt><trkpt lat="42.018424107501026" lon="12.063274770795182"><ele>46.0</ele><time>2026-03-28T10:36:51Z</time></trkpt><trkpt lat="42.01844085150454" lon="12.063390216320089"><ele>46.0</ele><time>2026-03-28T10:36:52Z</time></trkpt><trkpt lat="42.01846335645383" lon="12.063505915796494"><ele>46.0</ele><time>2026-03-28T10:36:53Z</time></trkpt><trkpt lat="42.01848692937522" lon="12.06361962392813"><ele>46.66666666666667</ele><time>2026-03-28T10:36:54Z</time></trkpt><trkpt lat="42.0185123699142" lon="12.063735014185196"><ele>47.333333333333336</ele><time>2026-03-28T10:36:55Z</time></trkpt><trkpt lat="42.018535784005486" lon="12.063839358712368"><ele>48.0</ele><time>2026-03-28T10:36:56Z</time></trkpt><trkpt lat="42.01856726486851" lon="12.06394664525996"><ele>48.66666666666667</ele><time>2026-03-28T10:36:57Z</time></trkpt><trkpt lat="42.0185985136539" lon="12.064045496887482"><ele>49.333333333333336</ele><time>2026-03-28T10:36:58Z</time></trkpt><trkpt lat="42.018626033059896" lon="12.064144189034314"><ele>50.0</ele><time>2026-03-28T10:36:59Z</time></trkpt><trkpt lat="42.01863969365354" lon="12.064236213882356"><ele>51.2</ele><time>2026-03-28T10:37:00Z</time></trkpt><trkpt lat="42.018651280843464" lon="12.064372723806702"><ele>52.4</ele><time>2026-03-28T10:37:02Z</time></trkpt><trkpt lat="42.01869384820936" lon="12.064516753522405"><ele>53.599999999999994</ele><time>2026-03-28T10:37:04Z</time></trkpt><trkpt lat="42.01871639801503" lon="12.064656678899095"><ele>54.8</ele><time>2026-03-28T10:37:06Z</time></trkpt><trkpt lat="42.01872128105346" lon="12.064745286503634"><ele>56.0</ele><time>2026-03-28T10:37:08Z</time></trkpt><trkpt lat="42.01873502618507" lon="12.064831840983642"><ele>56.00000000000001</ele><time>2026-03-28T10:38:22Z</time></trkpt><trkpt lat="42.018734286636914" lon="12.064921884929378"><ele>56.0</ele><time>2026-03-28T10:38:24Z</time></trkpt><trkpt lat="42.01873330671887" lon="12.065039589769912"><ele>56.0</ele><time>2026-03-28T10:38:26Z</time></trkpt><trkpt lat="42.018743946556405" lon="12.065165632982627"><ele>56.0</ele><time>2026-03-28T10:38:28Z</time></trkpt><trkpt lat="42.01879292035461" lon="12.065284526836988"><ele>56.00000000000001</ele><time>2026-03-28T10:38:30Z</time></trkpt><trkpt lat="42.01882926784988" lon="12.065390680841057"><ele>56.0</ele><time>2026-03-28T10:38:32Z</time></trkpt><trkpt lat="42.01888085069844" lon="12.065463563197685"><ele>57.599999999999994</ele><time>2026-03-28T10:38:34Z</time></trkpt><trkpt lat="42.01894868661646" lon="12.065549568196186"><ele>59.199999999999996</ele><time>2026-03-28T10:38:36Z</time></trkpt><trkpt lat="42.019023615570056" lon="12.065613065276098"><ele>60.800000000000004</ele><time>2026-03-28T10:38:38Z</time></trkpt><trkpt lat="42.019116393900056" lon="12.06565419745005"><ele>62.400000000000006</ele><time>2026-03-28T10:38:40Z</time></trkpt><trkpt lat="42.01919741063688" lon="12.065682783213308"><ele>64.0</ele><time>2026-03-28T10:38:42Z</time></trkpt><trkpt lat="42.019295188846925" lon="12.06575155028614"><ele>64.60000000000001</ele><time>2026-03-28T10:38:44Z</time></trkpt><trkpt lat="42.019373354851076" lon="12.0658614034895"><ele>65.2</ele><time>2026-03-28T10:38:46Z</time></trkpt><trkpt lat="42.01948593167506" lon="12.065950157306343"><ele>65.80000000000001</ele><time>2026-03-28T10:38:47Z</time></trkpt><trkpt lat="42.019537248898125" lon="12.06601567390813"><ele>66.4</ele><time>2026-03-28T10:38:48Z</time></trkpt><trkpt lat="42.01962035403482" lon="12.06612135782698"><ele>67.0</ele><time>2026-03-28T10:38:50Z</time></trkpt><trkpt lat="42.0196884376301" lon="12.0662192416207"><ele>67.0</ele><time>2026-03-28T10:38:52Z</time></trkpt><trkpt lat="42.019731082220346" lon="12.066302379513171"><ele>67.0</ele><time>2026-03-28T10:38:53Z</time></trkpt><trkpt lat="42.01976141493682" lon="12.066383858488024"><ele>67.0</ele><time>2026-03-28T10:38:54Z</time></trkpt><trkpt lat="42.01979047751912" lon="12.066473335675214"><ele>67.0</ele><time>2026-03-28T10:38:55Z</time></trkpt><trkpt lat="42.019813272823775" lon="12.066562612936698"><ele>67.0</ele><time>2026-03-28T10:38:56Z</time></trkpt><trkpt lat="42.019839834801985" lon="12.066648770413359"><ele>67.0</ele><time>2026-03-28T10:38:57Z</time></trkpt><trkpt lat="42.01988630516526" lon="12.066734161203932"><ele>67.0</ele><time>2026-03-28T10:38:58Z</time></trkpt><trkpt lat="42.019926366431136" lon="12.066829835477257"><ele>67.83333333333333</ele><time>2026-03-28T10:38:59Z</time></trkpt><trkpt lat="42.019981945028505" lon="12.066939488824874"><ele>68.66666666666666</ele><time>2026-03-28T10:39:00Z</time></trkpt><trkpt lat="42.02002997181269" lon="12.067028033581584"><ele>69.5</ele><time>2026-03-28T10:39:01Z</time></trkpt><trkpt lat="42.02007319278787" lon="12.06710217141885"><ele>70.33333333333333</ele><time>2026-03-28T10:39:02Z</time></trkpt><trkpt lat="42.02012010173324" lon="12.067165374653847"><ele>71.16666666666667</ele><time>2026-03-28T10:39:03Z</time></trkpt><trkpt lat="42.02018520336047" lon="12.067309732285228"><ele>72.0</ele><time>2026-03-28T10:39:05Z</time></trkpt><trkpt lat="42.02019160139821" lon="12.067432771885896"><ele>73.66666666666667</ele><time>2026-03-28T10:39:07Z</time></trkpt><trkpt lat="42.020196075428466" lon="12.067584190687379"><ele>75.33333333333333</ele><time>2026-03-28T10:39:09Z</time></trkpt><trkpt lat="42.020182254292514" lon="12.067682678716952"><ele>77.0</ele><time>2026-03-28T10:39:11Z</time></trkpt><trkpt lat="42.02014853314246" lon="12.06776390263413"><ele>78.66666666666666</ele><time>2026-03-28T10:39:12Z</time></trkpt><trkpt lat="42.02012274109183" lon="12.06785207737219"><ele>80.33333333333333</ele><time>2026-03-28T10:39:13Z</time></trkpt><trkpt lat="42.020099194923475" lon="12.067945919334472"><ele>82.0</ele><time>2026-03-28T10:39:14Z</time></trkpt><trkpt lat="42.02007532967949" lon="12.068051036606796"><ele>82.0</ele><time>2026-03-28T10:39:15Z</time></trkpt><trkpt lat="42.020030731232474" lon="12.068152304626047"><ele>82.0</ele><time>2026-03-28T10:39:16Z</time></trkpt><trkpt lat="42.02001245636056" lon="12.06823519695238"><ele>82.0</ele><time>2026-03-28T10:39:17Z</time></trkpt><trkpt lat="42.019962989249905" lon="12.068398265463719"><ele>82.0</ele><time>2026-03-28T10:39:19Z</time></trkpt><trkpt lat="42.01993635445827" lon="12.068489931719636"><ele>82.0</ele><time>2026-03-28T10:39:20Z</time></trkpt><trkpt lat="42.01991447445841" lon="12.068575742853609"><ele>82.0</ele><time>2026-03-28T10:39:21Z</time></trkpt><trkpt lat="42.019878085020125" lon="12.068722451012126"><ele>82.85714285714285</ele><time>2026-03-28T10:39:23Z</time></trkpt><trkpt lat="42.01985514097349" lon="12.068807793492894"><ele>83.71428571428571</ele><time>2026-03-28T10:39:24Z</time></trkpt><trkpt lat="42.01983813426015" lon="12.068892123687144"><ele>84.57142857142857</ele><time>2026-03-28T10:39:25Z</time></trkpt><trkpt lat="42.019826790852605" lon="12.068997979506248"><ele>85.42857142857142</ele><time>2026-03-28T10:39:28Z</time></trkpt><trkpt lat="42.0198020793128" lon="12.069083497971087"><ele>86.28571428571428</ele><time>2026-03-28T10:40:13Z</time></trkpt><trkpt lat="42.01975265072074" lon="12.069177295193782"><ele>87.14285714285714</ele><time>2026-03-28T10:40:15Z</time></trkpt><trkpt lat="42.019720930917806" lon="12.069275308861824"><ele>88.0</ele><time>2026-03-28T10:40:17Z</time></trkpt><trkpt lat="42.01969691501091" lon="12.069433436180095"><ele>88.0</ele><time>2026-03-28T10:40:19Z</time></trkpt><trkpt lat="42.01967546750832" lon="12.069565423142766"><ele>88.0</ele><time>2026-03-28T10:40:21Z</time></trkpt><trkpt lat="42.01965338282175" lon="12.069676039228764"><ele>88.0</ele><time>2026-03-28T10:40:24Z</time></trkpt><trkpt lat="42.01961499634236" lon="12.069782600126416"><ele>88.0</ele><time>2026-03-28T10:40:27Z</time></trkpt><trkpt lat="42.019586733620905" lon="12.069872817540903"><ele>88.0</ele><time>2026-03-28T10:40:31Z</time></trkpt><trkpt lat="42.019523224705964" lon="12.069936132062795"><ele>88.0</ele><time>2026-03-28T10:40:37Z</time></trkpt><trkpt lat="42.01945948226067" lon="12.069903119513924"><ele>88.0</ele><time>2026-03-28T10:40:41Z</time></trkpt><trkpt lat="42.01938990947224" lon="12.069842688983249"><ele>88.0</ele><time>2026-03-28T10:40:44Z</time></trkpt><trkpt lat="42.01929353305725" lon="12.069790382282717"><ele>88.0</ele><time>2026-03-28T10:40:47Z</time></trkpt><trkpt lat="42.01921959379967" lon="12.06972099375322"><ele>88.0</ele><time>2026-03-28T10:40:50Z</time></trkpt><trkpt lat="42.01914973256092" lon="12.069661722499301"><ele>88.0</ele><time>2026-03-28T10:40:52Z</time></trkpt><trkpt lat="42.01906974501174" lon="12.069585065096168"><ele>87.0</ele><time>2026-03-28T10:40:55Z</time></trkpt><trkpt lat="42.01900769073127" lon="12.069526577247881"><ele>86.0</ele><time>2026-03-28T10:40:58Z</time></trkpt><trkpt lat="42.01891685038417" lon="12.069454019656025"><ele>85.0</ele><time>2026-03-28T10:41:01Z</time></trkpt><trkpt lat="42.01885262661084" lon="12.069387323027222"><ele>84.0</ele><time>2026-03-28T10:41:04Z</time></trkpt><trkpt lat="42.01870895603219" lon="12.069304520839287"><ele>83.0</ele><time>2026-03-28T10:41:20Z</time></trkpt><trkpt lat="42.01863469279837" lon="12.069354334196696"><ele>83.0</ele><time>2026-03-28T10:42:09Z</time></trkpt><trkpt lat="42.01859906823163" lon="12.069439858046591"><ele>83.0</ele><time>2026-03-28T10:42:12Z</time></trkpt><trkpt lat="42.01852925008278" lon="12.06943001749756"><ele>83.0</ele><time>2026-03-28T10:42:16Z</time></trkpt><trkpt lat="42.01848081961273" lon="12.069369714771652"><ele>83.0</ele><time>2026-03-28T10:42:18Z</time></trkpt><trkpt lat="42.01841401172174" lon="12.069258078976516"><ele>83.0</ele><time>2026-03-28T10:42:20Z</time></trkpt><trkpt lat="42.018338052583246" lon="12.069155547666096"><ele>83.0</ele><time>2026-03-28T10:42:22Z</time></trkpt><trkpt lat="42.01826158476228" lon="12.069082433030125"><ele>83.16666666666667</ele><time>2026-03-28T10:42:24Z</time></trkpt><trkpt lat="42.01820641802504" lon="12.069030488546343"><ele>83.33333333333334</ele><time>2026-03-28T10:42:26Z</time></trkpt><trkpt lat="42.01816058839074" lon="12.06893171957376"><ele>83.5</ele><time>2026-03-28T10:42:29Z</time></trkpt><trkpt lat="42.01809699371818" lon="12.068961789690855"><ele>83.66666666666667</ele><time>2026-03-28T10:42:40Z</time></trkpt><trkpt lat="42.01803913295422" lon="12.06902915305883"><ele>83.83333333333333</ele><time>2026-03-28T10:42:44Z</time></trkpt><trkpt lat="42.017989635352926" lon="12.068961656608733"><ele>84.0</ele><time>2026-03-28T10:42:46Z</time></trkpt><trkpt lat="42.01794162543809" lon="12.068828473033626"><ele>84.0</ele><time>2026-03-28T10:42:48Z</time></trkpt><trkpt lat="42.01788834324252" lon="12.068741483329392"><ele>84.0</ele><time>2026-03-28T10:42:50Z</time></trkpt><trkpt lat="42.01783429668253" lon="12.068671771273731"><ele>84.0</ele><time>2026-03-28T10:42:53Z</time></trkpt><trkpt lat="42.017781090620595" lon="12.068581825581056"><ele>84.0</ele><time>2026-03-28T10:42:54Z</time></trkpt><trkpt lat="42.01772463688183" lon="12.06849451249752"><ele>84.0</ele><time>2026-03-28T10:42:56Z</time></trkpt><trkpt lat="42.01766035335741" lon="12.068435309208834"><ele>84.0</ele><time>2026-03-28T10:42:58Z</time></trkpt><trkpt lat="42.01758970056074" lon="12.068360342071232"><ele>84.16666666666667</ele><time>2026-03-28T10:43:00Z</time></trkpt><trkpt lat="42.01758804034568" lon="12.068251872633235"><ele>84.33333333333333</ele><time>2026-03-28T10:43:38Z</time></trkpt><trkpt lat="42.01765214538784" lon="12.068161654496427"><ele>84.5</ele><time>2026-03-28T10:43:40Z</time></trkpt><trkpt lat="42.017716156714656" lon="12.068073341169217"><ele>84.66666666666666</ele><time>2026-03-28T10:43:42Z</time></trkpt><trkpt lat="42.017785935966984" lon="12.06798490596881"><ele>84.83333333333333</ele><time>2026-03-28T10:43:44Z</time></trkpt><trkpt lat="42.01784631502318" lon="12.067911984641729"><ele>85.0</ele><time>2026-03-28T10:43:46Z</time></trkpt><trkpt lat="42.017919263962874" lon="12.067870192551256"><ele>85.0</ele><time>2026-03-28T10:43:48Z</time></trkpt><trkpt lat="42.01799921730094" lon="12.067802650131046"><ele>85.0</ele><time>2026-03-28T10:43:50Z</time></trkpt><trkpt lat="42.01804806592198" lon="12.067723118308313"><ele>85.0</ele><time>2026-03-28T10:43:52Z</time></trkpt><trkpt lat="42.018087846927614" lon="12.067655443433495"><ele>85.0</ele><time>2026-03-28T10:43:55Z</time></trkpt><trkpt lat="42.01804525027461" lon="12.067589980373947"><ele>85.0</ele><time>2026-03-28T10:44:01Z</time></trkpt><trkpt lat="42.017961172835456" lon="12.067525354715372"><ele>85.0</ele><time>2026-03-28T10:44:08Z</time></trkpt><trkpt lat="42.01787774518303" lon="12.067451964903368"><ele>84.33333333333333</ele><time>2026-03-28T10:44:10Z</time></trkpt><trkpt lat="42.01781909943946" lon="12.067404604322471"><ele>83.66666666666666</ele><time>2026-03-28T10:44:11Z</time></trkpt><trkpt lat="42.01775791913972" lon="12.067356830969231"><ele>83.0</ele><time>2026-03-28T10:44:12Z</time></trkpt><trkpt lat="42.01769885321059" lon="12.067277064378974"><ele>82.33333333333333</ele><time>2026-03-28T10:44:13Z</time></trkpt><trkpt lat="42.01762352635887" lon="12.067218595374266"><ele>81.66666666666667</ele><time>2026-03-28T10:44:14Z</time></trkpt><trkpt lat="42.01754391860169" lon="12.067178564830986"><ele>81.0</ele><time>2026-03-28T10:44:15Z</time></trkpt><trkpt lat="42.01747845211668" lon="12.067118017350387"><ele>78.66666666666667</ele><time>2026-03-28T10:44:16Z</time></trkpt><trkpt lat="42.01741652462998" lon="12.067067695563052"><ele>76.33333333333333</ele><time>2026-03-28T10:44:17Z</time></trkpt><trkpt lat="42.017366248423514" lon="12.066998912950984"><ele>74.0</ele><time>2026-03-28T10:44:18Z</time></trkpt><trkpt lat="42.01729167909863" lon="12.066980698484336"><ele>71.66666666666666</ele><time>2026-03-28T10:44:19Z</time></trkpt><trkpt lat="42.01720890545574" lon="12.067010137171515"><ele>69.33333333333333</ele><time>2026-03-28T10:44:20Z</time></trkpt><trkpt lat="42.01714934509714" lon="12.067151407739725"><ele>67.0</ele><time>2026-03-28T10:44:21Z</time></trkpt><trkpt lat="42.01709462092206" lon="12.067262366081252"><ele>67.0</ele><time>2026-03-28T10:44:22Z</time></trkpt><trkpt lat="42.01704719618667" lon="12.067380438582127"><ele>67.0</ele><time>2026-03-28T10:44:23Z</time></trkpt><trkpt lat="42.01700015339836" lon="12.067480852477503"><ele>67.0</ele><time>2026-03-28T10:44:24Z</time></trkpt><trkpt lat="42.01696549323177" lon="12.067560607332439"><ele>67.0</ele><time>2026-03-28T10:44:25Z</time></trkpt><trkpt lat="42.01693780719397" lon="12.06763683921764"><ele>67.0</ele><time>2026-03-28T10:44:26Z</time></trkpt><trkpt lat="42.01689925228371" lon="12.06774032094875"><ele>67.0</ele><time>2026-03-28T10:44:28Z</time></trkpt><trkpt lat="42.01684273432656" lon="12.067874685200765"><ele>67.71428571428572</ele><time>2026-03-28T10:44:30Z</time></trkpt><trkpt lat="42.01679519446999" lon="12.067956811739126"><ele>68.42857142857143</ele><time>2026-03-28T10:44:31Z</time></trkpt><trkpt lat="42.01674109763751" lon="12.068026615115423"><ele>69.14285714285714</ele><time>2026-03-28T10:44:32Z</time></trkpt><trkpt lat="42.016693192054746" lon="12.068108389422294"><ele>69.85714285714286</ele><time>2026-03-28T10:44:33Z</time></trkpt><trkpt lat="42.01664853133433" lon="12.068184624783669"><ele>70.57142857142857</ele><time>2026-03-28T10:44:34Z</time></trkpt><trkpt lat="42.01660435497534" lon="12.068261727878976"><ele>71.28571428571429</ele><time>2026-03-28T10:44:35Z</time></trkpt><trkpt lat="42.01656066570207" lon="12.068338464846438"><ele>72.0</ele><time>2026-03-28T10:44:36Z</time></trkpt><trkpt lat="42.01652973947835" lon="12.068425948517845"><ele>70.16666666666667</ele><time>2026-03-28T10:44:37Z</time></trkpt><trkpt lat="42.016476301942326" lon="12.0684996723671"><ele>68.33333333333333</ele><time>2026-03-28T10:44:38Z</time></trkpt><trkpt lat="42.01641635558857" lon="12.06856898093702"><ele>66.5</ele><time>2026-03-28T10:44:39Z</time></trkpt><trkpt lat="42.01634793752725" lon="12.068633746281488"><ele>64.66666666666666</ele><time>2026-03-28T10:44:40Z</time></trkpt><trkpt lat="42.01627733805443" lon="12.068701021899026"><ele>62.83333333333333</ele><time>2026-03-28T10:44:41Z</time></trkpt><trkpt lat="42.01619274166391" lon="12.068770842669936"><ele>61.0</ele><time>2026-03-28T10:44:42Z</time></trkpt><trkpt lat="42.01609814177542" lon="12.068819811143262"><ele>61.0</ele><time>2026-03-28T10:44:43Z</time></trkpt><trkpt lat="42.0159985571111" lon="12.068829728619258"><ele>60.99999999999999</ele><time>2026-03-28T10:44:44Z</time></trkpt><trkpt lat="42.01590314718147" lon="12.068864861468825"><ele>60.99999999999999</ele><time>2026-03-28T10:44:45Z</time></trkpt><trkpt lat="42.01580854404839" lon="12.068802576723108"><ele>61.0</ele><time>2026-03-28T10:44:46Z</time></trkpt><trkpt lat="42.01571019837449" lon="12.06875849056733"><ele>61.0</ele><time>2026-03-28T10:44:47Z</time></trkpt><trkpt lat="42.01561395824629" lon="12.068693577761962"><ele>58.5</ele><time>2026-03-28T10:44:48Z</time></trkpt><trkpt lat="42.0155088223013" lon="12.068612554509468"><ele>56.0</ele><time>2026-03-28T10:44:49Z</time></trkpt><trkpt lat="42.015405317857734" lon="12.068524848877704"><ele>53.5</ele><time>2026-03-28T10:44:50Z</time></trkpt><trkpt lat="42.01530066810478" lon="12.068434264180231"><ele>51.0</ele><time>2026-03-28T10:44:51Z</time></trkpt><trkpt lat="42.015200045374804" lon="12.068345022788169"><ele>50.5</ele><time>2026-03-28T10:44:52Z</time></trkpt><trkpt lat="42.01509948633693" lon="12.068254579686602"><ele>50.0</ele><time>2026-03-28T10:44:53Z</time></trkpt><trkpt lat="42.01499830202405" lon="12.068162964375862"><ele>49.5</ele><time>2026-03-28T10:44:54Z</time></trkpt><trkpt lat="42.01489539835538" lon="12.068069792308915"><ele>49.0</ele><time>2026-03-28T10:44:55Z</time></trkpt><trkpt lat="42.01478832966664" lon="12.067972849106143"><ele>47.5</ele><time>2026-03-28T10:44:56Z</time></trkpt><trkpt lat="42.01468610724726" lon="12.06788029386206"><ele>46.0</ele><time>2026-03-28T10:44:57Z</time></trkpt><trkpt lat="42.014580593664334" lon="12.067784758699869"><ele>44.5</ele><time>2026-03-28T10:44:58Z</time></trkpt><trkpt lat="42.014475288842426" lon="12.067691443159843"><ele>43.0</ele><time>2026-03-28T10:44:59Z</time></trkpt><trkpt lat="42.01437507184011" lon="12.067603065931053"><ele>43.0</ele><time>2026-03-28T10:45:00Z</time></trkpt><trkpt lat="42.014275301086045" lon="12.067518059539728"><ele>43.0</ele><time>2026-03-28T10:45:01Z</time></trkpt><trkpt lat="42.01418252901252" lon="12.067439550870727"><ele>43.0</ele><time>2026-03-28T10:45:02Z</time></trkpt><trkpt lat="42.01409016029298" lon="12.067361383542979"><ele>43.0</ele><time>2026-03-28T10:45:03Z</time></trkpt><trkpt lat="42.013999429999004" lon="12.067284602738125"><ele>43.0</ele><time>2026-03-28T10:45:04Z</time></trkpt><trkpt lat="42.01390391465689" lon="12.0672037725688"><ele>42.5</ele><time>2026-03-28T10:45:05Z</time></trkpt><trkpt lat="42.01380232634674" lon="12.067114439710343"><ele>42.0</ele><time>2026-03-28T10:45:06Z</time></trkpt><trkpt lat="42.013702717469116" lon="12.067026511586167"><ele>41.5</ele><time>2026-03-28T10:45:07Z</time></trkpt><trkpt lat="42.013602049077484" lon="12.06693737250274"><ele>41.0</ele><time>2026-03-28T10:45:08Z</time></trkpt><trkpt lat="42.01350250571313" lon="12.066847633717746"><ele>41.0</ele><time>2026-03-28T10:45:09Z</time></trkpt><trkpt lat="42.013403548632525" lon="12.06675842205858"><ele>41.0</ele><time>2026-03-28T10:45:10Z</time></trkpt><trkpt lat="42.01330582295874" lon="12.066667534565424"><ele>41.0</ele><time>2026-03-28T10:45:11Z</time></trkpt><trkpt lat="42.0132096539026" lon="12.066575289589146"><ele>41.0</ele><time>2026-03-28T10:45:12Z</time></trkpt><trkpt lat="42.01311775238373" lon="12.066483198283995"><ele>40.5</ele><time>2026-03-28T10:45:13Z</time></trkpt><trkpt lat="42.013025189982756" lon="12.06638829813205"><ele>40.0</ele><time>2026-03-28T10:45:14Z</time></trkpt><trkpt lat="42.01293585835061" lon="12.066295378616577"><ele>39.5</ele><time>2026-03-28T10:45:15Z</time></trkpt><trkpt lat="42.012848665025665" lon="12.06620434575564"><ele>39.0</ele><time>2026-03-28T10:45:16Z</time></trkpt><trkpt lat="42.0127599061735" lon="12.0661124019151"><ele>39.0</ele><time>2026-03-28T10:45:17Z</time></trkpt><trkpt lat="42.012671182154" lon="12.066046931913093"><ele>39.0</ele><time>2026-03-28T10:45:18Z</time></trkpt><trkpt lat="42.01261259085587" lon="12.065977161500351"><ele>39.0</ele><time>2026-03-28T10:45:19Z</time></trkpt><trkpt lat="42.012532818522004" lon="12.065893252321368"><ele>39.0</ele><time>2026-03-28T10:45:21Z</time></trkpt><trkpt lat="42.01249763362844" lon="12.06581193595011"><ele>39.0</ele><time>2026-03-28T10:45:24Z</time></trkpt><trkpt lat="42.012578762352035" lon="12.065647955423247"><ele>38.75</ele><time>2026-03-28T10:45:26Z</time></trkpt><trkpt lat="42.01263056818914" lon="12.065534363100209"><ele>38.5</ele><time>2026-03-28T10:45:27Z</time></trkpt><trkpt lat="42.0126883192573" lon="12.065402305397152"><ele>38.25</ele><time>2026-03-28T10:45:28Z</time></trkpt><trkpt lat="42.01275626784988" lon="12.065250584095692"><ele>38.0</ele><time>2026-03-28T10:45:29Z</time></trkpt><trkpt lat="42.01282438014211" lon="12.065098060274948"><ele>38.0</ele><time>2026-03-28T10:45:30Z</time></trkpt><trkpt lat="42.012902973437676" lon="12.064926325559421"><ele>38.0</ele><time>2026-03-28T10:45:31Z</time></trkpt><trkpt lat="42.01299055383257" lon="12.064728514456668"><ele>38.0</ele><time>2026-03-28T10:45:32Z</time></trkpt><trkpt lat="42.013060052705725" lon="12.064575157649"><ele>38.0</ele><time>2026-03-28T10:45:33Z</time></trkpt><trkpt lat="42.01313113400286" lon="12.06443380516488"><ele>38.0</ele><time>2026-03-28T10:45:34Z</time></trkpt><trkpt lat="42.01321218880101" lon="12.064304566544676"><ele>38.0</ele><time>2026-03-28T10:45:35Z</time></trkpt><trkpt lat="42.01329282108192" lon="12.064185331476965"><ele>38.0</ele><time>2026-03-28T10:45:36Z</time></trkpt><trkpt lat="42.01336835171534" lon="12.064070955244167"><ele>38.199999999999996</ele><time>2026-03-28T10:45:37Z</time></trkpt><trkpt lat="42.01343819963515" lon="12.063967889675537"><ele>38.4</ele><time>2026-03-28T10:45:38Z</time></trkpt><trkpt lat="42.01350373792916" lon="12.063877261054415"><ele>38.599999999999994</ele><time>2026-03-28T10:45:39Z</time></trkpt><trkpt lat="42.01356532648933" lon="12.063796058182273"><ele>38.8</ele><time>2026-03-28T10:45:40Z</time></trkpt><trkpt lat="42.013620943050974" lon="12.063719783432854"><ele>39.0</ele><time>2026-03-28T10:45:41Z</time></trkpt><trkpt lat="42.01367996323279" lon="12.063635023074363"><ele>39.0</ele><time>2026-03-28T10:45:42Z</time></trkpt><trkpt lat="42.01374254055847" lon="12.063549953861001"><ele>39.0</ele><time>2026-03-28T10:45:43Z</time></trkpt><trkpt lat="42.01381165986262" lon="12.063456233703842"><ele>39.0</ele><time>2026-03-28T10:45:44Z</time></trkpt><trkpt lat="42.01388175293246" lon="12.063362801887413"><ele>39.0</ele><time>2026-03-28T10:45:45Z</time></trkpt><trkpt lat="42.01394945207314" lon="12.06327245259885"><ele>39.0</ele><time>2026-03-28T10:45:46Z</time></trkpt><trkpt lat="42.014016573521" lon="12.06318837594829"><ele>39.0</ele><time>2026-03-28T10:45:47Z</time></trkpt><trkpt lat="42.01407706631464" lon="12.06311302008361"><ele>39.0</ele><time>2026-03-28T10:45:48Z</time></trkpt><trkpt lat="42.01413126037169" lon="12.06305231252863"><ele>39.0</ele><time>2026-03-28T10:45:49Z</time></trkpt><trkpt lat="42.01421469926708" lon="12.062961006000092"><ele>39.0</ele><time>2026-03-28T10:45:51Z</time></trkpt><trkpt lat="42.014284699304" lon="12.062880235930539"><ele>39.0</ele><time>2026-03-28T10:45:53Z</time></trkpt><trkpt lat="42.0143519596283" lon="12.06280611426161"><ele>39.0</ele><time>2026-03-28T10:45:55Z</time></trkpt><trkpt lat="42.01444071737667" lon="12.062711347203678"><ele>39.0</ele><time>2026-03-28T10:45:57Z</time></trkpt><trkpt lat="42.01450389631461" lon="12.06265358955659"><ele>39.0</ele><time>2026-03-28T10:45:59Z</time></trkpt><trkpt lat="42.01457197083672" lon="12.062587978221012"><ele>39.0</ele><time>2026-03-28T10:46:02Z</time></trkpt><trkpt lat="42.01463140979154" lon="12.06254170553948"><ele>39.0</ele><time>2026-03-28T10:46:05Z</time></trkpt><trkpt lat="42.01469001883767" lon="12.062485560723044"><ele>39.0</ele><time>2026-03-28T10:47:26Z</time></trkpt><trkpt lat="42.01476097258281" lon="12.062424470591008"><ele>39.0</ele><time>2026-03-28T10:47:27Z</time></trkpt><trkpt lat="42.01484160531231" lon="12.062356726297827"><ele>39.0</ele><time>2026-03-28T10:47:28Z</time></trkpt><trkpt lat="42.014935026779824" lon="12.06227912352864"><ele>39.0</ele><time>2026-03-28T10:47:29Z</time></trkpt><trkpt lat="42.0150394343506" lon="12.062191062414508"><ele>39.0</ele><time>2026-03-28T10:47:30Z</time></trkpt><trkpt lat="42.01515595602173" lon="12.062098081704402"><ele>39.0</ele><time>2026-03-28T10:47:31Z</time></trkpt><trkpt lat="42.015280654353944" lon="12.06200161970933"><ele>39.333333333333336</ele><time>2026-03-28T10:47:32Z</time></trkpt><trkpt lat="42.01540551237388" lon="12.061901980039357"><ele>39.66666666666667</ele><time>2026-03-28T10:47:33Z</time></trkpt><trkpt lat="42.01553782606217" lon="12.061781538986235"><ele>40.0</ele><time>2026-03-28T10:47:34Z</time></trkpt><trkpt lat="42.01567589943917" lon="12.061639994386832"><ele>40.0</ele><time>2026-03-28T10:47:35Z</time></trkpt><trkpt lat="42.01580796176712" lon="12.061479575538582"><ele>40.0</ele><time>2026-03-28T10:47:36Z</time></trkpt><trkpt lat="42.01593503753736" lon="12.061318728092104"><ele>40.0</ele><time>2026-03-28T10:47:37Z</time></trkpt><trkpt lat="42.01607491054135" lon="12.061164662885554"><ele>40.0</ele><time>2026-03-28T10:47:38Z</time></trkpt><trkpt lat="42.01621549973106" lon="12.061015503859927"><ele>40.0</ele><time>2026-03-28T10:47:39Z</time></trkpt><trkpt lat="42.01634703188626" lon="12.060863146647854"><ele>40.0</ele><time>2026-03-28T10:47:40Z</time></trkpt><trkpt lat="42.01647662245252" lon="12.060708867108177"><ele>39.66666666666667</ele><time>2026-03-28T10:47:41Z</time></trkpt><trkpt lat="42.016606646418644" lon="12.06056307553672"><ele>39.333333333333336</ele><time>2026-03-28T10:47:42Z</time></trkpt><trkpt lat="42.01673779489103" lon="12.060420994613727"><ele>39.0</ele><time>2026-03-28T10:47:43Z</time></trkpt><trkpt lat="42.01686815721579" lon="12.060276439299587"><ele>40.0</ele><time>2026-03-28T10:47:44Z</time></trkpt><trkpt lat="42.01700113705437" lon="12.060126959602277"><ele>41.0</ele><time>2026-03-28T10:47:45Z</time></trkpt><trkpt lat="42.01713662903143" lon="12.059976250957378"><ele>42.0</ele><time>2026-03-28T10:47:46Z</time></trkpt><trkpt lat="42.01726996475616" lon="12.059823276065787"><ele>42.0</ele><time>2026-03-28T10:47:47Z</time></trkpt><trkpt lat="42.017405121042415" lon="12.059670578998183"><ele>42.0</ele><time>2026-03-28T10:47:48Z</time></trkpt><trkpt lat="42.017541428776696" lon="12.05952488653968"><ele>42.0</ele><time>2026-03-28T10:47:49Z</time></trkpt><trkpt lat="42.01766948316216" lon="12.059388148533118"><ele>42.75</ele><time>2026-03-28T10:47:50Z</time></trkpt><trkpt lat="42.01778280544771" lon="12.0592679851514"><ele>43.5</ele><time>2026-03-28T10:47:51Z</time></trkpt><trkpt lat="42.0178864952306" lon="12.059157066730192"><ele>44.25</ele><time>2026-03-28T10:47:52Z</time></trkpt><trkpt lat="42.01798264344607" lon="12.05905167163402"><ele>45.0</ele><time>2026-03-28T10:47:53Z</time></trkpt><trkpt lat="42.01807867678193" lon="12.058949981355688"><ele>45.25</ele><time>2026-03-28T10:47:54Z</time></trkpt><trkpt lat="42.01816778251899" lon="12.058854280277298"><ele>45.5</ele><time>2026-03-28T10:47:55Z</time></trkpt><trkpt lat="42.01825094962848" lon="12.058761525239404"><ele>45.75</ele><time>2026-03-28T10:47:56Z</time></trkpt><trkpt lat="42.01834020941604" lon="12.058668344157537"><ele>46.0</ele><time>2026-03-28T10:47:57Z</time></trkpt><trkpt lat="42.01843540990121" lon="12.058569803945366"><ele>46.0</ele><time>2026-03-28T10:47:58Z</time></trkpt><trkpt lat="42.01852537157462" lon="12.05846102395923"><ele>46.0</ele><time>2026-03-28T10:47:59Z</time></trkpt><trkpt lat="42.01861207134282" lon="12.0583447463336"><ele>46.0</ele><time>2026-03-28T10:48:00Z</time></trkpt><trkpt lat="42.018697061664746" lon="12.058225589682959"><ele>46.0</ele><time>2026-03-28T10:48:01Z</time></trkpt><trkpt lat="42.018776927120626" lon="12.05809075731398"><ele>46.0</ele><time>2026-03-28T10:48:02Z</time></trkpt><trkpt lat="42.01885608820079" lon="12.057947500941564"><ele>46.0</ele><time>2026-03-28T10:48:03Z</time></trkpt><trkpt lat="42.01893678183883" lon="12.057801723930165"><ele>46.0</ele><time>2026-03-28T10:48:04Z</time></trkpt><trkpt lat="42.01901843625236" lon="12.057650911597662"><ele>46.0</ele><time>2026-03-28T10:48:05Z</time></trkpt><trkpt lat="42.01910407486236" lon="12.05749473734217"><ele>45.5</ele><time>2026-03-28T10:48:06Z</time></trkpt><trkpt lat="42.019191314401596" lon="12.057335507472875"><ele>45.0</ele><time>2026-03-28T10:48:07Z</time></trkpt><trkpt lat="42.01927950464432" lon="12.057173946715066"><ele>44.5</ele><time>2026-03-28T10:48:08Z</time></trkpt><trkpt lat="42.019368452559675" lon="12.0570144857342"><ele>44.0</ele><time>2026-03-28T10:48:09Z</time></trkpt><trkpt lat="42.019456228073366" lon="12.056852597245808"><ele>44.0</ele><time>2026-03-28T10:48:10Z</time></trkpt><trkpt lat="42.01954415963603" lon="12.056686133030345"><ele>44.0</ele><time>2026-03-28T10:48:11Z</time></trkpt><trkpt lat="42.01963307421325" lon="12.05652140314499"><ele>44.0</ele><time>2026-03-28T10:48:12Z</time></trkpt><trkpt lat="42.01972562422316" lon="12.056357395571467"><ele>44.33333333333333</ele><time>2026-03-28T10:48:13Z</time></trkpt><trkpt lat="42.019815477892784" lon="12.05618928072006"><ele>44.666666666666664</ele><time>2026-03-28T10:48:14Z</time></trkpt><trkpt lat="42.01990459994373" lon="12.056023366470514"><ele>45.0</ele><time>2026-03-28T10:48:15Z</time></trkpt><trkpt lat="42.019993536810865" lon="12.055858971309805"><ele>45.25</ele><time>2026-03-28T10:48:16Z</time></trkpt><trkpt lat="42.02008232220935" lon="12.055700346356172"><ele>45.5</ele><time>2026-03-28T10:48:17Z</time></trkpt><trkpt lat="42.02016954812112" lon="12.055541664407444"><ele>45.75</ele><time>2026-03-28T10:48:18Z</time></trkpt><trkpt lat="42.02025487158734" lon="12.055377805176581"><ele>46.0</ele><time>2026-03-28T10:48:19Z</time></trkpt><trkpt lat="42.02034230210663" lon="12.055218208439745"><ele>46.0</ele><time>2026-03-28T10:48:20Z</time></trkpt><trkpt lat="42.02042791604837" lon="12.05506265973566"><ele>46.0</ele><time>2026-03-28T10:48:21Z</time></trkpt><trkpt lat="42.020512894682476" lon="12.054907616946338"><ele>46.0</ele><time>2026-03-28T10:48:22Z</time></trkpt><trkpt lat="42.02059518602411" lon="12.054747478167304"><ele>46.0</ele><time>2026-03-28T10:48:23Z</time></trkpt><trkpt lat="42.02068092807904" lon="12.054589952754876"><ele>46.0</ele><time>2026-03-28T10:48:24Z</time></trkpt><trkpt lat="42.02076472230122" lon="12.054432334743584"><ele>46.0</ele><time>2026-03-28T10:48:25Z</time></trkpt><trkpt lat="42.020849608666545" lon="12.054281458797446"><ele>46.0</ele><time>2026-03-28T10:48:26Z</time></trkpt><trkpt lat="42.02093282033149" lon="12.054130833721217"><ele>46.0</ele><time>2026-03-28T10:48:27Z</time></trkpt><trkpt lat="42.021005661700215" lon="12.053980895601802"><ele>46.0</ele><time>2026-03-28T10:48:28Z</time></trkpt><trkpt lat="42.02107222506221" lon="12.053831649494919"><ele>46.0</ele><time>2026-03-28T10:48:29Z</time></trkpt><trkpt lat="42.02113721715295" lon="12.053679364029005"><ele>46.0</ele><time>2026-03-28T10:48:30Z</time></trkpt><trkpt lat="42.02120009983081" lon="12.053525651680259"><ele>46.0</ele><time>2026-03-28T10:48:31Z</time></trkpt><trkpt lat="42.021253845705516" lon="12.053367526609769"><ele>46.5</ele><time>2026-03-28T10:48:32Z</time></trkpt><trkpt lat="42.02130448106452" lon="12.053217328040786"><ele>47.0</ele><time>2026-03-28T10:48:33Z</time></trkpt><trkpt lat="42.02135311885967" lon="12.053076392419259"><ele>47.5</ele><time>2026-03-28T10:48:34Z</time></trkpt><trkpt lat="42.02140258212806" lon="12.052924965372256"><ele>48.0</ele><time>2026-03-28T10:48:35Z</time></trkpt><trkpt lat="42.021449428530126" lon="12.052778917641305"><ele>48.0</ele><time>2026-03-28T10:48:36Z</time></trkpt><trkpt lat="42.02149589296819" lon="12.052637212565301"><ele>48.0</ele><time>2026-03-28T10:48:37Z</time></trkpt><trkpt lat="42.021541953660794" lon="12.052490662467855"><ele>48.0</ele><time>2026-03-28T10:48:38Z</time></trkpt><trkpt lat="42.021588320069164" lon="12.052346323476787"><ele>48.0</ele><time>2026-03-28T10:48:39Z</time></trkpt><trkpt lat="42.02163628509824" lon="12.052201213447349"><ele>48.75</ele><time>2026-03-28T10:48:40Z</time></trkpt><trkpt lat="42.02168306927276" lon="12.052052709356838"><ele>49.5</ele><time>2026-03-28T10:48:41Z</time></trkpt><trkpt lat="42.02172668035605" lon="12.051900822877169"><ele>50.25</ele><time>2026-03-28T10:48:42Z</time></trkpt><trkpt lat="42.02177051622086" lon="12.051749766595323"><ele>51.0</ele><time>2026-03-28T10:48:43Z</time></trkpt><trkpt lat="42.02180933612625" lon="12.051623176281105"><ele>51.0</ele><time>2026-03-28T10:48:44Z</time></trkpt><trkpt lat="42.021838372134134" lon="12.051513556766913"><ele>51.0</ele><time>2026-03-28T10:48:45Z</time></trkpt><trkpt lat="42.02186674487473" lon="12.05141156105653"><ele>51.0</ele><time>2026-03-28T10:48:46Z</time></trkpt><trkpt lat="42.02188869748352" lon="12.051330298326532"><ele>51.0</ele><time>2026-03-28T10:48:47Z</time></trkpt><trkpt lat="42.02195179525329" lon="12.051257863451434"><ele>51.0</ele><time>2026-03-28T10:48:49Z</time></trkpt><trkpt lat="42.02206896228845" lon="12.051349215234529"><ele>51.0</ele><time>2026-03-28T10:48:51Z</time></trkpt><trkpt lat="42.022166282621335" lon="12.051407217769023"><ele>51.0</ele><time>2026-03-28T10:48:52Z</time></trkpt><trkpt lat="42.02226121733936" lon="12.051463917537628"><ele>51.0</ele><time>2026-03-28T10:48:53Z</time></trkpt><trkpt lat="42.022336167799715" lon="12.051509801196842"><ele>51.0</ele><time>2026-03-28T10:48:54Z</time></trkpt><trkpt lat="42.022403369636045" lon="12.051550942727003"><ele>51.0</ele><time>2026-03-28T10:48:55Z</time></trkpt><trkpt lat="42.022488317457444" lon="12.05158452481567"><ele>52.166666666666664</ele><time>2026-03-28T10:48:56Z</time></trkpt><trkpt lat="42.02256014858942" lon="12.051627682037312"><ele>53.33333333333333</ele><time>2026-03-28T10:48:57Z</time></trkpt><trkpt lat="42.022627314690624" lon="12.051672701921202"><ele>54.5</ele><time>2026-03-28T10:48:58Z</time></trkpt><trkpt lat="42.02269624269898" lon="12.051725301491636"><ele>55.666666666666664</ele><time>2026-03-28T10:48:59Z</time></trkpt><trkpt lat="42.02278324070975" lon="12.051776391220166"><ele>56.83333333333333</ele><time>2026-03-28T10:49:00Z</time></trkpt><trkpt lat="42.02287383680397" lon="12.051833834002261"><ele>58.0</ele><time>2026-03-28T10:49:01Z</time></trkpt><trkpt lat="42.02296062372328" lon="12.051885095216488"><ele>58.0</ele><time>2026-03-28T10:49:02Z</time></trkpt><trkpt lat="42.023046154079495" lon="12.051939679830541"><ele>58.0</ele><time>2026-03-28T10:49:03Z</time></trkpt><trkpt lat="42.02313364810117" lon="12.051994813019363"><ele>58.0</ele><time>2026-03-28T10:49:04Z</time></trkpt><trkpt lat="42.023224528061114" lon="12.0520529670468"><ele>58.0</ele><time>2026-03-28T10:49:05Z</time></trkpt><trkpt lat="42.02331711524461" lon="12.05210934683266"><ele>58.0</ele><time>2026-03-28T10:49:06Z</time></trkpt><trkpt lat="42.02340486087284" lon="12.052159892180125"><ele>59.8</ele><time>2026-03-28T10:49:07Z</time></trkpt><trkpt lat="42.02348859968353" lon="12.052208005839319"><ele>61.599999999999994</ele><time>2026-03-28T10:49:08Z</time></trkpt><trkpt lat="42.02357299317506" lon="12.052257058235671"><ele>63.400000000000006</ele><time>2026-03-28T10:49:09Z</time></trkpt><trkpt lat="42.02365699513018" lon="12.052328825893655"><ele>65.2</ele><time>2026-03-28T10:49:10Z</time></trkpt><trkpt lat="42.023762023827324" lon="12.052367984276001"><ele>67.0</ele><time>2026-03-28T10:49:11Z</time></trkpt><trkpt lat="42.02385951988529" lon="12.052429137754723"><ele>67.6</ele><time>2026-03-28T10:49:12Z</time></trkpt><trkpt lat="42.02395553633005" lon="12.052491815322314"><ele>68.2</ele><time>2026-03-28T10:49:13Z</time></trkpt><trkpt lat="42.02404871792273" lon="12.052551991278385"><ele>68.8</ele><time>2026-03-28T10:49:14Z</time></trkpt><trkpt lat="42.02414198240687" lon="12.052614783760701"><ele>69.4</ele><time>2026-03-28T10:49:15Z</time></trkpt><trkpt lat="42.02423194799424" lon="12.052673463868357"><ele>70.0</ele><time>2026-03-28T10:49:16Z</time></trkpt><trkpt lat="42.02432152452461" lon="12.05273180680592"><ele>70.0</ele><time>2026-03-28T10:49:17Z</time></trkpt><trkpt lat="42.02440819563284" lon="12.052792456952497"><ele>70.0</ele><time>2026-03-28T10:49:18Z</time></trkpt><trkpt lat="42.02450084552056" lon="12.052854372878427"><ele>70.0</ele><time>2026-03-28T10:49:19Z</time></trkpt><trkpt lat="42.02459673808103" lon="12.05291879645677"><ele>70.0</ele><time>2026-03-28T10:49:20Z</time></trkpt><trkpt lat="42.02469378476089" lon="12.05297551376875"><ele>70.0</ele><time>2026-03-28T10:49:21Z</time></trkpt><trkpt lat="42.02479013234932" lon="12.053030470026561"><ele>70.0</ele><time>2026-03-28T10:49:22Z</time></trkpt><trkpt lat="42.02488569022777" lon="12.053086478048574"><ele>70.0</ele><time>2026-03-28T10:49:23Z</time></trkpt><trkpt lat="42.02496994827312" lon="12.053163176622983"><ele>70.0</ele><time>2026-03-28T10:49:24Z</time></trkpt><trkpt lat="42.02506085782435" lon="12.053221894301116"><ele>70.0</ele><time>2026-03-28T10:49:25Z</time></trkpt><trkpt lat="42.02515052785448" lon="12.053282173746982"><ele>70.0</ele><time>2026-03-28T10:49:26Z</time></trkpt><trkpt lat="42.02524619225217" lon="12.053346288346878"><ele>70.4</ele><time>2026-03-28T10:49:27Z</time></trkpt><trkpt lat="42.02534359357251" lon="12.05341060689378"><ele>70.8</ele><time>2026-03-28T10:49:28Z</time></trkpt><trkpt lat="42.02545084592902" lon="12.053457540152467"><ele>71.2</ele><time>2026-03-28T10:49:29Z</time></trkpt><trkpt lat="42.02554981426955" lon="12.053516446645244"><ele>71.6</ele><time>2026-03-28T10:49:30Z</time></trkpt><trkpt lat="42.0256399605037" lon="12.053577917069456"><ele>72.0</ele><time>2026-03-28T10:49:31Z</time></trkpt><trkpt lat="42.025723211213204" lon="12.053630437399685"><ele>72.0</ele><time>2026-03-28T10:49:32Z</time></trkpt><trkpt lat="42.02580685469725" lon="12.053676945259514"><ele>72.0</ele><time>2026-03-28T10:49:33Z</time></trkpt><trkpt lat="42.02589452488625" lon="12.053730035775043"><ele>72.0</ele><time>2026-03-28T10:49:34Z</time></trkpt><trkpt lat="42.025991638296276" lon="12.053792319931562"><ele>72.0</ele><time>2026-03-28T10:49:35Z</time></trkpt><trkpt lat="42.02609308632302" lon="12.053858538392436"><ele>72.0</ele><time>2026-03-28T10:49:36Z</time></trkpt><trkpt lat="42.026198028968246" lon="12.053921941910039"><ele>72.0</ele><time>2026-03-28T10:49:37Z</time></trkpt><trkpt lat="42.026297508853304" lon="12.05397754127168"><ele>72.0</ele><time>2026-03-28T10:49:38Z</time></trkpt><trkpt lat="42.02639321996483" lon="12.054034136319956"><ele>72.0</ele><time>2026-03-28T10:49:39Z</time></trkpt><trkpt lat="42.026486761770926" lon="12.054088174340405"><ele>72.0</ele><time>2026-03-28T10:49:40Z</time></trkpt><trkpt lat="42.026569196219214" lon="12.054158133802252"><ele>72.0</ele><time>2026-03-28T10:49:41Z</time></trkpt><trkpt lat="42.026679143413126" lon="12.054198974875469"><ele>73.0</ele><time>2026-03-28T10:49:42Z</time></trkpt><trkpt lat="42.02677000816603" lon="12.054256071284287"><ele>74.0</ele><time>2026-03-28T10:49:43Z</time></trkpt><trkpt lat="42.026851311701115" lon="12.05430154371956"><ele>75.0</ele><time>2026-03-28T10:49:44Z</time></trkpt><trkpt lat="42.02692771621558" lon="12.054362630036854"><ele>76.0</ele><time>2026-03-28T10:49:45Z</time></trkpt><trkpt lat="42.02701531952006" lon="12.054413131331794"><ele>77.0</ele><time>2026-03-28T10:49:46Z</time></trkpt><trkpt lat="42.027100623373954" lon="12.054462133249435"><ele>77.0</ele><time>2026-03-28T10:49:47Z</time></trkpt><trkpt lat="42.02720109557289" lon="12.054496430674972"><ele>77.0</ele><time>2026-03-28T10:49:48Z</time></trkpt><trkpt lat="42.027300612002705" lon="12.0545621894073"><ele>77.0</ele><time>2026-03-28T10:49:49Z</time></trkpt><trkpt lat="42.02739906025597" lon="12.054628676381693"><ele>77.0</ele><time>2026-03-28T10:49:50Z</time></trkpt><trkpt lat="42.02749285775765" lon="12.054695110092537"><ele>77.0</ele><time>2026-03-28T10:49:51Z</time></trkpt><trkpt lat="42.027577698875405" lon="12.054744251923557"><ele>76.71428571428571</ele><time>2026-03-28T10:49:52Z</time></trkpt><trkpt lat="42.02765196204502" lon="12.054788099528402"><ele>76.42857142857143</ele><time>2026-03-28T10:49:53Z</time></trkpt><trkpt lat="42.027710382358585" lon="12.054823400287178"><ele>76.14285714285714</ele><time>2026-03-28T10:49:54Z</time></trkpt><trkpt lat="42.02779669672954" lon="12.054883685799004"><ele>75.85714285714286</ele><time>2026-03-28T10:49:56Z</time></trkpt><trkpt lat="42.02784202882584" lon="12.054946275395915"><ele>75.57142857142857</ele><time>2026-03-28T10:49:59Z</time></trkpt><trkpt lat="42.02790508415238" lon="12.054971527429183"><ele>75.28571428571428</ele><time>2026-03-28T10:50:01Z</time></trkpt><trkpt lat="42.02797304628807" lon="12.054975696257168"><ele>75.0</ele><time>2026-03-28T10:50:02Z</time></trkpt><trkpt lat="42.028049869469676" lon="12.055007618463957"><ele>75.0</ele><time>2026-03-28T10:50:03Z</time></trkpt><trkpt lat="42.028137417316835" lon="12.05506312997404"><ele>75.0</ele><time>2026-03-28T10:50:04Z</time></trkpt><trkpt lat="42.02824623384839" lon="12.055123196713721"><ele>75.0</ele><time>2026-03-28T10:50:05Z</time></trkpt><trkpt lat="42.02834983217968" lon="12.055184669839177"><ele>75.0</ele><time>2026-03-28T10:50:06Z</time></trkpt><trkpt lat="42.02845503111042" lon="12.055255250621357"><ele>75.0</ele><time>2026-03-28T10:50:07Z</time></trkpt><trkpt lat="42.02857415122916" lon="12.05532938545267"><ele>77.5</ele><time>2026-03-28T10:50:08Z</time></trkpt><trkpt lat="42.02869644835914" lon="12.055419207421473"><ele>80.0</ele><time>2026-03-28T10:50:09Z</time></trkpt><trkpt lat="42.028811568666505" lon="12.055515284584486"><ele>82.5</ele><time>2026-03-28T10:50:10Z</time></trkpt><trkpt lat="42.028914780336905" lon="12.055591493087999"><ele>85.0</ele><time>2026-03-28T10:50:11Z</time></trkpt><trkpt lat="42.02901208342692" lon="12.055622887671335"><ele>85.0</ele><time>2026-03-28T10:50:12Z</time></trkpt><trkpt lat="42.02912154218258" lon="12.055606570423151"><ele>85.0</ele><time>2026-03-28T10:50:13Z</time></trkpt><trkpt lat="42.029237218803296" lon="12.05555637552835"><ele>85.0</ele><time>2026-03-28T10:50:14Z</time></trkpt><trkpt lat="42.02935427232372" lon="12.05547345335209"><ele>85.0</ele><time>2026-03-28T10:50:15Z</time></trkpt><trkpt lat="42.02946068906812" lon="12.055394448699866"><ele>88.0</ele><time>2026-03-28T10:50:16Z</time></trkpt><trkpt lat="42.029561227285384" lon="12.055327799301947"><ele>91.0</ele><time>2026-03-28T10:50:17Z</time></trkpt><trkpt lat="42.029677994969006" lon="12.055255894164938"><ele>94.0</ele><time>2026-03-28T10:50:18Z</time></trkpt><trkpt lat="42.02979546704777" lon="12.055184854297456"><ele>97.0</ele><time>2026-03-28T10:50:19Z</time></trkpt><trkpt lat="42.02991850456999" lon="12.05511670574339"><ele>99.0</ele><time>2026-03-28T10:50:20Z</time></trkpt><trkpt lat="42.03004252239992" lon="12.055049298951719"><ele>101.0</ele><time>2026-03-28T10:50:21Z</time></trkpt><trkpt lat="42.030153923569664" lon="12.055003316198878"><ele>103.0</ele><time>2026-03-28T10:50:22Z</time></trkpt><trkpt lat="42.03025777405637" lon="12.054959600478037"><ele>105.0</ele><time>2026-03-28T10:50:23Z</time></trkpt><trkpt lat="42.030365150775594" lon="12.054892275561818"><ele>106.5</ele><time>2026-03-28T10:50:24Z</time></trkpt><trkpt lat="42.03047766118357" lon="12.054825617882635"><ele>108.0</ele><time>2026-03-28T10:50:25Z</time></trkpt><trkpt lat="42.03059576302445" lon="12.054761009326795"><ele>109.5</ele><time>2026-03-28T10:50:26Z</time></trkpt><trkpt lat="42.030710949668695" lon="12.054687285282032"><ele>111.0</ele><time>2026-03-28T10:50:27Z</time></trkpt><trkpt lat="42.03081833123358" lon="12.054612787105246"><ele>111.0</ele><time>2026-03-28T10:50:28Z</time></trkpt><trkpt lat="42.030920485505554" lon="12.05454461021"><ele>111.0</ele><time>2026-03-28T10:50:29Z</time></trkpt><trkpt lat="42.031012313241355" lon="12.054487480399871"><ele>111.0</ele><time>2026-03-28T10:50:30Z</time></trkpt><trkpt lat="42.03110284159859" lon="12.05444544496066"><ele>111.0</ele><time>2026-03-28T10:50:31Z</time></trkpt><trkpt lat="42.031184285008656" lon="12.05443212995631"><ele>111.0</ele><time>2026-03-28T10:50:32Z</time></trkpt><trkpt lat="42.031256555776174" lon="12.054447114722443"><ele>111.0</ele><time>2026-03-28T10:50:33Z</time></trkpt><trkpt lat="42.03132897199543" lon="12.054480428312779"><ele>111.0</ele><time>2026-03-28T10:50:34Z</time></trkpt><trkpt lat="42.031406474581466" lon="12.054532077911286"><ele>111.0</ele><time>2026-03-28T10:50:35Z</time></trkpt><trkpt lat="42.0314888775471" lon="12.054599224438226"><ele>111.0</ele><time>2026-03-28T10:50:36Z</time></trkpt><trkpt lat="42.03156768106995" lon="12.05465940484239"><ele>111.0</ele><time>2026-03-28T10:50:37Z</time></trkpt><trkpt lat="42.031645039460194" lon="12.054710478396167"><ele>111.0</ele><time>2026-03-28T10:50:38Z</time></trkpt><trkpt lat="42.03172259832717" lon="12.054759154314675"><ele>111.0</ele><time>2026-03-28T10:50:39Z</time></trkpt><trkpt lat="42.031794110209546" lon="12.054811766278812"><ele>111.0</ele><time>2026-03-28T10:50:40Z</time></trkpt><trkpt lat="42.03186879401332" lon="12.05486764044642"><ele>111.0</ele><time>2026-03-28T10:50:41Z</time></trkpt><trkpt lat="42.03194839574616" lon="12.054923633105691"><ele>111.0</ele><time>2026-03-28T10:50:42Z</time></trkpt><trkpt lat="42.03203749703562" lon="12.054980838574913"><ele>111.0</ele><time>2026-03-28T10:50:43Z</time></trkpt><trkpt lat="42.03212971071568" lon="12.055044160798376"><ele>111.19999999999999</ele><time>2026-03-28T10:50:44Z</time></trkpt><trkpt lat="42.03221994351824" lon="12.055106006301498"><ele>111.39999999999999</ele><time>2026-03-28T10:50:45Z</time></trkpt><trkpt lat="42.03231208329409" lon="12.055172057334792"><ele>111.6</ele><time>2026-03-28T10:50:46Z</time></trkpt><trkpt lat="42.032396736393444" lon="12.055233202852975"><ele>111.8</ele><time>2026-03-28T10:50:47Z</time></trkpt><trkpt lat="42.03247874672281" lon="12.055288497550974"><ele>112.0</ele><time>2026-03-28T10:50:48Z</time></trkpt><trkpt lat="42.03254966808391" lon="12.055338021432634"><ele>112.16666666666667</ele><time>2026-03-28T10:50:49Z</time></trkpt><trkpt lat="42.03261340388288" lon="12.055385221202059"><ele>112.33333333333334</ele><time>2026-03-28T10:50:50Z</time></trkpt><trkpt lat="42.03270495815656" lon="12.055456242061604"><ele>112.5</ele><time>2026-03-28T10:50:52Z</time></trkpt><trkpt lat="42.03276713978289" lon="12.055512236227996"><ele>112.66666666666666</ele><time>2026-03-28T10:50:54Z</time></trkpt><trkpt lat="42.0328230664202" lon="12.055562272210267"><ele>112.83333333333333</ele><time>2026-03-28T10:50:56Z</time></trkpt><trkpt lat="42.03287747571224" lon="12.055607787410796"><ele>113.0</ele><time>2026-03-28T10:50:58Z</time></trkpt><trkpt lat="42.03294687448511" lon="12.055641706348249"><ele>113.0</ele><time>2026-03-28T10:51:20Z</time></trkpt><trkpt lat="42.03299200347296" lon="12.055715456884009"><ele>113.00000000000001</ele><time>2026-03-28T10:51:43Z</time></trkpt><trkpt lat="42.03294707663233" lon="12.055835282151227"><ele>113.00000000000001</ele><time>2026-03-28T10:51:45Z</time></trkpt><trkpt lat="42.03289835640079" lon="12.055949257895524"><ele>113.0</ele><time>2026-03-28T10:51:47Z</time></trkpt><trkpt lat="42.03283417175067" lon="12.056111988994108"><ele>113.0</ele><time>2026-03-28T10:51:49Z</time></trkpt><trkpt lat="42.03279005031684" lon="12.05621642452155"><ele>113.80000000000001</ele><time>2026-03-28T10:51:50Z</time></trkpt><trkpt lat="42.03274728174264" lon="12.056334853885005"><ele>114.60000000000001</ele><time>2026-03-28T10:51:51Z</time></trkpt><trkpt lat="42.032707412923244" lon="12.056452338791841"><ele>115.39999999999999</ele><time>2026-03-28T10:51:52Z</time></trkpt><trkpt lat="42.03266411844164" lon="12.056579948175312"><ele>116.19999999999999</ele><time>2026-03-28T10:51:53Z</time></trkpt><trkpt lat="42.03261688079864" lon="12.056722332485627"><ele>117.0</ele><time>2026-03-28T10:51:54Z</time></trkpt><trkpt lat="42.03256601514527" lon="12.05687006947381"><ele>116.8</ele><time>2026-03-28T10:51:55Z</time></trkpt><trkpt lat="42.03250708698585" lon="12.057004242010064"><ele>116.6</ele><time>2026-03-28T10:51:56Z</time></trkpt><trkpt lat="42.03244965102425" lon="12.057131666338629"><ele>116.39999999999999</ele><time>2026-03-28T10:51:57Z</time></trkpt><trkpt lat="42.032403630503644" lon="12.057253265481405"><ele>116.19999999999999</ele><time>2026-03-28T10:51:58Z</time></trkpt><trkpt lat="42.03235408188071" lon="12.057366585779379"><ele>116.0</ele><time>2026-03-28T10:51:59Z</time></trkpt><trkpt lat="42.03231754679868" lon="12.057460720564746"><ele>116.0</ele><time>2026-03-28T10:52:00Z</time></trkpt><trkpt lat="42.03227092271681" lon="12.05756644410347"><ele>116.0</ele><time>2026-03-28T10:52:02Z</time></trkpt><trkpt lat="42.032332123956515" lon="12.057720032198976"><ele>116.0</ele><time>2026-03-28T10:52:05Z</time></trkpt><trkpt lat="42.03238619160127" lon="12.057791503413878"><ele>116.0</ele><time>2026-03-28T10:52:06Z</time></trkpt><trkpt lat="42.0324450270177" lon="12.057837192516107"><ele>116.0</ele><time>2026-03-28T10:52:07Z</time></trkpt><trkpt lat="42.032467011628725" lon="12.057953457030822"><ele>115.99999999999999</ele><time>2026-03-28T10:52:09Z</time></trkpt><trkpt lat="42.03246824400393" lon="12.058063218497166"><ele>116.0</ele><time>2026-03-28T10:52:10Z</time></trkpt><trkpt lat="42.032459267234174" lon="12.058154692538329"><ele>116.0</ele><time>2026-03-28T10:52:11Z</time></trkpt><trkpt lat="42.032453171426894" lon="12.058255845108807"><ele>116.0</ele><time>2026-03-28T10:52:12Z</time></trkpt><trkpt lat="42.03246113749701" lon="12.05835604397988"><ele>115.99999999999999</ele><time>2026-03-28T10:52:13Z</time></trkpt><trkpt lat="42.032459062039514" lon="12.058440773587629"><ele>116.0</ele><time>2026-03-28T10:52:14Z</time></trkpt><trkpt lat="42.032414009825764" lon="12.058607312109304"><ele>115.99999999999999</ele><time>2026-03-28T10:52:16Z</time></trkpt><trkpt lat="42.03237672167026" lon="12.058691694179695"><ele>116.0</ele><time>2026-03-28T10:52:17Z</time></trkpt><trkpt lat="42.03232852087578" lon="12.058778309265012"><ele>116.0</ele><time>2026-03-28T10:52:18Z</time></trkpt><trkpt lat="42.03229078592224" lon="12.05885796453691"><ele>116.0</ele><time>2026-03-28T10:52:19Z</time></trkpt><trkpt lat="42.03223206743806" lon="12.059001570949622"><ele>115.99999999999999</ele><time>2026-03-28T10:52:21Z</time></trkpt><trkpt lat="42.032204738565106" lon="12.0590804796057"><ele>116.0</ele><time>2026-03-28T10:52:22Z</time></trkpt><trkpt lat="42.032160165990575" lon="12.059160484740314"><ele>115.57142857142858</ele><time>2026-03-28T10:52:23Z</time></trkpt><trkpt lat="42.032120216065806" lon="12.05923939135079"><ele>115.14285714285714</ele><time>2026-03-28T10:52:24Z</time></trkpt><trkpt lat="42.032079158939595" lon="12.059324504469604"><ele>114.71428571428572</ele><time>2026-03-28T10:52:25Z</time></trkpt><trkpt lat="42.03205067475397" lon="12.059419896708073"><ele>114.28571428571429</ele><time>2026-03-28T10:52:26Z</time></trkpt><trkpt lat="42.032043362592454" lon="12.05951417652272"><ele>113.85714285714286</ele><time>2026-03-28T10:52:27Z</time></trkpt><trkpt lat="42.03203586508012" lon="12.05960452674747"><ele>113.42857142857143</ele><time>2026-03-28T10:52:28Z</time></trkpt><trkpt lat="42.032031660403135" lon="12.059693293720185"><ele>113.0</ele><time>2026-03-28T10:52:29Z</time></trkpt><trkpt lat="42.03200765105025" lon="12.059775203690956"><ele>113.0</ele><time>2026-03-28T10:52:30Z</time></trkpt><trkpt lat="42.031973298660496" lon="12.059847598574772"><ele>113.00000000000001</ele><time>2026-03-28T10:52:31Z</time></trkpt><trkpt lat="42.03194842400057" lon="12.059995260399976"><ele>113.00000000000001</ele><time>2026-03-28T10:52:33Z</time></trkpt><trkpt lat="42.0319058400844" lon="12.060136920171164"><ele>113.0</ele><time>2026-03-28T10:52:35Z</time></trkpt><trkpt lat="42.03189050163576" lon="12.060223241873421"><ele>113.0</ele><time>2026-03-28T10:52:36Z</time></trkpt><trkpt lat="42.03188077973243" lon="12.06038063959925"><ele>112.0</ele><time>2026-03-28T10:52:38Z</time></trkpt><trkpt lat="42.031836804602825" lon="12.06050783709552"><ele>111.00000000000001</ele><time>2026-03-28T10:52:40Z</time></trkpt><trkpt lat="42.03183714955314" lon="12.060649513414706"><ele>110.00000000000001</ele><time>2026-03-28T10:52:42Z</time></trkpt><trkpt lat="42.03184018004097" lon="12.06073668670694"><ele>109.0</ele><time>2026-03-28T10:52:43Z</time></trkpt><trkpt lat="42.031841292382815" lon="12.060826966418045"><ele>108.0</ele><time>2026-03-28T10:52:44Z</time></trkpt><trkpt lat="42.03181751380257" lon="12.060993777518808"><ele>107.5</ele><time>2026-03-28T10:52:46Z</time></trkpt><trkpt lat="42.031799345387" lon="12.061082614322691"><ele>107.0</ele><time>2026-03-28T10:52:47Z</time></trkpt><trkpt lat="42.03180189618035" lon="12.06117641194603"><ele>106.5</ele><time>2026-03-28T10:52:48Z</time></trkpt><trkpt lat="42.03182490376241" lon="12.061275721930006"><ele>106.0</ele><time>2026-03-28T10:52:49Z</time></trkpt><trkpt lat="42.031868583269876" lon="12.061374412339985"><ele>105.5</ele><time>2026-03-28T10:52:50Z</time></trkpt><trkpt lat="42.031915912209264" lon="12.06146382717008"><ele>105.0</ele><time>2026-03-28T10:52:51Z</time></trkpt><trkpt lat="42.031974543871705" lon="12.061543133788676"><ele>105.0</ele><time>2026-03-28T10:52:52Z</time></trkpt><trkpt lat="42.03203068376069" lon="12.061605583568676"><ele>105.0</ele><time>2026-03-28T10:52:53Z</time></trkpt><trkpt lat="42.03212227976224" lon="12.06163711711072"><ele>105.0</ele><time>2026-03-28T10:52:55Z</time></trkpt><trkpt lat="42.03221485364197" lon="12.061642000254025"><ele>105.0</ele><time>2026-03-28T10:52:58Z</time></trkpt><trkpt lat="42.03229646510163" lon="12.061682625359769"><ele>105.0</ele><time>2026-03-28T10:53:00Z</time></trkpt><trkpt lat="42.03237549577362" lon="12.061753059135082"><ele>105.0</ele><time>2026-03-28T10:54:21Z</time></trkpt><trkpt lat="42.03244907979225" lon="12.061795451423436"><ele>106.66666666666667</ele><time>2026-03-28T10:54:23Z</time></trkpt><trkpt lat="42.03251953929604" lon="12.061878562530133"><ele>108.33333333333334</ele><time>2026-03-28T10:54:26Z</time></trkpt><trkpt lat="42.03257685206841" lon="12.061950341476614"><ele>110.0</ele><time>2026-03-28T10:54:28Z</time></trkpt><trkpt lat="42.032687958521606" lon="12.06198038626467"><ele>111.66666666666667</ele><time>2026-03-28T10:54:30Z</time></trkpt><trkpt lat="42.03275842920645" lon="12.062006002982425"><ele>113.33333333333334</ele><time>2026-03-28T10:54:32Z</time></trkpt><trkpt lat="42.03283788165525" lon="12.062019558291503"><ele>115.0</ele><time>2026-03-28T10:54:44Z</time></trkpt><trkpt lat="42.03293674146259" lon="12.062037261339476"><ele>115.00000000000001</ele><time>2026-03-28T10:54:49Z</time></trkpt><trkpt lat="42.033034140675454" lon="12.062054274835731"><ele>115.0</ele><time>2026-03-28T10:54:51Z</time></trkpt><trkpt lat="42.03310588966313" lon="12.062063900842553"><ele>115.0</ele><time>2026-03-28T10:54:53Z</time></trkpt><trkpt lat="42.0331968949959" lon="12.062132042337062"><ele>115.0</ele><time>2026-03-28T10:54:55Z</time></trkpt><trkpt lat="42.033272084191786" lon="12.062137615061939"><ele>115.00000000000001</ele><time>2026-03-28T10:54:57Z</time></trkpt><trkpt lat="42.03333779746859" lon="12.062115999741854"><ele>115.0</ele><time>2026-03-28T10:54:59Z</time></trkpt><trkpt lat="42.033420286079775" lon="12.062184593844815"><ele>117.83333333333334</ele><time>2026-03-28T10:55:02Z</time></trkpt><trkpt lat="42.03349224305396" lon="12.06218825088525"><ele>120.66666666666667</ele><time>2026-03-28T10:55:05Z</time></trkpt><trkpt lat="42.03355980063301" lon="12.062211600318074"><ele>123.5</ele><time>2026-03-28T10:55:08Z</time></trkpt><trkpt lat="42.03364014877621" lon="12.062252352981373"><ele>126.33333333333334</ele><time>2026-03-28T10:55:11Z</time></trkpt><trkpt lat="42.03373845086166" lon="12.062229088161605"><ele>129.16666666666666</ele><time>2026-03-28T10:55:14Z</time></trkpt><trkpt lat="42.033811670624424" lon="12.06221142138714"><ele>132.0</ele><time>2026-03-28T10:55:16Z</time></trkpt><trkpt lat="42.03386274678423" lon="12.062152123194688"><ele>132.0</ele><time>2026-03-28T10:55:18Z</time></trkpt><trkpt lat="42.03392604203444" lon="12.062102209787364"><ele>132.0</ele><time>2026-03-28T10:55:20Z</time></trkpt><trkpt lat="42.033987953343406" lon="12.062050852332652"><ele>132.0</ele><time>2026-03-28T10:55:22Z</time></trkpt><trkpt lat="42.03405695262488" lon="12.062029280664419"><ele>132.0</ele><time>2026-03-28T10:55:24Z</time></trkpt><trkpt lat="42.0341523114464" lon="12.061997206855596"><ele>132.0</ele><time>2026-03-28T10:55:26Z</time></trkpt><trkpt lat="42.03424099154606" lon="12.061947772991994"><ele>132.0</ele><time>2026-03-28T10:55:28Z</time></trkpt><trkpt lat="42.034328328033" lon="12.061942057840424"><ele>133.33333333333334</ele><time>2026-03-28T10:55:30Z</time></trkpt><trkpt lat="42.034437113974946" lon="12.06190069045306"><ele>134.66666666666666</ele><time>2026-03-28T10:55:32Z</time></trkpt><trkpt lat="42.034506482854525" lon="12.0618655902694"><ele>136.0</ele><time>2026-03-28T10:55:34Z</time></trkpt><trkpt lat="42.03460254009536" lon="12.061870755875729"><ele>137.33333333333331</ele><time>2026-03-28T10:55:36Z</time></trkpt><trkpt lat="42.0346742923533" lon="12.061888924505826"><ele>138.66666666666666</ele><time>2026-03-28T10:55:38Z</time></trkpt><trkpt lat="42.034749505450236" lon="12.061937395348867"><ele>140.0</ele><time>2026-03-28T10:55:40Z</time></trkpt><trkpt lat="42.034757048106705" lon="12.06204533432116"><ele>140.0</ele><time>2026-03-28T10:55:42Z</time></trkpt><trkpt lat="42.03480463925929" lon="12.062143265500133"><ele>140.0</ele><time>2026-03-28T10:55:44Z</time></trkpt><trkpt lat="42.03487126336994" lon="12.062258761932931"><ele>140.0</ele><time>2026-03-28T10:55:46Z</time></trkpt><trkpt lat="42.03489909655957" lon="12.062349678499757"><ele>140.0</ele><time>2026-03-28T10:55:48Z</time></trkpt><trkpt lat="42.034912050639456" lon="12.062450791154113"><ele>140.0</ele><time>2026-03-28T10:55:50Z</time></trkpt><trkpt lat="42.03496127501549" lon="12.062514475945076"><ele>140.0</ele><time>2026-03-28T10:55:51Z</time></trkpt><trkpt lat="42.03503696859779" lon="12.062553004033179"><ele>139.0</ele><time>2026-03-28T10:55:52Z</time></trkpt><trkpt lat="42.03512334847886" lon="12.062601077318885"><ele>138.0</ele><time>2026-03-28T10:55:53Z</time></trkpt><trkpt lat="42.03519009957463" lon="12.0626474448613"><ele>137.0</ele><time>2026-03-28T10:55:54Z</time></trkpt><trkpt lat="42.0352986868016" lon="12.06267890386099"><ele>136.0</ele><time>2026-03-28T10:55:56Z</time></trkpt><trkpt lat="42.035369253397675" lon="12.062689792159864"><ele>135.0</ele><time>2026-03-28T10:55:57Z</time></trkpt><trkpt lat="42.035440461760196" lon="12.062703996659002"><ele>134.0</ele><time>2026-03-28T10:55:58Z</time></trkpt><trkpt lat="42.03551635717086" lon="12.062708511377362"><ele>134.0</ele><time>2026-03-28T10:55:59Z</time></trkpt><trkpt lat="42.035592502203556" lon="12.062704445234663"><ele>134.0</ele><time>2026-03-28T10:56:00Z</time></trkpt><trkpt lat="42.03567216103613" lon="12.062713327874583"><ele>134.0</ele><time>2026-03-28T10:56:01Z</time></trkpt><trkpt lat="42.03574987762798" lon="12.062738194291692"><ele>134.0</ele><time>2026-03-28T10:56:02Z</time></trkpt><trkpt lat="42.03583046775183" lon="12.062752327662226"><ele>134.0</ele><time>2026-03-28T10:56:03Z</time></trkpt><trkpt lat="42.03589467742997" lon="12.062770320012987"><ele>134.0</ele><time>2026-03-28T10:56:04Z</time></trkpt><trkpt lat="42.03599227762587" lon="12.062811115621706"><ele>136.8</ele><time>2026-03-28T10:56:06Z</time></trkpt><trkpt lat="42.03613490718337" lon="12.062778214376412"><ele>139.60000000000002</ele><time>2026-03-28T10:56:08Z</time></trkpt><trkpt lat="42.0362081175103" lon="12.062783508657429"><ele>142.4</ele><time>2026-03-28T10:56:09Z</time></trkpt><trkpt lat="42.03628848023564" lon="12.062856884009022"><ele>145.20000000000002</ele><time>2026-03-28T10:56:11Z</time></trkpt><trkpt lat="42.03641161476879" lon="12.062895286707302"><ele>148.0</ele><time>2026-03-28T10:56:13Z</time></trkpt><trkpt lat="42.03650267726577" lon="12.062958703690182"><ele>148.0</ele><time>2026-03-28T10:56:15Z</time></trkpt><trkpt lat="42.03659106169765" lon="12.062959529484148"><ele>148.0</ele><time>2026-03-28T10:56:17Z</time></trkpt><trkpt lat="42.03667830023945" lon="12.062956491580847"><ele>148.0</ele><time>2026-03-28T10:56:19Z</time></trkpt><trkpt lat="42.036768498362626" lon="12.062925256370137"><ele>148.0</ele><time>2026-03-28T10:56:21Z</time></trkpt><trkpt lat="42.03684029200412" lon="12.062886606992594"><ele>148.0</ele><time>2026-03-28T10:56:22Z</time></trkpt><trkpt lat="42.036913687201015" lon="12.062837462943214"><ele>148.0</ele><time>2026-03-28T10:56:24Z</time></trkpt><trkpt lat="42.036995480598215" lon="12.06281579825374"><ele>148.6</ele><time>2026-03-28T10:56:27Z</time></trkpt><trkpt lat="42.03710864514327" lon="12.062824672558916"><ele>149.20000000000002</ele><time>2026-03-28T10:56:29Z</time></trkpt><trkpt lat="42.03720679616467" lon="12.062803789374819"><ele>149.8</ele><time>2026-03-28T10:56:31Z</time></trkpt><trkpt lat="42.037325069913265" lon="12.0627892731466"><ele>150.4</ele><time>2026-03-28T10:56:33Z</time></trkpt><trkpt lat="42.03741705707031" lon="12.062807480089532"><ele>151.0</ele><time>2026-03-28T10:56:35Z</time></trkpt><trkpt lat="42.03749217294357" lon="12.062759210226206"><ele>152.4</ele><time>2026-03-28T10:56:38Z</time></trkpt><trkpt lat="42.03757100149684" lon="12.062737877191388"><ele>153.8</ele><time>2026-03-28T10:56:40Z</time></trkpt><trkpt lat="42.03765581861246" lon="12.062733716966624"><ele>155.20000000000002</ele><time>2026-03-28T10:56:42Z</time></trkpt><trkpt lat="42.03773227882409" lon="12.06274040646415"><ele>156.6</ele><time>2026-03-28T10:56:45Z</time></trkpt><trkpt lat="42.03788093193017" lon="12.062767278375006"><ele>158.0</ele><time>2026-03-28T10:56:46Z</time></trkpt><trkpt lat="42.037956903941534" lon="12.062823429991962"><ele>158.0</ele><time>2026-03-28T10:56:48Z</time></trkpt><trkpt lat="42.03804775398854" lon="12.062798836730419"><ele>158.0</ele><time>2026-03-28T10:56:50Z</time></trkpt><trkpt lat="42.03815147033707" lon="12.062766975027982"><ele>158.0</ele><time>2026-03-28T10:56:52Z</time></trkpt><trkpt lat="42.03827579709344" lon="12.062745253227233"><ele>158.0</ele><time>2026-03-28T10:56:54Z</time></trkpt><trkpt lat="42.03833975149265" lon="12.062722471641042"><ele>158.0</ele><time>2026-03-28T10:56:55Z</time></trkpt><trkpt lat="42.03844692544731" lon="12.062653211748227"><ele>159.0</ele><time>2026-03-28T10:56:57Z</time></trkpt><trkpt lat="42.03851291111829" lon="12.062598902016706"><ele>160.0</ele><time>2026-03-28T10:56:59Z</time></trkpt><trkpt lat="42.038588741094834" lon="12.062572492145451"><ele>161.0</ele><time>2026-03-28T10:57:01Z</time></trkpt><trkpt lat="42.0386967663671" lon="12.062578595813003"><ele>162.0</ele><time>2026-03-28T10:57:03Z</time></trkpt><trkpt lat="42.03878251482816" lon="12.062601086307446"><ele>163.0</ele><time>2026-03-28T10:57:05Z</time></trkpt><trkpt lat="42.038912860050665" lon="12.06263404884367"><ele>163.0</ele><time>2026-03-28T10:57:08Z</time></trkpt><trkpt lat="42.039011974262856" lon="12.062627726702095"><ele>163.0</ele><time>2026-03-28T10:57:10Z</time></trkpt><trkpt lat="42.03912891173073" lon="12.062625332363867"><ele>163.0</ele><time>2026-03-28T10:57:12Z</time></trkpt><trkpt lat="42.03920232067416" lon="12.062636593071812"><ele>163.0</ele><time>2026-03-28T10:57:13Z</time></trkpt><trkpt lat="42.039275012533125" lon="12.062653097771946"><ele>163.0</ele><time>2026-03-28T10:57:15Z</time></trkpt><trkpt lat="42.03934433770542" lon="12.06263957508633"><ele>163.0</ele><time>2026-03-28T10:57:18Z</time></trkpt><trkpt lat="42.03942949194506" lon="12.062613063081978"><ele>164.0</ele><time>2026-03-28T10:57:20Z</time></trkpt><trkpt lat="42.039498819954105" lon="12.062555854660946"><ele>165.0</ele><time>2026-03-28T10:57:22Z</time></trkpt><trkpt lat="42.03955754715448" lon="12.062512321795166"><ele>166.0</ele><time>2026-03-28T10:57:23Z</time></trkpt><trkpt lat="42.039662413736515" lon="12.062445028532217"><ele>167.0</ele><time>2026-03-28T10:57:24Z</time></trkpt><trkpt lat="42.03974041750002" lon="12.062405375876017"><ele>168.0</ele><time>2026-03-28T10:57:25Z</time></trkpt><trkpt lat="42.03981163330292" lon="12.062371818591137"><ele>169.0</ele><time>2026-03-28T10:57:26Z</time></trkpt><trkpt lat="42.0398910183601" lon="12.062346339659756"><ele>169.2</ele><time>2026-03-28T10:57:27Z</time></trkpt><trkpt lat="42.040005352893836" lon="12.062349893567852"><ele>169.39999999999998</ele><time>2026-03-28T10:57:28Z</time></trkpt><trkpt lat="42.04011823075794" lon="12.062346657142266"><ele>169.6</ele><time>2026-03-28T10:57:29Z</time></trkpt><trkpt lat="42.040212436531775" lon="12.062349329448992"><ele>169.8</ele><time>2026-03-28T10:57:30Z</time></trkpt><trkpt lat="42.040276833778954" lon="12.062329988739652"><ele>170.0</ele><time>2026-03-28T10:57:31Z</time></trkpt><trkpt lat="42.04034374154242" lon="12.0622982047914"><ele>170.0</ele><time>2026-03-28T10:57:32Z</time></trkpt><trkpt lat="42.04042227517844" lon="12.062310949680718"><ele>170.0</ele><time>2026-03-28T10:57:33Z</time></trkpt><trkpt lat="42.04050168763958" lon="12.06233938474546"><ele>170.0</ele><time>2026-03-28T10:57:34Z</time></trkpt><trkpt lat="42.040580133461155" lon="12.062374370891616"><ele>170.0</ele><time>2026-03-28T10:57:35Z</time></trkpt><trkpt lat="42.04069103141831" lon="12.062412010743195"><ele>170.0</ele><time>2026-03-28T10:57:37Z</time></trkpt><trkpt lat="42.04075375495021" lon="12.062449578512975"><ele>170.0</ele><time>2026-03-28T10:57:38Z</time></trkpt><trkpt lat="42.04083180076255" lon="12.062503165875142"><ele>170.0</ele><time>2026-03-28T10:57:39Z</time></trkpt><trkpt lat="42.040918637401205" lon="12.06258682732745"><ele>170.0</ele><time>2026-03-28T10:57:40Z</time></trkpt><trkpt lat="42.04100519651448" lon="12.062677862854049"><ele>170.0</ele><time>2026-03-28T10:57:41Z</time></trkpt><trkpt lat="42.04108868035557" lon="12.062764104888261"><ele>170.0</ele><time>2026-03-28T10:57:42Z</time></trkpt><trkpt lat="42.041156854475005" lon="12.0628308830338"><ele>170.0</ele><time>2026-03-28T10:57:43Z</time></trkpt><trkpt lat="42.04122326753185" lon="12.062881110042163"><ele>170.0</ele><time>2026-03-28T10:57:44Z</time></trkpt><trkpt lat="42.0412994047215" lon="12.062903195602008"><ele>170.0</ele><time>2026-03-28T10:57:45Z</time></trkpt><trkpt lat="42.041397773974495" lon="12.06301307398803"><ele>170.0</ele><time>2026-03-28T10:57:47Z</time></trkpt><trkpt lat="42.04147074712295" lon="12.0630771902659"><ele>170.0</ele><time>2026-03-28T10:57:48Z</time></trkpt><trkpt lat="42.04152193086326" lon="12.063174928803662"><ele>170.0</ele><time>2026-03-28T10:57:49Z</time></trkpt><trkpt lat="42.04161098445488" lon="12.063268617773943"><ele>170.5</ele><time>2026-03-28T10:57:51Z</time></trkpt><trkpt lat="42.04167570329168" lon="12.063297965869658"><ele>171.0</ele><time>2026-03-28T10:57:52Z</time></trkpt><trkpt lat="42.041733951914125" lon="12.06335186534281"><ele>171.5</ele><time>2026-03-28T10:57:53Z</time></trkpt><trkpt lat="42.04179133925767" lon="12.063422646163167"><ele>172.0</ele><time>2026-03-28T10:57:54Z</time></trkpt><trkpt lat="42.04184880943034" lon="12.063482548762849"><ele>172.5</ele><time>2026-03-28T10:57:55Z</time></trkpt><trkpt lat="42.04188774812026" lon="12.063550709182444"><ele>173.0</ele><time>2026-03-28T10:57:56Z</time></trkpt><trkpt lat="42.041985392752835" lon="12.06367608890591"><ele>173.0</ele><time>2026-03-28T10:57:58Z</time></trkpt><trkpt lat="42.04203046176326" lon="12.063760310479307"><ele>173.0</ele><time>2026-03-28T10:57:59Z</time></trkpt><trkpt lat="42.0420802321128" lon="12.063848867076743"><ele>173.0</ele><time>2026-03-28T10:58:00Z</time></trkpt><trkpt lat="42.04213652672928" lon="12.063915837785954"><ele>173.0</ele><time>2026-03-28T10:58:01Z</time></trkpt><trkpt lat="42.042202756995316" lon="12.064013204566793"><ele>173.0</ele><time>2026-03-28T10:58:02Z</time></trkpt><trkpt lat="42.042261349564825" lon="12.064139495147831"><ele>173.0</ele><time>2026-03-28T10:58:03Z</time></trkpt><trkpt lat="42.04231284124747" lon="12.06424262886709"><ele>173.60000000000002</ele><time>2026-03-28T10:58:04Z</time></trkpt><trkpt lat="42.042385340278464" lon="12.064315505910182"><ele>174.20000000000002</ele><time>2026-03-28T10:58:06Z</time></trkpt><trkpt lat="42.04243751074745" lon="12.064395210788161"><ele>174.8</ele><time>2026-03-28T10:59:01Z</time></trkpt><trkpt lat="42.04251855023355" lon="12.064505377987306"><ele>175.4</ele><time>2026-03-28T10:59:03Z</time></trkpt><trkpt lat="42.04264611895788" lon="12.064580038170813"><ele>176.0</ele><time>2026-03-28T10:59:05Z</time></trkpt><trkpt lat="42.04272070012455" lon="12.064619417573864"><ele>176.0</ele><time>2026-03-28T10:59:06Z</time></trkpt><trkpt lat="42.04280783506707" lon="12.064720188632062"><ele>176.0</ele><time>2026-03-28T10:59:08Z</time></trkpt><trkpt lat="42.04288634706784" lon="12.064789456001144"><ele>176.0</ele><time>2026-03-28T10:59:10Z</time></trkpt><trkpt lat="42.042948552718336" lon="12.06482340295608"><ele>176.0</ele><time>2026-03-28T10:59:11Z</time></trkpt><trkpt lat="42.04303438216468" lon="12.064856237794952"><ele>176.0</ele><time>2026-03-28T10:59:12Z</time></trkpt><trkpt lat="42.043122557601514" lon="12.064902093895922"><ele>176.0</ele><time>2026-03-28T10:59:13Z</time></trkpt><trkpt lat="42.04321919096723" lon="12.064940891060385"><ele>176.0</ele><time>2026-03-28T10:59:14Z</time></trkpt><trkpt lat="42.04330899681194" lon="12.064994232269186"><ele>176.0</ele><time>2026-03-28T10:59:15Z</time></trkpt><trkpt lat="42.04340276411286" lon="12.065053385470511"><ele>176.0</ele><time>2026-03-28T10:59:16Z</time></trkpt><trkpt lat="42.043495181924364" lon="12.065088196427089"><ele>176.0</ele><time>2026-03-28T10:59:17Z</time></trkpt><trkpt lat="42.04358530312058" lon="12.065132115215949"><ele>176.60000000000002</ele><time>2026-03-28T10:59:18Z</time></trkpt><trkpt lat="42.043678919138564" lon="12.065167046029732"><ele>177.2</ele><time>2026-03-28T10:59:19Z</time></trkpt><trkpt lat="42.04377836138952" lon="12.065218495454245"><ele>177.8</ele><time>2026-03-28T10:59:20Z</time></trkpt><trkpt lat="42.04387584567563" lon="12.06525535687681"><ele>178.39999999999998</ele><time>2026-03-28T10:59:21Z</time></trkpt><trkpt lat="42.04398530449173" lon="12.065257386014167"><ele>179.0</ele><time>2026-03-28T10:59:22Z</time></trkpt><trkpt lat="42.044102508885565" lon="12.065254902460888"><ele>178.79999999999998</ele><time>2026-03-28T10:59:23Z</time></trkpt><trkpt lat="42.04419244842144" lon="12.065266134963391"><ele>178.6</ele><time>2026-03-28T10:59:24Z</time></trkpt><trkpt lat="42.04427390854672" lon="12.065251924252454"><ele>178.4</ele><time>2026-03-28T10:59:25Z</time></trkpt><trkpt lat="42.0443619669067" lon="12.0653038257708"><ele>178.2</ele><time>2026-03-28T10:59:27Z</time></trkpt><trkpt lat="42.04441266101824" lon="12.065406912095437"><ele>178.0</ele><time>2026-03-28T10:59:28Z</time></trkpt><trkpt lat="42.04448626561371" lon="12.065515910092305"><ele>178.0</ele><time>2026-03-28T10:59:29Z</time></trkpt><trkpt lat="42.04457259187965" lon="12.06560444754584"><ele>178.0</ele><time>2026-03-28T10:59:30Z</time></trkpt><trkpt lat="42.0446362497859" lon="12.065686145988769"><ele>178.0</ele><time>2026-03-28T10:59:31Z</time></trkpt><trkpt lat="42.044693049608554" lon="12.065767083138825"><ele>178.0</ele><time>2026-03-28T10:59:32Z</time></trkpt><trkpt lat="42.04474542907644" lon="12.065826838805737"><ele>178.0</ele><time>2026-03-28T10:59:33Z</time></trkpt><trkpt lat="42.04478045369943" lon="12.06595642093548"><ele>178.2</ele><time>2026-03-28T10:59:35Z</time></trkpt><trkpt lat="42.04479770120609" lon="12.066056250443657"><ele>178.4</ele><time>2026-03-28T10:59:36Z</time></trkpt><trkpt lat="42.04485718139938" lon="12.066168063455653"><ele>178.6</ele><time>2026-03-28T10:59:37Z</time></trkpt><trkpt lat="42.044936951714384" lon="12.066292756046467"><ele>178.79999999999998</ele><time>2026-03-28T10:59:38Z</time></trkpt><trkpt lat="42.04501219387688" lon="12.06641920149218"><ele>179.0</ele><time>2026-03-28T10:59:39Z</time></trkpt><trkpt lat="42.04506471667109" lon="12.066517347226617"><ele>179.0</ele><time>2026-03-28T10:59:40Z</time></trkpt><trkpt lat="42.04512096023351" lon="12.066601147021293"><ele>179.0</ele><time>2026-03-28T10:59:41Z</time></trkpt><trkpt lat="42.04520154206299" lon="12.066698025595244"><ele>179.0</ele><time>2026-03-28T10:59:42Z</time></trkpt><trkpt lat="42.045278518220016" lon="12.066805993564294"><ele>179.0</ele><time>2026-03-28T10:59:43Z</time></trkpt><trkpt lat="42.04533993116712" lon="12.066888366958304"><ele>179.0</ele><time>2026-03-28T10:59:44Z</time></trkpt><trkpt lat="42.04541450922259" lon="12.06695824130028"><ele>179.0</ele><time>2026-03-28T10:59:45Z</time></trkpt><trkpt lat="42.04547556378247" lon="12.067057480015446"><ele>179.0</ele><time>2026-03-28T10:59:46Z</time></trkpt><trkpt lat="42.045548094181285" lon="12.067187530989768"><ele>179.0</ele><time>2026-03-28T10:59:47Z</time></trkpt><trkpt lat="42.04563325680475" lon="12.067315589558303"><ele>179.0</ele><time>2026-03-28T10:59:48Z</time></trkpt><trkpt lat="42.045713767938246" lon="12.067417710976335"><ele>178.79999999999998</ele><time>2026-03-28T10:59:49Z</time></trkpt><trkpt lat="42.04578616251236" lon="12.06748833385885"><ele>178.6</ele><time>2026-03-28T10:59:50Z</time></trkpt><trkpt lat="42.045868874117666" lon="12.067561404113517"><ele>178.4</ele><time>2026-03-28T10:59:51Z</time></trkpt><trkpt lat="42.045969996964594" lon="12.06762535155127"><ele>178.2</ele><time>2026-03-28T10:59:52Z</time></trkpt><trkpt lat="42.04607167959867" lon="12.067705552986592"><ele>178.0</ele><time>2026-03-28T10:59:53Z</time></trkpt><trkpt lat="42.04617280857965" lon="12.067787723854437"><ele>178.60000000000002</ele><time>2026-03-28T10:59:54Z</time></trkpt><trkpt lat="42.046257879247115" lon="12.067864875722906"><ele>179.20000000000002</ele><time>2026-03-28T10:59:55Z</time></trkpt><trkpt lat="42.04633457183322" lon="12.067955191470347"><ele>179.8</ele><time>2026-03-28T10:59:56Z</time></trkpt><trkpt lat="42.046415144096606" lon="12.068043815484012"><ele>180.4</ele><time>2026-03-28T10:59:57Z</time></trkpt><trkpt lat="42.046504768578636" lon="12.068110502437227"><ele>181.0</ele><time>2026-03-28T10:59:58Z</time></trkpt><trkpt lat="42.04660247677809" lon="12.068177687606745"><ele>181.4</ele><time>2026-03-28T10:59:59Z</time></trkpt><trkpt lat="42.04669922341632" lon="12.06823475432575"><ele>181.8</ele><time>2026-03-28T11:00:00Z</time></trkpt><trkpt lat="42.04678644799233" lon="12.068294150797676"><ele>182.20000000000002</ele><time>2026-03-28T11:00:01Z</time></trkpt><trkpt lat="42.04688232291251" lon="12.068370281993632"><ele>182.60000000000002</ele><time>2026-03-28T11:00:02Z</time></trkpt><trkpt lat="42.046994940241916" lon="12.068459863148846"><ele>183.0</ele><time>2026-03-28T11:00:03Z</time></trkpt><trkpt lat="42.047100755273306" lon="12.068556591800364"><ele>183.16666666666666</ele><time>2026-03-28T11:00:04Z</time></trkpt><trkpt lat="42.04720074216494" lon="12.068634831857405"><ele>183.33333333333334</ele><time>2026-03-28T11:00:05Z</time></trkpt><trkpt lat="42.047264885684534" lon="12.068690969438505"><ele>183.5</ele><time>2026-03-28T11:00:06Z</time></trkpt><trkpt lat="42.04732356229984" lon="12.068725937776621"><ele>183.66666666666669</ele><time>2026-03-28T11:00:07Z</time></trkpt><trkpt lat="42.047389016250264" lon="12.068704611026337"><ele>183.83333333333334</ele><time>2026-03-28T11:00:08Z</time></trkpt><trkpt lat="42.047500046910294" lon="12.068718048675853"><ele>184.0</ele><time>2026-03-28T11:00:09Z</time></trkpt><trkpt lat="42.047598737361604" lon="12.068725814903933"><ele>182.2</ele><time>2026-03-28T11:00:10Z</time></trkpt><trkpt lat="42.047674270561195" lon="12.068726836201572"><ele>180.39999999999998</ele><time>2026-03-28T11:00:11Z</time></trkpt><trkpt lat="42.047820523042226" lon="12.068699312634076"><ele>178.6</ele><time>2026-03-28T11:00:13Z</time></trkpt><trkpt lat="42.04789832199405" lon="12.068714814200563"><ele>176.8</ele><time>2026-03-28T11:00:14Z</time></trkpt><trkpt lat="42.04798332227707" lon="12.06877156657635"><ele>175.0</ele><time>2026-03-28T11:00:16Z</time></trkpt><trkpt lat="42.048033646234" lon="12.068825423024022"><ele>175.0</ele><time>2026-03-28T11:00:17Z</time></trkpt><trkpt lat="42.04809146680271" lon="12.068861269282419"><ele>175.0</ele><time>2026-03-28T11:00:18Z</time></trkpt><trkpt lat="42.04819654047451" lon="12.068918958721108"><ele>175.0</ele><time>2026-03-28T11:00:20Z</time></trkpt><trkpt lat="42.04826102771341" lon="12.068990458734438"><ele>175.0</ele><time>2026-03-28T11:00:22Z</time></trkpt><trkpt lat="42.04840760409026" lon="12.068989674895787"><ele>175.0</ele><time>2026-03-28T11:00:24Z</time></trkpt><trkpt lat="42.04850855546773" lon="12.068997561592555"><ele>176.8</ele><time>2026-03-28T11:00:25Z</time></trkpt><trkpt lat="42.04862160824412" lon="12.06902423181718"><ele>178.6</ele><time>2026-03-28T11:00:26Z</time></trkpt><trkpt lat="42.048702482799044" lon="12.06904666395962"><ele>180.39999999999998</ele><time>2026-03-28T11:00:27Z</time></trkpt><trkpt lat="42.04881267381907" lon="12.069099158114659"><ele>182.2</ele><time>2026-03-28T11:00:29Z</time></trkpt><trkpt lat="42.04888761562224" lon="12.069090426612393"><ele>184.0</ele><time>2026-03-28T11:00:30Z</time></trkpt><trkpt lat="42.04895097058086" lon="12.069110027099503"><ele>184.16666666666669</ele><time>2026-03-28T11:00:31Z</time></trkpt><trkpt lat="42.04901604641073" lon="12.069153428295072"><ele>184.33333333333334</ele><time>2026-03-28T11:00:32Z</time></trkpt><trkpt lat="42.049085085945364" lon="12.069203228576473"><ele>184.5</ele><time>2026-03-28T11:00:33Z</time></trkpt><trkpt lat="42.049146929746115" lon="12.069258489960552"><ele>184.66666666666666</ele><time>2026-03-28T11:00:34Z</time></trkpt><trkpt lat="42.04925778971752" lon="12.069294695012793"><ele>184.83333333333331</ele><time>2026-03-28T11:00:35Z</time></trkpt><trkpt lat="42.04935242233208" lon="12.069339234439452"><ele>185.0</ele><time>2026-03-28T11:00:36Z</time></trkpt><trkpt lat="42.04945111508689" lon="12.069393621458506"><ele>185.6</ele><time>2026-03-28T11:00:37Z</time></trkpt><trkpt lat="42.049527250389616" lon="12.069439509300501"><ele>186.2</ele><time>2026-03-28T11:00:38Z</time></trkpt><trkpt lat="42.04959844770621" lon="12.069536566659352"><ele>186.8</ele><time>2026-03-28T11:00:39Z</time></trkpt><trkpt lat="42.0496909216624" lon="12.069636714518124"><ele>187.4</ele><time>2026-03-28T11:00:40Z</time></trkpt><trkpt lat="42.04976477917206" lon="12.069691667977954"><ele>188.0</ele><time>2026-03-28T11:00:41Z</time></trkpt><trkpt lat="42.04981530635216" lon="12.069753715691098"><ele>188.0</ele><time>2026-03-28T11:00:42Z</time></trkpt><trkpt lat="42.04985523645874" lon="12.069907515405085"><ele>188.0</ele><time>2026-03-28T11:00:44Z</time></trkpt><trkpt lat="42.04985510683653" lon="12.070003746813377"><ele>188.0</ele><time>2026-03-28T11:00:45Z</time></trkpt><trkpt lat="42.049864766351824" lon="12.070097216746039"><ele>188.0</ele><time>2026-03-28T11:00:46Z</time></trkpt><trkpt lat="42.04993566908522" lon="12.070238232914559"><ele>188.0</ele><time>2026-03-28T11:00:48Z</time></trkpt><trkpt lat="42.04999714984013" lon="12.07032332879163"><ele>187.83333333333331</ele><time>2026-03-28T11:00:49Z</time></trkpt><trkpt lat="42.0500565519461" lon="12.070408261864594"><ele>187.66666666666666</ele><time>2026-03-28T11:00:50Z</time></trkpt><trkpt lat="42.05009693394944" lon="12.070514212853816"><ele>187.5</ele><time>2026-03-28T11:00:51Z</time></trkpt><trkpt lat="42.05012420480152" lon="12.070648921110587"><ele>187.33333333333334</ele><time>2026-03-28T11:00:52Z</time></trkpt><trkpt lat="42.05014640234079" lon="12.07074880342001"><ele>187.16666666666669</ele><time>2026-03-28T11:00:53Z</time></trkpt><trkpt lat="42.05013568492258" lon="12.070846445672377"><ele>187.0</ele><time>2026-03-28T11:00:54Z</time></trkpt><trkpt lat="42.05016275866307" lon="12.070932366759017"><ele>187.0</ele><time>2026-03-28T11:00:55Z</time></trkpt><trkpt lat="42.050230984287175" lon="12.071018059023391"><ele>187.0</ele><time>2026-03-28T11:00:56Z</time></trkpt><trkpt lat="42.05024795867792" lon="12.071103845491974"><ele>187.0</ele><time>2026-03-28T11:00:58Z</time></trkpt><trkpt lat="42.050315575913075" lon="12.071240937812473"><ele>187.0</ele><time>2026-03-28T11:01:00Z</time></trkpt><trkpt lat="42.05035617306122" lon="12.071372846400351"><ele>187.0</ele><time>2026-03-28T11:01:01Z</time></trkpt><trkpt lat="42.05033828730042" lon="12.071464274012277"><ele>187.0</ele><time>2026-03-28T11:01:03Z</time></trkpt><trkpt lat="42.05038134411014" lon="12.071534356454013"><ele>187.0</ele><time>2026-03-28T11:01:05Z</time></trkpt><trkpt lat="42.050350826552496" lon="12.07169743339329"><ele>187.0</ele><time>2026-03-28T11:01:08Z</time></trkpt><trkpt lat="42.050290124126555" lon="12.07181304537843"><ele>187.0</ele><time>2026-03-28T11:01:09Z</time></trkpt><trkpt lat="42.05028618268779" lon="12.071948481400275"><ele>187.0</ele><time>2026-03-28T11:01:11Z</time></trkpt><trkpt lat="42.05026151333743" lon="12.072038354278302"><ele>187.83333333333334</ele><time>2026-03-28T11:01:13Z</time></trkpt><trkpt lat="42.05026284683295" lon="12.072130572418825"><ele>188.66666666666669</ele><time>2026-03-28T11:01:14Z</time></trkpt><trkpt lat="42.05023955935573" lon="12.072274011455557"><ele>189.5</ele><time>2026-03-28T11:01:15Z</time></trkpt><trkpt lat="42.05023523768186" lon="12.07235882352747"><ele>190.33333333333334</ele><time>2026-03-28T11:01:16Z</time></trkpt><trkpt lat="42.05023158148852" lon="12.072463682417695"><ele>191.16666666666666</ele><time>2026-03-28T11:01:17Z</time></trkpt><trkpt lat="42.05021016973908" lon="12.072551775278841"><ele>192.0</ele><time>2026-03-28T11:01:18Z</time></trkpt><trkpt lat="42.05020333930745" lon="12.072656815106717"><ele>193.66666666666666</ele><time>2026-03-28T11:01:20Z</time></trkpt><trkpt lat="42.05024803291356" lon="12.072594597741936"><ele>195.33333333333331</ele><time>2026-03-28T11:02:19Z</time></trkpt><trkpt lat="42.050256729938695" lon="12.072508144274593"><ele>197.0</ele><time>2026-03-28T11:03:14Z</time></trkpt><trkpt lat="42.050258747887824" lon="12.072594539225479"><ele>198.66666666666666</ele><time>2026-03-28T11:03:37Z</time></trkpt><trkpt lat="42.050234627319085" lon="12.072682437075251"><ele>200.33333333333331</ele><time>2026-03-28T11:03:40Z</time></trkpt><trkpt lat="42.05020897504828" lon="12.072806884111273"><ele>202.0</ele><time>2026-03-28T11:03:44Z</time></trkpt><trkpt lat="42.050159211869385" lon="12.072917290366547"><ele>202.0</ele><time>2026-03-28T11:03:49Z</time></trkpt><trkpt lat="42.05013471323341" lon="12.07304939137668"><ele>202.0</ele><time>2026-03-28T11:03:52Z</time></trkpt><trkpt lat="42.05008589755358" lon="12.07321890112964"><ele>202.0</ele><time>2026-03-28T11:03:54Z</time></trkpt><trkpt lat="42.05005849568982" lon="12.073336342051393"><ele>202.0</ele><time>2026-03-28T11:03:56Z</time></trkpt><trkpt lat="42.05004855775149" lon="12.07343868295221"><ele>202.0</ele><time>2026-03-28T11:03:59Z</time></trkpt><trkpt lat="42.05002506779133" lon="12.073522528138586"><ele>202.83333333333331</ele><time>2026-03-28T11:04:01Z</time></trkpt><trkpt lat="42.04999955836956" lon="12.073617402121103"><ele>203.66666666666666</ele><time>2026-03-28T11:04:03Z</time></trkpt><trkpt lat="42.05002338802233" lon="12.073698433159475"><ele>204.5</ele><time>2026-03-28T11:06:04Z</time></trkpt><trkpt lat="42.05001534295765" lon="12.073789464715531"><ele>205.33333333333331</ele><time>2026-03-28T11:06:18Z</time></trkpt><trkpt lat="42.05001018431347" lon="12.073934250039379"><ele>206.16666666666666</ele><time>2026-03-28T11:06:20Z</time></trkpt><trkpt lat="42.049987476279064" lon="12.074015846178103"><ele>207.0</ele><time>2026-03-28T11:06:21Z</time></trkpt><trkpt lat="42.049950539167725" lon="12.07416259060342"><ele>207.0</ele><time>2026-03-28T11:06:23Z</time></trkpt><trkpt lat="42.04989739176296" lon="12.074257039889593"><ele>207.0</ele><time>2026-03-28T11:06:25Z</time></trkpt><trkpt lat="42.04984871871443" lon="12.074363417253268"><ele>207.0</ele><time>2026-03-28T11:06:27Z</time></trkpt><trkpt lat="42.04981405751726" lon="12.074457364227186"><ele>207.0</ele><time>2026-03-28T11:06:28Z</time></trkpt><trkpt lat="42.0497759538075" lon="12.074530817764089"><ele>207.0</ele><time>2026-03-28T11:06:29Z</time></trkpt><trkpt lat="42.04972674738307" lon="12.074681343455419"><ele>207.0</ele><time>2026-03-28T11:06:31Z</time></trkpt><trkpt lat="42.04970356250703" lon="12.074775940492636"><ele>207.0</ele><time>2026-03-28T11:06:32Z</time></trkpt><trkpt lat="42.049689636051426" lon="12.074891610366803"><ele>207.0</ele><time>2026-03-28T11:06:34Z</time></trkpt><trkpt lat="42.04968454324019" lon="12.074990364566307"><ele>207.0</ele><time>2026-03-28T11:06:35Z</time></trkpt><trkpt lat="42.04972342597875" lon="12.07509433079052"><ele>207.0</ele><time>2026-03-28T11:06:37Z</time></trkpt><trkpt lat="42.04980292896905" lon="12.075123707565087"><ele>207.0</ele><time>2026-03-28T11:06:39Z</time></trkpt><trkpt lat="42.049895952306244" lon="12.075064561248434"><ele>207.0</ele><time>2026-03-28T11:06:41Z</time></trkpt><trkpt lat="42.04997833791109" lon="12.075060454278342"><ele>207.83333333333334</ele><time>2026-03-28T11:06:43Z</time></trkpt><trkpt lat="42.05005273601922" lon="12.075076422465916"><ele>208.66666666666669</ele><time>2026-03-28T11:06:45Z</time></trkpt><trkpt lat="42.05012933580151" lon="12.075005161478675"><ele>209.5</ele><time>2026-03-28T11:06:47Z</time></trkpt><trkpt lat="42.05019516053309" lon="12.0750087927523"><ele>210.33333333333334</ele><time>2026-03-28T11:06:49Z</time></trkpt><trkpt lat="42.05026111372547" lon="12.07502217481768"><ele>211.16666666666669</ele><time>2026-03-28T11:06:51Z</time></trkpt><trkpt lat="42.050346947227524" lon="12.07497527146023"><ele>212.0</ele><time>2026-03-28T11:06:53Z</time></trkpt><trkpt lat="42.050445317127284" lon="12.074892143669334"><ele>212.0</ele><time>2026-03-28T11:06:55Z</time></trkpt><trkpt lat="42.05055272589676" lon="12.074845448513756"><ele>212.0</ele><time>2026-03-28T11:06:57Z</time></trkpt><trkpt lat="42.050595921548855" lon="12.074918130801656"><ele>212.0</ele><time>2026-03-28T11:07:00Z</time></trkpt><trkpt lat="42.05064865223046" lon="12.075038045451432"><ele>212.0</ele><time>2026-03-28T11:07:03Z</time></trkpt><trkpt lat="42.05073885625592" lon="12.075055113529118"><ele>212.0</ele><time>2026-03-28T11:07:05Z</time></trkpt><trkpt lat="42.05081151990257" lon="12.075042980840617"><ele>211.39999999999998</ele><time>2026-03-28T11:07:07Z</time></trkpt><trkpt lat="42.05087886715188" lon="12.075117230045336"><ele>210.79999999999998</ele><time>2026-03-28T11:07:09Z</time></trkpt><trkpt lat="42.0509802540873" lon="12.075157354320934"><ele>210.2</ele><time>2026-03-28T11:07:11Z</time></trkpt><trkpt lat="42.05110067110298" lon="12.07513778293794"><ele>209.6</ele><time>2026-03-28T11:07:13Z</time></trkpt><trkpt lat="42.05117065977023" lon="12.075136672151556"><ele>209.0</ele><time>2026-03-28T11:07:14Z</time></trkpt><trkpt lat="42.05124332333005" lon="12.075138362007936"><ele>209.0</ele><time>2026-03-28T11:07:15Z</time></trkpt><trkpt lat="42.051361294328096" lon="12.075144839350614"><ele>209.0</ele><time>2026-03-28T11:07:17Z</time></trkpt><trkpt lat="42.0514716419648" lon="12.07512258993079"><ele>209.0</ele><time>2026-03-28T11:07:19Z</time></trkpt><trkpt lat="42.051587862784075" lon="12.075129955346851"><ele>209.0</ele><time>2026-03-28T11:07:21Z</time></trkpt><trkpt lat="42.05168801838902" lon="12.075138268254317"><ele>209.0</ele><time>2026-03-28T11:07:23Z</time></trkpt><trkpt lat="42.05178059082413" lon="12.075216064282909"><ele>209.16666666666669</ele><time>2026-03-28T11:07:25Z</time></trkpt><trkpt lat="42.051853697225475" lon="12.07532825636354"><ele>209.33333333333334</ele><time>2026-03-28T11:07:27Z</time></trkpt><trkpt lat="42.05190317848454" lon="12.07546460183775"><ele>209.5</ele><time>2026-03-28T11:10:59Z</time></trkpt><trkpt lat="42.05193251696454" lon="12.075539681158988"><ele>209.66666666666669</ele><time>2026-03-28T11:11:02Z</time></trkpt><trkpt lat="42.05196731735415" lon="12.075618622642752"><ele>209.83333333333334</ele><time>2026-03-28T11:11:03Z</time></trkpt><trkpt lat="42.05201593020601" lon="12.075717266381753"><ele>210.0</ele><time>2026-03-28T11:11:05Z</time></trkpt><trkpt lat="42.05206482362735" lon="12.075820973953103"><ele>210.0</ele><time>2026-03-28T11:11:07Z</time></trkpt><trkpt lat="42.052098457056765" lon="12.075942107411164"><ele>210.0</ele><time>2026-03-28T11:11:09Z</time></trkpt><trkpt lat="42.052147076489234" lon="12.07600476641937"><ele>210.0</ele><time>2026-03-28T11:11:11Z</time></trkpt><trkpt lat="42.05221751938907" lon="12.076082556052397"><ele>210.0</ele><time>2026-03-28T11:11:13Z</time></trkpt><trkpt lat="42.05225625706036" lon="12.076193792336104"><ele>210.0</ele><time>2026-03-28T11:11:15Z</time></trkpt><trkpt lat="42.052282499979796" lon="12.076287224071448"><ele>210.0</ele><time>2026-03-28T11:11:16Z</time></trkpt><trkpt lat="42.05235749935257" lon="12.076357893134137"><ele>210.0</ele><time>2026-03-28T11:11:18Z</time></trkpt><trkpt lat="42.05241321570977" lon="12.076401708879644"><ele>210.0</ele><time>2026-03-28T11:11:20Z</time></trkpt><trkpt lat="42.05247190433361" lon="12.076433004301343"><ele>210.0</ele><time>2026-03-28T11:11:22Z</time></trkpt><trkpt lat="42.05252859027811" lon="12.076497217718826"><ele>210.0</ele><time>2026-03-28T11:11:32Z</time></trkpt><trkpt lat="42.052593732944324" lon="12.076518819643566"><ele>210.0</ele><time>2026-03-28T11:11:35Z</time></trkpt><trkpt lat="42.052680195095036" lon="12.07655400201168"><ele>210.0</ele><time>2026-03-28T11:11:37Z</time></trkpt><trkpt lat="42.05274354930903" lon="12.076580280865604"><ele>210.0</ele><time>2026-03-28T11:11:38Z</time></trkpt><trkpt lat="42.052813018434016" lon="12.076636769529923"><ele>208.83333333333334</ele><time>2026-03-28T11:11:39Z</time></trkpt><trkpt lat="42.052866059519985" lon="12.076692467357088"><ele>207.66666666666669</ele><time>2026-03-28T11:11:40Z</time></trkpt><trkpt lat="42.05295295715724" lon="12.076754826407495"><ele>206.5</ele><time>2026-03-28T11:11:42Z</time></trkpt><trkpt lat="42.053017875871355" lon="12.07671273214827"><ele>205.33333333333334</ele><time>2026-03-28T11:12:29Z</time></trkpt><trkpt lat="42.0530412919518" lon="12.076621236234766"><ele>204.16666666666669</ele><time>2026-03-28T11:12:32Z</time></trkpt><trkpt lat="42.053016875149474" lon="12.076501759346044"><ele>203.0</ele><time>2026-03-28T11:12:35Z</time></trkpt><trkpt lat="42.05303514505864" lon="12.076379033306955"><ele>202.60000000000002</ele><time>2026-03-28T11:12:37Z</time></trkpt><trkpt lat="42.05309862190653" lon="12.076273137985488"><ele>202.20000000000002</ele><time>2026-03-28T11:12:40Z</time></trkpt><trkpt lat="42.053149482508445" lon="12.076169798682995"><ele>201.8</ele><time>2026-03-28T11:12:42Z</time></trkpt><trkpt lat="42.0532157208711" lon="12.076061301048492"><ele>201.4</ele><time>2026-03-28T11:12:44Z</time></trkpt><trkpt lat="42.05325004287987" lon="12.075990177334887"><ele>201.0</ele><time>2026-03-28T11:12:45Z</time></trkpt><trkpt lat="42.05324974174183" lon="12.0758304366517"><ele>201.16666666666666</ele><time>2026-03-28T11:12:47Z</time></trkpt><trkpt lat="42.053250281027616" lon="12.075727098116468"><ele>201.33333333333331</ele><time>2026-03-28T11:12:48Z</time></trkpt><trkpt lat="42.05324754025315" lon="12.075603622879697"><ele>201.5</ele><time>2026-03-28T11:12:49Z</time></trkpt><trkpt lat="42.05324384623053" lon="12.07550668501164"><ele>201.66666666666666</ele><time>2026-03-28T11:12:50Z</time></trkpt><trkpt lat="42.05324829396515" lon="12.075398672930225"><ele>201.83333333333331</ele><time>2026-03-28T11:12:52Z</time></trkpt><trkpt lat="42.053261517445215" lon="12.075271454934564"><ele>202.0</ele><time>2026-03-28T11:12:54Z</time></trkpt><trkpt lat="42.05328706987559" lon="12.075182993800414"><ele>206.2</ele><time>2026-03-28T11:12:55Z</time></trkpt><trkpt lat="42.053307055364456" lon="12.075057687802525"><ele>210.39999999999998</ele><time>2026-03-28T11:12:57Z</time></trkpt><trkpt lat="42.05335785749542" lon="12.074959513240278"><ele>214.60000000000002</ele><time>2026-03-28T11:12:59Z</time></trkpt><trkpt lat="42.05343834707779" lon="12.07487050288923"><ele>218.8</ele><time>2026-03-28T11:13:01Z</time></trkpt><trkpt lat="42.053515949374" lon="12.074815059706387"><ele>223.0</ele><time>2026-03-28T11:13:04Z</time></trkpt><trkpt lat="42.05361101390458" lon="12.074806171460775"><ele>223.99999999999997</ele><time>2026-03-28T11:13:06Z</time></trkpt><trkpt lat="42.05368371066047" lon="12.07471866838891"><ele>225.0</ele><time>2026-03-28T11:13:08Z</time></trkpt><trkpt lat="42.05374566278386" lon="12.074632172503465"><ele>226.0</ele><time>2026-03-28T11:13:10Z</time></trkpt><trkpt lat="42.05379529922233" lon="12.074549852234009"><ele>227.0</ele><time>2026-03-28T11:13:11Z</time></trkpt><trkpt lat="42.05383708581018" lon="12.074473242551985"><ele>227.99999999999997</ele><time>2026-03-28T11:13:12Z</time></trkpt><trkpt lat="42.05387668906735" lon="12.074404914232952"><ele>229.0</ele><time>2026-03-28T11:13:13Z</time></trkpt><trkpt lat="42.05394488714322" lon="12.074334736758495"><ele>229.0</ele><time>2026-03-28T11:13:15Z</time></trkpt><trkpt lat="42.05403637501758" lon="12.074302500347821"><ele>228.99999999999997</ele><time>2026-03-28T11:13:17Z</time></trkpt><trkpt lat="42.05409573881952" lon="12.074259285203711"><ele>228.99999999999997</ele><time>2026-03-28T11:13:18Z</time></trkpt><trkpt lat="42.054147876937904" lon="12.07414405698916"><ele>229.0</ele><time>2026-03-28T11:13:20Z</time></trkpt><trkpt lat="42.05415434502374" lon="12.074025634338177"><ele>229.0</ele><time>2026-03-28T11:13:22Z</time></trkpt><trkpt lat="42.054245414499256" lon="12.073888419628966"><ele>234.99999999999997</ele><time>2026-03-28T11:13:24Z</time></trkpt><trkpt lat="42.054288738965795" lon="12.073807383408019"><ele>241.0</ele><time>2026-03-28T11:13:25Z</time></trkpt><trkpt lat="42.05432532608073" lon="12.073712433513686"><ele>247.0</ele><time>2026-03-28T11:13:27Z</time></trkpt><trkpt lat="42.054377901733424" lon="12.073602669948947"><ele>253.0</ele><time>2026-03-28T11:13:30Z</time></trkpt><trkpt lat="42.05445040084006" lon="12.073549976404625"><ele>259.0</ele><time>2026-03-28T11:13:32Z</time></trkpt><trkpt lat="42.05450910354245" lon="12.073511723720372"><ele>265.0</ele><time>2026-03-28T11:13:34Z</time></trkpt><trkpt lat="42.05466321241158" lon="12.073442060165798"><ele>265.0</ele><time>2026-03-28T11:13:35Z</time></trkpt><trkpt lat="42.05474276012783" lon="12.073412986546971"><ele>265.0</ele><time>2026-03-28T11:13:37Z</time></trkpt><trkpt lat="42.05481047329491" lon="12.073344495573561"><ele>265.0</ele><time>2026-03-28T11:13:39Z</time></trkpt><trkpt lat="42.05484614047377" lon="12.073270044879607"><ele>265.0</ele><time>2026-03-28T11:13:40Z</time></trkpt><trkpt lat="42.05491408519226" lon="12.0731663468518"><ele>265.0</ele><time>2026-03-28T11:13:42Z</time></trkpt><trkpt lat="42.055020505032104" lon="12.073163382360727"><ele>265.0</ele><time>2026-03-28T11:13:44Z</time></trkpt><trkpt lat="42.05510281524732" lon="12.073123387289462"><ele>272.6</ele><time>2026-03-28T11:13:46Z</time></trkpt><trkpt lat="42.05512999563689" lon="12.073024593679111"><ele>280.2</ele><time>2026-03-28T11:13:48Z</time></trkpt><trkpt lat="42.05516472498403" lon="12.072869439698751"><ele>287.8</ele><time>2026-03-28T11:13:50Z</time></trkpt><trkpt lat="42.05524571845943" lon="12.072718109351039"><ele>295.4</ele><time>2026-03-28T11:13:52Z</time></trkpt><trkpt lat="42.05524187214953" lon="12.072814525396211"><ele>303.0</ele><time>2026-03-28T11:13:57Z</time></trkpt><trkpt lat="42.05529626372328" lon="12.072899119444452"><ele>303.0</ele><time>2026-03-28T11:14:37Z</time></trkpt><trkpt lat="42.05534854510341" lon="12.072952673715449"><ele>303.0</ele><time>2026-03-28T11:14:38Z</time></trkpt><trkpt lat="42.055471473670416" lon="12.0730470407657"><ele>303.0</ele><time>2026-03-28T11:14:40Z</time></trkpt><trkpt lat="42.055565728271574" lon="12.073112381022412"><ele>303.0</ele><time>2026-03-28T11:14:41Z</time></trkpt><trkpt lat="42.055666848231226" lon="12.07317340380402"><ele>303.0</ele><time>2026-03-28T11:14:42Z</time></trkpt><trkpt lat="42.05575080018387" lon="12.07321373002956"><ele>308.4</ele><time>2026-03-28T11:14:43Z</time></trkpt><trkpt lat="42.055887547672846" lon="12.073233304818382"><ele>313.8</ele><time>2026-03-28T11:14:45Z</time></trkpt><trkpt lat="42.05598650210878" lon="12.073226124610784"><ele>319.2</ele><time>2026-03-28T11:14:46Z</time></trkpt><trkpt lat="42.05609498263647" lon="12.073230397527757"><ele>324.6</ele><time>2026-03-28T11:14:47Z</time></trkpt><trkpt lat="42.056174913915115" lon="12.073236608027008"><ele>330.0</ele><time>2026-03-28T11:14:48Z</time></trkpt><trkpt lat="42.0562417980044" lon="12.073230611853473"><ele>330.00000000000006</ele><time>2026-03-28T11:14:49Z</time></trkpt><trkpt lat="42.05630498768485" lon="12.073239252584074"><ele>330.0</ele><time>2026-03-28T11:14:50Z</time></trkpt><trkpt lat="42.056373530018426" lon="12.073259947028395"><ele>330.0</ele><time>2026-03-28T11:14:51Z</time></trkpt><trkpt lat="42.056436032038555" lon="12.073299881573469"><ele>330.0</ele><time>2026-03-28T11:14:52Z</time></trkpt><trkpt lat="42.05649257710125" lon="12.07334045299661"><ele>330.0</ele><time>2026-03-28T11:14:53Z</time></trkpt><trkpt lat="42.05659979199772" lon="12.073358984961667"><ele>330.00000000000006</ele><time>2026-03-28T11:14:55Z</time></trkpt><trkpt lat="42.056672277101555" lon="12.07337252059493"><ele>330.0</ele><time>2026-03-28T11:14:57Z</time></trkpt><trkpt lat="42.05673982818515" lon="12.073432701545036"><ele>324.6</ele><time>2026-03-28T11:14:59Z</time></trkpt><trkpt lat="42.05682418939324" lon="12.073516956872883"><ele>319.2</ele><time>2026-03-28T11:15:01Z</time></trkpt><trkpt lat="42.05690486196223" lon="12.073592904424698"><ele>313.8</ele><time>2026-03-28T11:15:02Z</time></trkpt><trkpt lat="42.056972208782966" lon="12.07366325286822"><ele>308.4</ele><time>2026-03-28T11:15:03Z</time></trkpt><trkpt lat="42.05704789483191" lon="12.07374582666954"><ele>303.0</ele><time>2026-03-28T11:15:05Z</time></trkpt><trkpt lat="42.05711798584318" lon="12.073669289313775"><ele>303.0</ele><time>2026-03-28T11:15:08Z</time></trkpt><trkpt lat="42.05719295917777" lon="12.073598319661091"><ele>303.0</ele><time>2026-03-28T11:15:10Z</time></trkpt><trkpt lat="42.05725565021047" lon="12.07353762675893"><ele>303.0</ele><time>2026-03-28T11:15:13Z</time></trkpt><trkpt lat="42.057382820900386" lon="12.073423917326917"><ele>303.0</ele><time>2026-03-28T11:15:14Z</time></trkpt><trkpt lat="42.05747448422227" lon="12.073322590648596"><ele>303.0</ele><time>2026-03-28T11:15:16Z</time></trkpt><trkpt lat="42.057560656834305" lon="12.073242323478858"><ele>299.0</ele><time>2026-03-28T11:15:18Z</time></trkpt><trkpt lat="42.05767299868011" lon="12.073150390249413"><ele>295.0</ele><time>2026-03-28T11:15:20Z</time></trkpt><trkpt lat="42.05776337224455" lon="12.073045406228076"><ele>291.0</ele><time>2026-03-28T11:15:22Z</time></trkpt><trkpt lat="42.05781498707235" lon="12.072965249121458"><ele>287.0</ele><time>2026-03-28T11:15:23Z</time></trkpt><trkpt lat="42.057884889291834" lon="12.07289360556488"><ele>283.0</ele><time>2026-03-28T11:15:24Z</time></trkpt><trkpt lat="42.05794782117515" lon="12.072805485722027"><ele>283.0</ele><time>2026-03-28T11:15:25Z</time></trkpt><trkpt lat="42.057994480838104" lon="12.072742276656447"><ele>283.0</ele><time>2026-03-28T11:15:26Z</time></trkpt><trkpt lat="42.05804059115895" lon="12.072678934448648"><ele>283.0</ele><time>2026-03-28T11:15:27Z</time></trkpt><trkpt lat="42.05807904402579" lon="12.072607134795353"><ele>283.0</ele><time>2026-03-28T11:15:28Z</time></trkpt><trkpt lat="42.05813193729221" lon="12.07244624985221"><ele>283.0</ele><time>2026-03-28T11:15:30Z</time></trkpt><trkpt lat="42.05818291833524" lon="12.072394646887737"><ele>283.0</ele><time>2026-03-28T11:15:31Z</time></trkpt><trkpt lat="42.05822057761789" lon="12.072286171242492"><ele>282.16666666666663</ele><time>2026-03-28T11:15:32Z</time></trkpt><trkpt lat="42.05828032068409" lon="12.072171441146592"><ele>281.3333333333333</ele><time>2026-03-28T11:15:33Z</time></trkpt><trkpt lat="42.05832397964698" lon="12.072073224973757"><ele>280.5</ele><time>2026-03-28T11:15:34Z</time></trkpt><trkpt lat="42.058369629818024" lon="12.071972202114502"><ele>279.6666666666667</ele><time>2026-03-28T11:15:35Z</time></trkpt><trkpt lat="42.0584034974078" lon="12.071868537656236"><ele>278.83333333333337</ele><time>2026-03-28T11:15:36Z</time></trkpt><trkpt lat="42.058417836237126" lon="12.071764481030838"><ele>278.0</ele><time>2026-03-28T11:15:37Z</time></trkpt><trkpt lat="42.05845058292115" lon="12.071662689969369"><ele>273.42857142857144</ele><time>2026-03-28T11:15:38Z</time></trkpt><trkpt lat="42.05848463006621" lon="12.071564190282146"><ele>268.8571428571429</ele><time>2026-03-28T11:15:39Z</time></trkpt><trkpt lat="42.058521858834496" lon="12.071481931439319"><ele>264.28571428571433</ele><time>2026-03-28T11:15:40Z</time></trkpt><trkpt lat="42.0585594145298" lon="12.071411433405748"><ele>259.7142857142857</ele><time>2026-03-28T11:15:41Z</time></trkpt><trkpt lat="42.05858649721193" lon="12.071326197789057"><ele>255.14285714285717</ele><time>2026-03-28T11:15:42Z</time></trkpt><trkpt lat="42.058614289500724" lon="12.071238864051965"><ele>250.5714285714286</ele><time>2026-03-28T11:15:43Z</time></trkpt><trkpt lat="42.05863875110232" lon="12.071148409894937"><ele>246.00000000000003</ele><time>2026-03-28T11:15:44Z</time></trkpt><trkpt lat="42.058667221323795" lon="12.071061909272439"><ele>246.0</ele><time>2026-03-28T11:15:45Z</time></trkpt><trkpt lat="42.05869514102179" lon="12.070923973492764"><ele>246.00000000000003</ele><time>2026-03-28T11:15:47Z</time></trkpt><trkpt lat="42.05874654909507" lon="12.070727804047099"><ele>246.00000000000003</ele><time>2026-03-28T11:15:49Z</time></trkpt><trkpt lat="42.05878086404368" lon="12.070610153289554"><ele>246.0</ele><time>2026-03-28T11:15:50Z</time></trkpt><trkpt lat="42.05881275499546" lon="12.070505175749965"><ele>246.0</ele><time>2026-03-28T11:15:51Z</time></trkpt><trkpt lat="42.05885382029088" lon="12.070427457731709"><ele>244.71428571428575</ele><time>2026-03-28T11:15:52Z</time></trkpt><trkpt lat="42.05889499011638" lon="12.070347964778527"><ele>243.42857142857144</ele><time>2026-03-28T11:15:53Z</time></trkpt><trkpt lat="42.05891881742015" lon="12.07025722151146"><ele>242.14285714285714</ele><time>2026-03-28T11:15:54Z</time></trkpt><trkpt lat="42.05894560088323" lon="12.070170998471609"><ele>240.85714285714286</ele><time>2026-03-28T11:15:55Z</time></trkpt><trkpt lat="42.05898654038855" lon="12.070065033699812"><ele>239.57142857142856</ele><time>2026-03-28T11:15:56Z</time></trkpt><trkpt lat="42.0590153320572" lon="12.069974150647942"><ele>238.28571428571425</ele><time>2026-03-28T11:15:57Z</time></trkpt><trkpt lat="42.0590376493496" lon="12.069887977797514"><ele>236.99999999999997</ele><time>2026-03-28T11:15:58Z</time></trkpt><trkpt lat="42.05908463353163" lon="12.069721143833332"><ele>235.5</ele><time>2026-03-28T11:16:00Z</time></trkpt><trkpt lat="42.05909311647583" lon="12.069623473769381"><ele>234.0</ele><time>2026-03-28T11:16:01Z</time></trkpt><trkpt lat="42.059106813818154" lon="12.069531945376669"><ele>232.5</ele><time>2026-03-28T11:16:02Z</time></trkpt><trkpt lat="42.05912401421367" lon="12.0693786463567"><ele>231.0</ele><time>2026-03-28T11:16:04Z</time></trkpt><trkpt lat="42.05914034148598" lon="12.069293577450676"><ele>229.5</ele><time>2026-03-28T11:16:05Z</time></trkpt><trkpt lat="42.05918978122249" lon="12.069149950268587"><ele>228.0</ele><time>2026-03-28T11:16:07Z</time></trkpt><trkpt lat="42.05927281514723" lon="12.069027776848738"><ele>224.0</ele><time>2026-03-28T11:16:09Z</time></trkpt><trkpt lat="42.05930674322251" lon="12.068946244582044"><ele>220.0</ele><time>2026-03-28T11:16:10Z</time></trkpt><trkpt lat="42.05937061031841" lon="12.068803299195265"><ele>216.0</ele><time>2026-03-28T11:16:12Z</time></trkpt><trkpt lat="42.059432609041146" lon="12.068724080491231"><ele>212.0</ele><time>2026-03-28T11:16:14Z</time></trkpt><trkpt lat="42.05948096149315" lon="12.06865061247457"><ele>208.0</ele><time>2026-03-28T11:16:16Z</time></trkpt><trkpt lat="42.05956223803201" lon="12.068554002755105"><ele>208.0</ele><time>2026-03-28T11:16:18Z</time></trkpt><trkpt lat="42.05964504404756" lon="12.06845679406058"><ele>208.0</ele><time>2026-03-28T11:16:20Z</time></trkpt><trkpt lat="42.05964962862854" lon="12.06833891804345"><ele>208.0</ele><time>2026-03-28T11:16:31Z</time></trkpt><trkpt lat="42.05966191295748" lon="12.068248917959082"><ele>208.0</ele><time>2026-03-28T11:16:33Z</time></trkpt><trkpt lat="42.05961650053533" lon="12.068130431753069"><ele>208.0</ele><time>2026-03-28T11:16:35Z</time></trkpt><trkpt lat="42.05955966859042" lon="12.068023552583568"><ele>206.60000000000002</ele><time>2026-03-28T11:16:37Z</time></trkpt><trkpt lat="42.05948665695582" lon="12.067897945715217"><ele>205.20000000000002</ele><time>2026-03-28T11:16:39Z</time></trkpt><trkpt lat="42.059442055322485" lon="12.067816491947331"><ele>203.8</ele><time>2026-03-28T11:16:40Z</time></trkpt><trkpt lat="42.0593922931101" lon="12.067737432567823"><ele>202.4</ele><time>2026-03-28T11:16:41Z</time></trkpt><trkpt lat="42.05933537902014" lon="12.067647544269239"><ele>201.0</ele><time>2026-03-28T11:16:42Z</time></trkpt><trkpt lat="42.05926956468759" lon="12.067555542796608"><ele>201.0</ele><time>2026-03-28T11:16:43Z</time></trkpt><trkpt lat="42.05919412196851" lon="12.06751835834399"><ele>201.0</ele><time>2026-03-28T11:16:45Z</time></trkpt><trkpt lat="42.05912988123417" lon="12.067506949635582"><ele>201.0</ele><time>2026-03-28T11:16:46Z</time></trkpt><trkpt lat="42.05898123307115" lon="12.067457620540242"><ele>201.0</ele><time>2026-03-28T11:16:48Z</time></trkpt><trkpt lat="42.058907654093396" lon="12.067456383192738"><ele>201.0</ele><time>2026-03-28T11:16:49Z</time></trkpt><trkpt lat="42.05882270304746" lon="12.067532737247493"><ele>200.4</ele><time>2026-03-28T11:16:51Z</time></trkpt><trkpt lat="42.05873337987294" lon="12.067613446011825"><ele>199.8</ele><time>2026-03-28T11:16:52Z</time></trkpt><trkpt lat="42.058650177717844" lon="12.067719320372865"><ele>199.20000000000002</ele><time>2026-03-28T11:16:53Z</time></trkpt><trkpt lat="42.058556965248165" lon="12.067805194116795"><ele>198.60000000000002</ele><time>2026-03-28T11:16:54Z</time></trkpt><trkpt lat="42.058467264255476" lon="12.067872176143776"><ele>198.0</ele><time>2026-03-28T11:16:55Z</time></trkpt><trkpt lat="42.0584037063382" lon="12.067932848591392"><ele>198.0</ele><time>2026-03-28T11:16:56Z</time></trkpt><trkpt lat="42.058344666733085" lon="12.06797760985265"><ele>198.0</ele><time>2026-03-28T11:16:57Z</time></trkpt><trkpt lat="42.05823980801679" lon="12.06802614458511"><ele>198.0</ele><time>2026-03-28T11:16:58Z</time></trkpt><trkpt lat="42.058157490439804" lon="12.06807978777307"><ele>198.0</ele><time>2026-03-28T11:16:59Z</time></trkpt><trkpt lat="42.05807521593268" lon="12.068117013379558"><ele>198.0</ele><time>2026-03-28T11:17:00Z</time></trkpt><trkpt lat="42.05796595482906" lon="12.068155013376295"><ele>200.0</ele><time>2026-03-28T11:17:01Z</time></trkpt><trkpt lat="42.05786659377447" lon="12.068192801483905"><ele>202.0</ele><time>2026-03-28T11:17:02Z</time></trkpt><trkpt lat="42.057798719934105" lon="12.068218651252588"><ele>204.0</ele><time>2026-03-28T11:17:03Z</time></trkpt><trkpt lat="42.05770607004731" lon="12.068272917976236"><ele>206.0</ele><time>2026-03-28T11:17:05Z</time></trkpt><trkpt lat="42.05765950817662" lon="12.0681123878675"><ele>208.0</ele><time>2026-03-28T11:17:09Z</time></trkpt><trkpt lat="42.05761870784716" lon="12.067970094808448"><ele>208.0</ele><time>2026-03-28T11:17:10Z</time></trkpt><trkpt lat="42.05755216033511" lon="12.067835318709717"><ele>208.0</ele><time>2026-03-28T11:17:11Z</time></trkpt><trkpt lat="42.05745152324424" lon="12.067710578638144"><ele>208.0</ele><time>2026-03-28T11:17:12Z</time></trkpt><trkpt lat="42.057354872724524" lon="12.06760433283962"><ele>208.0</ele><time>2026-03-28T11:17:13Z</time></trkpt><trkpt lat="42.05727045153989" lon="12.067514433141806"><ele>207.60000000000002</ele><time>2026-03-28T11:17:14Z</time></trkpt><trkpt lat="42.05719632993759" lon="12.067469773829945"><ele>207.20000000000002</ele><time>2026-03-28T11:17:15Z</time></trkpt><trkpt lat="42.057078863848275" lon="12.067426778144664"><ele>206.8</ele><time>2026-03-28T11:17:17Z</time></trkpt><trkpt lat="42.057011158447" lon="12.067435104671924"><ele>206.4</ele><time>2026-03-28T11:17:18Z</time></trkpt><trkpt lat="42.0569520838007" lon="12.06748658162811"><ele>206.0</ele><time>2026-03-28T11:17:19Z</time></trkpt><trkpt lat="42.05686148052214" lon="12.06756725172523"><ele>205.60000000000002</ele><time>2026-03-28T11:17:21Z</time></trkpt><trkpt lat="42.05679541998587" lon="12.067548016839517"><ele>205.2</ele><time>2026-03-28T11:17:27Z</time></trkpt><trkpt lat="42.05673808644015" lon="12.067595844531523"><ele>204.8</ele><time>2026-03-28T11:17:29Z</time></trkpt><trkpt lat="42.056636065659035" lon="12.067675795899723"><ele>204.39999999999998</ele><time>2026-03-28T11:17:31Z</time></trkpt><trkpt lat="42.0565262322368" lon="12.067711564906359"><ele>204.0</ele><time>2026-03-28T11:17:32Z</time></trkpt><trkpt lat="42.05642382114962" lon="12.067758079308422"><ele>204.0</ele><time>2026-03-28T11:17:33Z</time></trkpt><trkpt lat="42.05631681651079" lon="12.067816481365641"><ele>204.0</ele><time>2026-03-28T11:17:34Z</time></trkpt><trkpt lat="42.05619427464319" lon="12.0678647083012"><ele>204.0</ele><time>2026-03-28T11:17:35Z</time></trkpt><trkpt lat="42.0560714543119" lon="12.06791055803584"><ele>204.0</ele><time>2026-03-28T11:17:36Z</time></trkpt><trkpt lat="42.05595792748816" lon="12.067942599267765"><ele>204.0</ele><time>2026-03-28T11:17:37Z</time></trkpt><trkpt lat="42.05585291082008" lon="12.067972976364457"><ele>204.0</ele><time>2026-03-28T11:17:38Z</time></trkpt><trkpt lat="42.05574992140772" lon="12.067989115587725"><ele>204.0</ele><time>2026-03-28T11:17:39Z</time></trkpt><trkpt lat="42.05565169499364" lon="12.067996753361802"><ele>204.0</ele><time>2026-03-28T11:17:40Z</time></trkpt><trkpt lat="42.05555510725319" lon="12.067993242954373"><ele>204.0</ele><time>2026-03-28T11:17:41Z</time></trkpt><trkpt lat="42.05545110693482" lon="12.067984057707108"><ele>203.6</ele><time>2026-03-28T11:17:42Z</time></trkpt><trkpt lat="42.05534504587148" lon="12.0679565837712"><ele>203.2</ele><time>2026-03-28T11:17:43Z</time></trkpt><trkpt lat="42.05523541900238" lon="12.067918950460735"><ele>202.79999999999998</ele><time>2026-03-28T11:17:44Z</time></trkpt><trkpt lat="42.05513370878083" lon="12.067900602567132"><ele>202.39999999999998</ele><time>2026-03-28T11:17:45Z</time></trkpt><trkpt lat="42.05502931449877" lon="12.067889718720197"><ele>202.0</ele><time>2026-03-28T11:17:46Z</time></trkpt><trkpt lat="42.05491974362721" lon="12.06786712001386"><ele>201.25</ele><time>2026-03-28T11:17:47Z</time></trkpt><trkpt lat="42.054808588039286" lon="12.067857547508446"><ele>200.5</ele><time>2026-03-28T11:17:48Z</time></trkpt><trkpt lat="42.054679412485385" lon="12.067860409991185"><ele>199.75</ele><time>2026-03-28T11:17:49Z</time></trkpt><trkpt lat="42.05454510623673" lon="12.067875977692632"><ele>199.0</ele><time>2026-03-28T11:17:50Z</time></trkpt><trkpt lat="42.05442930155639" lon="12.06790991473101"><ele>198.99999999999997</ele><time>2026-03-28T11:17:51Z</time></trkpt><trkpt lat="42.05432602485802" lon="12.067927908154848"><ele>199.0</ele><time>2026-03-28T11:17:52Z</time></trkpt><trkpt lat="42.05424117143286" lon="12.067937601257393"><ele>199.0</ele><time>2026-03-28T11:17:53Z</time></trkpt><trkpt lat="42.054156372329935" lon="12.067943694002377"><ele>199.0</ele><time>2026-03-28T11:17:54Z</time></trkpt><trkpt lat="42.05407617834881" lon="12.067955569628543"><ele>198.99999999999997</ele><time>2026-03-28T11:17:55Z</time></trkpt><trkpt lat="42.05399985765212" lon="12.067990101403238"><ele>199.0</ele><time>2026-03-28T11:17:56Z</time></trkpt><trkpt lat="42.05392942296166" lon="12.06802693728589"><ele>199.49999999999997</ele><time>2026-03-28T11:17:57Z</time></trkpt><trkpt lat="42.05386552516398" lon="12.068065449225406"><ele>200.0</ele><time>2026-03-28T11:17:58Z</time></trkpt><trkpt lat="42.05380630402244" lon="12.068107837336793"><ele>200.5</ele><time>2026-03-28T11:17:59Z</time></trkpt><trkpt lat="42.0537421932571" lon="12.068145741860764"><ele>201.0</ele><time>2026-03-28T11:18:00Z</time></trkpt><trkpt lat="42.05366376740544" lon="12.068165305315611"><ele>201.49999999999997</ele><time>2026-03-28T11:18:01Z</time></trkpt><trkpt lat="42.05356418372974" lon="12.06816764224666"><ele>202.0</ele><time>2026-03-28T11:18:02Z</time></trkpt><trkpt lat="42.05346175429557" lon="12.068159613128733"><ele>201.99999999999997</ele><time>2026-03-28T11:18:03Z</time></trkpt><trkpt lat="42.053378397655486" lon="12.068156871819225"><ele>202.0</ele><time>2026-03-28T11:18:04Z</time></trkpt><trkpt lat="42.05329842273362" lon="12.068177826502401"><ele>202.0</ele><time>2026-03-28T11:18:05Z</time></trkpt><trkpt lat="42.053219504869155" lon="12.068176287528182"><ele>202.0</ele><time>2026-03-28T11:18:06Z</time></trkpt><trkpt lat="42.053151822461814" lon="12.068147444301427"><ele>201.99999999999997</ele><time>2026-03-28T11:18:07Z</time></trkpt><trkpt lat="42.05306057924639" lon="12.068127287925757"><ele>202.0</ele><time>2026-03-28T11:18:08Z</time></trkpt><trkpt lat="42.05298343293553" lon="12.068142762693306"><ele>202.2</ele><time>2026-03-28T11:18:10Z</time></trkpt><trkpt lat="42.05291717491416" lon="12.06830013592959"><ele>202.39999999999998</ele><time>2026-03-28T11:18:12Z</time></trkpt><trkpt lat="42.05287830891019" lon="12.068425355983697"><ele>202.60000000000002</ele><time>2026-03-28T11:18:13Z</time></trkpt><trkpt lat="42.05286861539591" lon="12.06853698993693"><ele>202.8</ele><time>2026-03-28T11:18:14Z</time></trkpt><trkpt lat="42.052863555676865" lon="12.068657428599922"><ele>203.0</ele><time>2026-03-28T11:18:15Z</time></trkpt><trkpt lat="42.05285530819901" lon="12.06877704638811"><ele>203.0</ele><time>2026-03-28T11:18:16Z</time></trkpt><trkpt lat="42.05282013723001" lon="12.068886009139293"><ele>203.0</ele><time>2026-03-28T11:18:17Z</time></trkpt><trkpt lat="42.052760792067474" lon="12.069030938315656"><ele>203.0</ele><time>2026-03-28T11:18:18Z</time></trkpt><trkpt lat="42.0527120665694" lon="12.069198573063156"><ele>203.0</ele><time>2026-03-28T11:18:19Z</time></trkpt><trkpt lat="42.052665606732646" lon="12.069383000915753"><ele>204.5</ele><time>2026-03-28T11:18:20Z</time></trkpt><trkpt lat="42.05261181002741" lon="12.069562671042187"><ele>206.0</ele><time>2026-03-28T11:18:21Z</time></trkpt><trkpt lat="42.05255847020035" lon="12.069753066964953"><ele>207.5</ele><time>2026-03-28T11:18:22Z</time></trkpt><trkpt lat="42.05252508564327" lon="12.069947975280709"><ele>209.0</ele><time>2026-03-28T11:18:23Z</time></trkpt><trkpt lat="42.0525120611736" lon="12.070126726125853"><ele>209.2</ele><time>2026-03-28T11:18:24Z</time></trkpt><trkpt lat="42.05251052019885" lon="12.070270834780471"><ele>209.39999999999998</ele><time>2026-03-28T11:18:25Z</time></trkpt><trkpt lat="42.052493789599986" lon="12.07039559879789"><ele>209.6</ele><time>2026-03-28T11:18:26Z</time></trkpt><trkpt lat="42.052461240163375" lon="12.070531143814488"><ele>209.8</ele><time>2026-03-28T11:18:27Z</time></trkpt><trkpt lat="42.05243116439621" lon="12.07067843248046"><ele>210.0</ele><time>2026-03-28T11:18:28Z</time></trkpt><trkpt lat="42.052416009481036" lon="12.070819586569494"><ele>210.0</ele><time>2026-03-28T11:18:29Z</time></trkpt><trkpt lat="42.052394189493754" lon="12.070961164353303"><ele>210.0</ele><time>2026-03-28T11:18:30Z</time></trkpt><trkpt lat="42.0523484117824" lon="12.071113391018129"><ele>210.0</ele><time>2026-03-28T11:18:31Z</time></trkpt><trkpt lat="42.05230293848601" lon="12.071284761397493"><ele>210.0</ele><time>2026-03-28T11:18:32Z</time></trkpt><trkpt lat="42.05225955729851" lon="12.071466486629625"><ele>206.75</ele><time>2026-03-28T11:18:33Z</time></trkpt><trkpt lat="42.052227287411654" lon="12.071641157254094"><ele>203.5</ele><time>2026-03-28T11:18:34Z</time></trkpt><trkpt lat="42.052192565057794" lon="12.071800738242695"><ele>200.25</ele><time>2026-03-28T11:18:35Z</time></trkpt><trkpt lat="42.05217462455549" lon="12.071968254439003"><ele>197.0</ele><time>2026-03-28T11:18:36Z</time></trkpt><trkpt lat="42.052154769616244" lon="12.07215991095591"><ele>197.0</ele><time>2026-03-28T11:18:37Z</time></trkpt><trkpt lat="42.05214018411222" lon="12.072323497885185"><ele>197.0</ele><time>2026-03-28T11:18:38Z</time></trkpt><trkpt lat="42.05214036086827" lon="12.072476220254183"><ele>197.0</ele><time>2026-03-28T11:18:39Z</time></trkpt><trkpt lat="42.052146429722775" lon="12.072636087676123"><ele>197.0</ele><time>2026-03-28T11:18:40Z</time></trkpt><trkpt lat="42.0521529741906" lon="12.072785291281988"><ele>197.0</ele><time>2026-03-28T11:18:41Z</time></trkpt><trkpt lat="42.05215653987805" lon="12.07293193996713"><ele>197.0</ele><time>2026-03-28T11:18:42Z</time></trkpt><trkpt lat="42.05214913469644" lon="12.07307674813003"><ele>197.0</ele><time>2026-03-28T11:18:43Z</time></trkpt><trkpt lat="42.05213466976953" lon="12.073225307320346"><ele>197.0</ele><time>2026-03-28T11:18:44Z</time></trkpt><trkpt lat="42.052132952522484" lon="12.073380713142141"><ele>197.0</ele><time>2026-03-28T11:18:45Z</time></trkpt><trkpt lat="42.052148007973756" lon="12.07355767810639"><ele>197.0</ele><time>2026-03-28T11:18:46Z</time></trkpt><trkpt lat="42.05216384595253" lon="12.073751678800818"><ele>197.0</ele><time>2026-03-28T11:18:47Z</time></trkpt><trkpt lat="42.05216723610016" lon="12.07394830971925"><ele>197.0</ele><time>2026-03-28T11:18:48Z</time></trkpt><trkpt lat="42.05217384584596" lon="12.074132501563378"><ele>197.0</ele><time>2026-03-28T11:18:49Z</time></trkpt><trkpt lat="42.05217494519742" lon="12.074301188164464"><ele>197.5</ele><time>2026-03-28T11:18:50Z</time></trkpt><trkpt lat="42.05218733229235" lon="12.07445853383701"><ele>198.0</ele><time>2026-03-28T11:18:51Z</time></trkpt><trkpt lat="42.052193827500346" lon="12.074621102813927"><ele>198.5</ele><time>2026-03-28T11:18:52Z</time></trkpt><trkpt lat="42.0522174295018" lon="12.074772300559989"><ele>199.0</ele><time>2026-03-28T11:18:53Z</time></trkpt><trkpt lat="42.052257596254364" lon="12.074901257884884"><ele>199.75</ele><time>2026-03-28T11:18:54Z</time></trkpt><trkpt lat="42.05230092993823" lon="12.075035152751349"><ele>200.5</ele><time>2026-03-28T11:18:55Z</time></trkpt><trkpt lat="42.052356909474014" lon="12.07516375619963"><ele>201.25</ele><time>2026-03-28T11:18:56Z</time></trkpt><trkpt lat="42.052422541847164" lon="12.07529522369776"><ele>202.0</ele><time>2026-03-28T11:18:57Z</time></trkpt><trkpt lat="42.05249846706872" lon="12.075418212332997"><ele>202.0</ele><time>2026-03-28T11:18:58Z</time></trkpt><trkpt lat="42.052572281695234" lon="12.07552473869223"><ele>202.0</ele><time>2026-03-28T11:18:59Z</time></trkpt><trkpt lat="42.05264640938797" lon="12.075611844054594"><ele>202.0</ele><time>2026-03-28T11:19:00Z</time></trkpt><trkpt lat="42.05272826039112" lon="12.075691673460625"><ele>202.0</ele><time>2026-03-28T11:19:01Z</time></trkpt><trkpt lat="42.05281540444551" lon="12.075774373965702"><ele>202.0</ele><time>2026-03-28T11:19:02Z</time></trkpt><trkpt lat="42.052878360087306" lon="12.075840604424478"><ele>201.8</ele><time>2026-03-28T11:19:03Z</time></trkpt><trkpt lat="42.052927383699085" lon="12.075959784308052"><ele>201.6</ele><time>2026-03-28T11:19:05Z</time></trkpt><trkpt lat="42.052898772804205" lon="12.076064237738143"><ele>201.4</ele><time>2026-03-28T11:19:07Z</time></trkpt><trkpt lat="42.05282060833363" lon="12.076188514695474"><ele>201.20000000000002</ele><time>2026-03-28T11:19:09Z</time></trkpt><trkpt lat="42.052831751963424" lon="12.076292556753389"><ele>201.0</ele><time>2026-03-28T11:19:14Z</time></trkpt><trkpt lat="42.05291209178775" lon="12.076394715721353"><ele>201.0</ele><time>2026-03-28T11:19:16Z</time></trkpt><trkpt lat="42.05297763069636" lon="12.076393850844093"><ele>201.0</ele><time>2026-03-28T11:19:18Z</time></trkpt><trkpt lat="42.05302473198365" lon="12.076459230361236"><ele>201.0</ele><time>2026-03-28T11:19:22Z</time></trkpt><trkpt lat="42.053032466415374" lon="12.076577798812183"><ele>201.0</ele><time>2026-03-28T11:19:24Z</time></trkpt><trkpt lat="42.05302437143715" lon="12.076707555876517"><ele>201.0</ele><time>2026-03-28T11:19:27Z</time></trkpt><trkpt lat="42.0529862140979" lon="12.07681334441747"><ele>201.0</ele><time>2026-03-28T11:19:29Z</time></trkpt><trkpt lat="42.053005793355425" lon="12.07689668868638"><ele>201.33333333333334</ele><time>2026-03-28T11:19:31Z</time></trkpt><trkpt lat="42.05307341917214" lon="12.076931048366403"><ele>201.66666666666669</ele><time>2026-03-28T11:19:33Z</time></trkpt><trkpt lat="42.05314455960343" lon="12.076997713673176"><ele>202.0</ele><time>2026-03-28T11:19:36Z</time></trkpt><trkpt lat="42.053138212501324" lon="12.077104056674445"><ele>202.33333333333334</ele><time>2026-03-28T11:19:38Z</time></trkpt><trkpt lat="42.05316332326591" lon="12.077202042729757"><ele>202.66666666666669</ele><time>2026-03-28T11:19:40Z</time></trkpt><trkpt lat="42.05322437404384" lon="12.077268787287743"><ele>203.0</ele><time>2026-03-28T11:19:42Z</time></trkpt><trkpt lat="42.05328922957107" lon="12.077319153074493"><ele>203.4</ele><time>2026-03-28T11:19:44Z</time></trkpt><trkpt lat="42.053352630007126" lon="12.077388877419011"><ele>203.8</ele><time>2026-03-28T11:19:45Z</time></trkpt><trkpt lat="42.05339160711139" lon="12.077532116083908"><ele>204.2</ele><time>2026-03-28T11:19:47Z</time></trkpt><trkpt lat="42.05337172128949" lon="12.077705964929491"><ele>204.6</ele><time>2026-03-28T11:19:49Z</time></trkpt><trkpt lat="42.05335033022164" lon="12.077792799794434"><ele>205.0</ele><time>2026-03-28T11:19:50Z</time></trkpt><trkpt lat="42.053319265866136" lon="12.077924974351221"><ele>206.6</ele><time>2026-03-28T11:19:52Z</time></trkpt><trkpt lat="42.05334636701668" lon="12.078074284824368"><ele>208.2</ele><time>2026-03-28T11:19:54Z</time></trkpt><trkpt lat="42.05336542835799" lon="12.078160783943481"><ele>209.8</ele><time>2026-03-28T11:19:55Z</time></trkpt><trkpt lat="42.05337539192039" lon="12.078314437528581"><ele>211.4</ele><time>2026-03-28T11:19:57Z</time></trkpt><trkpt lat="42.053367035146124" lon="12.078419309918145"><ele>213.0</ele><time>2026-03-28T11:19:58Z</time></trkpt><trkpt lat="42.053305296957454" lon="12.078546227599706"><ele>213.16666666666666</ele><time>2026-03-28T11:20:00Z</time></trkpt><trkpt lat="42.05321278417594" lon="12.078591443532003"><ele>213.33333333333331</ele><time>2026-03-28T11:20:01Z</time></trkpt><trkpt lat="42.053119418205554" lon="12.078648117301352"><ele>213.5</ele><time>2026-03-28T11:20:02Z</time></trkpt><trkpt lat="42.053057656225526" lon="12.0787162432222"><ele>213.66666666666666</ele><time>2026-03-28T11:20:03Z</time></trkpt><trkpt lat="42.05300976292824" lon="12.078777727869433"><ele>213.83333333333331</ele><time>2026-03-28T11:20:04Z</time></trkpt><trkpt lat="42.05293846862512" lon="12.07886769436906"><ele>214.0</ele><time>2026-03-28T11:20:06Z</time></trkpt><trkpt lat="42.052867308877744" lon="12.078949192048215"><ele>213.99999999999997</ele><time>2026-03-28T11:20:07Z</time></trkpt><trkpt lat="42.05282024227593" lon="12.079033299787874"><ele>214.0</ele><time>2026-03-28T11:20:08Z</time></trkpt><trkpt lat="42.05279871935203" lon="12.079134075036007"><ele>214.0</ele><time>2026-03-28T11:20:09Z</time></trkpt><trkpt lat="42.052785887293" lon="12.079239989333493"><ele>214.0</ele><time>2026-03-28T11:20:10Z</time></trkpt><trkpt lat="42.05276752905058" lon="12.079341300492445"><ele>213.99999999999997</ele><time>2026-03-28T11:20:11Z</time></trkpt><trkpt lat="42.05275860581705" lon="12.07944188389267"><ele>214.0</ele><time>2026-03-28T11:20:12Z</time></trkpt><trkpt lat="42.05272903206535" lon="12.079536817334745"><ele>215.2</ele><time>2026-03-28T11:20:13Z</time></trkpt><trkpt lat="42.052711209255406" lon="12.079638044962246"><ele>216.39999999999998</ele><time>2026-03-28T11:20:14Z</time></trkpt><trkpt lat="42.052690881486484" lon="12.079753499922777"><ele>217.6</ele><time>2026-03-28T11:20:15Z</time></trkpt><trkpt lat="42.05273425503896" lon="12.079886865952757"><ele>218.8</ele><time>2026-03-28T11:20:16Z</time></trkpt><trkpt lat="42.052748097861034" lon="12.079999878572279"><ele>220.0</ele><time>2026-03-28T11:20:17Z</time></trkpt><trkpt lat="42.052751847334726" lon="12.080129178979389"><ele>221.6</ele><time>2026-03-28T11:20:18Z</time></trkpt><trkpt lat="42.05277273576778" lon="12.080275026539304"><ele>223.2</ele><time>2026-03-28T11:20:19Z</time></trkpt><trkpt lat="42.052802471778314" lon="12.08040915027558"><ele>224.8</ele><time>2026-03-28T11:20:20Z</time></trkpt><trkpt lat="42.05281424095915" lon="12.080542992264725"><ele>226.4</ele><time>2026-03-28T11:20:21Z</time></trkpt><trkpt lat="42.05285234611679" lon="12.08066065479138"><ele>228.0</ele><time>2026-03-28T11:20:22Z</time></trkpt><trkpt lat="42.05287767125569" lon="12.080783339925528"><ele>228.8</ele><time>2026-03-28T11:20:23Z</time></trkpt><trkpt lat="42.052914983757866" lon="12.080917252886552"><ele>229.60000000000002</ele><time>2026-03-28T11:20:24Z</time></trkpt><trkpt lat="42.0529617261274" lon="12.081045681284667"><ele>230.39999999999998</ele><time>2026-03-28T11:20:25Z</time></trkpt><trkpt lat="42.05300044049857" lon="12.081185045255719"><ele>231.2</ele><time>2026-03-28T11:20:26Z</time></trkpt><trkpt lat="42.0530562191431" lon="12.08131095519375"><ele>232.0</ele><time>2026-03-28T11:20:27Z</time></trkpt><trkpt lat="42.05312109179722" lon="12.081422824112801"><ele>232.0</ele><time>2026-03-28T11:20:28Z</time></trkpt><trkpt lat="42.05316228614351" lon="12.081552889368275"><ele>232.0</ele><time>2026-03-28T11:20:29Z</time></trkpt><trkpt lat="42.05320685290657" lon="12.081676363791699"><ele>232.0</ele><time>2026-03-28T11:20:30Z</time></trkpt><trkpt lat="42.053230956646495" lon="12.081805146304712"><ele>232.0</ele><time>2026-03-28T11:20:31Z</time></trkpt><trkpt lat="42.05320670227805" lon="12.081916730733516"><ele>232.0</ele><time>2026-03-28T11:20:32Z</time></trkpt><trkpt lat="42.05320667220535" lon="12.082046677992293"><ele>233.39999999999998</ele><time>2026-03-28T11:20:33Z</time></trkpt><trkpt lat="42.05319517112085" lon="12.082183997783707"><ele>234.79999999999998</ele><time>2026-03-28T11:20:34Z</time></trkpt><trkpt lat="42.05320532708005" lon="12.082316825260156"><ele>236.2</ele><time>2026-03-28T11:20:35Z</time></trkpt><trkpt lat="42.05322832200694" lon="12.082449766709777"><ele>237.6</ele><time>2026-03-28T11:20:36Z</time></trkpt><trkpt lat="42.05322557109701" lon="12.082616005361318"><ele>239.0</ele><time>2026-03-28T11:20:37Z</time></trkpt><trkpt lat="42.053238759168714" lon="12.082773820962426"><ele>242.33333333333334</ele><time>2026-03-28T11:20:38Z</time></trkpt><trkpt lat="42.05325294580198" lon="12.08296965367786"><ele>245.66666666666669</ele><time>2026-03-28T11:20:39Z</time></trkpt><trkpt lat="42.053267452320995" lon="12.083196925435715"><ele>249.0</ele><time>2026-03-28T11:20:40Z</time></trkpt><trkpt lat="42.05327712350185" lon="12.083439921674394"><ele>250.75</ele><time>2026-03-28T11:20:41Z</time></trkpt><trkpt lat="42.053282289268296" lon="12.083645556178345"><ele>252.5</ele><time>2026-03-28T11:20:42Z</time></trkpt><trkpt lat="42.05330813102248" lon="12.083814270456326"><ele>254.25</ele><time>2026-03-28T11:20:43Z</time></trkpt><trkpt lat="42.053299558085335" lon="12.083932766412701"><ele>256.0</ele><time>2026-03-28T11:20:44Z</time></trkpt><trkpt lat="42.053323756501776" lon="12.084081132373193"><ele>253.83333333333331</ele><time>2026-03-28T11:20:46Z</time></trkpt><trkpt lat="42.05332273194395" lon="12.084167390760511"><ele>251.66666666666666</ele><time>2026-03-28T11:20:48Z</time></trkpt><trkpt lat="42.053337872088406" lon="12.084268634481067"><ele>249.5</ele><time>2026-03-28T11:20:59Z</time></trkpt><trkpt lat="42.05341699967026" lon="12.08428893234638"><ele>247.33333333333331</ele><time>2026-03-28T11:22:08Z</time></trkpt><trkpt lat="42.053530514390616" lon="12.084285845055748"><ele>245.16666666666666</ele><time>2026-03-28T11:22:26Z</time></trkpt><trkpt lat="42.05363750073703" lon="12.084240462690792"><ele>243.0</ele><time>2026-03-28T11:22:28Z</time></trkpt><trkpt lat="42.0537092481582" lon="12.084210523077415"><ele>243.0</ele><time>2026-03-28T11:22:29Z</time></trkpt><trkpt lat="42.05378843054189" lon="12.084181139486981"><ele>243.0</ele><time>2026-03-28T11:22:30Z</time></trkpt><trkpt lat="42.05386110608341" lon="12.084152296767611"><ele>243.0</ele><time>2026-03-28T11:22:31Z</time></trkpt><trkpt lat="42.05394006610119" lon="12.08411682664153"><ele>243.0</ele><time>2026-03-28T11:22:32Z</time></trkpt><trkpt lat="42.054033606501065" lon="12.08406133582578"><ele>243.0</ele><time>2026-03-28T11:22:33Z</time></trkpt><trkpt lat="42.054129167821216" lon="12.083996806660368"><ele>241.0</ele><time>2026-03-28T11:22:34Z</time></trkpt><trkpt lat="42.05424500682337" lon="12.083928787377594"><ele>239.0</ele><time>2026-03-28T11:22:35Z</time></trkpt><trkpt lat="42.0543615669859" lon="12.0838574654292"><ele>237.0</ele><time>2026-03-28T11:22:36Z</time></trkpt><trkpt lat="42.054487293087014" lon="12.083778387628755"><ele>235.0</ele><time>2026-03-28T11:22:37Z</time></trkpt><trkpt lat="42.05460720400583" lon="12.083705818690845"><ele>235.0</ele><time>2026-03-28T11:22:38Z</time></trkpt><trkpt lat="42.05471056769433" lon="12.083641468498184"><ele>235.0</ele><time>2026-03-28T11:22:39Z</time></trkpt><trkpt lat="42.054814875484404" lon="12.083576747772929"><ele>235.0</ele><time>2026-03-28T11:22:40Z</time></trkpt><trkpt lat="42.05492449927367" lon="12.08351350400889"><ele>235.0</ele><time>2026-03-28T11:22:41Z</time></trkpt><trkpt lat="42.05502562190612" lon="12.083438682266213"><ele>236.0</ele><time>2026-03-28T11:22:42Z</time></trkpt><trkpt lat="42.05513229073299" lon="12.08337491617708"><ele>237.0</ele><time>2026-03-28T11:22:43Z</time></trkpt><trkpt lat="42.05523323317133" lon="12.083310754372446"><ele>238.0</ele><time>2026-03-28T11:22:44Z</time></trkpt><trkpt lat="42.055336107129676" lon="12.083254482062308"><ele>239.0</ele><time>2026-03-28T11:22:45Z</time></trkpt><trkpt lat="42.05542874283677" lon="12.083196890136987"><ele>240.0</ele><time>2026-03-28T11:22:46Z</time></trkpt><trkpt lat="42.055524028060766" lon="12.083135874764015"><ele>240.0</ele><time>2026-03-28T11:22:47Z</time></trkpt><trkpt lat="42.05561732960915" lon="12.08309803935781"><ele>240.0</ele><time>2026-03-28T11:22:48Z</time></trkpt><trkpt lat="42.05571364241499" lon="12.083032938400153"><ele>240.0</ele><time>2026-03-28T11:22:49Z</time></trkpt><trkpt lat="42.055816102858586" lon="12.082995616065743"><ele>240.0</ele><time>2026-03-28T11:22:50Z</time></trkpt><trkpt lat="42.05591695917068" lon="12.08294763523823"><ele>240.0</ele><time>2026-03-28T11:22:51Z</time></trkpt><trkpt lat="42.05603590011965" lon="12.0828867604529"><ele>240.75</ele><time>2026-03-28T11:22:52Z</time></trkpt><trkpt lat="42.05614764925801" lon="12.082836790607667"><ele>241.5</ele><time>2026-03-28T11:22:53Z</time></trkpt><trkpt lat="42.056258887784885" lon="12.082783624808332"><ele>242.25</ele><time>2026-03-28T11:22:54Z</time></trkpt><trkpt lat="42.05638058209613" lon="12.082739145990846"><ele>243.0</ele><time>2026-03-28T11:22:55Z</time></trkpt><trkpt lat="42.05648973084708" lon="12.082660541042083"><ele>243.0</ele><time>2026-03-28T11:22:56Z</time></trkpt><trkpt lat="42.056611198085086" lon="12.082600664063134"><ele>243.0</ele><time>2026-03-28T11:22:57Z</time></trkpt><trkpt lat="42.05673319517102" lon="12.082545494457582"><ele>243.0</ele><time>2026-03-28T11:22:58Z</time></trkpt><trkpt lat="42.05685149333179" lon="12.08247505949162"><ele>243.0</ele><time>2026-03-28T11:22:59Z</time></trkpt><trkpt lat="42.05699757699506" lon="12.082415834081202"><ele>243.75</ele><time>2026-03-28T11:23:00Z</time></trkpt><trkpt lat="42.05712522626762" lon="12.082340342988564"><ele>244.5</ele><time>2026-03-28T11:23:01Z</time></trkpt><trkpt lat="42.05724472275741" lon="12.082248936672611"><ele>245.25</ele><time>2026-03-28T11:23:02Z</time></trkpt><trkpt lat="42.0573688540625" lon="12.082174487577714"><ele>246.0</ele><time>2026-03-28T11:23:03Z</time></trkpt><trkpt lat="42.05750079430496" lon="12.082104233338722"><ele>246.0</ele><time>2026-03-28T11:23:04Z</time></trkpt><trkpt lat="42.0576309260823" lon="12.082029205845403"><ele>246.0</ele><time>2026-03-28T11:23:05Z</time></trkpt><trkpt lat="42.0577530086542" lon="12.081956347542206"><ele>246.0</ele><time>2026-03-28T11:23:06Z</time></trkpt><trkpt lat="42.0578810217867" lon="12.081881287017378"><ele>246.0</ele><time>2026-03-28T11:23:07Z</time></trkpt><trkpt lat="42.05801219789515" lon="12.081801324319928"><ele>246.0</ele><time>2026-03-28T11:23:08Z</time></trkpt><trkpt lat="42.058146386216976" lon="12.08172243821979"><ele>246.0</ele><time>2026-03-28T11:23:09Z</time></trkpt><trkpt lat="42.05829271720956" lon="12.081640820347365"><ele>246.0</ele><time>2026-03-28T11:23:10Z</time></trkpt><trkpt lat="42.058459966688446" lon="12.081547444504409"><ele>245.0</ele><time>2026-03-28T11:23:11Z</time></trkpt><trkpt lat="42.058641480394265" lon="12.081442286531967"><ele>244.0</ele><time>2026-03-28T11:23:12Z</time></trkpt><trkpt lat="42.0588163731332" lon="12.081342543883158"><ele>243.0</ele><time>2026-03-28T11:23:13Z</time></trkpt><trkpt lat="42.058952453461515" lon="12.08127354541117"><ele>243.0</ele><time>2026-03-28T11:23:14Z</time></trkpt><trkpt lat="42.059072726123915" lon="12.081211269150895"><ele>243.0</ele><time>2026-03-28T11:23:15Z</time></trkpt><trkpt lat="42.05920741905893" lon="12.081154776062904"><ele>243.0</ele><time>2026-03-28T11:23:16Z</time></trkpt><trkpt lat="42.059362865577434" lon="12.081102439952932"><ele>243.0</ele><time>2026-03-28T11:23:17Z</time></trkpt><trkpt lat="42.059521063673024" lon="12.08105319207744"><ele>243.66666666666669</ele><time>2026-03-28T11:23:18Z</time></trkpt><trkpt lat="42.05967358554988" lon="12.081001615971276"><ele>244.33333333333334</ele><time>2026-03-28T11:23:19Z</time></trkpt><trkpt lat="42.05982425519725" lon="12.080951310179756"><ele>245.0</ele><time>2026-03-28T11:23:20Z</time></trkpt><trkpt lat="42.05996738626171" lon="12.080903391426403"><ele>245.0</ele><time>2026-03-28T11:23:21Z</time></trkpt><trkpt lat="42.06010591661895" lon="12.080864835647944"><ele>245.0</ele><time>2026-03-28T11:23:22Z</time></trkpt><trkpt lat="42.06024366390253" lon="12.08081728459831"><ele>245.0</ele><time>2026-03-28T11:23:23Z</time></trkpt><trkpt lat="42.06038349453768" lon="12.080761533248719"><ele>245.0</ele><time>2026-03-28T11:23:24Z</time></trkpt><trkpt lat="42.060521898783065" lon="12.080712509498744"><ele>244.25</ele><time>2026-03-28T11:23:25Z</time></trkpt><trkpt lat="42.060660246242286" lon="12.080668987919896"><ele>243.5</ele><time>2026-03-28T11:23:26Z</time></trkpt><trkpt lat="42.060803803374164" lon="12.080625605938152"><ele>242.75</ele><time>2026-03-28T11:23:27Z</time></trkpt><trkpt lat="42.06094381949761" lon="12.08058198706826"><ele>242.0</ele><time>2026-03-28T11:23:28Z</time></trkpt><trkpt lat="42.061083008248055" lon="12.080535586737666"><ele>242.0</ele><time>2026-03-28T11:23:29Z</time></trkpt><trkpt lat="42.06123527945505" lon="12.080479693088071"><ele>242.0</ele><time>2026-03-28T11:23:30Z</time></trkpt><trkpt lat="42.06139146043291" lon="12.080426452650244"><ele>242.0</ele><time>2026-03-28T11:23:31Z</time></trkpt><trkpt lat="42.06155725902062" lon="12.080374817157297"><ele>242.0</ele><time>2026-03-28T11:23:32Z</time></trkpt><trkpt lat="42.06172620710182" lon="12.08032012591478"><ele>242.0</ele><time>2026-03-28T11:23:33Z</time></trkpt><trkpt lat="42.06189565817014" lon="12.080262642070569"><ele>242.0</ele><time>2026-03-28T11:23:34Z</time></trkpt><trkpt lat="42.06206872985158" lon="12.080206990328865"><ele>242.0</ele><time>2026-03-28T11:23:35Z</time></trkpt><trkpt lat="42.06223388560255" lon="12.080157385641"><ele>242.0</ele><time>2026-03-28T11:23:36Z</time></trkpt><trkpt lat="42.062392520557495" lon="12.080107065488757"><ele>242.0</ele><time>2026-03-28T11:23:37Z</time></trkpt><trkpt lat="42.06253925824323" lon="12.080056008680014"><ele>242.0</ele><time>2026-03-28T11:23:38Z</time></trkpt><trkpt lat="42.062677586374974" lon="12.080005909945099"><ele>242.0</ele><time>2026-03-28T11:23:39Z</time></trkpt><trkpt lat="42.06282437671185" lon="12.0799594399003"><ele>242.0</ele><time>2026-03-28T11:23:40Z</time></trkpt><trkpt lat="42.06297357551635" lon="12.079917152362109"><ele>242.0</ele><time>2026-03-28T11:23:41Z</time></trkpt><trkpt lat="42.06312967141977" lon="12.079873266024261"><ele>242.0</ele><time>2026-03-28T11:23:42Z</time></trkpt><trkpt lat="42.06328032229097" lon="12.079820488268625"><ele>242.0</ele><time>2026-03-28T11:23:43Z</time></trkpt><trkpt lat="42.063429850854455" lon="12.079768557241735"><ele>242.0</ele><time>2026-03-28T11:23:44Z</time></trkpt><trkpt lat="42.06358317516628" lon="12.079722128696607"><ele>242.0</ele><time>2026-03-28T11:23:45Z</time></trkpt><trkpt lat="42.06372773302259" lon="12.07967766162846"><ele>242.0</ele><time>2026-03-28T11:23:46Z</time></trkpt><trkpt lat="42.06386853398501" lon="12.07962599636454"><ele>242.0</ele><time>2026-03-28T11:23:47Z</time></trkpt><trkpt lat="42.06399894489751" lon="12.07958024417198"><ele>242.0</ele><time>2026-03-28T11:23:48Z</time></trkpt><trkpt lat="42.06412615449236" lon="12.079537894347215"><ele>242.0</ele><time>2026-03-28T11:23:49Z</time></trkpt><trkpt lat="42.0642579580368" lon="12.079494217661027"><ele>242.0</ele><time>2026-03-28T11:23:50Z</time></trkpt><trkpt lat="42.06438854719217" lon="12.079450375357426"><ele>242.0</ele><time>2026-03-28T11:23:51Z</time></trkpt><trkpt lat="42.06452704684724" lon="12.079407410416184"><ele>242.0</ele><time>2026-03-28T11:23:52Z</time></trkpt><trkpt lat="42.06467203789268" lon="12.07936186986947"><ele>242.0</ele><time>2026-03-28T11:23:53Z</time></trkpt><trkpt lat="42.06481481441885" lon="12.079315035203544"><ele>242.0</ele><time>2026-03-28T11:23:54Z</time></trkpt><trkpt lat="42.064954289890686" lon="12.079268426348452"><ele>242.0</ele><time>2026-03-28T11:23:55Z</time></trkpt><trkpt lat="42.06510408680701" lon="12.079221964734261"><ele>242.0</ele><time>2026-03-28T11:23:56Z</time></trkpt><trkpt lat="42.06525703722098" lon="12.07917217026103"><ele>241.25</ele><time>2026-03-28T11:23:57Z</time></trkpt><trkpt lat="42.06540360278789" lon="12.079125848584829"><ele>240.5</ele><time>2026-03-28T11:23:58Z</time></trkpt><trkpt lat="42.06553525558241" lon="12.07908409521605"><ele>239.75</ele><time>2026-03-28T11:23:59Z</time></trkpt><trkpt lat="42.06565126826827" lon="12.079047060886836"><ele>239.0</ele><time>2026-03-28T11:24:00Z</time></trkpt><trkpt lat="42.065763147285246" lon="12.07901278703763"><ele>240.0</ele><time>2026-03-28T11:24:01Z</time></trkpt><trkpt lat="42.065883972582064" lon="12.078976276842425"><ele>241.0</ele><time>2026-03-28T11:24:02Z</time></trkpt><trkpt lat="42.066024628973935" lon="12.078932305511783"><ele>242.0</ele><time>2026-03-28T11:24:03Z</time></trkpt><trkpt lat="42.06616943811116" lon="12.07888612567481"><ele>243.0</ele><time>2026-03-28T11:24:04Z</time></trkpt><trkpt lat="42.06631410592294" lon="12.078835309674323"><ele>243.0</ele><time>2026-03-28T11:24:05Z</time></trkpt><trkpt lat="42.0664597319978" lon="12.078786602514146"><ele>243.0</ele><time>2026-03-28T11:24:06Z</time></trkpt><trkpt lat="42.06661356284102" lon="12.078742873232706"><ele>243.0</ele><time>2026-03-28T11:24:07Z</time></trkpt><trkpt lat="42.066763649858416" lon="12.078692820532899"><ele>244.66666666666669</ele><time>2026-03-28T11:24:08Z</time></trkpt><trkpt lat="42.06691379799297" lon="12.078642948432627"><ele>246.33333333333334</ele><time>2026-03-28T11:24:09Z</time></trkpt><trkpt lat="42.067062487636136" lon="12.078583875587114"><ele>248.0</ele><time>2026-03-28T11:24:10Z</time></trkpt><trkpt lat="42.06720891753621" lon="12.078536094199057"><ele>248.0</ele><time>2026-03-28T11:24:11Z</time></trkpt><trkpt lat="42.067358070032526" lon="12.078486783523255"><ele>248.0</ele><time>2026-03-28T11:24:12Z</time></trkpt><trkpt lat="42.067501027526475" lon="12.078439022599825"><ele>248.0</ele><time>2026-03-28T11:24:13Z</time></trkpt><trkpt lat="42.06764285195768" lon="12.078394785771051"><ele>248.0</ele><time>2026-03-28T11:24:14Z</time></trkpt><trkpt lat="42.06778460849228" lon="12.078348596424302"><ele>249.0</ele><time>2026-03-28T11:24:15Z</time></trkpt><trkpt lat="42.06793265675932" lon="12.078298778963934"><ele>250.0</ele><time>2026-03-28T11:24:16Z</time></trkpt><trkpt lat="42.06808444614221" lon="12.078248574617646"><ele>251.0</ele><time>2026-03-28T11:24:17Z</time></trkpt><trkpt lat="42.068252722663615" lon="12.078191542445829"><ele>249.0</ele><time>2026-03-28T11:24:18Z</time></trkpt><trkpt lat="42.06841366763248" lon="12.078137310781937"><ele>247.0</ele><time>2026-03-28T11:24:19Z</time></trkpt><trkpt lat="42.06857435775725" lon="12.07808499461958"><ele>245.0</ele><time>2026-03-28T11:24:20Z</time></trkpt><trkpt lat="42.06873289031612" lon="12.078032510359225"><ele>245.0</ele><time>2026-03-28T11:24:21Z</time></trkpt><trkpt lat="42.06888293457098" lon="12.077980971833911"><ele>245.0</ele><time>2026-03-28T11:24:22Z</time></trkpt><trkpt lat="42.06902407958791" lon="12.077933821171923"><ele>245.0</ele><time>2026-03-28T11:24:23Z</time></trkpt><trkpt lat="42.06916299816301" lon="12.077882844491807"><ele>245.0</ele><time>2026-03-28T11:24:24Z</time></trkpt><trkpt lat="42.06929922970247" lon="12.077824940036136"><ele>245.25</ele><time>2026-03-28T11:24:25Z</time></trkpt><trkpt lat="42.069426395459246" lon="12.077754551830067"><ele>245.5</ele><time>2026-03-28T11:24:26Z</time></trkpt><trkpt lat="42.06954966337408" lon="12.0776581837849"><ele>245.75</ele><time>2026-03-28T11:24:27Z</time></trkpt><trkpt lat="42.06965126019703" lon="12.077564226840902"><ele>246.0</ele><time>2026-03-28T11:24:28Z</time></trkpt><trkpt lat="42.069745709910535" lon="12.07747748169125"><ele>246.8</ele><time>2026-03-28T11:24:29Z</time></trkpt><trkpt lat="42.06982506846036" lon="12.077392450482142"><ele>247.60000000000002</ele><time>2026-03-28T11:24:30Z</time></trkpt><trkpt lat="42.06990533653408" lon="12.077302220842626"><ele>248.4</ele><time>2026-03-28T11:24:31Z</time></trkpt><trkpt lat="42.06999201797662" lon="12.077217347512931"><ele>249.2</ele><time>2026-03-28T11:24:32Z</time></trkpt><trkpt lat="42.070089304027675" lon="12.07713461031294"><ele>250.0</ele><time>2026-03-28T11:24:33Z</time></trkpt><trkpt lat="42.070186756809754" lon="12.077049270225215"><ele>250.25</ele><time>2026-03-28T11:24:34Z</time></trkpt><trkpt lat="42.07028877431167" lon="12.076965094437401"><ele>250.5</ele><time>2026-03-28T11:24:35Z</time></trkpt><trkpt lat="42.07039165576441" lon="12.07687806673554"><ele>250.75</ele><time>2026-03-28T11:24:36Z</time></trkpt><trkpt lat="42.070490928843824" lon="12.076788548791603"><ele>251.0</ele><time>2026-03-28T11:24:37Z</time></trkpt><trkpt lat="42.07058495431505" lon="12.076700786326864"><ele>251.0</ele><time>2026-03-28T11:24:38Z</time></trkpt><trkpt lat="42.0706671894459" lon="12.076615453111513"><ele>251.00000000000003</ele><time>2026-03-28T11:24:39Z</time></trkpt><trkpt lat="42.07073765657792" lon="12.076547470801385"><ele>251.00000000000003</ele><time>2026-03-28T11:24:40Z</time></trkpt><trkpt lat="42.070795410724116" lon="12.076490606965232"><ele>251.0</ele><time>2026-03-28T11:24:41Z</time></trkpt><trkpt lat="42.07087410292198" lon="12.07643447307492"><ele>251.0</ele><time>2026-03-28T11:24:43Z</time></trkpt><trkpt lat="42.07095916871728" lon="12.076522372198923"><ele>251.00000000000003</ele><time>2026-03-28T11:24:44Z</time></trkpt><trkpt lat="42.07101206197236" lon="12.076571735915987"><ele>251.0</ele><time>2026-03-28T11:24:45Z</time></trkpt><trkpt lat="42.071104725995255" lon="12.076635684021129"><ele>251.0</ele><time>2026-03-28T11:24:47Z</time></trkpt><trkpt lat="42.071108836050186" lon="12.07672883317382"><ele>251.0</ele><time>2026-03-28T11:24:48Z</time></trkpt><trkpt lat="42.07113413848756" lon="12.076808086563428"><ele>251.00000000000003</ele><time>2026-03-28T11:24:50Z</time></trkpt><trkpt lat="42.071172352989265" lon="12.076918666242431"><ele>251.0</ele><time>2026-03-28T11:24:53Z</time></trkpt><trkpt lat="42.07121290651705" lon="12.07702050263742"><ele>251.00000000000003</ele><time>2026-03-28T11:24:55Z</time></trkpt><trkpt lat="42.07124713479131" lon="12.077104571508114"><ele>251.0</ele><time>2026-03-28T11:24:57Z</time></trkpt><trkpt lat="42.07127995129409" lon="12.077188315557086"><ele>251.0</ele><time>2026-03-28T11:24:59Z</time></trkpt><trkpt lat="42.071316126170416" lon="12.077298361617379"><ele>251.0</ele><time>2026-03-28T11:25:01Z</time></trkpt><trkpt lat="42.07134394358598" lon="12.077416828615716"><ele>251.00000000000003</ele><time>2026-03-28T11:25:03Z</time></trkpt><trkpt lat="42.07138949712427" lon="12.07753520321221"><ele>251.0</ele><time>2026-03-28T11:25:05Z</time></trkpt><trkpt lat="42.071437926509304" lon="12.077643570812631"><ele>250.33333333333334</ele><time>2026-03-28T11:25:07Z</time></trkpt><trkpt lat="42.07148483470015" lon="12.077768214446024"><ele>249.66666666666669</ele><time>2026-03-28T11:25:09Z</time></trkpt><trkpt lat="42.07152401675926" lon="12.077915255015318"><ele>249.0</ele><time>2026-03-28T11:25:11Z</time></trkpt><trkpt lat="42.07155191155064" lon="12.077991422892515"><ele>248.33333333333331</ele><time>2026-03-28T11:25:12Z</time></trkpt><trkpt lat="42.07157563963267" lon="12.078076453835829"><ele>247.66666666666666</ele><time>2026-03-28T11:25:13Z</time></trkpt><trkpt lat="42.07160006795926" lon="12.078159227400594"><ele>247.0</ele><time>2026-03-28T11:25:14Z</time></trkpt><trkpt lat="42.07163687342427" lon="12.078286761573926"><ele>245.0</ele><time>2026-03-28T11:25:16Z</time></trkpt><trkpt lat="42.0716868419397" lon="12.078404887970324"><ele>243.0</ele><time>2026-03-28T11:25:18Z</time></trkpt><trkpt lat="42.07175895089674" lon="12.078575548376948"><ele>241.0</ele><time>2026-03-28T11:25:20Z</time></trkpt><trkpt lat="42.07180577064348" lon="12.078711825617948"><ele>239.0</ele><time>2026-03-28T11:25:21Z</time></trkpt><trkpt lat="42.071854031771316" lon="12.078874585297175"><ele>239.0</ele><time>2026-03-28T11:25:22Z</time></trkpt><trkpt lat="42.07190916743632" lon="12.079043152217332"><ele>239.0</ele><time>2026-03-28T11:25:23Z</time></trkpt><trkpt lat="42.07196505241472" lon="12.079195953417313"><ele>239.0</ele><time>2026-03-28T11:25:24Z</time></trkpt><trkpt lat="42.072022820797585" lon="12.079355785836091"><ele>239.0</ele><time>2026-03-28T11:25:25Z</time></trkpt><trkpt lat="42.072092415264144" lon="12.079500165243703"><ele>238.0</ele><time>2026-03-28T11:25:26Z</time></trkpt><trkpt lat="42.07213396289557" lon="12.079669935940082"><ele>236.99999999999997</ele><time>2026-03-28T11:25:27Z</time></trkpt><trkpt lat="42.07218281464306" lon="12.079812860711396"><ele>235.99999999999997</ele><time>2026-03-28T11:25:28Z</time></trkpt><trkpt lat="42.072220247932414" lon="12.079935368245298"><ele>235.0</ele><time>2026-03-28T11:25:29Z</time></trkpt><trkpt lat="42.07221781542703" lon="12.080069629210298"><ele>234.0</ele><time>2026-03-28T11:25:30Z</time></trkpt><trkpt lat="42.07224056177172" lon="12.08022614199933"><ele>233.5</ele><time>2026-03-28T11:25:31Z</time></trkpt><trkpt lat="42.072262710632344" lon="12.080413236737535"><ele>233.0</ele><time>2026-03-28T11:25:32Z</time></trkpt><trkpt lat="42.07228210739448" lon="12.080600178676162"><ele>232.5</ele><time>2026-03-28T11:25:33Z</time></trkpt><trkpt lat="42.072317090190666" lon="12.080795600978018"><ele>232.0</ele><time>2026-03-28T11:25:34Z</time></trkpt><trkpt lat="42.072338054739504" lon="12.081010910382535"><ele>232.0</ele><time>2026-03-28T11:25:35Z</time></trkpt><trkpt lat="42.07236314080422" lon="12.081243716613944"><ele>232.0</ele><time>2026-03-28T11:25:36Z</time></trkpt><trkpt lat="42.07238238043825" lon="12.081450324947248"><ele>232.0</ele><time>2026-03-28T11:25:37Z</time></trkpt><trkpt lat="42.072398125081854" lon="12.081644221315196"><ele>233.0</ele><time>2026-03-28T11:25:38Z</time></trkpt><trkpt lat="42.072418838712224" lon="12.081847502538746"><ele>234.0</ele><time>2026-03-28T11:25:39Z</time></trkpt><trkpt lat="42.072441737467734" lon="12.082045871136453"><ele>235.0</ele><time>2026-03-28T11:25:40Z</time></trkpt><trkpt lat="42.07246271740361" lon="12.082222999436729"><ele>236.0</ele><time>2026-03-28T11:25:41Z</time></trkpt><trkpt lat="42.07248458672134" lon="12.082385936304036"><ele>237.20000000000002</ele><time>2026-03-28T11:25:42Z</time></trkpt><trkpt lat="42.072502365585876" lon="12.082559951672955"><ele>238.40000000000003</ele><time>2026-03-28T11:25:43Z</time></trkpt><trkpt lat="42.07251557328237" lon="12.082705959268509"><ele>239.6</ele><time>2026-03-28T11:25:44Z</time></trkpt><trkpt lat="42.07252691067698" lon="12.082811081196938"><ele>240.8</ele><time>2026-03-28T11:25:45Z</time></trkpt><trkpt lat="42.07253189855229" lon="12.082937645605899"><ele>242.0</ele><time>2026-03-28T11:25:47Z</time></trkpt><trkpt lat="42.072626091413696" lon="12.08302844722993"><ele>242.0</ele><time>2026-03-28T11:25:53Z</time></trkpt><trkpt lat="42.072688036153295" lon="12.083090108465715"><ele>242.0</ele><time>2026-03-28T11:26:09Z</time></trkpt><trkpt lat="42.07268752268398" lon="12.083236049370168"><ele>242.0</ele><time>2026-03-28T11:26:11Z</time></trkpt><trkpt lat="42.07268234975096" lon="12.083391876467106"><ele>242.0</ele><time>2026-03-28T11:26:13Z</time></trkpt><trkpt lat="42.07269279880532" lon="12.083514774024708"><ele>242.0</ele><time>2026-03-28T11:26:15Z</time></trkpt><trkpt lat="42.07277602110064" lon="12.083610623519442"><ele>243.6</ele><time>2026-03-28T11:26:17Z</time></trkpt><trkpt lat="42.07282856419687" lon="12.083733036693262"><ele>245.2</ele><time>2026-03-28T11:26:19Z</time></trkpt><trkpt lat="42.07288606554186" lon="12.083820936977158"><ele>246.8</ele><time>2026-03-28T11:26:20Z</time></trkpt><trkpt lat="42.072948408105205" lon="12.083933203450295"><ele>248.4</ele><time>2026-03-28T11:26:22Z</time></trkpt><trkpt lat="42.073008837857685" lon="12.084021100377308"><ele>250.0</ele><time>2026-03-28T11:26:23Z</time></trkpt><trkpt lat="42.07306443372913" lon="12.084104478650984"><ele>249.99999999999997</ele><time>2026-03-28T11:26:24Z</time></trkpt><trkpt lat="42.07312393454004" lon="12.084191799919969"><ele>250.0</ele><time>2026-03-28T11:26:38Z</time></trkpt><trkpt lat="42.073047179582815" lon="12.08417427533175"><ele>250.0</ele><time>2026-03-28T11:27:01Z</time></trkpt><trkpt lat="42.07298897346555" lon="12.084116029744507"><ele>250.0</ele><time>2026-03-28T11:27:04Z</time></trkpt><trkpt lat="42.07294369160511" lon="12.084043306375163"><ele>249.99999999999997</ele><time>2026-03-28T11:27:06Z</time></trkpt><trkpt lat="42.07287260748994" lon="12.083939917262308"><ele>250.0</ele><time>2026-03-28T11:27:08Z</time></trkpt><trkpt lat="42.07280634687431" lon="12.083810590679743"><ele>249.99999999999997</ele><time>2026-03-28T11:27:11Z</time></trkpt><trkpt lat="42.07278641775853" lon="12.083714818695231"><ele>250.0</ele><time>2026-03-28T11:27:12Z</time></trkpt><trkpt lat="42.07274520154525" lon="12.083576987010732"><ele>250.0</ele><time>2026-03-28T11:27:14Z</time></trkpt><trkpt lat="42.072724410311025" lon="12.083454963644146"><ele>250.0</ele><time>2026-03-28T11:27:16Z</time></trkpt><trkpt lat="42.07272894909618" lon="12.08335925872624"><ele>249.99999999999997</ele><time>2026-03-28T11:27:17Z</time></trkpt><trkpt lat="42.07272986748485" lon="12.083259382065147"><ele>250.0</ele><time>2026-03-28T11:27:20Z</time></trkpt><trkpt lat="42.07281675110238" lon="12.083208037581873"><ele>249.99999999999997</ele><time>2026-03-28T11:27:22Z</time></trkpt><trkpt lat="42.07290889809683" lon="12.083215270158073"><ele>250.0</ele><time>2026-03-28T11:27:23Z</time></trkpt><trkpt lat="42.07299814050696" lon="12.08323735441628"><ele>250.0</ele><time>2026-03-28T11:27:24Z</time></trkpt><trkpt lat="42.07307751266846" lon="12.083240647365972"><ele>250.0</ele><time>2026-03-28T11:27:25Z</time></trkpt><trkpt lat="42.07314279212407" lon="12.083287432573389"><ele>249.99999999999997</ele><time>2026-03-28T11:27:26Z</time></trkpt><trkpt lat="42.073217003786695" lon="12.083307720754483"><ele>250.0</ele><time>2026-03-28T11:27:27Z</time></trkpt><trkpt lat="42.073299801163394" lon="12.083332087219146"><ele>249.66666666666666</ele><time>2026-03-28T11:27:28Z</time></trkpt><trkpt lat="42.073387094103545" lon="12.083362290085642"><ele>249.33333333333331</ele><time>2026-03-28T11:27:29Z</time></trkpt><trkpt lat="42.07346982295013" lon="12.08337555533985"><ele>249.0</ele><time>2026-03-28T11:27:30Z</time></trkpt><trkpt lat="42.07355253949563" lon="12.08338454761276"><ele>248.66666666666669</ele><time>2026-03-28T11:27:31Z</time></trkpt><trkpt lat="42.07362525223835" lon="12.083385957048087"><ele>248.33333333333334</ele><time>2026-03-28T11:27:32Z</time></trkpt><trkpt lat="42.07370150760039" lon="12.083352494155493"><ele>248.0</ele><time>2026-03-28T11:27:33Z</time></trkpt><trkpt lat="42.073798331120635" lon="12.08326920292817"><ele>247.25</ele><time>2026-03-28T11:27:34Z</time></trkpt><trkpt lat="42.07390627935147" lon="12.083176787080443"><ele>246.5</ele><time>2026-03-28T11:27:35Z</time></trkpt><trkpt lat="42.07401309998342" lon="12.08308692631972"><ele>245.75</ele><time>2026-03-28T11:27:36Z</time></trkpt><trkpt lat="42.074110211142006" lon="12.083007459312496"><ele>245.0</ele><time>2026-03-28T11:27:37Z</time></trkpt><trkpt lat="42.074205441730854" lon="12.082933881967557"><ele>245.0</ele><time>2026-03-28T11:27:38Z</time></trkpt><trkpt lat="42.07430594884027" lon="12.082862480932201"><ele>245.0</ele><time>2026-03-28T11:27:39Z</time></trkpt><trkpt lat="42.07440821822473" lon="12.082778124890028"><ele>245.0</ele><time>2026-03-28T11:27:40Z</time></trkpt><trkpt lat="42.07451127713628" lon="12.082691681849049"><ele>245.0</ele><time>2026-03-28T11:27:41Z</time></trkpt><trkpt lat="42.074614575486926" lon="12.082619019096525"><ele>245.0</ele><time>2026-03-28T11:27:42Z</time></trkpt><trkpt lat="42.07470918628968" lon="12.082548974200373"><ele>245.0</ele><time>2026-03-28T11:27:43Z</time></trkpt><trkpt lat="42.07479817506953" lon="12.082475056308523"><ele>245.0</ele><time>2026-03-28T11:27:44Z</time></trkpt><trkpt lat="42.07487969321301" lon="12.082415287958009"><ele>245.0</ele><time>2026-03-28T11:27:45Z</time></trkpt><trkpt lat="42.0749635337654" lon="12.082354433945612"><ele>245.0</ele><time>2026-03-28T11:27:46Z</time></trkpt><trkpt lat="42.075039675588265" lon="12.082302087768214"><ele>244.6</ele><time>2026-03-28T11:27:47Z</time></trkpt><trkpt lat="42.075117062511346" lon="12.082246848369797"><ele>244.2</ele><time>2026-03-28T11:27:48Z</time></trkpt><trkpt lat="42.0752126088561" lon="12.082173371161364"><ele>243.8</ele><time>2026-03-28T11:27:49Z</time></trkpt><trkpt lat="42.07532204587784" lon="12.08210691113746"><ele>243.4</ele><time>2026-03-28T11:27:50Z</time></trkpt><trkpt lat="42.07541852235893" lon="12.082019501150308"><ele>243.0</ele><time>2026-03-28T11:27:51Z</time></trkpt><trkpt lat="42.0754980031187" lon="12.08195804312521"><ele>243.0</ele><time>2026-03-28T11:27:52Z</time></trkpt><trkpt lat="42.07557694561439" lon="12.08192374420345"><ele>243.0</ele><time>2026-03-28T11:27:53Z</time></trkpt><trkpt lat="42.07564574275372" lon="12.081854354764793"><ele>243.0</ele><time>2026-03-28T11:27:54Z</time></trkpt><trkpt lat="42.07573877308088" lon="12.081814566020736"><ele>243.0</ele><time>2026-03-28T11:27:55Z</time></trkpt><trkpt lat="42.07582274074806" lon="12.08176020441617"><ele>243.0</ele><time>2026-03-28T11:27:56Z</time></trkpt><trkpt lat="42.075910429176815" lon="12.081705018998242"><ele>244.25</ele><time>2026-03-28T11:27:57Z</time></trkpt><trkpt lat="42.07599940378844" lon="12.08163195966301"><ele>245.5</ele><time>2026-03-28T11:27:58Z</time></trkpt><trkpt lat="42.076105007295965" lon="12.081587280390611"><ele>246.75</ele><time>2026-03-28T11:27:59Z</time></trkpt><trkpt lat="42.07621295612011" lon="12.081524828068142"><ele>248.0</ele><time>2026-03-28T11:28:00Z</time></trkpt><trkpt lat="42.07632583452178" lon="12.081460369498586"><ele>248.0</ele><time>2026-03-28T11:28:01Z</time></trkpt><trkpt lat="42.076438379212235" lon="12.081397309614134"><ele>248.0</ele><time>2026-03-28T11:28:02Z</time></trkpt><trkpt lat="42.076556997696464" lon="12.081330846510532"><ele>248.0</ele><time>2026-03-28T11:28:03Z</time></trkpt><trkpt lat="42.076680497091075" lon="12.081261648601613"><ele>248.0</ele><time>2026-03-28T11:28:04Z</time></trkpt><trkpt lat="42.076796973635666" lon="12.081196385676755"><ele>248.75</ele><time>2026-03-28T11:28:05Z</time></trkpt><trkpt lat="42.07691802001596" lon="12.08112692456363"><ele>249.5</ele><time>2026-03-28T11:28:06Z</time></trkpt><trkpt lat="42.0770359609316" lon="12.08104108652005"><ele>250.25</ele><time>2026-03-28T11:28:07Z</time></trkpt><trkpt lat="42.07714091656814" lon="12.08098167891676"><ele>251.0</ele><time>2026-03-28T11:28:08Z</time></trkpt><trkpt lat="42.07724481949309" lon="12.080920458439897"><ele>251.0</ele><time>2026-03-28T11:28:09Z</time></trkpt><trkpt lat="42.07734331635443" lon="12.080867846162494"><ele>251.0</ele><time>2026-03-28T11:28:10Z</time></trkpt><trkpt lat="42.077456369011976" lon="12.080805338815214"><ele>251.0</ele><time>2026-03-28T11:28:11Z</time></trkpt><trkpt lat="42.07758223546265" lon="12.080727108006291"><ele>251.0</ele><time>2026-03-28T11:28:12Z</time></trkpt><trkpt lat="42.07771771029609" lon="12.08065554080249"><ele>250.75</ele><time>2026-03-28T11:28:13Z</time></trkpt><trkpt lat="42.077845044894254" lon="12.080588002886715"><ele>250.5</ele><time>2026-03-28T11:28:14Z</time></trkpt><trkpt lat="42.07796471807266" lon="12.080508010483662"><ele>250.25</ele><time>2026-03-28T11:28:15Z</time></trkpt><trkpt lat="42.07807385050866" lon="12.08041831323943"><ele>250.0</ele><time>2026-03-28T11:28:16Z</time></trkpt><trkpt lat="42.078186850441206" lon="12.080309576686593"><ele>249.5</ele><time>2026-03-28T11:28:17Z</time></trkpt><trkpt lat="42.07830080806616" lon="12.080198571762692"><ele>249.0</ele><time>2026-03-28T11:28:18Z</time></trkpt><trkpt lat="42.07842471474953" lon="12.080077503892156"><ele>248.5</ele><time>2026-03-28T11:28:19Z</time></trkpt><trkpt lat="42.07854122012562" lon="12.079965947077495"><ele>248.0</ele><time>2026-03-28T11:28:20Z</time></trkpt><trkpt lat="42.078648555736905" lon="12.079861022638077"><ele>247.60000000000002</ele><time>2026-03-28T11:28:21Z</time></trkpt><trkpt lat="42.0787504916586" lon="12.079761884015989"><ele>247.20000000000002</ele><time>2026-03-28T11:28:22Z</time></trkpt><trkpt lat="42.07884157587661" lon="12.07967203078394"><ele>246.8</ele><time>2026-03-28T11:28:23Z</time></trkpt><trkpt lat="42.078924349099545" lon="12.079590237586894"><ele>246.4</ele><time>2026-03-28T11:28:24Z</time></trkpt><trkpt lat="42.078996026941276" lon="12.07951914858581"><ele>246.0</ele><time>2026-03-28T11:28:25Z</time></trkpt><trkpt lat="42.0790699072425" lon="12.079447812465759"><ele>247.20000000000002</ele><time>2026-03-28T11:28:26Z</time></trkpt><trkpt lat="42.07914753887997" lon="12.079367129918172"><ele>248.40000000000003</ele><time>2026-03-28T11:28:27Z</time></trkpt><trkpt lat="42.07923645038018" lon="12.079280183972923"><ele>249.6</ele><time>2026-03-28T11:28:28Z</time></trkpt><trkpt lat="42.07932306067844" lon="12.079198360271905"><ele>250.8</ele><time>2026-03-28T11:28:29Z</time></trkpt><trkpt lat="42.079409121025606" lon="12.079111391847047"><ele>252.0</ele><time>2026-03-28T11:28:30Z</time></trkpt><trkpt lat="42.07949418367697" lon="12.079024375040563"><ele>252.2</ele><time>2026-03-28T11:28:31Z</time></trkpt><trkpt lat="42.07957763503663" lon="12.0789384393781"><ele>252.39999999999998</ele><time>2026-03-28T11:28:32Z</time></trkpt><trkpt lat="42.079658975712476" lon="12.078856103640174"><ele>252.60000000000002</ele><time>2026-03-28T11:28:33Z</time></trkpt><trkpt lat="42.07973696396879" lon="12.078781640060958"><ele>252.8</ele><time>2026-03-28T11:28:34Z</time></trkpt><trkpt lat="42.07981475649314" lon="12.078704496217634"><ele>253.0</ele><time>2026-03-28T11:28:35Z</time></trkpt><trkpt lat="42.0798984331364" lon="12.078620734813029"><ele>253.60000000000002</ele><time>2026-03-28T11:28:36Z</time></trkpt><trkpt lat="42.07998376601758" lon="12.078532294277148"><ele>254.20000000000002</ele><time>2026-03-28T11:28:37Z</time></trkpt><trkpt lat="42.080070895864594" lon="12.078452041208266"><ele>254.8</ele><time>2026-03-28T11:28:38Z</time></trkpt><trkpt lat="42.0801449807427" lon="12.078381355408123"><ele>255.4</ele><time>2026-03-28T11:28:39Z</time></trkpt><trkpt lat="42.08022737352521" lon="12.078299099662077"><ele>256.0</ele><time>2026-03-28T11:28:40Z</time></trkpt><trkpt lat="42.080315216150396" lon="12.078216959552357"><ele>256.0</ele><time>2026-03-28T11:28:41Z</time></trkpt><trkpt lat="42.08040713767921" lon="12.078127348936215"><ele>256.0</ele><time>2026-03-28T11:28:42Z</time></trkpt><trkpt lat="42.080508582960476" lon="12.078026972008663"><ele>256.0</ele><time>2026-03-28T11:28:43Z</time></trkpt><trkpt lat="42.08060924434271" lon="12.077932960356792"><ele>256.0</ele><time>2026-03-28T11:28:44Z</time></trkpt><trkpt lat="42.08070067118211" lon="12.077835864450995"><ele>255.60000000000002</ele><time>2026-03-28T11:28:45Z</time></trkpt><trkpt lat="42.0808020080539" lon="12.077742564527792"><ele>255.20000000000002</ele><time>2026-03-28T11:28:46Z</time></trkpt><trkpt lat="42.080894459106865" lon="12.077649248942041"><ele>254.79999999999998</ele><time>2026-03-28T11:28:47Z</time></trkpt><trkpt lat="42.0809781578423" lon="12.07757056535217"><ele>254.39999999999998</ele><time>2026-03-28T11:28:48Z</time></trkpt><trkpt lat="42.08105113219736" lon="12.077491516057961"><ele>254.0</ele><time>2026-03-28T11:28:49Z</time></trkpt><trkpt lat="42.08112069857327" lon="12.077423062417644"><ele>253.83333333333334</ele><time>2026-03-28T11:28:50Z</time></trkpt><trkpt lat="42.08118369408602" lon="12.077363690267392"><ele>253.66666666666669</ele><time>2026-03-28T11:28:51Z</time></trkpt><trkpt lat="42.08124484545542" lon="12.07730598875328"><ele>253.5</ele><time>2026-03-28T11:28:52Z</time></trkpt><trkpt lat="42.081306728971185" lon="12.077242655882781"><ele>253.33333333333331</ele><time>2026-03-28T11:28:53Z</time></trkpt><trkpt lat="42.08136353347281" lon="12.0771925338583"><ele>253.16666666666666</ele><time>2026-03-28T11:28:54Z</time></trkpt><trkpt lat="42.08145373254174" lon="12.077114338703936"><ele>253.0</ele><time>2026-03-28T11:28:56Z</time></trkpt><trkpt lat="42.08156687212114" lon="12.077126317972839"><ele>253.2</ele><time>2026-03-28T11:28:59Z</time></trkpt><trkpt lat="42.0816358758148" lon="12.077179857440587"><ele>253.4</ele><time>2026-03-28T11:29:00Z</time></trkpt><trkpt lat="42.08171954235751" lon="12.077265226480844"><ele>253.59999999999997</ele><time>2026-03-28T11:29:01Z</time></trkpt><trkpt lat="42.08181104771047" lon="12.07736055272931"><ele>253.79999999999998</ele><time>2026-03-28T11:29:02Z</time></trkpt><trkpt lat="42.081894698896" lon="12.077445479836252"><ele>254.0</ele><time>2026-03-28T11:29:03Z</time></trkpt><trkpt lat="42.08197358807759" lon="12.077524644937174"><ele>254.2</ele><time>2026-03-28T11:29:04Z</time></trkpt><trkpt lat="42.08205517180511" lon="12.077607363391992"><ele>254.39999999999998</ele><time>2026-03-28T11:29:05Z</time></trkpt><trkpt lat="42.082150917819185" lon="12.077696246490092"><ele>254.6</ele><time>2026-03-28T11:29:06Z</time></trkpt><trkpt lat="42.08224767152331" lon="12.077780847238632"><ele>254.8</ele><time>2026-03-28T11:29:07Z</time></trkpt><trkpt lat="42.082337253445786" lon="12.077869537793253"><ele>255.0</ele><time>2026-03-28T11:29:08Z</time></trkpt><trkpt lat="42.08242069107074" lon="12.077959750783728"><ele>255.0</ele><time>2026-03-28T11:29:09Z</time></trkpt><trkpt lat="42.08250453614056" lon="12.078039050211164"><ele>255.0</ele><time>2026-03-28T11:29:10Z</time></trkpt><trkpt lat="42.08259172299751" lon="12.078116582158827"><ele>255.0</ele><time>2026-03-28T11:29:11Z</time></trkpt><trkpt lat="42.08267521261235" lon="12.078203263831028"><ele>255.0</ele><time>2026-03-28T11:29:12Z</time></trkpt><trkpt lat="42.08275605435916" lon="12.0782768370865"><ele>255.0</ele><time>2026-03-28T11:29:13Z</time></trkpt><trkpt lat="42.082843008321674" lon="12.07835591703605"><ele>254.8</ele><time>2026-03-28T11:29:14Z</time></trkpt><trkpt lat="42.08292573811649" lon="12.078436524473357"><ele>254.6</ele><time>2026-03-28T11:29:15Z</time></trkpt><trkpt lat="42.083009856888474" lon="12.078517264940302"><ele>254.39999999999998</ele><time>2026-03-28T11:29:16Z</time></trkpt><trkpt lat="42.08309389912334" lon="12.078603702758858"><ele>254.2</ele><time>2026-03-28T11:29:17Z</time></trkpt><trkpt lat="42.08318273644752" lon="12.078688071833797"><ele>254.0</ele><time>2026-03-28T11:29:18Z</time></trkpt><trkpt lat="42.083267666175786" lon="12.078768506904419"><ele>254.0</ele><time>2026-03-28T11:29:19Z</time></trkpt><trkpt lat="42.08334817752312" lon="12.078841134010428"><ele>253.99999999999997</ele><time>2026-03-28T11:29:20Z</time></trkpt><trkpt lat="42.08342408463219" lon="12.078913262128955"><ele>253.99999999999997</ele><time>2026-03-28T11:29:21Z</time></trkpt><trkpt lat="42.083502293275565" lon="12.078993208758359"><ele>254.0</ele><time>2026-03-28T11:29:22Z</time></trkpt><trkpt lat="42.083588607616" lon="12.07907493381547"><ele>254.0</ele><time>2026-03-28T11:29:23Z</time></trkpt><trkpt lat="42.08367923178042" lon="12.079157504518264"><ele>254.0</ele><time>2026-03-28T11:29:24Z</time></trkpt><trkpt lat="42.08377946144646" lon="12.079247360769767"><ele>254.0</ele><time>2026-03-28T11:29:25Z</time></trkpt><trkpt lat="42.08388726838528" lon="12.079332758740698"><ele>254.0</ele><time>2026-03-28T11:29:26Z</time></trkpt><trkpt lat="42.08400240515732" lon="12.079411331698266"><ele>254.0</ele><time>2026-03-28T11:29:27Z</time></trkpt><trkpt lat="42.08412229825876" lon="12.07947585750782"><ele>254.0</ele><time>2026-03-28T11:29:28Z</time></trkpt><trkpt lat="42.08424735158358" lon="12.079529976775266"><ele>254.0</ele><time>2026-03-28T11:29:29Z</time></trkpt><trkpt lat="42.084376464436446" lon="12.079569767119196"><ele>254.0</ele><time>2026-03-28T11:29:30Z</time></trkpt><trkpt lat="42.084508299152134" lon="12.079595069167297"><ele>254.0</ele><time>2026-03-28T11:29:31Z</time></trkpt><trkpt lat="42.08464352271872" lon="12.079604042759565"><ele>254.0</ele><time>2026-03-28T11:29:32Z</time></trkpt><trkpt lat="42.084793678731394" lon="12.079595519959561"><ele>254.0</ele><time>2026-03-28T11:29:33Z</time></trkpt><trkpt lat="42.084961206519296" lon="12.079594752378899"><ele>254.0</ele><time>2026-03-28T11:29:34Z</time></trkpt><trkpt lat="42.08513544956591" lon="12.07960414223333"><ele>255.0</ele><time>2026-03-28T11:29:35Z</time></trkpt><trkpt lat="42.085295021216844" lon="12.079616192129134"><ele>256.0</ele><time>2026-03-28T11:29:36Z</time></trkpt><trkpt lat="42.08543059395985" lon="12.079673642729139"><ele>257.0</ele><time>2026-03-28T11:29:37Z</time></trkpt><trkpt lat="42.08556865465522" lon="12.079755658092662"><ele>257.0</ele><time>2026-03-28T11:29:38Z</time></trkpt><trkpt lat="42.08571459942135" lon="12.079913250114583"><ele>257.0</ele><time>2026-03-28T11:29:39Z</time></trkpt><trkpt lat="42.085819107949845" lon="12.080040600939368"><ele>257.0</ele><time>2026-03-28T11:29:40Z</time></trkpt><trkpt lat="42.085909964422555" lon="12.080211803548742"><ele>258.0</ele><time>2026-03-28T11:29:41Z</time></trkpt><trkpt lat="42.086005237662405" lon="12.080378272451718"><ele>259.0</ele><time>2026-03-28T11:29:42Z</time></trkpt><trkpt lat="42.086098695512995" lon="12.080539779368053"><ele>260.0</ele><time>2026-03-28T11:29:43Z</time></trkpt><trkpt lat="42.086195597163815" lon="12.080711111400317"><ele>260.0</ele><time>2026-03-28T11:29:44Z</time></trkpt><trkpt lat="42.08629052913181" lon="12.080871158848135"><ele>260.0</ele><time>2026-03-28T11:29:45Z</time></trkpt><trkpt lat="42.086373681674395" lon="12.081023789965794"><ele>260.0</ele><time>2026-03-28T11:29:46Z</time></trkpt><trkpt lat="42.08645432567338" lon="12.081174850712587"><ele>260.0</ele><time>2026-03-28T11:29:47Z</time></trkpt><trkpt lat="42.08653851769091" lon="12.081323948205494"><ele>260.4</ele><time>2026-03-28T11:29:48Z</time></trkpt><trkpt lat="42.086613283258075" lon="12.081455138194386"><ele>260.8</ele><time>2026-03-28T11:29:49Z</time></trkpt><trkpt lat="42.086682189091256" lon="12.081581396960765"><ele>261.2</ele><time>2026-03-28T11:29:50Z</time></trkpt><trkpt lat="42.08674411753752" lon="12.081692462821808"><ele>261.6</ele><time>2026-03-28T11:29:51Z</time></trkpt><trkpt lat="42.08680819388782" lon="12.081807448531528"><ele>262.0</ele><time>2026-03-28T11:29:52Z</time></trkpt><trkpt lat="42.08686248424091" lon="12.08191042758549"><ele>262.25</ele><time>2026-03-28T11:29:53Z</time></trkpt><trkpt lat="42.08691448060889" lon="12.08199402776989"><ele>262.5</ele><time>2026-03-28T11:29:54Z</time></trkpt><trkpt lat="42.08698035104646" lon="12.082113474678215"><ele>262.75</ele><time>2026-03-28T11:29:56Z</time></trkpt><trkpt lat="42.08716289993145" lon="12.081909590545608"><ele>263.0</ele><time>2026-03-28T11:30:01Z</time></trkpt><trkpt lat="42.087185651210675" lon="12.081798831133176"><ele>263.0</ele><time>2026-03-28T11:30:02Z</time></trkpt><trkpt lat="42.08720123717083" lon="12.081655401100369"><ele>263.0</ele><time>2026-03-28T11:30:03Z</time></trkpt><trkpt lat="42.08723136764527" lon="12.08153060022278"><ele>263.0</ele><time>2026-03-28T11:30:04Z</time></trkpt><trkpt lat="42.08726387038622" lon="12.081391515838831"><ele>263.0</ele><time>2026-03-28T11:30:05Z</time></trkpt><trkpt lat="42.08727950166593" lon="12.081240551688015"><ele>263.0</ele><time>2026-03-28T11:30:06Z</time></trkpt><trkpt lat="42.087298784577" lon="12.081104360205948"><ele>262.8</ele><time>2026-03-28T11:30:07Z</time></trkpt><trkpt lat="42.08732425930128" lon="12.080979401332241"><ele>262.6</ele><time>2026-03-28T11:30:08Z</time></trkpt><trkpt lat="42.087332649095856" lon="12.080860131440373"><ele>262.4</ele><time>2026-03-28T11:30:09Z</time></trkpt><trkpt lat="42.08732205743609" lon="12.08073961876321"><ele>262.2</ele><time>2026-03-28T11:30:10Z</time></trkpt><trkpt lat="42.08730928112165" lon="12.080606428690608"><ele>262.0</ele><time>2026-03-28T11:30:11Z</time></trkpt><trkpt lat="42.087262335362844" lon="12.080480478580098"><ele>262.0</ele><time>2026-03-28T11:30:12Z</time></trkpt><trkpt lat="42.08721260401767" lon="12.080351248512132"><ele>262.0</ele><time>2026-03-28T11:30:13Z</time></trkpt><trkpt lat="42.08716765507431" lon="12.080225363078018"><ele>262.0</ele><time>2026-03-28T11:30:14Z</time></trkpt><trkpt lat="42.087123971685" lon="12.080103022002762"><ele>262.0</ele><time>2026-03-28T11:30:15Z</time></trkpt><trkpt lat="42.087077210256055" lon="12.07997206050241"><ele>262.0</ele><time>2026-03-28T11:30:16Z</time></trkpt><trkpt lat="42.087030282210435" lon="12.07984047882417"><ele>262.0</ele><time>2026-03-28T11:30:17Z</time></trkpt><trkpt lat="42.08698515529662" lon="12.079711830915102"><ele>262.0</ele><time>2026-03-28T11:30:18Z</time></trkpt><trkpt lat="42.086939390221744" lon="12.079581363919802"><ele>262.0</ele><time>2026-03-28T11:30:19Z</time></trkpt><trkpt lat="42.0868835110645" lon="12.079457013683603"><ele>262.0</ele><time>2026-03-28T11:30:20Z</time></trkpt><trkpt lat="42.08683765563681" lon="12.07932747007407"><ele>262.0</ele><time>2026-03-28T11:30:21Z</time></trkpt><trkpt lat="42.086790517053764" lon="12.079197444416913"><ele>261.8</ele><time>2026-03-28T11:30:22Z</time></trkpt><trkpt lat="42.086740430876695" lon="12.07907375581654"><ele>261.6</ele><time>2026-03-28T11:30:23Z</time></trkpt><trkpt lat="42.08671279010152" lon="12.078949460347678"><ele>261.40000000000003</ele><time>2026-03-28T11:30:24Z</time></trkpt><trkpt lat="42.086660343794016" lon="12.07885148630152"><ele>261.2</ele><time>2026-03-28T11:30:25Z</time></trkpt><trkpt lat="42.08662398221668" lon="12.078739343994886"><ele>261.0</ele><time>2026-03-28T11:30:26Z</time></trkpt><trkpt lat="42.08659467953864" lon="12.078627992446277"><ele>261.0</ele><time>2026-03-28T11:30:27Z</time></trkpt><trkpt lat="42.086557572506585" lon="12.078516505593079"><ele>261.0</ele><time>2026-03-28T11:30:28Z</time></trkpt><trkpt lat="42.0865096957977" lon="12.078390777393324"><ele>261.0</ele><time>2026-03-28T11:30:29Z</time></trkpt><trkpt lat="42.086459939088506" lon="12.078266148948948"><ele>261.0</ele><time>2026-03-28T11:30:30Z</time></trkpt><trkpt lat="42.08641661946143" lon="12.078135600725528"><ele>261.0</ele><time>2026-03-28T11:30:31Z</time></trkpt><trkpt lat="42.08637260881646" lon="12.078008980115033"><ele>261.0</ele><time>2026-03-28T11:30:32Z</time></trkpt><trkpt lat="42.086328474049544" lon="12.077874421522884"><ele>261.0</ele><time>2026-03-28T11:30:33Z</time></trkpt><trkpt lat="42.08628512044016" lon="12.077743493805217"><ele>261.0</ele><time>2026-03-28T11:30:34Z</time></trkpt><trkpt lat="42.086251514739814" lon="12.077616225431473"><ele>261.0</ele><time>2026-03-28T11:30:35Z</time></trkpt><trkpt lat="42.08620440670897" lon="12.077482229225888"><ele>261.0</ele><time>2026-03-28T11:30:36Z</time></trkpt><trkpt lat="42.086157030004244" lon="12.07734921638937"><ele>261.5</ele><time>2026-03-28T11:30:37Z</time></trkpt><trkpt lat="42.086091692398384" lon="12.077205959915501"><ele>262.0</ele><time>2026-03-28T11:30:38Z</time></trkpt><trkpt lat="42.08604396602186" lon="12.077064952369428"><ele>262.5</ele><time>2026-03-28T11:30:39Z</time></trkpt><trkpt lat="42.08599832204317" lon="12.076926339844224"><ele>263.0</ele><time>2026-03-28T11:30:40Z</time></trkpt><trkpt lat="42.085951751170754" lon="12.076787045384338"><ele>263.0</ele><time>2026-03-28T11:30:41Z</time></trkpt><trkpt lat="42.08590361881274" lon="12.07664494610204"><ele>263.0</ele><time>2026-03-28T11:30:42Z</time></trkpt><trkpt lat="42.08585392653857" lon="12.076508257359471"><ele>263.0</ele><time>2026-03-28T11:30:43Z</time></trkpt><trkpt lat="42.08580575466941" lon="12.076364202775567"><ele>263.0</ele><time>2026-03-28T11:30:44Z</time></trkpt><trkpt lat="42.08575828532359" lon="12.076222957285262"><ele>264.0</ele><time>2026-03-28T11:30:45Z</time></trkpt><trkpt lat="42.085707784697384" lon="12.076077361850194"><ele>265.0</ele><time>2026-03-28T11:30:46Z</time></trkpt><trkpt lat="42.085655355328" lon="12.075929227012209"><ele>266.0</ele><time>2026-03-28T11:30:47Z</time></trkpt><trkpt lat="42.085597023789774" lon="12.07577768275974"><ele>267.0</ele><time>2026-03-28T11:30:48Z</time></trkpt><trkpt lat="42.08553653912465" lon="12.075625854994623"><ele>267.25</ele><time>2026-03-28T11:30:49Z</time></trkpt><trkpt lat="42.085476955658336" lon="12.075473288721367"><ele>267.5</ele><time>2026-03-28T11:30:50Z</time></trkpt><trkpt lat="42.085423693686" lon="12.075319450965024"><ele>267.75</ele><time>2026-03-28T11:30:51Z</time></trkpt><trkpt lat="42.08536854668872" lon="12.075165261332705"><ele>268.0</ele><time>2026-03-28T11:30:52Z</time></trkpt><trkpt lat="42.08531525603536" lon="12.075012633133161"><ele>267.25</ele><time>2026-03-28T11:30:53Z</time></trkpt><trkpt lat="42.085261377394744" lon="12.074851577334549"><ele>266.5</ele><time>2026-03-28T11:30:54Z</time></trkpt><trkpt lat="42.085210478646765" lon="12.074681330880567"><ele>265.75</ele><time>2026-03-28T11:30:55Z</time></trkpt><trkpt lat="42.0851584788229" lon="12.074507416671961"><ele>265.0</ele><time>2026-03-28T11:30:56Z</time></trkpt><trkpt lat="42.08510463918635" lon="12.074338452961884"><ele>265.0</ele><time>2026-03-28T11:30:57Z</time></trkpt><trkpt lat="42.08505025538843" lon="12.07416095202533"><ele>265.0</ele><time>2026-03-28T11:30:58Z</time></trkpt><trkpt lat="42.08499502432505" lon="12.073980582925042"><ele>265.0</ele><time>2026-03-28T11:30:59Z</time></trkpt><trkpt lat="42.084945102778924" lon="12.073807196149165"><ele>265.0</ele><time>2026-03-28T11:31:00Z</time></trkpt><trkpt lat="42.08489550554216" lon="12.073634206760886"><ele>263.0</ele><time>2026-03-28T11:31:01Z</time></trkpt><trkpt lat="42.084840339944414" lon="12.073452245625706"><ele>261.0</ele><time>2026-03-28T11:31:02Z</time></trkpt><trkpt lat="42.08478242288573" lon="12.073270367990142"><ele>259.0</ele><time>2026-03-28T11:31:03Z</time></trkpt><trkpt lat="42.08472412138457" lon="12.073092948798159"><ele>257.0</ele><time>2026-03-28T11:31:04Z</time></trkpt><trkpt lat="42.084665399002866" lon="12.072914676692108"><ele>257.0</ele><time>2026-03-28T11:31:05Z</time></trkpt><trkpt lat="42.084616427581594" lon="12.072712495902083"><ele>257.0</ele><time>2026-03-28T11:31:06Z</time></trkpt><trkpt lat="42.08455621007148" lon="12.072550418355833"><ele>257.0</ele><time>2026-03-28T11:31:07Z</time></trkpt><trkpt lat="42.084500590029016" lon="12.072367393223905"><ele>257.0</ele><time>2026-03-28T11:31:08Z</time></trkpt><trkpt lat="42.08444774384791" lon="12.072189712817533"><ele>257.5</ele><time>2026-03-28T11:31:09Z</time></trkpt><trkpt lat="42.08439206096733" lon="12.072014080351057"><ele>258.0</ele><time>2026-03-28T11:31:10Z</time></trkpt><trkpt lat="42.08433308375373" lon="12.071858964073222"><ele>258.5</ele><time>2026-03-28T11:31:11Z</time></trkpt><trkpt lat="42.08427349063223" lon="12.071727381757146"><ele>259.0</ele><time>2026-03-28T11:31:12Z</time></trkpt><trkpt lat="42.08420887698495" lon="12.071602367098503"><ele>259.0</ele><time>2026-03-28T11:31:13Z</time></trkpt><trkpt lat="42.08412801757117" lon="12.071456496289008"><ele>259.0</ele><time>2026-03-28T11:31:14Z</time></trkpt><trkpt lat="42.08404234379368" lon="12.071319284372523"><ele>259.0</ele><time>2026-03-28T11:31:15Z</time></trkpt><trkpt lat="42.08395638047287" lon="12.071179736515319"><ele>259.0</ele><time>2026-03-28T11:31:16Z</time></trkpt><trkpt lat="42.083889012387054" lon="12.07103665313155"><ele>259.2</ele><time>2026-03-28T11:31:17Z</time></trkpt><trkpt lat="42.08383380558046" lon="12.07090043973172"><ele>259.4</ele><time>2026-03-28T11:31:18Z</time></trkpt><trkpt lat="42.08378977106188" lon="12.07077850340643"><ele>259.6</ele><time>2026-03-28T11:31:19Z</time></trkpt><trkpt lat="42.0837631814281" lon="12.070687181625374"><ele>259.8</ele><time>2026-03-28T11:31:20Z</time></trkpt><trkpt lat="42.08375191865206" lon="12.07060172727973"><ele>260.0</ele><time>2026-03-28T11:31:21Z</time></trkpt><trkpt lat="42.08378586941281" lon="12.070410236631323"><ele>260.0</ele><time>2026-03-28T11:31:23Z</time></trkpt><trkpt lat="42.083835264780234" lon="12.070286468316384"><ele>260.0</ele><time>2026-03-28T11:31:24Z</time></trkpt><trkpt lat="42.083880757941344" lon="12.070154161830288"><ele>260.0</ele><time>2026-03-28T11:31:25Z</time></trkpt><trkpt lat="42.08392029148842" lon="12.070016528132006"><ele>260.0</ele><time>2026-03-28T11:31:26Z</time></trkpt><trkpt lat="42.0839585569489" lon="12.069881478909135"><ele>260.0</ele><time>2026-03-28T11:31:27Z</time></trkpt><trkpt lat="42.083997328214146" lon="12.069733504680025"><ele>260.0</ele><time>2026-03-28T11:31:28Z</time></trkpt><trkpt lat="42.084032464874255" lon="12.069589636705963"><ele>260.0</ele><time>2026-03-28T11:31:29Z</time></trkpt><trkpt lat="42.08405911263837" lon="12.069467768204127"><ele>260.0</ele><time>2026-03-28T11:31:30Z</time></trkpt><trkpt lat="42.08409104951552" lon="12.069354085746678"><ele>260.0</ele><time>2026-03-28T11:31:31Z</time></trkpt><trkpt lat="42.0841206603706" lon="12.06922721515281"><ele>260.0</ele><time>2026-03-28T11:31:32Z</time></trkpt><trkpt lat="42.08415624189704" lon="12.069098068779772"><ele>260.0</ele><time>2026-03-28T11:31:33Z</time></trkpt><trkpt lat="42.08419423298808" lon="12.068953814127399"><ele>260.0</ele><time>2026-03-28T11:31:34Z</time></trkpt><trkpt lat="42.08422424341836" lon="12.068820358987649"><ele>260.0</ele><time>2026-03-28T11:31:35Z</time></trkpt><trkpt lat="42.08425221727802" lon="12.068680128556753"><ele>260.0</ele><time>2026-03-28T11:31:36Z</time></trkpt><trkpt lat="42.08427750688765" lon="12.068537905395546"><ele>260.0</ele><time>2026-03-28T11:31:37Z</time></trkpt><trkpt lat="42.08429745454558" lon="12.06838835619022"><ele>259.8</ele><time>2026-03-28T11:31:38Z</time></trkpt><trkpt lat="42.084311967820746" lon="12.068238756842549"><ele>259.6</ele><time>2026-03-28T11:31:39Z</time></trkpt><trkpt lat="42.084325625486514" lon="12.068085103006922"><ele>259.4</ele><time>2026-03-28T11:31:40Z</time></trkpt><trkpt lat="42.084345363649504" lon="12.067936449471189"><ele>259.2</ele><time>2026-03-28T11:31:41Z</time></trkpt><trkpt lat="42.08436881992009" lon="12.067793021195973"><ele>259.0</ele><time>2026-03-28T11:31:42Z</time></trkpt><trkpt lat="42.084393352231125" lon="12.067653503751874"><ele>259.0</ele><time>2026-03-28T11:31:43Z</time></trkpt><trkpt lat="42.08443426277518" lon="12.067517266788666"><ele>259.0</ele><time>2026-03-28T11:31:44Z</time></trkpt><trkpt lat="42.08449640017464" lon="12.06739723713489"><ele>259.0</ele><time>2026-03-28T11:31:45Z</time></trkpt><trkpt lat="42.08457308941288" lon="12.067272673333749"><ele>259.0</ele><time>2026-03-28T11:31:46Z</time></trkpt><trkpt lat="42.084660060307804" lon="12.067160430018822"><ele>259.0</ele><time>2026-03-28T11:31:47Z</time></trkpt><trkpt lat="42.084734056407996" lon="12.067050479581205"><ele>259.0</ele><time>2026-03-28T11:31:48Z</time></trkpt><trkpt lat="42.08481385364655" lon="12.06692955760815"><ele>259.0</ele><time>2026-03-28T11:31:49Z</time></trkpt><trkpt lat="42.084893998876666" lon="12.06681260105724"><ele>259.0</ele><time>2026-03-28T11:31:50Z</time></trkpt><trkpt lat="42.084966571875185" lon="12.066702799337273"><ele>258.2</ele><time>2026-03-28T11:31:51Z</time></trkpt><trkpt lat="42.08503418742038" lon="12.066597231840277"><ele>257.4</ele><time>2026-03-28T11:31:52Z</time></trkpt><trkpt lat="42.08509950348992" lon="12.066487309028833"><ele>256.6</ele><time>2026-03-28T11:31:53Z</time></trkpt><trkpt lat="42.0851643767873" lon="12.066383767482161"><ele>255.8</ele><time>2026-03-28T11:31:54Z</time></trkpt><trkpt lat="42.08524719371291" lon="12.066271971602637"><ele>255.0</ele><time>2026-03-28T11:31:55Z</time></trkpt><trkpt lat="42.08529797800201" lon="12.06618618546572"><ele>255.0</ele><time>2026-03-28T11:31:56Z</time></trkpt><trkpt lat="42.08534620922411" lon="12.066118652807365"><ele>255.0</ele><time>2026-03-28T11:31:57Z</time></trkpt><trkpt lat="42.08539414438609" lon="12.066004280764256"><ele>255.0</ele><time>2026-03-28T11:31:59Z</time></trkpt><trkpt lat="42.085321959982714" lon="12.065840877728276"><ele>255.0</ele><time>2026-03-28T11:32:02Z</time></trkpt><trkpt lat="42.08526833698503" lon="12.065763777902548"><ele>255.0</ele><time>2026-03-28T11:32:03Z</time></trkpt><trkpt lat="42.0852043229588" lon="12.065685398742863"><ele>254.4</ele><time>2026-03-28T11:32:04Z</time></trkpt><trkpt lat="42.08514055342352" lon="12.065607319006565"><ele>253.8</ele><time>2026-03-28T11:32:05Z</time></trkpt><trkpt lat="42.08508186258893" lon="12.065534845824192"><ele>253.2</ele><time>2026-03-28T11:32:06Z</time></trkpt><trkpt lat="42.085002823600796" lon="12.065435933113108"><ele>252.6</ele><time>2026-03-28T11:32:07Z</time></trkpt><trkpt lat="42.084903236210074" lon="12.065311305273465"><ele>252.0</ele><time>2026-03-28T11:32:08Z</time></trkpt><trkpt lat="42.08481880642397" lon="12.065205646249979"><ele>252.0</ele><time>2026-03-28T11:32:09Z</time></trkpt><trkpt lat="42.084726548347746" lon="12.06510013828051"><ele>252.0</ele><time>2026-03-28T11:32:10Z</time></trkpt><trkpt lat="42.084635359400025" lon="12.064993646109086"><ele>252.0</ele><time>2026-03-28T11:32:11Z</time></trkpt><trkpt lat="42.084528672677074" lon="12.064887814038599"><ele>252.0</ele><time>2026-03-28T11:32:12Z</time></trkpt><trkpt lat="42.08445185046972" lon="12.064763441757076"><ele>252.0</ele><time>2026-03-28T11:32:13Z</time></trkpt><trkpt lat="42.08436473460808" lon="12.064656528920779"><ele>252.0</ele><time>2026-03-28T11:32:14Z</time></trkpt><trkpt lat="42.08427989026325" lon="12.064557821635509"><ele>252.0</ele><time>2026-03-28T11:32:15Z</time></trkpt><trkpt lat="42.0841982402574" lon="12.06446335990401"><ele>252.0</ele><time>2026-03-28T11:32:16Z</time></trkpt><trkpt lat="42.084128771367084" lon="12.064382990614876"><ele>252.0</ele><time>2026-03-28T11:32:17Z</time></trkpt><trkpt lat="42.08406651177434" lon="12.064335143135281"><ele>252.5</ele><time>2026-03-28T11:32:18Z</time></trkpt><trkpt lat="42.08396245036938" lon="12.064202703328888"><ele>253.0</ele><time>2026-03-28T11:32:20Z</time></trkpt><trkpt lat="42.08388829818983" lon="12.06409377000635"><ele>253.5</ele><time>2026-03-28T11:32:21Z</time></trkpt><trkpt lat="42.08380207670142" lon="12.063986883096103"><ele>254.0</ele><time>2026-03-28T11:32:22Z</time></trkpt><trkpt lat="42.08371031326435" lon="12.063900964523285"><ele>252.75</ele><time>2026-03-28T11:32:23Z</time></trkpt><trkpt lat="42.08362341620399" lon="12.063766460774596"><ele>251.5</ele><time>2026-03-28T11:32:24Z</time></trkpt><trkpt lat="42.0835252597695" lon="12.063661700035498"><ele>250.25</ele><time>2026-03-28T11:32:25Z</time></trkpt><trkpt lat="42.08343286074227" lon="12.063596898237945"><ele>249.0</ele><time>2026-03-28T11:32:26Z</time></trkpt><trkpt lat="42.08333610179781" lon="12.06352211999617"><ele>250.2</ele><time>2026-03-28T11:32:27Z</time></trkpt><trkpt lat="42.08322399038643" lon="12.063479923399186"><ele>251.39999999999998</ele><time>2026-03-28T11:32:28Z</time></trkpt><trkpt lat="42.083117661492366" lon="12.063444730728488"><ele>252.6</ele><time>2026-03-28T11:32:29Z</time></trkpt><trkpt lat="42.083033177667254" lon="12.063411101096376"><ele>253.8</ele><time>2026-03-28T11:32:30Z</time></trkpt><trkpt lat="42.082953437351485" lon="12.063385346493275"><ele>255.0</ele><time>2026-03-28T11:32:31Z</time></trkpt><trkpt lat="42.08288012695078" lon="12.063332945214631"><ele>255.0</ele><time>2026-03-28T11:32:32Z</time></trkpt><trkpt lat="42.08282182091386" lon="12.063288653021559"><ele>255.0</ele><time>2026-03-28T11:32:33Z</time></trkpt><trkpt lat="42.08276844497501" lon="12.063242879319638"><ele>255.0</ele><time>2026-03-28T11:32:34Z</time></trkpt><trkpt lat="42.08273269036079" lon="12.063172408402533"><ele>255.0</ele><time>2026-03-28T11:32:35Z</time></trkpt><trkpt lat="42.08269432664199" lon="12.063074881447868"><ele>255.0</ele><time>2026-03-28T11:32:36Z</time></trkpt><trkpt lat="42.08265209710969" lon="12.062950274613206"><ele>255.0</ele><time>2026-03-28T11:32:37Z</time></trkpt><trkpt lat="42.08259293754577" lon="12.062817900229511"><ele>253.8</ele><time>2026-03-28T11:32:38Z</time></trkpt><trkpt lat="42.08255452351116" lon="12.062668982809464"><ele>252.6</ele><time>2026-03-28T11:32:39Z</time></trkpt><trkpt lat="42.08251142924964" lon="12.062528786610416"><ele>251.39999999999998</ele><time>2026-03-28T11:32:40Z</time></trkpt><trkpt lat="42.08246926452248" lon="12.062410351513149"><ele>250.2</ele><time>2026-03-28T11:32:41Z</time></trkpt><trkpt lat="42.082423965635975" lon="12.062286555462729"><ele>249.0</ele><time>2026-03-28T11:32:42Z</time></trkpt><trkpt lat="42.08237843657976" lon="12.062166474774974"><ele>249.0</ele><time>2026-03-28T11:32:43Z</time></trkpt><trkpt lat="42.08233017432554" lon="12.062062249844836"><ele>248.99999999999997</ele><time>2026-03-28T11:32:44Z</time></trkpt><trkpt lat="42.08222978366067" lon="12.061844756863287"><ele>248.99999999999997</ele><time>2026-03-28T11:32:46Z</time></trkpt><trkpt lat="42.08218379196853" lon="12.06174363839245"><ele>249.0</ele><time>2026-03-28T11:32:47Z</time></trkpt><trkpt lat="42.08213845972584" lon="12.061666551993406"><ele>249.0</ele><time>2026-03-28T11:32:48Z</time></trkpt><trkpt lat="42.08208532307007" lon="12.061607105369772"><ele>247.5</ele><time>2026-03-28T11:32:49Z</time></trkpt><trkpt lat="42.08201888732501" lon="12.061571422700098"><ele>246.0</ele><time>2026-03-28T11:32:50Z</time></trkpt><trkpt lat="42.08193971466086" lon="12.06154959359994"><ele>244.5</ele><time>2026-03-28T11:32:51Z</time></trkpt><trkpt lat="42.08186476317998" lon="12.061503865262475"><ele>243.0</ele><time>2026-03-28T11:32:52Z</time></trkpt><trkpt lat="42.08178421886975" lon="12.061468783576546"><ele>241.5</ele><time>2026-03-28T11:32:53Z</time></trkpt><trkpt lat="42.08171217144641" lon="12.061424875459299"><ele>240.0</ele><time>2026-03-28T11:32:54Z</time></trkpt><trkpt lat="42.08164312338604" lon="12.06139205703807"><ele>240.0</ele><time>2026-03-28T11:32:55Z</time></trkpt><trkpt lat="42.081595362895605" lon="12.061323130009981"><ele>240.0</ele><time>2026-03-28T11:32:56Z</time></trkpt><trkpt lat="42.08156181442569" lon="12.061246242919637"><ele>240.0</ele><time>2026-03-28T11:32:57Z</time></trkpt><trkpt lat="42.08157787938038" lon="12.06113168061533"><ele>240.0</ele><time>2026-03-28T11:32:58Z</time></trkpt><trkpt lat="42.08157589005744" lon="12.0610158634793"><ele>240.0</ele><time>2026-03-28T11:32:59Z</time></trkpt><trkpt lat="42.08158760424662" lon="12.060905858490939"><ele>240.0</ele><time>2026-03-28T11:33:00Z</time></trkpt><trkpt lat="42.0816089240291" lon="12.060798097472311"><ele>239.42857142857144</ele><time>2026-03-28T11:33:01Z</time></trkpt><trkpt lat="42.081629722225514" lon="12.060695977682082"><ele>238.85714285714283</ele><time>2026-03-28T11:33:02Z</time></trkpt><trkpt lat="42.081636590014966" lon="12.060599492166125"><ele>238.28571428571428</ele><time>2026-03-28T11:33:03Z</time></trkpt><trkpt lat="42.08162503921109" lon="12.060509561247768"><ele>237.71428571428572</ele><time>2026-03-28T11:33:04Z</time></trkpt><trkpt lat="42.081607555664995" lon="12.060401427699775"><ele>237.14285714285717</ele><time>2026-03-28T11:33:06Z</time></trkpt><trkpt lat="42.081574203782516" lon="12.060316157075537"><ele>236.57142857142856</ele><time>2026-03-28T11:33:29Z</time></trkpt><trkpt lat="42.08158957140938" lon="12.060228850011388"><ele>236.0</ele><time>2026-03-28T11:34:19Z</time></trkpt><trkpt lat="42.081611874155065" lon="12.060135574443835"><ele>236.0</ele><time>2026-03-28T11:34:21Z</time></trkpt><trkpt lat="42.08166265080197" lon="12.060063862791317"><ele>236.00000000000003</ele><time>2026-03-28T11:34:22Z</time></trkpt><trkpt lat="42.08173862662664" lon="12.059992744612911"><ele>236.00000000000003</ele><time>2026-03-28T11:34:23Z</time></trkpt><trkpt lat="42.08183350885689" lon="12.059927124411965"><ele>236.0</ele><time>2026-03-28T11:34:24Z</time></trkpt><trkpt lat="42.081929830635865" lon="12.059859603700081"><ele>236.0</ele><time>2026-03-28T11:34:25Z</time></trkpt><trkpt lat="42.082025822824036" lon="12.059786550291564"><ele>237.0</ele><time>2026-03-28T11:34:26Z</time></trkpt><trkpt lat="42.08211959193185" lon="12.059695859409452"><ele>238.0</ele><time>2026-03-28T11:34:27Z</time></trkpt><trkpt lat="42.08221430009013" lon="12.059594349525183"><ele>239.0</ele><time>2026-03-28T11:34:28Z</time></trkpt><trkpt lat="42.08230823734492" lon="12.059488916983756"><ele>240.0</ele><time>2026-03-28T11:34:29Z</time></trkpt><trkpt lat="42.08238630335378" lon="12.059384558212155"><ele>239.4</ele><time>2026-03-28T11:34:30Z</time></trkpt><trkpt lat="42.08246559884243" lon="12.05926235992247"><ele>238.8</ele><time>2026-03-28T11:34:31Z</time></trkpt><trkpt lat="42.082531967502895" lon="12.05912935228212"><ele>238.2</ele><time>2026-03-28T11:34:32Z</time></trkpt><trkpt lat="42.08258911930909" lon="12.059014739000462"><ele>237.6</ele><time>2026-03-28T11:34:33Z</time></trkpt><trkpt lat="42.08265607071084" lon="12.058932528922895"><ele>237.0</ele><time>2026-03-28T11:34:34Z</time></trkpt><trkpt lat="42.082709958155284" lon="12.058853693633"><ele>239.5</ele><time>2026-03-28T11:34:35Z</time></trkpt><trkpt lat="42.08279369643052" lon="12.058816304922928"><ele>242.0</ele><time>2026-03-28T11:34:36Z</time></trkpt><trkpt lat="42.08290379168957" lon="12.05879915233186"><ele>244.5</ele><time>2026-03-28T11:34:37Z</time></trkpt><trkpt lat="42.083025496180866" lon="12.05879053814746"><ele>247.0</ele><time>2026-03-28T11:34:38Z</time></trkpt><trkpt lat="42.08315409746892" lon="12.058770251805889"><ele>247.25</ele><time>2026-03-28T11:34:39Z</time></trkpt><trkpt lat="42.08327310306382" lon="12.058735891091876"><ele>247.5</ele><time>2026-03-28T11:34:40Z</time></trkpt><trkpt lat="42.08339210021609" lon="12.05870707797551"><ele>247.75</ele><time>2026-03-28T11:34:41Z</time></trkpt><trkpt lat="42.08352584653136" lon="12.058669720951428"><ele>248.0</ele><time>2026-03-28T11:34:42Z</time></trkpt><trkpt lat="42.083645294106255" lon="12.05863034329968"><ele>248.0</ele><time>2026-03-28T11:34:43Z</time></trkpt><trkpt lat="42.08374953077521" lon="12.058599727101731"><ele>248.0</ele><time>2026-03-28T11:34:44Z</time></trkpt><trkpt lat="42.083839023530125" lon="12.058567843177672"><ele>248.0</ele><time>2026-03-28T11:34:45Z</time></trkpt><trkpt lat="42.08392553706816" lon="12.058510140666588"><ele>248.0</ele><time>2026-03-28T11:34:46Z</time></trkpt><trkpt lat="42.084021497996275" lon="12.058444247316244"><ele>248.0</ele><time>2026-03-28T11:34:47Z</time></trkpt><trkpt lat="42.08412330218335" lon="12.0583807032619"><ele>248.0</ele><time>2026-03-28T11:34:48Z</time></trkpt><trkpt lat="42.08422460777024" lon="12.058337353684388"><ele>248.0</ele><time>2026-03-28T11:34:49Z</time></trkpt><trkpt lat="42.08429619105813" lon="12.058267291878758"><ele>248.0</ele><time>2026-03-28T11:34:50Z</time></trkpt><trkpt lat="42.08435335529171" lon="12.058199932397281"><ele>248.0</ele><time>2026-03-28T11:34:51Z</time></trkpt><trkpt lat="42.08442707940056" lon="12.05812864056404"><ele>248.0</ele><time>2026-03-28T11:34:52Z</time></trkpt><trkpt lat="42.08447905570364" lon="12.058008921662893"><ele>250.5</ele><time>2026-03-28T11:34:53Z</time></trkpt><trkpt lat="42.084534757922604" lon="12.057867188918332"><ele>253.0</ele><time>2026-03-28T11:34:54Z</time></trkpt><trkpt lat="42.084603937328" lon="12.05771376712986"><ele>255.5</ele><time>2026-03-28T11:34:55Z</time></trkpt><trkpt lat="42.08469080682742" lon="12.05756455525493"><ele>258.0</ele><time>2026-03-28T11:34:56Z</time></trkpt><trkpt lat="42.08478267992008" lon="12.057430466226313"><ele>259.2</ele><time>2026-03-28T11:34:57Z</time></trkpt><trkpt lat="42.084869655719885" lon="12.05731490409777"><ele>260.4</ele><time>2026-03-28T11:34:58Z</time></trkpt><trkpt lat="42.08493579261766" lon="12.057214347254275"><ele>261.59999999999997</ele><time>2026-03-28T11:34:59Z</time></trkpt><trkpt lat="42.08497409000501" lon="12.057111806416788"><ele>262.8</ele><time>2026-03-28T11:35:00Z</time></trkpt><trkpt lat="42.08498781063592" lon="12.056998628049774"><ele>264.0</ele><time>2026-03-28T11:35:01Z</time></trkpt><trkpt lat="42.08498549678771" lon="12.056865721779227"><ele>264.5</ele><time>2026-03-28T11:35:02Z</time></trkpt><trkpt lat="42.08496590321983" lon="12.056717265257893"><ele>265.0</ele><time>2026-03-28T11:35:03Z</time></trkpt><trkpt lat="42.08494564161832" lon="12.056554477068293"><ele>265.5</ele><time>2026-03-28T11:35:04Z</time></trkpt><trkpt lat="42.08494611368283" lon="12.056388706046812"><ele>266.0</ele><time>2026-03-28T11:35:05Z</time></trkpt><trkpt lat="42.08492247247968" lon="12.056254292276511"><ele>264.33333333333337</ele><time>2026-03-28T11:35:06Z</time></trkpt><trkpt lat="42.084938090049604" lon="12.056137438492659"><ele>262.6666666666667</ele><time>2026-03-28T11:35:07Z</time></trkpt><trkpt lat="42.084937741201585" lon="12.056028692977721"><ele>261.0</ele><time>2026-03-28T11:35:08Z</time></trkpt><trkpt lat="42.08497610410127" lon="12.055935838385789"><ele>259.3333333333333</ele><time>2026-03-28T11:35:09Z</time></trkpt><trkpt lat="42.08502938898884" lon="12.05584053937626"><ele>257.66666666666663</ele><time>2026-03-28T11:35:10Z</time></trkpt><trkpt lat="42.08507392131378" lon="12.055768011325258"><ele>256.0</ele><time>2026-03-28T11:35:11Z</time></trkpt><trkpt lat="42.08513362863565" lon="12.055676765005716"><ele>256.0</ele><time>2026-03-28T11:35:12Z</time></trkpt><trkpt lat="42.08519559683422" lon="12.055594405674865"><ele>256.0</ele><time>2026-03-28T11:35:13Z</time></trkpt><trkpt lat="42.08526256080993" lon="12.055513139956284"><ele>256.0</ele><time>2026-03-28T11:35:14Z</time></trkpt><trkpt lat="42.08532899441892" lon="12.05542100473724"><ele>256.0</ele><time>2026-03-28T11:35:15Z</time></trkpt><trkpt lat="42.08537840049277" lon="12.055311986173933"><ele>256.0</ele><time>2026-03-28T11:35:16Z</time></trkpt><trkpt lat="42.08541536175705" lon="12.055181090441696"><ele>256.0</ele><time>2026-03-28T11:35:17Z</time></trkpt><trkpt lat="42.08545902990126" lon="12.055050366296282"><ele>256.0</ele><time>2026-03-28T11:35:18Z</time></trkpt><trkpt lat="42.08549036739769" lon="12.054920837881305"><ele>256.0</ele><time>2026-03-28T11:35:19Z</time></trkpt><trkpt lat="42.08550731098769" lon="12.05479724811414"><ele>256.0</ele><time>2026-03-28T11:35:20Z</time></trkpt><trkpt lat="42.085543507819104" lon="12.054689901198422"><ele>256.0</ele><time>2026-03-28T11:35:21Z</time></trkpt><trkpt lat="42.08557652518385" lon="12.054581602616441"><ele>255.0</ele><time>2026-03-28T11:35:22Z</time></trkpt><trkpt lat="42.08561743365118" lon="12.054471551973903"><ele>254.00000000000003</ele><time>2026-03-28T11:35:23Z</time></trkpt><trkpt lat="42.08567479380113" lon="12.054339925434796"><ele>253.00000000000003</ele><time>2026-03-28T11:35:24Z</time></trkpt><trkpt lat="42.085730462713194" lon="12.054232260257912"><ele>252.0</ele><time>2026-03-28T11:35:25Z</time></trkpt><trkpt lat="42.085803201911965" lon="12.054146889293712"><ele>251.0</ele><time>2026-03-28T11:35:26Z</time></trkpt><trkpt lat="42.085883199644805" lon="12.054101615997551"><ele>251.00000000000003</ele><time>2026-03-28T11:35:27Z</time></trkpt><trkpt lat="42.08594780153171" lon="12.054028871659005"><ele>251.0</ele><time>2026-03-28T11:35:28Z</time></trkpt><trkpt lat="42.08600797578889" lon="12.053961112991626"><ele>251.0</ele><time>2026-03-28T11:35:29Z</time></trkpt><trkpt lat="42.085999312504704" lon="12.053777031796322"><ele>251.0</ele><time>2026-03-28T11:35:30Z</time></trkpt><trkpt lat="42.08603526233327" lon="12.053700404593028"><ele>251.00000000000003</ele><time>2026-03-28T11:35:31Z</time></trkpt><trkpt lat="42.08606727344015" lon="12.053621613165383"><ele>251.0</ele><time>2026-03-28T11:35:32Z</time></trkpt><trkpt lat="42.08610693927647" lon="12.053540969333906"><ele>251.00000000000003</ele><time>2026-03-28T11:35:33Z</time></trkpt><trkpt lat="42.0861516131542" lon="12.053462440439189"><ele>251.0</ele><time>2026-03-28T11:35:34Z</time></trkpt><trkpt lat="42.08620378895627" lon="12.05334475763049"><ele>251.0</ele><time>2026-03-28T11:35:36Z</time></trkpt><trkpt lat="42.08624465471678" lon="12.053262512731553"><ele>251.0</ele><time>2026-03-28T11:35:39Z</time></trkpt><trkpt lat="42.08628002567362" lon="12.053170021863895"><ele>251.00000000000003</ele><time>2026-03-28T11:35:59Z</time></trkpt><trkpt lat="42.08632365177076" lon="12.053091483155876"><ele>251.0</ele><time>2026-03-28T11:36:00Z</time></trkpt><trkpt lat="42.0863719635722" lon="12.053005383122175"><ele>252.0</ele><time>2026-03-28T11:36:01Z</time></trkpt><trkpt lat="42.086420484298145" lon="12.052925689774645"><ele>253.00000000000003</ele><time>2026-03-28T11:36:02Z</time></trkpt><trkpt lat="42.08646431929209" lon="12.052840858593791"><ele>254.00000000000003</ele><time>2026-03-28T11:36:03Z</time></trkpt><trkpt lat="42.086495202998705" lon="12.052765637352792"><ele>255.0</ele><time>2026-03-28T11:36:04Z</time></trkpt><trkpt lat="42.08658585053228" lon="12.052646774983033"><ele>256.0</ele><time>2026-03-28T11:36:06Z</time></trkpt><trkpt lat="42.08668717816669" lon="12.052571295393806"><ele>253.57142857142856</ele><time>2026-03-28T11:36:08Z</time></trkpt><trkpt lat="42.086762207506816" lon="12.052552214843047"><ele>251.1428571428571</ele><time>2026-03-28T11:36:09Z</time></trkpt><trkpt lat="42.08683857144181" lon="12.052545696708275"><ele>248.71428571428572</ele><time>2026-03-28T11:36:10Z</time></trkpt><trkpt lat="42.08691249053414" lon="12.052528057886278"><ele>246.28571428571428</ele><time>2026-03-28T11:36:11Z</time></trkpt><trkpt lat="42.086977191689584" lon="12.052500119095043"><ele>243.85714285714286</ele><time>2026-03-28T11:36:12Z</time></trkpt><trkpt lat="42.087040568051066" lon="12.052469807753313"><ele>241.42857142857144</ele><time>2026-03-28T11:36:13Z</time></trkpt><trkpt lat="42.087103898140036" lon="12.052443130820912"><ele>239.00000000000003</ele><time>2026-03-28T11:36:14Z</time></trkpt><trkpt lat="42.08716651715709" lon="12.052411397710987"><ele>237.83333333333334</ele><time>2026-03-28T11:36:15Z</time></trkpt><trkpt lat="42.087231744272806" lon="12.052373647285831"><ele>236.66666666666669</ele><time>2026-03-28T11:36:16Z</time></trkpt><trkpt lat="42.0873002391066" lon="12.052325691909841"><ele>235.5</ele><time>2026-03-28T11:36:17Z</time></trkpt><trkpt lat="42.08737813426838" lon="12.052281369354207"><ele>234.33333333333331</ele><time>2026-03-28T11:36:18Z</time></trkpt><trkpt lat="42.08746208793757" lon="12.052238200806258"><ele>233.16666666666666</ele><time>2026-03-28T11:36:19Z</time></trkpt><trkpt lat="42.08754533685531" lon="12.052196729272023"><ele>232.0</ele><time>2026-03-28T11:36:20Z</time></trkpt><trkpt lat="42.08763664762239" lon="12.052156877631976"><ele>229.6</ele><time>2026-03-28T11:36:21Z</time></trkpt><trkpt lat="42.08773226958356" lon="12.052116538207189"><ele>227.2</ele><time>2026-03-28T11:36:22Z</time></trkpt><trkpt lat="42.087830494634325" lon="12.052089906870963"><ele>224.8</ele><time>2026-03-28T11:36:23Z</time></trkpt><trkpt lat="42.08793284746263" lon="12.052060849403107"><ele>222.4</ele><time>2026-03-28T11:36:24Z</time></trkpt><trkpt lat="42.08802885471796" lon="12.052023581112863"><ele>220.0</ele><time>2026-03-28T11:36:25Z</time></trkpt><trkpt lat="42.088122075282975" lon="12.051984209820066"><ele>219.99999999999997</ele><time>2026-03-28T11:36:26Z</time></trkpt><trkpt lat="42.088206811207215" lon="12.051959443319424"><ele>220.0</ele><time>2026-03-28T11:36:27Z</time></trkpt><trkpt lat="42.08828876395157" lon="12.05195083920823"><ele>220.0</ele><time>2026-03-28T11:36:28Z</time></trkpt><trkpt lat="42.0883699707502" lon="12.05194458908194"><ele>220.0</ele><time>2026-03-28T11:36:29Z</time></trkpt><trkpt lat="42.08844897877878" lon="12.051947682042126"><ele>219.99999999999997</ele><time>2026-03-28T11:36:30Z</time></trkpt><trkpt lat="42.08852656116147" lon="12.051936453806631"><ele>220.0</ele><time>2026-03-28T11:36:31Z</time></trkpt><trkpt lat="42.088602295836914" lon="12.051888191704426"><ele>218.83333333333331</ele><time>2026-03-28T11:36:32Z</time></trkpt><trkpt lat="42.088676823227445" lon="12.051824040252393"><ele>217.66666666666666</ele><time>2026-03-28T11:36:33Z</time></trkpt><trkpt lat="42.08874713515212" lon="12.051766516451076"><ele>216.5</ele><time>2026-03-28T11:36:34Z</time></trkpt><trkpt lat="42.088809746844554" lon="12.05173530246332"><ele>215.33333333333331</ele><time>2026-03-28T11:36:35Z</time></trkpt><trkpt lat="42.08893845274872" lon="12.051742112557463"><ele>214.16666666666666</ele><time>2026-03-28T11:36:37Z</time></trkpt><trkpt lat="42.089010476640105" lon="12.05175532269593"><ele>213.0</ele><time>2026-03-28T11:36:38Z</time></trkpt><trkpt lat="42.08909651039746" lon="12.051784826210836"><ele>212.33333333333334</ele><time>2026-03-28T11:36:39Z</time></trkpt><trkpt lat="42.08918374179204" lon="12.0518105269132"><ele>211.66666666666669</ele><time>2026-03-28T11:36:40Z</time></trkpt><trkpt lat="42.089282133744476" lon="12.051843047737776"><ele>211.0</ele><time>2026-03-28T11:36:41Z</time></trkpt><trkpt lat="42.089372050273" lon="12.051874075002573"><ele>210.33333333333334</ele><time>2026-03-28T11:36:42Z</time></trkpt><trkpt lat="42.08944970180153" lon="12.05190410918743"><ele>209.66666666666669</ele><time>2026-03-28T11:36:43Z</time></trkpt><trkpt lat="42.08951771336016" lon="12.051947304049783"><ele>209.0</ele><time>2026-03-28T11:36:44Z</time></trkpt><trkpt lat="42.08963196176618" lon="12.052030222233176"><ele>209.00000000000003</ele><time>2026-03-28T11:36:46Z</time></trkpt><trkpt lat="42.08969821761265" lon="12.052064090306377"><ele>209.0</ele><time>2026-03-28T11:36:47Z</time></trkpt><trkpt lat="42.089767414046314" lon="12.05209942060241"><ele>209.0</ele><time>2026-03-28T11:36:48Z</time></trkpt><trkpt lat="42.089832283010665" lon="12.052135142734503"><ele>209.0</ele><time>2026-03-28T11:36:49Z</time></trkpt><trkpt lat="42.08989294665854" lon="12.05216824609009"><ele>209.00000000000003</ele><time>2026-03-28T11:36:50Z</time></trkpt><trkpt lat="42.08995216556044" lon="12.05220369785233"><ele>209.0</ele><time>2026-03-28T11:36:51Z</time></trkpt><trkpt lat="42.09004388231087" lon="12.052306642372006"><ele>209.00000000000003</ele><time>2026-03-28T11:36:53Z</time></trkpt><trkpt lat="42.090088491853386" lon="12.052383408379967"><ele>209.0</ele><time>2026-03-28T11:36:54Z</time></trkpt><trkpt lat="42.090205388458166" lon="12.052468137585947"><ele>209.0</ele><time>2026-03-28T11:36:56Z</time></trkpt><trkpt lat="42.09027704534518" lon="12.052513808671705"><ele>209.0</ele><time>2026-03-28T11:36:57Z</time></trkpt><trkpt lat="42.09035533567884" lon="12.052550832251157"><ele>209.00000000000003</ele><time>2026-03-28T11:36:58Z</time></trkpt><trkpt lat="42.09043156986807" lon="12.052586741433961"><ele>209.0</ele><time>2026-03-28T11:36:59Z</time></trkpt><trkpt lat="42.09050440090542" lon="12.05261941419836"><ele>209.0</ele><time>2026-03-28T11:37:00Z</time></trkpt><trkpt lat="42.09056357404857" lon="12.05266740798029"><ele>209.0</ele><time>2026-03-28T11:37:01Z</time></trkpt><trkpt lat="42.09068809352386" lon="12.052688907244207"><ele>209.0</ele><time>2026-03-28T11:37:03Z</time></trkpt><trkpt lat="42.09077270892202" lon="12.05267075493591"><ele>209.0</ele><time>2026-03-28T11:37:04Z</time></trkpt><trkpt lat="42.09086330733833" lon="12.052652165163378"><ele>209.0</ele><time>2026-03-28T11:37:05Z</time></trkpt><trkpt lat="42.09095621515076" lon="12.052649187655826"><ele>207.0</ele><time>2026-03-28T11:37:06Z</time></trkpt><trkpt lat="42.09105315173147" lon="12.052659231044778"><ele>205.0</ele><time>2026-03-28T11:37:07Z</time></trkpt><trkpt lat="42.09115577918414" lon="12.052679401314064"><ele>203.0</ele><time>2026-03-28T11:37:08Z</time></trkpt><trkpt lat="42.09127298877056" lon="12.052694118564968"><ele>201.0</ele><time>2026-03-28T11:37:09Z</time></trkpt><trkpt lat="42.09137513425524" lon="12.052712353449216"><ele>199.0</ele><time>2026-03-28T11:37:10Z</time></trkpt><trkpt lat="42.091469738366825" lon="12.0527172749964"><ele>199.0</ele><time>2026-03-28T11:37:11Z</time></trkpt><trkpt lat="42.09156381923923" lon="12.052737238974096"><ele>199.0</ele><time>2026-03-28T11:37:12Z</time></trkpt><trkpt lat="42.09165243865418" lon="12.05279244272761"><ele>199.0</ele><time>2026-03-28T11:37:13Z</time></trkpt><trkpt lat="42.09173984111135" lon="12.052863054674258"><ele>199.0</ele><time>2026-03-28T11:37:14Z</time></trkpt><trkpt lat="42.09182584077451" lon="12.052945774405982"><ele>199.0</ele><time>2026-03-28T11:37:15Z</time></trkpt><trkpt lat="42.09192041845121" lon="12.0530244256753"><ele>198.2</ele><time>2026-03-28T11:37:16Z</time></trkpt><trkpt lat="42.0920160772501" lon="12.053099277932867"><ele>197.39999999999998</ele><time>2026-03-28T11:37:17Z</time></trkpt><trkpt lat="42.09211263073577" lon="12.053166530873286"><ele>196.6</ele><time>2026-03-28T11:37:18Z</time></trkpt><trkpt lat="42.092205444812954" lon="12.05323156711221"><ele>195.8</ele><time>2026-03-28T11:37:19Z</time></trkpt><trkpt lat="42.092296230326845" lon="12.053298026631955"><ele>195.0</ele><time>2026-03-28T11:37:20Z</time></trkpt><trkpt lat="42.09238830738994" lon="12.053372698234703"><ele>195.5</ele><time>2026-03-28T11:37:21Z</time></trkpt><trkpt lat="42.092454888826914" lon="12.053447053168707"><ele>196.0</ele><time>2026-03-28T11:37:22Z</time></trkpt><trkpt lat="42.09251985177416" lon="12.053507937092338"><ele>196.5</ele><time>2026-03-28T11:37:23Z</time></trkpt><trkpt lat="42.092576844922114" lon="12.05356494527272"><ele>197.0</ele><time>2026-03-28T11:37:24Z</time></trkpt><trkpt lat="42.09264301876229" lon="12.053626318722237"><ele>197.5</ele><time>2026-03-28T11:37:25Z</time></trkpt><trkpt lat="42.09272469228926" lon="12.053701455804784"><ele>198.0</ele><time>2026-03-28T11:37:26Z</time></trkpt><trkpt lat="42.09281654912448" lon="12.053778754170684"><ele>198.0</ele><time>2026-03-28T11:37:27Z</time></trkpt><trkpt lat="42.09290128756984" lon="12.05383714747219"><ele>198.0</ele><time>2026-03-28T11:37:28Z</time></trkpt><trkpt lat="42.09298165374181" lon="12.053895210040169"><ele>198.0</ele><time>2026-03-28T11:37:29Z</time></trkpt><trkpt lat="42.093052840910524" lon="12.053960219086083"><ele>198.0</ele><time>2026-03-28T11:37:30Z</time></trkpt><trkpt lat="42.09311037111913" lon="12.054031847016885"><ele>198.0</ele><time>2026-03-28T11:37:31Z</time></trkpt><trkpt lat="42.093243240646906" lon="12.05410227652579"><ele>198.0</ele><time>2026-03-28T11:37:33Z</time></trkpt><trkpt lat="42.09331295443042" lon="12.054188578242103"><ele>198.0</ele><time>2026-03-28T11:37:34Z</time></trkpt><trkpt lat="42.09336204571901" lon="12.054270808878837"><ele>198.0</ele><time>2026-03-28T11:37:35Z</time></trkpt><trkpt lat="42.09341787300798" lon="12.054360663207083"><ele>198.0</ele><time>2026-03-28T11:37:36Z</time></trkpt><trkpt lat="42.093469789120626" lon="12.054438952574527"><ele>198.0</ele><time>2026-03-28T11:37:37Z</time></trkpt><trkpt lat="42.09353452436216" lon="12.054495324555216"><ele>198.0</ele><time>2026-03-28T11:37:38Z</time></trkpt><trkpt lat="42.09361511286978" lon="12.054529815499142"><ele>198.0</ele><time>2026-03-28T11:37:39Z</time></trkpt><trkpt lat="42.09369621405278" lon="12.054571816915276"><ele>198.0</ele><time>2026-03-28T11:37:40Z</time></trkpt><trkpt lat="42.09377451033419" lon="12.054607400850433"><ele>198.0</ele><time>2026-03-28T11:37:41Z</time></trkpt><trkpt lat="42.093862603192676" lon="12.054639759815482"><ele>198.0</ele><time>2026-03-28T11:37:42Z</time></trkpt><trkpt lat="42.0939108160913" lon="12.054700870583975"><ele>198.0</ele><time>2026-03-28T11:37:44Z</time></trkpt><trkpt lat="42.09393756122356" lon="12.054846535325265"><ele>198.0</ele><time>2026-03-28T11:37:47Z</time></trkpt><trkpt lat="42.09399698073756" lon="12.05500704578898"><ele>195.2</ele><time>2026-03-28T11:37:49Z</time></trkpt><trkpt lat="42.09404721651138" lon="12.055124325036733"><ele>192.4</ele><time>2026-03-28T11:37:50Z</time></trkpt><trkpt lat="42.09412162342568" lon="12.055212855701226"><ele>189.6</ele><time>2026-03-28T11:37:51Z</time></trkpt><trkpt lat="42.094174452120626" lon="12.055298323318022"><ele>186.79999999999998</ele><time>2026-03-28T11:37:52Z</time></trkpt><trkpt lat="42.0942173691228" lon="12.05544782034008"><ele>184.0</ele><time>2026-03-28T11:37:54Z</time></trkpt><trkpt lat="42.09424454769172" lon="12.055534781081828"><ele>184.0</ele><time>2026-03-28T11:37:57Z</time></trkpt><trkpt lat="42.094208746169556" lon="12.055608776615523"><ele>184.0</ele><time>2026-03-28T11:38:46Z</time></trkpt><trkpt lat="42.09415342940947" lon="12.055665874048023"><ele>184.0</ele><time>2026-03-28T11:38:50Z</time></trkpt><trkpt lat="42.094227924926784" lon="12.055634770069643"><ele>184.0</ele><time>2026-03-28T11:39:51Z</time></trkpt><trkpt lat="42.094229203411984" lon="12.055520547212181"><ele>184.0</ele><time>2026-03-28T11:39:53Z</time></trkpt><trkpt lat="42.09428304225607" lon="12.05538688651499"><ele>184.0</ele><time>2026-03-28T11:39:58Z</time></trkpt><trkpt lat="42.09432373035841" lon="12.055310141977206"><ele>184.0</ele><time>2026-03-28T11:40:03Z</time></trkpt><trkpt lat="42.09452807717416" lon="12.055028294930432"><ele>184.0</ele><time>2026-03-28T11:40:40Z</time></trkpt><trkpt lat="42.09461940844686" lon="12.054963219947759"><ele>184.0</ele><time>2026-03-28T11:40:41Z</time></trkpt><trkpt lat="42.094668892963185" lon="12.054900436246609"><ele>184.66666666666669</ele><time>2026-03-28T11:40:42Z</time></trkpt><trkpt lat="42.09472815820583" lon="12.05483433025421"><ele>185.33333333333334</ele><time>2026-03-28T11:40:43Z</time></trkpt><trkpt lat="42.09480875633165" lon="12.054758386882467"><ele>186.0</ele><time>2026-03-28T11:40:44Z</time></trkpt><trkpt lat="42.09488382378105" lon="12.05468671703706"><ele>186.66666666666666</ele><time>2026-03-28T11:40:45Z</time></trkpt><trkpt lat="42.09495423028213" lon="12.054617043568587"><ele>187.33333333333331</ele><time>2026-03-28T11:40:46Z</time></trkpt><trkpt lat="42.095024639157295" lon="12.054542899644655"><ele>188.0</ele><time>2026-03-28T11:40:47Z</time></trkpt><trkpt lat="42.09509115643594" lon="12.054473720151012"><ele>188.0</ele><time>2026-03-28T11:40:48Z</time></trkpt><trkpt lat="42.09516387261187" lon="12.054409131451724"><ele>188.0</ele><time>2026-03-28T11:40:49Z</time></trkpt><trkpt lat="42.09524547720144" lon="12.054334130959978"><ele>188.0</ele><time>2026-03-28T11:40:50Z</time></trkpt><trkpt lat="42.095325251561" lon="12.05425921937503"><ele>188.0</ele><time>2026-03-28T11:40:51Z</time></trkpt><trkpt lat="42.095401916132886" lon="12.054191332349305"><ele>188.0</ele><time>2026-03-28T11:40:52Z</time></trkpt><trkpt lat="42.09546254191239" lon="12.054133282699262"><ele>188.0</ele><time>2026-03-28T11:40:53Z</time></trkpt><trkpt lat="42.09551665092439" lon="12.054064050645753"><ele>187.0</ele><time>2026-03-28T11:40:54Z</time></trkpt><trkpt lat="42.09556954227167" lon="12.05399077525427"><ele>186.0</ele><time>2026-03-28T11:40:55Z</time></trkpt><trkpt lat="42.09564691863488" lon="12.053901565187022"><ele>185.0</ele><time>2026-03-28T11:40:56Z</time></trkpt><trkpt lat="42.09572143092293" lon="12.053799406874806"><ele>184.0</ele><time>2026-03-28T11:40:57Z</time></trkpt><trkpt lat="42.09578505961787" lon="12.053698647758763"><ele>183.0</ele><time>2026-03-28T11:40:58Z</time></trkpt><trkpt lat="42.09584438304974" lon="12.053602651115805"><ele>183.0</ele><time>2026-03-28T11:40:59Z</time></trkpt><trkpt lat="42.09590539066269" lon="12.053501891911644"><ele>183.0</ele><time>2026-03-28T11:41:01Z</time></trkpt><trkpt lat="42.09594854881954" lon="12.053409589761168"><ele>183.0</ele><time>2026-03-28T11:41:03Z</time></trkpt><trkpt lat="42.09597825269342" lon="12.053315690769772"><ele>183.0</ele><time>2026-03-28T11:41:05Z</time></trkpt><trkpt lat="42.096026942660224" lon="12.05320356905403"><ele>183.0</ele><time>2026-03-28T11:41:09Z</time></trkpt><trkpt lat="42.09607170166221" lon="12.053125324570406"><ele>183.0</ele><time>2026-03-28T11:41:10Z</time></trkpt><trkpt lat="42.09614066144204" lon="12.05305950695663"><ele>185.66666666666666</ele><time>2026-03-28T11:41:11Z</time></trkpt><trkpt lat="42.09621239010371" lon="12.053031276248625"><ele>188.33333333333331</ele><time>2026-03-28T11:41:12Z</time></trkpt><trkpt lat="42.09628997724832" lon="12.052999710367688"><ele>191.0</ele><time>2026-03-28T11:41:13Z</time></trkpt><trkpt lat="42.096368695540626" lon="12.052943152983733"><ele>193.66666666666666</ele><time>2026-03-28T11:41:14Z</time></trkpt><trkpt lat="42.09644755905657" lon="12.052867646777898"><ele>196.33333333333331</ele><time>2026-03-28T11:41:15Z</time></trkpt><trkpt lat="42.09651997716984" lon="12.052833761705068"><ele>199.0</ele><time>2026-03-28T11:41:17Z</time></trkpt><trkpt lat="42.09663129149986" lon="12.052838757368464"><ele>199.0</ele><time>2026-03-28T11:41:19Z</time></trkpt><trkpt lat="42.09672489491456" lon="12.052795711277824"><ele>199.0</ele><time>2026-03-28T11:41:20Z</time></trkpt><trkpt lat="42.09682796667545" lon="12.052731273033876"><ele>199.0</ele><time>2026-03-28T11:41:21Z</time></trkpt><trkpt lat="42.09691809446361" lon="12.05267351926347"><ele>199.0</ele><time>2026-03-28T11:41:22Z</time></trkpt><trkpt lat="42.096993561921984" lon="12.05261777934431"><ele>199.0</ele><time>2026-03-28T11:41:23Z</time></trkpt><trkpt lat="42.09706408074231" lon="12.052570961554961"><ele>198.99999999999997</ele><time>2026-03-28T11:41:24Z</time></trkpt><trkpt lat="42.09712412546942" lon="12.052544240846595"><ele>199.0</ele><time>2026-03-28T11:41:25Z</time></trkpt><trkpt lat="42.09719933644855" lon="12.052518884368732"><ele>199.0</ele><time>2026-03-28T11:41:26Z</time></trkpt><trkpt lat="42.09727859083626" lon="12.052489091000291"><ele>199.0</ele><time>2026-03-28T11:41:27Z</time></trkpt><trkpt lat="42.09735981515028" lon="12.052446100075995"><ele>198.99999999999997</ele><time>2026-03-28T11:41:28Z</time></trkpt><trkpt lat="42.09743616063212" lon="12.052398583769087"><ele>199.0</ele><time>2026-03-28T11:41:29Z</time></trkpt><trkpt lat="42.09750172116442" lon="12.05236609827178"><ele>200.2</ele><time>2026-03-28T11:41:30Z</time></trkpt><trkpt lat="42.09759379644597" lon="12.052317896296852"><ele>201.39999999999998</ele><time>2026-03-28T11:41:32Z</time></trkpt><trkpt lat="42.09768771308717" lon="12.052257340114062"><ele>202.6</ele><time>2026-03-28T11:41:35Z</time></trkpt><trkpt lat="42.09775741220517" lon="12.05220837000415"><ele>203.8</ele><time>2026-03-28T11:41:36Z</time></trkpt><trkpt lat="42.09784154894802" lon="12.05214560965541"><ele>205.0</ele><time>2026-03-28T11:41:37Z</time></trkpt><trkpt lat="42.09790258025213" lon="12.052093424436402"><ele>205.0</ele><time>2026-03-28T11:41:38Z</time></trkpt><trkpt lat="42.09796144583934" lon="12.052035003300048"><ele>205.0</ele><time>2026-03-28T11:41:44Z</time></trkpt><trkpt lat="42.0980263424489" lon="12.051984643098352"><ele>205.0</ele><time>2026-03-28T11:41:48Z</time></trkpt><trkpt lat="42.09808240516436" lon="12.051929765216938"><ele>205.0</ele><time>2026-03-28T11:41:51Z</time></trkpt><trkpt lat="42.09812939350402" lon="12.051867151257444"><ele>205.0</ele><time>2026-03-28T11:41:53Z</time></trkpt><trkpt lat="42.098195393156864" lon="12.051800097300285"><ele>205.0</ele><time>2026-03-28T11:41:55Z</time></trkpt><trkpt lat="42.0982638898083" lon="12.05174285205894"><ele>205.0</ele><time>2026-03-28T11:41:58Z</time></trkpt><trkpt lat="42.09832088107509" lon="12.051693711171298"><ele>203.85714285714286</ele><time>2026-03-28T11:42:03Z</time></trkpt><trkpt lat="42.09839367099222" lon="12.051653784563685"><ele>202.7142857142857</ele><time>2026-03-28T11:42:08Z</time></trkpt><trkpt lat="42.09846514580303" lon="12.051674376653404"><ele>201.57142857142856</ele><time>2026-03-28T11:42:11Z</time></trkpt><trkpt lat="42.098527861456084" lon="12.051616111603144"><ele>200.42857142857144</ele><time>2026-03-28T11:42:17Z</time></trkpt><trkpt lat="42.09857342805735" lon="12.05154234831285"><ele>199.28571428571428</ele><time>2026-03-28T11:42:21Z</time></trkpt><trkpt lat="42.09862960092091" lon="12.051488214576528"><ele>198.14285714285714</ele><time>2026-03-28T11:42:23Z</time></trkpt><trkpt lat="42.09866931088314" lon="12.051401842874704"><ele>197.0</ele><time>2026-03-28T11:42:25Z</time></trkpt><trkpt lat="42.09870118096408" lon="12.05132212155207"><ele>197.00000000000003</ele><time>2026-03-28T11:42:30Z</time></trkpt><trkpt lat="42.09872550943429" lon="12.051223624417759"><ele>197.0</ele><time>2026-03-28T11:42:33Z</time></trkpt><trkpt lat="42.09869556792386" lon="12.051300749268432"><ele>197.0</ele><time>2026-03-28T11:43:49Z</time></trkpt><trkpt lat="42.09863818064841" lon="12.051341209933229"><ele>197.0</ele><time>2026-03-28T11:43:53Z</time></trkpt><trkpt lat="42.0985821633997" lon="12.051396692009936"><ele>197.00000000000003</ele><time>2026-03-28T11:43:57Z</time></trkpt><trkpt lat="42.09851108655737" lon="12.051484687511058"><ele>197.0</ele><time>2026-03-28T11:44:16Z</time></trkpt><trkpt lat="42.098432661774424" lon="12.051496704354728"><ele>197.00000000000003</ele><time>2026-03-28T11:48:53Z</time></trkpt><trkpt lat="42.09849816316609" lon="12.051500486891484"><ele>197.0</ele><time>2026-03-28T11:53:53Z</time></trkpt><trkpt lat="42.09846633783816" lon="12.05157959612663"><ele>197.0</ele><time>2026-03-28T11:56:49Z</time></trkpt><trkpt lat="42.09842519061108" lon="12.051500392918102"><ele>197.0</ele><time>2026-03-28T12:05:51Z</time></trkpt><trkpt lat="42.098506170977544" lon="12.05151392158842"><ele>197.00000000000003</ele><time>2026-03-28T12:07:52Z</time></trkpt><trkpt lat="42.09854958969586" lon="12.051439705746102"><ele>197.0</ele><time>2026-03-28T12:07:56Z</time></trkpt><trkpt lat="42.09859279181511" lon="12.051318588803392"><ele>197.00000000000003</ele><time>2026-03-28T12:08:00Z</time></trkpt><trkpt lat="42.09867714398856" lon="12.051255678561487"><ele>197.0</ele><time>2026-03-28T12:08:03Z</time></trkpt><trkpt lat="42.09872497912572" lon="12.051158927868073"><ele>197.0</ele><time>2026-03-28T12:08:05Z</time></trkpt><trkpt lat="42.098734474487685" lon="12.051073817147554"><ele>197.0</ele><time>2026-03-28T12:08:08Z</time></trkpt><trkpt lat="42.09875507989077" lon="12.050984023026036"><ele>197.00000000000003</ele><time>2026-03-28T12:08:10Z</time></trkpt><trkpt lat="42.098780370768516" lon="12.050902563383753"><ele>197.0</ele><time>2026-03-28T12:08:12Z</time></trkpt><trkpt lat="42.09881927189959" lon="12.050813554819735"><ele>197.33333333333334</ele><time>2026-03-28T12:08:14Z</time></trkpt><trkpt lat="42.09884609637613" lon="12.050697466613814"><ele>197.66666666666669</ele><time>2026-03-28T12:08:17Z</time></trkpt><trkpt lat="42.09888483228529" lon="12.050613008208046"><ele>198.0</ele><time>2026-03-28T12:08:20Z</time></trkpt><trkpt lat="42.09889735686375" lon="12.050494720092217"><ele>198.33333333333331</ele><time>2026-03-28T12:08:23Z</time></trkpt><trkpt lat="42.09891708620488" lon="12.050366247245965"><ele>198.66666666666666</ele><time>2026-03-28T12:08:26Z</time></trkpt><trkpt lat="42.098902133483115" lon="12.050258366184325"><ele>199.0</ele><time>2026-03-28T12:08:28Z</time></trkpt><trkpt lat="42.09889447642081" lon="12.050141030477736"><ele>199.0</ele><time>2026-03-28T12:08:31Z</time></trkpt><trkpt lat="42.098869052326975" lon="12.050041134103367"><ele>199.0</ele><time>2026-03-28T12:08:33Z</time></trkpt><trkpt lat="42.09883760684614" lon="12.049898039538528"><ele>199.0</ele><time>2026-03-28T12:08:35Z</time></trkpt><trkpt lat="42.09878056801027" lon="12.04980075992979"><ele>199.0</ele><time>2026-03-28T12:08:38Z</time></trkpt><trkpt lat="42.09873878007458" lon="12.049696844305329"><ele>199.0</ele><time>2026-03-28T12:08:40Z</time></trkpt><trkpt lat="42.09867775284169" lon="12.049545959638884"><ele>195.6</ele><time>2026-03-28T12:08:42Z</time></trkpt><trkpt lat="42.098614886460034" lon="12.049464464940211"><ele>192.2</ele><time>2026-03-28T12:08:44Z</time></trkpt><trkpt lat="42.098561811221046" lon="12.049380562603218"><ele>188.79999999999998</ele><time>2026-03-28T12:08:46Z</time></trkpt><trkpt lat="42.09845792657406" lon="12.04935158270133"><ele>185.39999999999998</ele><time>2026-03-28T12:08:48Z</time></trkpt><trkpt lat="42.098350541202194" lon="12.049291846029206"><ele>182.0</ele><time>2026-03-28T12:08:50Z</time></trkpt><trkpt lat="42.09823036117263" lon="12.049239632073878"><ele>182.0</ele><time>2026-03-28T12:08:52Z</time></trkpt><trkpt lat="42.09812599394991" lon="12.049244416573334"><ele>182.0</ele><time>2026-03-28T12:08:54Z</time></trkpt><trkpt lat="42.098035888066065" lon="12.049228621102435"><ele>182.0</ele><time>2026-03-28T12:08:57Z</time></trkpt><trkpt lat="42.09797193362482" lon="12.04921622616784"><ele>182.0</ele><time>2026-03-28T12:08:58Z</time></trkpt><trkpt lat="42.09785607431535" lon="12.04917959134106"><ele>182.0</ele><time>2026-03-28T12:09:00Z</time></trkpt><trkpt lat="42.09776069616421" lon="12.049173968612896"><ele>182.0</ele><time>2026-03-28T12:09:02Z</time></trkpt><trkpt lat="42.0976939651309" lon="12.04913742139642"><ele>182.0</ele><time>2026-03-28T12:09:03Z</time></trkpt><trkpt lat="42.09761590626037" lon="12.049081222077007"><ele>182.0</ele><time>2026-03-28T12:09:04Z</time></trkpt><trkpt lat="42.097498543818304" lon="12.0490564051156"><ele>182.0</ele><time>2026-03-28T12:09:05Z</time></trkpt><trkpt lat="42.09741237573124" lon="12.04899973329316"><ele>182.0</ele><time>2026-03-28T12:09:07Z</time></trkpt><trkpt lat="42.09733205349956" lon="12.048927266877842"><ele>182.16666666666666</ele><time>2026-03-28T12:09:08Z</time></trkpt><trkpt lat="42.097254371200414" lon="12.048862346747445"><ele>182.33333333333331</ele><time>2026-03-28T12:09:09Z</time></trkpt><trkpt lat="42.097180844874266" lon="12.048794069757292"><ele>182.5</ele><time>2026-03-28T12:09:10Z</time></trkpt><trkpt lat="42.097106118382605" lon="12.048738190578598"><ele>182.66666666666666</ele><time>2026-03-28T12:09:11Z</time></trkpt><trkpt lat="42.0970217186312" lon="12.048671541693768"><ele>182.83333333333334</ele><time>2026-03-28T12:09:13Z</time></trkpt><trkpt lat="42.09696909033958" lon="12.048603918499245"><ele>183.0</ele><time>2026-03-28T12:09:14Z</time></trkpt><trkpt lat="42.09691256984781" lon="12.048534726527679"><ele>183.0</ele><time>2026-03-28T12:09:15Z</time></trkpt><trkpt lat="42.096860154935584" lon="12.048451176002871"><ele>183.0</ele><time>2026-03-28T12:09:16Z</time></trkpt><trkpt lat="42.09681885234259" lon="12.048375525555375"><ele>183.0</ele><time>2026-03-28T12:09:17Z</time></trkpt><trkpt lat="42.09677312983177" lon="12.04826971825998"><ele>183.0</ele><time>2026-03-28T12:09:19Z</time></trkpt><trkpt lat="42.09678152303545" lon="12.04818386149915"><ele>183.0</ele><time>2026-03-28T12:09:22Z</time></trkpt><trkpt lat="42.096835816527694" lon="12.048116584152792"><ele>183.0</ele><time>2026-03-28T12:09:29Z</time></trkpt><trkpt lat="42.096876337491466" lon="12.04804367245947"><ele>183.0</ele><time>2026-03-28T12:09:32Z</time></trkpt><trkpt lat="42.09693757935531" lon="12.047962012106352"><ele>183.0</ele><time>2026-03-28T12:09:34Z</time></trkpt><trkpt lat="42.09687065169836" lon="12.048010211182609"><ele>183.0</ele><time>2026-03-28T12:10:23Z</time></trkpt><trkpt lat="42.09681935158673" lon="12.048071728796597"><ele>183.0</ele><time>2026-03-28T12:10:25Z</time></trkpt><trkpt lat="42.096778015904256" lon="12.048213318290843"><ele>183.0</ele><time>2026-03-28T12:10:28Z</time></trkpt><trkpt lat="42.09676718043978" lon="12.048331357897974"><ele>183.0</ele><time>2026-03-28T12:10:30Z</time></trkpt><trkpt lat="42.096787255205655" lon="12.04821422289968"><ele>183.0</ele><time>2026-03-28T12:10:37Z</time></trkpt><trkpt lat="42.09680563489781" lon="12.048130175148863"><ele>182.5</ele><time>2026-03-28T12:10:39Z</time></trkpt><trkpt lat="42.09686101508871" lon="12.048071962660934"><ele>182.0</ele><time>2026-03-28T12:10:42Z</time></trkpt><trkpt lat="42.096893703636184" lon="12.047986888149712"><ele>181.5</ele><time>2026-03-28T12:10:45Z</time></trkpt><trkpt lat="42.096945265177965" lon="12.047936592784598"><ele>181.0</ele><time>2026-03-28T12:10:47Z</time></trkpt><trkpt lat="42.09701705503518" lon="12.047985124563354"><ele>180.5</ele><time>2026-03-28T12:10:49Z</time></trkpt><trkpt lat="42.09715349687101" lon="12.047992499111336"><ele>180.0</ele><time>2026-03-28T12:10:51Z</time></trkpt><trkpt lat="42.09723636866722" lon="12.04797333873216"><ele>180.0</ele><time>2026-03-28T12:10:52Z</time></trkpt><trkpt lat="42.09730801563418" lon="12.04789783486476"><ele>180.0</ele><time>2026-03-28T12:10:54Z</time></trkpt><trkpt lat="42.097384832647066" lon="12.047791716840884"><ele>180.0</ele><time>2026-03-28T12:10:56Z</time></trkpt><trkpt lat="42.097459942625434" lon="12.047759383563102"><ele>180.0</ele><time>2026-03-28T12:10:58Z</time></trkpt><trkpt lat="42.0975426628394" lon="12.04772639505726"><ele>180.0</ele><time>2026-03-28T12:10:59Z</time></trkpt><trkpt lat="42.097649373864435" lon="12.047685866303123"><ele>181.16666666666666</ele><time>2026-03-28T12:11:01Z</time></trkpt><trkpt lat="42.097690160193295" lon="12.047616270607197"><ele>182.33333333333334</ele><time>2026-03-28T12:11:02Z</time></trkpt><trkpt lat="42.09773693515436" lon="12.047517348760241"><ele>183.5</ele><time>2026-03-28T12:11:03Z</time></trkpt><trkpt lat="42.09778629233322" lon="12.047452828036793"><ele>184.66666666666669</ele><time>2026-03-28T12:11:04Z</time></trkpt><trkpt lat="42.097865004391956" lon="12.04744838610382"><ele>185.83333333333334</ele><time>2026-03-28T12:11:05Z</time></trkpt><trkpt lat="42.09794046311057" lon="12.047468574314271"><ele>187.0</ele><time>2026-03-28T12:11:06Z</time></trkpt><trkpt lat="42.098028291563026" lon="12.047362875762927"><ele>188.39999999999998</ele><time>2026-03-28T12:11:08Z</time></trkpt><trkpt lat="42.09814139111671" lon="12.04731999807488"><ele>189.79999999999998</ele><time>2026-03-28T12:11:10Z</time></trkpt><trkpt lat="42.09821355941078" lon="12.047335515010394"><ele>191.2</ele><time>2026-03-28T12:11:11Z</time></trkpt><trkpt lat="42.09829199883201" lon="12.047357347581215"><ele>192.6</ele><time>2026-03-28T12:11:12Z</time></trkpt><trkpt lat="42.09842026285361" lon="12.047363719497225"><ele>194.0</ele><time>2026-03-28T12:11:14Z</time></trkpt><trkpt lat="42.098499192051534" lon="12.047373487931395"><ele>196.0</ele><time>2026-03-28T12:11:15Z</time></trkpt><trkpt lat="42.09856871920211" lon="12.047396344151466"><ele>198.0</ele><time>2026-03-28T12:11:16Z</time></trkpt><trkpt lat="42.098632114411686" lon="12.047404982925759"><ele>200.0</ele><time>2026-03-28T12:11:17Z</time></trkpt><trkpt lat="42.09869691252193" lon="12.047389878911693"><ele>202.0</ele><time>2026-03-28T12:11:18Z</time></trkpt><trkpt lat="42.0987572949094" lon="12.047346036658364"><ele>204.0</ele><time>2026-03-28T12:11:19Z</time></trkpt><trkpt lat="42.09881927440742" lon="12.047273813514126"><ele>206.0</ele><time>2026-03-28T12:11:20Z</time></trkpt><trkpt lat="42.09887857326233" lon="12.047196457885915"><ele>208.0</ele><time>2026-03-28T12:11:21Z</time></trkpt><trkpt lat="42.098918690831766" lon="12.047115604534433"><ele>207.99999999999997</ele><time>2026-03-28T12:11:22Z</time></trkpt><trkpt lat="42.09895120719568" lon="12.047014355769448"><ele>208.0</ele><time>2026-03-28T12:11:23Z</time></trkpt><trkpt lat="42.09899867246821" lon="12.046899007010671"><ele>208.0</ele><time>2026-03-28T12:11:24Z</time></trkpt><trkpt lat="42.0990481705883" lon="12.046801728362903"><ele>208.0</ele><time>2026-03-28T12:11:25Z</time></trkpt><trkpt lat="42.099077144645435" lon="12.046718290705927"><ele>207.99999999999997</ele><time>2026-03-28T12:11:26Z</time></trkpt><trkpt lat="42.099132648141065" lon="12.04659869164438"><ele>208.0</ele><time>2026-03-28T12:11:28Z</time></trkpt><trkpt lat="42.099149243018225" lon="12.046458551825324"><ele>207.99999999999997</ele><time>2026-03-28T12:11:30Z</time></trkpt><trkpt lat="42.09916143583492" lon="12.046371181717006"><ele>208.0</ele><time>2026-03-28T12:11:31Z</time></trkpt><trkpt lat="42.09918508878969" lon="12.046219421527692"><ele>208.0</ele><time>2026-03-28T12:11:33Z</time></trkpt><trkpt lat="42.099196968479134" lon="12.04606001989531"><ele>208.0</ele><time>2026-03-28T12:11:35Z</time></trkpt><trkpt lat="42.09920186072739" lon="12.045965783995303"><ele>207.99999999999997</ele><time>2026-03-28T12:11:36Z</time></trkpt><trkpt lat="42.09920380297585" lon="12.045863427538276"><ele>208.0</ele><time>2026-03-28T12:11:37Z</time></trkpt><trkpt lat="42.099208770753684" lon="12.045771676351768"><ele>208.49999999999997</ele><time>2026-03-28T12:11:38Z</time></trkpt><trkpt lat="42.099223751959975" lon="12.0456760958911"><ele>209.0</ele><time>2026-03-28T12:11:39Z</time></trkpt><trkpt lat="42.09924238864576" lon="12.04556040965874"><ele>209.5</ele><time>2026-03-28T12:11:40Z</time></trkpt><trkpt lat="42.09924767250696" lon="12.045463647125331"><ele>210.0</ele><time>2026-03-28T12:11:41Z</time></trkpt><trkpt lat="42.099242102552275" lon="12.045363120268393"><ele>210.49999999999997</ele><time>2026-03-28T12:11:42Z</time></trkpt><trkpt lat="42.09922763986814" lon="12.045263556350395"><ele>211.0</ele><time>2026-03-28T12:11:43Z</time></trkpt><trkpt lat="42.099194217738614" lon="12.045152649347791"><ele>211.0</ele><time>2026-03-28T12:11:44Z</time></trkpt><trkpt lat="42.09914815636679" lon="12.045027844132013"><ele>211.0</ele><time>2026-03-28T12:11:45Z</time></trkpt><trkpt lat="42.09910507179266" lon="12.044928250759455"><ele>211.0</ele><time>2026-03-28T12:11:46Z</time></trkpt><trkpt lat="42.09907434418888" lon="12.044826966273106"><ele>211.0</ele><time>2026-03-28T12:11:47Z</time></trkpt><trkpt lat="42.099042973245034" lon="12.044684128613358"><ele>211.0</ele><time>2026-03-28T12:11:49Z</time></trkpt><trkpt lat="42.099028633154475" lon="12.044580193205544"><ele>210.8</ele><time>2026-03-28T12:11:50Z</time></trkpt><trkpt lat="42.099005324420325" lon="12.044437319884382"><ele>210.60000000000002</ele><time>2026-03-28T12:11:51Z</time></trkpt><trkpt lat="42.09897545234661" lon="12.04430696781701"><ele>210.4</ele><time>2026-03-28T12:11:52Z</time></trkpt><trkpt lat="42.098954352253244" lon="12.044164324116187"><ele>210.2</ele><time>2026-03-28T12:11:53Z</time></trkpt><trkpt lat="42.098956650735666" lon="12.044044036085328"><ele>210.0</ele><time>2026-03-28T12:11:54Z</time></trkpt><trkpt lat="42.09896749238585" lon="12.043940729816704"><ele>210.57142857142858</ele><time>2026-03-28T12:11:55Z</time></trkpt><trkpt lat="42.09898377286361" lon="12.043845414335628"><ele>211.14285714285714</ele><time>2026-03-28T12:11:56Z</time></trkpt><trkpt lat="42.099015499202444" lon="12.043756302930891"><ele>211.71428571428572</ele><time>2026-03-28T12:11:57Z</time></trkpt><trkpt lat="42.09905608167919" lon="12.04366158059565"><ele>212.28571428571428</ele><time>2026-03-28T12:11:58Z</time></trkpt><trkpt lat="42.099093263705555" lon="12.043561212602658"><ele>212.85714285714286</ele><time>2026-03-28T12:11:59Z</time></trkpt><trkpt lat="42.09911250639106" lon="12.043476363344139"><ele>213.42857142857144</ele><time>2026-03-28T12:12:00Z</time></trkpt><trkpt lat="42.0991291674969" lon="12.043390794735403"><ele>214.0</ele><time>2026-03-28T12:12:01Z</time></trkpt><trkpt lat="42.09913622360849" lon="12.043306182543592"><ele>216.33333333333331</ele><time>2026-03-28T12:12:02Z</time></trkpt><trkpt lat="42.099139766242004" lon="12.043220230756178"><ele>218.66666666666666</ele><time>2026-03-28T12:12:03Z</time></trkpt><trkpt lat="42.09916147135557" lon="12.04313610556323"><ele>221.0</ele><time>2026-03-28T12:12:04Z</time></trkpt><trkpt lat="42.099198097166614" lon="12.04303869970622"><ele>223.33333333333331</ele><time>2026-03-28T12:12:05Z</time></trkpt><trkpt lat="42.09924728804019" lon="12.042948946083227"><ele>225.66666666666666</ele><time>2026-03-28T12:12:06Z</time></trkpt><trkpt lat="42.09928657075758" lon="12.042839140099371"><ele>228.0</ele><time>2026-03-28T12:12:07Z</time></trkpt><trkpt lat="42.099320364283514" lon="12.042744026760227"><ele>228.0</ele><time>2026-03-28T12:12:08Z</time></trkpt><trkpt lat="42.09939240089986" lon="12.042676279555879"><ele>228.0</ele><time>2026-03-28T12:12:10Z</time></trkpt><trkpt lat="42.0994976997772" lon="12.042598425849485"><ele>228.0</ele><time>2026-03-28T12:12:12Z</time></trkpt><trkpt lat="42.09955017174252" lon="12.042531602514698"><ele>228.0</ele><time>2026-03-28T12:12:13Z</time></trkpt><trkpt lat="42.09959989502229" lon="12.042456255689359"><ele>228.0</ele><time>2026-03-28T12:12:14Z</time></trkpt><trkpt lat="42.09965284507769" lon="12.0423654198132"><ele>228.0</ele><time>2026-03-28T12:12:15Z</time></trkpt><trkpt lat="42.099698525814475" lon="12.042275296335772"><ele>229.4</ele><time>2026-03-28T12:12:16Z</time></trkpt><trkpt lat="42.099747064385106" lon="12.042205002684186"><ele>230.8</ele><time>2026-03-28T12:12:17Z</time></trkpt><trkpt lat="42.09986072598611" lon="12.042092523397347"><ele>232.2</ele><time>2026-03-28T12:12:19Z</time></trkpt><trkpt lat="42.099923603694315" lon="12.042010528376341"><ele>233.6</ele><time>2026-03-28T12:12:20Z</time></trkpt><trkpt lat="42.09998207983246" lon="12.041932726135842"><ele>235.0</ele><time>2026-03-28T12:12:21Z</time></trkpt><trkpt lat="42.10004016616355" lon="12.04188451928001"><ele>236.66666666666666</ele><time>2026-03-28T12:12:22Z</time></trkpt><trkpt lat="42.100112587147585" lon="12.041841222388122"><ele>238.33333333333331</ele><time>2026-03-28T12:12:23Z</time></trkpt><trkpt lat="42.10019126637419" lon="12.041789005005018"><ele>240.0</ele><time>2026-03-28T12:12:24Z</time></trkpt><trkpt lat="42.10025253439945" lon="12.041728338590875"><ele>241.66666666666669</ele><time>2026-03-28T12:12:25Z</time></trkpt><trkpt lat="42.100317006430984" lon="12.041649631135206"><ele>243.33333333333334</ele><time>2026-03-28T12:12:26Z</time></trkpt><trkpt lat="42.10038256033188" lon="12.041557064750842"><ele>245.0</ele><time>2026-03-28T12:12:27Z</time></trkpt><trkpt lat="42.100435410154645" lon="12.041476224827745"><ele>247.00000000000003</ele><time>2026-03-28T12:12:28Z</time></trkpt><trkpt lat="42.1004689777747" lon="12.04134385331181"><ele>249.0</ele><time>2026-03-28T12:12:30Z</time></trkpt><trkpt lat="42.10046703129819" lon="12.041183080064192"><ele>251.0</ele><time>2026-03-28T12:12:32Z</time></trkpt><trkpt lat="42.100463350474435" lon="12.04109247171239"><ele>253.0</ele><time>2026-03-28T12:12:33Z</time></trkpt><trkpt lat="42.10045433537281" lon="12.04099773970034"><ele>255.00000000000003</ele><time>2026-03-28T12:12:34Z</time></trkpt><trkpt lat="42.10044172134318" lon="12.040893802083026"><ele>257.0</ele><time>2026-03-28T12:12:35Z</time></trkpt><trkpt lat="42.100413787844616" lon="12.040783550247355"><ele>258.83333333333337</ele><time>2026-03-28T12:12:36Z</time></trkpt><trkpt lat="42.100436599790186" lon="12.040656046840411"><ele>260.6666666666667</ele><time>2026-03-28T12:12:37Z</time></trkpt><trkpt lat="42.10043606344149" lon="12.040506138688581"><ele>262.5</ele><time>2026-03-28T12:12:38Z</time></trkpt><trkpt lat="42.10043334098368" lon="12.040389483791254"><ele>264.3333333333333</ele><time>2026-03-28T12:12:39Z</time></trkpt><trkpt lat="42.1003964161812" lon="12.040298879342137"><ele>266.16666666666663</ele><time>2026-03-28T12:12:40Z</time></trkpt><trkpt lat="42.10034397530015" lon="12.040236066257696"><ele>268.0</ele><time>2026-03-28T12:12:41Z</time></trkpt><trkpt lat="42.10028117527265" lon="12.04017939214376"><ele>268.0</ele><time>2026-03-28T12:12:42Z</time></trkpt><trkpt lat="42.10022526031315" lon="12.040106817206608"><ele>268.0</ele><time>2026-03-28T12:12:43Z</time></trkpt><trkpt lat="42.100172962993845" lon="12.040027682675552"><ele>268.0</ele><time>2026-03-28T12:12:44Z</time></trkpt><trkpt lat="42.10013336752345" lon="12.039929577728133"><ele>268.0</ele><time>2026-03-28T12:12:45Z</time></trkpt><trkpt lat="42.10009314872395" lon="12.039822020855748"><ele>268.0</ele><time>2026-03-28T12:12:46Z</time></trkpt><trkpt lat="42.10004422712755" lon="12.03970492279328"><ele>268.0</ele><time>2026-03-28T12:12:47Z</time></trkpt><trkpt lat="42.099991271661196" lon="12.039601423970407"><ele>268.8</ele><time>2026-03-28T12:12:48Z</time></trkpt><trkpt lat="42.09993876714466" lon="12.039515033342578"><ele>269.6</ele><time>2026-03-28T12:12:49Z</time></trkpt><trkpt lat="42.09987798697327" lon="12.039446057621667"><ele>270.4</ele><time>2026-03-28T12:12:50Z</time></trkpt><trkpt lat="42.09981023025154" lon="12.039364271387495"><ele>271.2</ele><time>2026-03-28T12:12:51Z</time></trkpt><trkpt lat="42.09972457542714" lon="12.03927581870687"><ele>272.0</ele><time>2026-03-28T12:12:52Z</time></trkpt><trkpt lat="42.099633790972184" lon="12.039173471873827"><ele>276.6</ele><time>2026-03-28T12:12:53Z</time></trkpt><trkpt lat="42.09955572515491" lon="12.039079921207477"><ele>281.2</ele><time>2026-03-28T12:12:54Z</time></trkpt><trkpt lat="42.09950251381102" lon="12.03896440855051"><ele>285.8</ele><time>2026-03-28T12:12:55Z</time></trkpt><trkpt lat="42.09945136951927" lon="12.038830347391837"><ele>290.4</ele><time>2026-03-28T12:12:56Z</time></trkpt><trkpt lat="42.09941409685996" lon="12.038719041331277"><ele>295.0</ele><time>2026-03-28T12:12:57Z</time></trkpt><trkpt lat="42.09937118327722" lon="12.0385708210128"><ele>295.0</ele><time>2026-03-28T12:12:59Z</time></trkpt><trkpt lat="42.09935275422324" lon="12.038484861975258"><ele>295.0</ele><time>2026-03-28T12:13:00Z</time></trkpt><trkpt lat="42.09933712056161" lon="12.038370262150446"><ele>295.0</ele><time>2026-03-28T12:13:01Z</time></trkpt><trkpt lat="42.09931554299787" lon="12.03824594639443"><ele>295.0</ele><time>2026-03-28T12:13:02Z</time></trkpt><trkpt lat="42.09932412193114" lon="12.038134684802095"><ele>295.0</ele><time>2026-03-28T12:13:03Z</time></trkpt><trkpt lat="42.099322286038706" lon="12.038039290834627"><ele>295.0</ele><time>2026-03-28T12:13:04Z</time></trkpt><trkpt lat="42.09933203468732" lon="12.037944761885377"><ele>297.16666666666663</ele><time>2026-03-28T12:13:05Z</time></trkpt><trkpt lat="42.099352005727525" lon="12.037842820742146"><ele>299.3333333333333</ele><time>2026-03-28T12:13:06Z</time></trkpt><trkpt lat="42.099368167163426" lon="12.037734810312658"><ele>301.5</ele><time>2026-03-28T12:13:07Z</time></trkpt><trkpt lat="42.09939005357097" lon="12.037613579645111"><ele>303.6666666666667</ele><time>2026-03-28T12:13:08Z</time></trkpt><trkpt lat="42.09941034592622" lon="12.03749724605138"><ele>305.83333333333337</ele><time>2026-03-28T12:13:09Z</time></trkpt><trkpt lat="42.099422026429416" lon="12.037379359606769"><ele>308.0</ele><time>2026-03-28T12:13:10Z</time></trkpt><trkpt lat="42.0994185993945" lon="12.037244881943446"><ele>309.33333333333337</ele><time>2026-03-28T12:13:11Z</time></trkpt><trkpt lat="42.09942470369742" lon="12.037133705064328"><ele>310.6666666666667</ele><time>2026-03-28T12:13:12Z</time></trkpt><trkpt lat="42.09942676608262" lon="12.03704641507437"><ele>312.0</ele><time>2026-03-28T12:13:13Z</time></trkpt><trkpt lat="42.099426854472945" lon="12.036943354421481"><ele>313.3333333333333</ele><time>2026-03-28T12:13:14Z</time></trkpt><trkpt lat="42.09943234127769" lon="12.036817994234989"><ele>314.66666666666663</ele><time>2026-03-28T12:13:15Z</time></trkpt><trkpt lat="42.09942556837451" lon="12.036692419539119"><ele>316.0</ele><time>2026-03-28T12:13:16Z</time></trkpt><trkpt lat="42.09941607148271" lon="12.036591130639149"><ele>317.4</ele><time>2026-03-28T12:13:17Z</time></trkpt><trkpt lat="42.099408565512384" lon="12.036488773032595"><ele>318.8</ele><time>2026-03-28T12:13:18Z</time></trkpt><trkpt lat="42.09942435456518" lon="12.036393100266514"><ele>320.2</ele><time>2026-03-28T12:13:19Z</time></trkpt><trkpt lat="42.09942435456193" lon="12.036296990053936"><ele>321.59999999999997</ele><time>2026-03-28T12:13:20Z</time></trkpt><trkpt lat="42.09942435456148" lon="12.036205082140674"><ele>323.0</ele><time>2026-03-28T12:13:21Z</time></trkpt><trkpt lat="42.09941064160765" lon="12.035958726795144"><ele>323.0</ele><time>2026-03-28T12:13:24Z</time></trkpt><trkpt lat="42.099260038928655" lon="12.035993074402208"><ele>323.0</ele><time>2026-03-28T12:13:25Z</time></trkpt><trkpt lat="42.09931207462159" lon="12.036215072947655"><ele>323.0</ele><time>2026-03-28T12:13:26Z</time></trkpt><trkpt lat="42.099270294850186" lon="12.036322173925301"><ele>323.0</ele><time>2026-03-28T12:13:28Z</time></trkpt><trkpt lat="42.09925068142734" lon="12.036418933597396"><ele>323.0</ele><time>2026-03-28T12:13:29Z</time></trkpt><trkpt lat="42.099192260408934" lon="12.036328776231354"><ele>323.0</ele><time>2026-03-28T12:13:35Z</time></trkpt><trkpt lat="42.099202331207024" lon="12.036170280110602"><ele>323.0</ele><time>2026-03-28T12:13:37Z</time></trkpt><trkpt lat="42.099150151487194" lon="12.036024497711233"><ele>323.0</ele><time>2026-03-28T12:13:38Z</time></trkpt><trkpt lat="42.09913781486897" lon="12.035923897232285"><ele>323.0</ele><time>2026-03-28T12:13:39Z</time></trkpt><trkpt lat="42.0991181005162" lon="12.035762055059612"><ele>324.4</ele><time>2026-03-28T12:13:41Z</time></trkpt><trkpt lat="42.099152131524015" lon="12.035624727356046"><ele>325.79999999999995</ele><time>2026-03-28T12:13:43Z</time></trkpt><trkpt lat="42.09918665877318" lon="12.035475810530436"><ele>327.2</ele><time>2026-03-28T12:13:44Z</time></trkpt><trkpt lat="42.099214866429385" lon="12.035364532108103"><ele>328.6</ele><time>2026-03-28T12:13:45Z</time></trkpt><trkpt lat="42.09924028718251" lon="12.035264247900647"><ele>330.0</ele><time>2026-03-28T12:13:46Z</time></trkpt><trkpt lat="42.09928213626778" lon="12.035130323198807"><ele>330.0</ele><time>2026-03-28T12:13:48Z</time></trkpt><trkpt lat="42.09925860305162" lon="12.035050289770112"><ele>330.0</ele><time>2026-03-28T12:13:49Z</time></trkpt><trkpt lat="42.099223812245484" lon="12.03485312095687"><ele>330.0</ele><time>2026-03-28T12:13:51Z</time></trkpt><trkpt lat="42.09916669027872" lon="12.034744982441797"><ele>330.0</ele><time>2026-03-28T12:13:52Z</time></trkpt><trkpt lat="42.09912541449474" lon="12.034627252732953"><ele>330.0</ele><time>2026-03-28T12:13:53Z</time></trkpt><trkpt lat="42.09908786874804" lon="12.034518842818919"><ele>335.6</ele><time>2026-03-28T12:13:54Z</time></trkpt><trkpt lat="42.09904768361452" lon="12.034398241562284"><ele>341.2</ele><time>2026-03-28T12:13:55Z</time></trkpt><trkpt lat="42.09900405466112" lon="12.034261049649306"><ele>346.79999999999995</ele><time>2026-03-28T12:13:56Z</time></trkpt><trkpt lat="42.098965941455354" lon="12.034126166409049"><ele>352.4</ele><time>2026-03-28T12:13:57Z</time></trkpt><trkpt lat="42.098926698621646" lon="12.033992646383355"><ele>358.0</ele><time>2026-03-28T12:13:58Z</time></trkpt><trkpt lat="42.09891044752944" lon="12.033867799474791"><ele>358.59999999999997</ele><time>2026-03-28T12:13:59Z</time></trkpt><trkpt lat="42.098904073954046" lon="12.033755986155215"><ele>359.2</ele><time>2026-03-28T12:14:00Z</time></trkpt><trkpt lat="42.09890503475261" lon="12.033654774892197"><ele>359.8</ele><time>2026-03-28T12:14:01Z</time></trkpt><trkpt lat="42.09894360921811" lon="12.03352923210017"><ele>360.4</ele><time>2026-03-28T12:14:02Z</time></trkpt><trkpt lat="42.09896756848947" lon="12.033376772261235"><ele>361.0</ele><time>2026-03-28T12:14:03Z</time></trkpt><trkpt lat="42.098994863921504" lon="12.033222192704358"><ele>361.5</ele><time>2026-03-28T12:14:04Z</time></trkpt><trkpt lat="42.09900422563056" lon="12.033121659566891"><ele>362.0</ele><time>2026-03-28T12:14:05Z</time></trkpt><trkpt lat="42.09901951283864" lon="12.03301267239595"><ele>362.5</ele><time>2026-03-28T12:14:06Z</time></trkpt><trkpt lat="42.099042607256266" lon="12.032885891339127"><ele>363.0</ele><time>2026-03-28T12:14:07Z</time></trkpt><trkpt lat="42.09907137095881" lon="12.03279900030001"><ele>363.5</ele><time>2026-03-28T12:14:08Z</time></trkpt><trkpt lat="42.099144745623065" lon="12.032779944919811"><ele>364.0</ele><time>2026-03-28T12:14:10Z</time></trkpt><trkpt lat="42.09920122358197" lon="12.032705520563692"><ele>363.25</ele><time>2026-03-28T12:14:11Z</time></trkpt><trkpt lat="42.0993197407889" lon="12.032487822045846"><ele>362.5</ele><time>2026-03-28T12:14:12Z</time></trkpt><trkpt lat="42.09939501735349" lon="12.0323370638807"><ele>361.75</ele><time>2026-03-28T12:14:13Z</time></trkpt><trkpt lat="42.09944745290543" lon="12.032241391656402"><ele>361.0</ele><time>2026-03-28T12:14:14Z</time></trkpt><trkpt lat="42.09949934005823" lon="12.032155727250164"><ele>361.0</ele><time>2026-03-28T12:14:15Z</time></trkpt><trkpt lat="42.09955445939533" lon="12.03205963531976"><ele>361.0</ele><time>2026-03-28T12:14:16Z</time></trkpt><trkpt lat="42.09960546448451" lon="12.031962596504348"><ele>361.0</ele><time>2026-03-28T12:14:17Z</time></trkpt><trkpt lat="42.09965081180217" lon="12.031876771181858"><ele>361.0</ele><time>2026-03-28T12:14:18Z</time></trkpt><trkpt lat="42.09970202475459" lon="12.031779854043469"><ele>361.0</ele><time>2026-03-28T12:14:19Z</time></trkpt><trkpt lat="42.09974618425402" lon="12.031696551867624"><ele>361.0</ele><time>2026-03-28T12:14:20Z</time></trkpt><trkpt lat="42.0997948397338" lon="12.031640519051729"><ele>361.0</ele><time>2026-03-28T12:14:21Z</time></trkpt><trkpt lat="42.09985208305911" lon="12.031587320184949"><ele>361.0</ele><time>2026-03-28T12:14:22Z</time></trkpt><trkpt lat="42.09991950444223" lon="12.031460010293197"><ele>361.0</ele><time>2026-03-28T12:14:24Z</time></trkpt><trkpt lat="42.099931225130184" lon="12.031331553623643"><ele>361.0</ele><time>2026-03-28T12:14:25Z</time></trkpt><trkpt lat="42.09990700891607" lon="12.031224623938375"><ele>361.0</ele><time>2026-03-28T12:14:26Z</time></trkpt><trkpt lat="42.09988409924802" lon="12.031090194130813"><ele>361.0</ele><time>2026-03-28T12:14:27Z</time></trkpt><trkpt lat="42.09985871034661" lon="12.0309536076007"><ele>361.0</ele><time>2026-03-28T12:14:28Z</time></trkpt><trkpt lat="42.09983101157405" lon="12.030826940680477"><ele>361.0</ele><time>2026-03-28T12:14:29Z</time></trkpt><trkpt lat="42.09982232736017" lon="12.03066991859646"><ele>361.0</ele><time>2026-03-28T12:14:30Z</time></trkpt><trkpt lat="42.09981348992476" lon="12.030516802196178"><ele>361.0</ele><time>2026-03-28T12:14:31Z</time></trkpt><trkpt lat="42.099820774775694" lon="12.03036723455546"><ele>359.66666666666663</ele><time>2026-03-28T12:14:32Z</time></trkpt><trkpt lat="42.099828131855475" lon="12.030219225657126"><ele>358.3333333333333</ele><time>2026-03-28T12:14:33Z</time></trkpt><trkpt lat="42.09984181527626" lon="12.03009877732146"><ele>357.0</ele><time>2026-03-28T12:14:34Z</time></trkpt><trkpt lat="42.09987317873173" lon="12.029994000004077"><ele>355.6666666666667</ele><time>2026-03-28T12:14:35Z</time></trkpt><trkpt lat="42.099915976302995" lon="12.029897556635062"><ele>354.33333333333337</ele><time>2026-03-28T12:14:36Z</time></trkpt><trkpt lat="42.09995122230898" lon="12.0298119344131"><ele>353.0</ele><time>2026-03-28T12:14:37Z</time></trkpt><trkpt lat="42.09995403689707" lon="12.02968184805812"><ele>350.5</ele><time>2026-03-28T12:14:39Z</time></trkpt><trkpt lat="42.0999083919003" lon="12.029572820405003"><ele>348.0</ele><time>2026-03-28T12:14:41Z</time></trkpt><trkpt lat="42.09988078260538" lon="12.029479620317089"><ele>345.5</ele><time>2026-03-28T12:14:42Z</time></trkpt><trkpt lat="42.09986800361324" lon="12.029382169540684"><ele>343.0</ele><time>2026-03-28T12:14:43Z</time></trkpt><trkpt lat="42.09985472210105" lon="12.029294689527886"><ele>340.5</ele><time>2026-03-28T12:14:44Z</time></trkpt><trkpt lat="42.09984245560825" lon="12.029123108899944"><ele>338.0</ele><time>2026-03-28T12:14:46Z</time></trkpt><trkpt lat="42.09985741145453" lon="12.029018442365802"><ele>337.0</ele><time>2026-03-28T12:14:47Z</time></trkpt><trkpt lat="42.09987460585589" lon="12.02887464392565"><ele>336.0</ele><time>2026-03-28T12:14:48Z</time></trkpt><trkpt lat="42.09988731709185" lon="12.028745403617792"><ele>335.0</ele><time>2026-03-28T12:14:49Z</time></trkpt><trkpt lat="42.09987450826075" lon="12.02862334765737"><ele>334.0</ele><time>2026-03-28T12:14:50Z</time></trkpt><trkpt lat="42.09986415368654" lon="12.028509798690576"><ele>333.0</ele><time>2026-03-28T12:14:51Z</time></trkpt><trkpt lat="42.0998570029258" lon="12.028411857575513"><ele>333.0</ele><time>2026-03-28T12:14:52Z</time></trkpt><trkpt lat="42.09986051190352" lon="12.028315627949869"><ele>333.0</ele><time>2026-03-28T12:14:53Z</time></trkpt><trkpt lat="42.099876066645834" lon="12.028224006390344"><ele>333.0</ele><time>2026-03-28T12:14:54Z</time></trkpt><trkpt lat="42.099906402071845" lon="12.028118004629052"><ele>333.0</ele><time>2026-03-28T12:14:55Z</time></trkpt><trkpt lat="42.09994989187867" lon="12.028000148208976"><ele>333.0</ele><time>2026-03-28T12:14:56Z</time></trkpt><trkpt lat="42.09999200179301" lon="12.02788219054845"><ele>333.0</ele><time>2026-03-28T12:14:57Z</time></trkpt><trkpt lat="42.10001736114663" lon="12.027763917792765"><ele>334.2</ele><time>2026-03-28T12:14:58Z</time></trkpt><trkpt lat="42.10003325501544" lon="12.02764854923457"><ele>335.4</ele><time>2026-03-28T12:14:59Z</time></trkpt><trkpt lat="42.10005133075304" lon="12.027540024806514"><ele>336.59999999999997</ele><time>2026-03-28T12:15:00Z</time></trkpt><trkpt lat="42.100068268873486" lon="12.027427976924438"><ele>337.79999999999995</ele><time>2026-03-28T12:15:01Z</time></trkpt><trkpt lat="42.10007760986596" lon="12.02729468303"><ele>339.0</ele><time>2026-03-28T12:15:02Z</time></trkpt><trkpt lat="42.10007146229303" lon="12.027164332990534"><ele>339.0</ele><time>2026-03-28T12:15:03Z</time></trkpt><trkpt lat="42.100064064346526" lon="12.027014537521394"><ele>339.0</ele><time>2026-03-28T12:15:04Z</time></trkpt><trkpt lat="42.100043325604595" lon="12.026871271616542"><ele>339.0</ele><time>2026-03-28T12:15:05Z</time></trkpt><trkpt lat="42.100018437487016" lon="12.0267380408445"><ele>339.0</ele><time>2026-03-28T12:15:06Z</time></trkpt><trkpt lat="42.099983208398164" lon="12.026614961177328"><ele>339.0</ele><time>2026-03-28T12:15:07Z</time></trkpt><trkpt lat="42.099951505858286" lon="12.026499200680924"><ele>338.2</ele><time>2026-03-28T12:15:08Z</time></trkpt><trkpt lat="42.099928671707175" lon="12.026387855436614"><ele>337.4</ele><time>2026-03-28T12:15:09Z</time></trkpt><trkpt lat="42.099918883687074" lon="12.026272158034518"><ele>336.6</ele><time>2026-03-28T12:15:10Z</time></trkpt><trkpt lat="42.09992189842996" lon="12.026141939262851"><ele>335.8</ele><time>2026-03-28T12:15:11Z</time></trkpt><trkpt lat="42.09992177557852" lon="12.026002135316995"><ele>335.0</ele><time>2026-03-28T12:15:12Z</time></trkpt><trkpt lat="42.09991809270879" lon="12.025867202831169"><ele>332.2</ele><time>2026-03-28T12:15:13Z</time></trkpt><trkpt lat="42.09991283110577" lon="12.025725328147573"><ele>329.4</ele><time>2026-03-28T12:15:14Z</time></trkpt><trkpt lat="42.099904037424686" lon="12.0255809000956"><ele>326.6</ele><time>2026-03-28T12:15:15Z</time></trkpt><trkpt lat="42.09989351829849" lon="12.025431848664075"><ele>323.8</ele><time>2026-03-28T12:15:16Z</time></trkpt><trkpt lat="42.09988588061542" lon="12.025289787913758"><ele>321.0</ele><time>2026-03-28T12:15:17Z</time></trkpt><trkpt lat="42.09987721844217" lon="12.025153325457952"><ele>321.0</ele><time>2026-03-28T12:15:18Z</time></trkpt><trkpt lat="42.09988362885438" lon="12.025015493553099"><ele>321.0</ele><time>2026-03-28T12:15:19Z</time></trkpt><trkpt lat="42.09987139143414" lon="12.024874700589926"><ele>321.0</ele><time>2026-03-28T12:15:20Z</time></trkpt><trkpt lat="42.09985329498804" lon="12.024729935145062"><ele>321.0</ele><time>2026-03-28T12:15:21Z</time></trkpt><trkpt lat="42.099827837424954" lon="12.024571681865893"><ele>321.0</ele><time>2026-03-28T12:15:22Z</time></trkpt><trkpt lat="42.0998001477513" lon="12.024416357428208"><ele>321.6</ele><time>2026-03-28T12:15:23Z</time></trkpt><trkpt lat="42.0997550134796" lon="12.024275845757474"><ele>322.20000000000005</ele><time>2026-03-28T12:15:24Z</time></trkpt><trkpt lat="42.09972703471339" lon="12.024147845148464"><ele>322.79999999999995</ele><time>2026-03-28T12:15:25Z</time></trkpt><trkpt lat="42.09969276742361" lon="12.024030971206864"><ele>323.4</ele><time>2026-03-28T12:15:26Z</time></trkpt><trkpt lat="42.09963810362219" lon="12.02389207047494"><ele>324.0</ele><time>2026-03-28T12:15:27Z</time></trkpt><trkpt lat="42.0995762779" lon="12.023726647886656"><ele>326.0</ele><time>2026-03-28T12:15:28Z</time></trkpt><trkpt lat="42.09951524399378" lon="12.023552339733397"><ele>328.0</ele><time>2026-03-28T12:15:29Z</time></trkpt><trkpt lat="42.09947983141171" lon="12.023392760085281"><ele>330.0</ele><time>2026-03-28T12:15:30Z</time></trkpt><trkpt lat="42.09946510731534" lon="12.023212698947454"><ele>332.0</ele><time>2026-03-28T12:15:31Z</time></trkpt><trkpt lat="42.099438593968515" lon="12.023041724402075"><ele>333.6</ele><time>2026-03-28T12:15:32Z</time></trkpt><trkpt lat="42.09941512407151" lon="12.022911461422582"><ele>335.20000000000005</ele><time>2026-03-28T12:15:33Z</time></trkpt><trkpt lat="42.09939469521044" lon="12.022782740462334"><ele>336.8</ele><time>2026-03-28T12:15:34Z</time></trkpt><trkpt lat="42.099372971762655" lon="12.02265974690416"><ele>338.4</ele><time>2026-03-28T12:15:35Z</time></trkpt><trkpt lat="42.09936263338045" lon="12.022538383756217"><ele>340.0</ele><time>2026-03-28T12:15:36Z</time></trkpt><trkpt lat="42.09936265675291" lon="12.02239299415826"><ele>340.5</ele><time>2026-03-28T12:15:37Z</time></trkpt><trkpt lat="42.099321454962514" lon="12.022247852887116"><ele>341.0</ele><time>2026-03-28T12:15:38Z</time></trkpt><trkpt lat="42.09929602416202" lon="12.022098685818271"><ele>341.5</ele><time>2026-03-28T12:15:39Z</time></trkpt><trkpt lat="42.099281940985314" lon="12.021947064839836"><ele>342.0</ele><time>2026-03-28T12:15:40Z</time></trkpt><trkpt lat="42.099264940466746" lon="12.021793091513988"><ele>342.0</ele><time>2026-03-28T12:15:41Z</time></trkpt><trkpt lat="42.09924688580926" lon="12.021649561488474"><ele>342.0</ele><time>2026-03-28T12:15:42Z</time></trkpt><trkpt lat="42.09922583098934" lon="12.021503031212212"><ele>342.0</ele><time>2026-03-28T12:15:43Z</time></trkpt><trkpt lat="42.09921290060984" lon="12.021363071988388"><ele>342.0</ele><time>2026-03-28T12:15:44Z</time></trkpt><trkpt lat="42.09922156000163" lon="12.02121508955665"><ele>342.0</ele><time>2026-03-28T12:15:45Z</time></trkpt><trkpt lat="42.09919514477149" lon="12.0210682539531"><ele>343.40000000000003</ele><time>2026-03-28T12:15:46Z</time></trkpt><trkpt lat="42.099183702195845" lon="12.020931916241437"><ele>344.8</ele><time>2026-03-28T12:15:47Z</time></trkpt><trkpt lat="42.0991663559342" lon="12.020815826721595"><ele>346.2</ele><time>2026-03-28T12:15:48Z</time></trkpt><trkpt lat="42.099147222780665" lon="12.020695410507441"><ele>347.6</ele><time>2026-03-28T12:15:49Z</time></trkpt><trkpt lat="42.099124752142586" lon="12.020569044867205"><ele>349.0</ele><time>2026-03-28T12:15:50Z</time></trkpt><trkpt lat="42.099101023095926" lon="12.020439653765882"><ele>349.0</ele><time>2026-03-28T12:15:51Z</time></trkpt><trkpt lat="42.09907245194949" lon="12.020304267235465"><ele>349.0</ele><time>2026-03-28T12:15:52Z</time></trkpt><trkpt lat="42.09905723934599" lon="12.020162085954183"><ele>349.0</ele><time>2026-03-28T12:15:53Z</time></trkpt><trkpt lat="42.09902879448979" lon="12.02003283878749"><ele>349.0</ele><time>2026-03-28T12:15:54Z</time></trkpt><trkpt lat="42.09899038667801" lon="12.019907671334982"><ele>349.0</ele><time>2026-03-28T12:15:55Z</time></trkpt><trkpt lat="42.09896978027941" lon="12.019768281542042"><ele>349.0</ele><time>2026-03-28T12:15:56Z</time></trkpt><trkpt lat="42.09893478864792" lon="12.019627544203079"><ele>349.0</ele><time>2026-03-28T12:15:57Z</time></trkpt><trkpt lat="42.09888706944453" lon="12.019503272721575"><ele>349.0</ele><time>2026-03-28T12:15:58Z</time></trkpt><trkpt lat="42.09884174115157" lon="12.01939147869746"><ele>349.0</ele><time>2026-03-28T12:15:59Z</time></trkpt><trkpt lat="42.09881573244333" lon="12.019292631094801"><ele>349.0</ele><time>2026-03-28T12:16:00Z</time></trkpt><trkpt lat="42.09881484670194" lon="12.019184967893908"><ele>349.6</ele><time>2026-03-28T12:16:01Z</time></trkpt><trkpt lat="42.09885965653765" lon="12.019066440910173"><ele>350.2</ele><time>2026-03-28T12:16:02Z</time></trkpt><trkpt lat="42.09888364131254" lon="12.018913294182708"><ele>350.8</ele><time>2026-03-28T12:16:03Z</time></trkpt><trkpt lat="42.09892047691465" lon="12.018796185349052"><ele>351.40000000000003</ele><time>2026-03-28T12:16:04Z</time></trkpt><trkpt lat="42.09895672201154" lon="12.018676440923008"><ele>352.0</ele><time>2026-03-28T12:16:05Z</time></trkpt><trkpt lat="42.09899088106653" lon="12.01855680547862"><ele>352.0</ele><time>2026-03-28T12:16:06Z</time></trkpt><trkpt lat="42.0990499145754" lon="12.01849348548908"><ele>352.0</ele><time>2026-03-28T12:16:07Z</time></trkpt><trkpt lat="42.099089349960686" lon="12.01839758444753"><ele>352.0</ele><time>2026-03-28T12:16:08Z</time></trkpt><trkpt lat="42.09914588491048" lon="12.018319153717478"><ele>352.0</ele><time>2026-03-28T12:16:09Z</time></trkpt><trkpt lat="42.09916747987982" lon="12.018201400091376"><ele>352.0</ele><time>2026-03-28T12:16:10Z</time></trkpt><trkpt lat="42.099200524121024" lon="12.01806392707233"><ele>352.0</ele><time>2026-03-28T12:16:11Z</time></trkpt><trkpt lat="42.09923620306685" lon="12.017949471074544"><ele>354.8</ele><time>2026-03-28T12:16:12Z</time></trkpt><trkpt lat="42.09924000364163" lon="12.01784311712054"><ele>357.6</ele><time>2026-03-28T12:16:13Z</time></trkpt><trkpt lat="42.09921371695811" lon="12.01774713407058"><ele>360.40000000000003</ele><time>2026-03-28T12:16:14Z</time></trkpt><trkpt lat="42.099183629952634" lon="12.017636521646478"><ele>363.20000000000005</ele><time>2026-03-28T12:16:15Z</time></trkpt><trkpt lat="42.09914469573326" lon="12.017514747316596"><ele>366.0</ele><time>2026-03-28T12:16:16Z</time></trkpt><trkpt lat="42.09912052734002" lon="12.017364555846115"><ele>366.25</ele><time>2026-03-28T12:16:17Z</time></trkpt><trkpt lat="42.099101152856306" lon="12.017205036015191"><ele>366.5</ele><time>2026-03-28T12:16:18Z</time></trkpt><trkpt lat="42.09910169639726" lon="12.01704080611244"><ele>366.75</ele><time>2026-03-28T12:16:19Z</time></trkpt><trkpt lat="42.09909138691667" lon="12.016870819639728"><ele>367.0</ele><time>2026-03-28T12:16:20Z</time></trkpt><trkpt lat="42.09905979344636" lon="12.016708468105596"><ele>367.5</ele><time>2026-03-28T12:16:21Z</time></trkpt><trkpt lat="42.099036171614834" lon="12.016548388709785"><ele>368.0</ele><time>2026-03-28T12:16:22Z</time></trkpt><trkpt lat="42.099042056904324" lon="12.016387971393304"><ele>368.5</ele><time>2026-03-28T12:16:23Z</time></trkpt><trkpt lat="42.099059808115996" lon="12.016223043246754"><ele>369.0</ele><time>2026-03-28T12:16:24Z</time></trkpt><trkpt lat="42.09908838301226" lon="12.016050822123272"><ele>369.0</ele><time>2026-03-28T12:16:25Z</time></trkpt><trkpt lat="42.09913061970316" lon="12.015895714465339"><ele>369.0</ele><time>2026-03-28T12:16:26Z</time></trkpt><trkpt lat="42.099172445435" lon="12.015732725923373"><ele>369.0</ele><time>2026-03-28T12:16:27Z</time></trkpt><trkpt lat="42.09920686091999" lon="12.015590179436675"><ele>369.0</ele><time>2026-03-28T12:16:28Z</time></trkpt><trkpt lat="42.099246456804494" lon="12.015462427244962"><ele>369.0</ele><time>2026-03-28T12:16:29Z</time></trkpt><trkpt lat="42.09928416673018" lon="12.015327292698904"><ele>369.0</ele><time>2026-03-28T12:16:30Z</time></trkpt><trkpt lat="42.099301432672455" lon="12.015190524467647"><ele>369.0</ele><time>2026-03-28T12:16:31Z</time></trkpt><trkpt lat="42.099297187761216" lon="12.015052934890415"><ele>369.0</ele><time>2026-03-28T12:16:32Z</time></trkpt><trkpt lat="42.09928456997579" lon="12.014925038254054"><ele>369.0</ele><time>2026-03-28T12:16:33Z</time></trkpt><trkpt lat="42.099304060585524" lon="12.01479802408293"><ele>369.0</ele><time>2026-03-28T12:16:34Z</time></trkpt><trkpt lat="42.099316884436966" lon="12.014650148159738"><ele>369.0</ele><time>2026-03-28T12:16:35Z</time></trkpt><trkpt lat="42.099352734902254" lon="12.014507879508875"><ele>369.0</ele><time>2026-03-28T12:16:36Z</time></trkpt><trkpt lat="42.099395392591546" lon="12.014352231948894"><ele>369.0</ele><time>2026-03-28T12:16:37Z</time></trkpt><trkpt lat="42.09943586603149" lon="12.014193469309909"><ele>368.4</ele><time>2026-03-28T12:16:38Z</time></trkpt><trkpt lat="42.09943994495318" lon="12.014019224872696"><ele>367.79999999999995</ele><time>2026-03-28T12:16:39Z</time></trkpt><trkpt lat="42.099440074790614" lon="12.013876743510135"><ele>367.20000000000005</ele><time>2026-03-28T12:16:40Z</time></trkpt><trkpt lat="42.099429987069655" lon="12.013752397920559"><ele>366.6</ele><time>2026-03-28T12:16:41Z</time></trkpt><trkpt lat="42.09943327697458" lon="12.013637223660487"><ele>366.0</ele><time>2026-03-28T12:16:42Z</time></trkpt><trkpt lat="42.09947260721291" lon="12.013531908230968"><ele>366.0</ele><time>2026-03-28T12:16:43Z</time></trkpt><trkpt lat="42.099508102337225" lon="12.013428404097338"><ele>366.0</ele><time>2026-03-28T12:16:44Z</time></trkpt><trkpt lat="42.099552546584434" lon="12.01330406077781"><ele>366.0</ele><time>2026-03-28T12:16:45Z</time></trkpt><trkpt lat="42.09960454780797" lon="12.013173865338993"><ele>366.0</ele><time>2026-03-28T12:16:46Z</time></trkpt><trkpt lat="42.099662915749484" lon="12.013037478692759"><ele>366.0</ele><time>2026-03-28T12:16:47Z</time></trkpt><trkpt lat="42.09970112136614" lon="12.012885940649417"><ele>366.4</ele><time>2026-03-28T12:16:48Z</time></trkpt><trkpt lat="42.09975086279983" lon="12.012732998387937"><ele>366.8</ele><time>2026-03-28T12:16:49Z</time></trkpt><trkpt lat="42.09976986249075" lon="12.01259855113315"><ele>367.2</ele><time>2026-03-28T12:16:50Z</time></trkpt><trkpt lat="42.099769768598875" lon="12.012472043501544"><ele>367.59999999999997</ele><time>2026-03-28T12:16:51Z</time></trkpt><trkpt lat="42.099774981700115" lon="12.012374585941144"><ele>368.0</ele><time>2026-03-28T12:16:52Z</time></trkpt><trkpt lat="42.099737755248256" lon="12.01227510513025"><ele>368.0</ele><time>2026-03-28T12:16:53Z</time></trkpt><trkpt lat="42.0997136150263" lon="12.012185679644993"><ele>368.0</ele><time>2026-03-28T12:16:54Z</time></trkpt><trkpt lat="42.09969124963285" lon="12.012094443167076"><ele>368.0</ele><time>2026-03-28T12:16:55Z</time></trkpt><trkpt lat="42.099680912324" lon="12.0120103335156"><ele>368.0</ele><time>2026-03-28T12:16:56Z</time></trkpt><trkpt lat="42.099673071641796" lon="12.011865272904453"><ele>368.0</ele><time>2026-03-28T12:16:57Z</time></trkpt><trkpt lat="42.09966072455704" lon="12.011741851229628"><ele>368.0</ele><time>2026-03-28T12:16:58Z</time></trkpt><trkpt lat="42.09965175509031" lon="12.01161048384587"><ele>369.4</ele><time>2026-03-28T12:16:59Z</time></trkpt><trkpt lat="42.099640507049855" lon="12.011472145730195"><ele>370.79999999999995</ele><time>2026-03-28T12:17:00Z</time></trkpt><trkpt lat="42.099621748747346" lon="12.011327164523351"><ele>372.2</ele><time>2026-03-28T12:17:01Z</time></trkpt><trkpt lat="42.099605261492755" lon="12.011182527269312"><ele>373.6</ele><time>2026-03-28T12:17:02Z</time></trkpt><trkpt lat="42.09954019095537" lon="12.01107120170614"><ele>375.0</ele><time>2026-03-28T12:17:03Z</time></trkpt><trkpt lat="42.09947793520415" lon="12.01096274716977"><ele>375.0</ele><time>2026-03-28T12:17:04Z</time></trkpt><trkpt lat="42.09940443266977" lon="12.01086190557784"><ele>375.0</ele><time>2026-03-28T12:17:05Z</time></trkpt><trkpt lat="42.09931705288113" lon="12.010757588161821"><ele>375.0</ele><time>2026-03-28T12:17:06Z</time></trkpt><trkpt lat="42.09923934927045" lon="12.010637739687034"><ele>375.0</ele><time>2026-03-28T12:17:07Z</time></trkpt><trkpt lat="42.09919577899607" lon="12.010464272304306"><ele>374.0</ele><time>2026-03-28T12:17:08Z</time></trkpt><trkpt lat="42.099114204288945" lon="12.010298244585352"><ele>373.0</ele><time>2026-03-28T12:17:09Z</time></trkpt><trkpt lat="42.099022571015645" lon="12.010151862751993"><ele>372.0</ele><time>2026-03-28T12:17:10Z</time></trkpt><trkpt lat="42.098978794600605" lon="12.010013902459491"><ele>371.0</ele><time>2026-03-28T12:17:11Z</time></trkpt><trkpt lat="42.09894314898339" lon="12.009900113879977"><ele>375.25</ele><time>2026-03-28T12:17:12Z</time></trkpt><trkpt lat="42.09890834491847" lon="12.00975606057314"><ele>379.5</ele><time>2026-03-28T12:17:13Z</time></trkpt><trkpt lat="42.09884876276731" lon="12.009620899446155"><ele>383.75</ele><time>2026-03-28T12:17:14Z</time></trkpt><trkpt lat="42.098785368402694" lon="12.009501473634474"><ele>388.0</ele><time>2026-03-28T12:17:15Z</time></trkpt><trkpt lat="42.09869515804068" lon="12.0094058028118"><ele>388.0</ele><time>2026-03-28T12:17:16Z</time></trkpt><trkpt lat="42.09858818558695" lon="12.009317296310073"><ele>388.0</ele><time>2026-03-28T12:17:17Z</time></trkpt><trkpt lat="42.09847672656847" lon="12.009245840402267"><ele>388.0</ele><time>2026-03-28T12:17:18Z</time></trkpt><trkpt lat="42.09836415947583" lon="12.009174260761586"><ele>388.0</ele><time>2026-03-28T12:17:19Z</time></trkpt><trkpt lat="42.09823585004152" lon="12.009138619502348"><ele>388.4</ele><time>2026-03-28T12:17:20Z</time></trkpt><trkpt lat="42.098107308914344" lon="12.009132127623507"><ele>388.79999999999995</ele><time>2026-03-28T12:17:21Z</time></trkpt><trkpt lat="42.097997264173465" lon="12.009111905839289"><ele>389.2</ele><time>2026-03-28T12:17:22Z</time></trkpt><trkpt lat="42.09789876690775" lon="12.009106543615863"><ele>389.6</ele><time>2026-03-28T12:17:23Z</time></trkpt><trkpt lat="42.097799245073354" lon="12.009095127563784"><ele>390.0</ele><time>2026-03-28T12:17:24Z</time></trkpt><trkpt lat="42.09771709688191" lon="12.009052537603665"><ele>390.0</ele><time>2026-03-28T12:17:25Z</time></trkpt><trkpt lat="42.09763431830222" lon="12.008977872408012"><ele>390.0</ele><time>2026-03-28T12:17:26Z</time></trkpt><trkpt lat="42.09756636627772" lon="12.008902361972392"><ele>390.0</ele><time>2026-03-28T12:17:27Z</time></trkpt><trkpt lat="42.097513289774895" lon="12.00883627052748"><ele>390.0</ele><time>2026-03-28T12:17:28Z</time></trkpt><trkpt lat="42.097473702434996" lon="12.008766630012772"><ele>390.0</ele><time>2026-03-28T12:17:29Z</time></trkpt><trkpt lat="42.09743804736932" lon="12.00867573337931"><ele>390.0</ele><time>2026-03-28T12:17:30Z</time></trkpt><trkpt lat="42.097404588266606" lon="12.008548306958517"><ele>383.75</ele><time>2026-03-28T12:17:31Z</time></trkpt><trkpt lat="42.09736977722371" lon="12.008388694448387"><ele>377.5</ele><time>2026-03-28T12:17:32Z</time></trkpt><trkpt lat="42.09734094912834" lon="12.008214792553206"><ele>371.25</ele><time>2026-03-28T12:17:33Z</time></trkpt><trkpt lat="42.09732093935715" lon="12.008050430714466"><ele>365.0</ele><time>2026-03-28T12:17:34Z</time></trkpt><trkpt lat="42.09730780974756" lon="12.007913497029987"><ele>365.0</ele><time>2026-03-28T12:17:35Z</time></trkpt><trkpt lat="42.09730124375798" lon="12.007771467088721"><ele>365.0</ele><time>2026-03-28T12:17:36Z</time></trkpt><trkpt lat="42.09730624062743" lon="12.007628681471402"><ele>365.0</ele><time>2026-03-28T12:17:37Z</time></trkpt><trkpt lat="42.097315405176694" lon="12.00747430801953"><ele>365.0</ele><time>2026-03-28T12:17:38Z</time></trkpt><trkpt lat="42.09733546604948" lon="12.007316370466125"><ele>365.0</ele><time>2026-03-28T12:17:39Z</time></trkpt><trkpt lat="42.0973574500817" lon="12.00715357285778"><ele>366.2</ele><time>2026-03-28T12:17:40Z</time></trkpt><trkpt lat="42.09738318902276" lon="12.006998418428273"><ele>367.4</ele><time>2026-03-28T12:17:41Z</time></trkpt><trkpt lat="42.09740628916028" lon="12.006853019287757"><ele>368.6</ele><time>2026-03-28T12:17:42Z</time></trkpt><trkpt lat="42.09739903407405" lon="12.006722166729432"><ele>369.8</ele><time>2026-03-28T12:17:43Z</time></trkpt><trkpt lat="42.09736376902375" lon="12.006596036832413"><ele>371.0</ele><time>2026-03-28T12:17:44Z</time></trkpt><trkpt lat="42.09730410956068" lon="12.006470197807857"><ele>374.75</ele><time>2026-03-28T12:17:45Z</time></trkpt><trkpt lat="42.09724464898275" lon="12.006341605615777"><ele>378.5</ele><time>2026-03-28T12:17:46Z</time></trkpt><trkpt lat="42.097189186428544" lon="12.006203445338468"><ele>382.25</ele><time>2026-03-28T12:17:47Z</time></trkpt><trkpt lat="42.09713811882143" lon="12.00606334604093"><ele>386.0</ele><time>2026-03-28T12:17:48Z</time></trkpt><trkpt lat="42.09709309946552" lon="12.005924922355165"><ele>388.66666666666663</ele><time>2026-03-28T12:17:49Z</time></trkpt><trkpt lat="42.09705123978444" lon="12.005811907936119"><ele>391.3333333333333</ele><time>2026-03-28T12:17:50Z</time></trkpt><trkpt lat="42.09700191781409" lon="12.0057120810723"><ele>394.0</ele><time>2026-03-28T12:17:51Z</time></trkpt><trkpt lat="42.096944349106565" lon="12.00561668927534"><ele>396.66666666666663</ele><time>2026-03-28T12:17:52Z</time></trkpt><trkpt lat="42.09687979354963" lon="12.00553944167426"><ele>399.3333333333333</ele><time>2026-03-28T12:17:53Z</time></trkpt><trkpt lat="42.09679436778873" lon="12.005528571934013"><ele>402.0</ele><time>2026-03-28T12:17:54Z</time></trkpt><trkpt lat="42.096715489240516" lon="12.005477892407884"><ele>402.0</ele><time>2026-03-28T12:17:55Z</time></trkpt><trkpt lat="42.09661623650552" lon="12.005471657884282"><ele>402.0</ele><time>2026-03-28T12:17:56Z</time></trkpt><trkpt lat="42.0964929730458" lon="12.005440138357429"><ele>402.0</ele><time>2026-03-28T12:17:57Z</time></trkpt><trkpt lat="42.09636431767644" lon="12.005441019553484"><ele>402.0</ele><time>2026-03-28T12:17:58Z</time></trkpt><trkpt lat="42.09625809002309" lon="12.005472734233585"><ele>401.1666666666667</ele><time>2026-03-28T12:17:59Z</time></trkpt><trkpt lat="42.09615882111715" lon="12.005453905827553"><ele>400.33333333333337</ele><time>2026-03-28T12:18:00Z</time></trkpt><trkpt lat="42.09607015358779" lon="12.005445720732725"><ele>399.5</ele><time>2026-03-28T12:18:01Z</time></trkpt><trkpt lat="42.09599066435409" lon="12.005438372204548"><ele>398.6666666666667</ele><time>2026-03-28T12:18:02Z</time></trkpt><trkpt lat="42.095920276582596" lon="12.00537139556489"><ele>397.83333333333337</ele><time>2026-03-28T12:18:03Z</time></trkpt><trkpt lat="42.09588029355019" lon="12.005262622595192"><ele>397.0</ele><time>2026-03-28T12:18:04Z</time></trkpt><trkpt lat="42.09581434682024" lon="12.005184324901906"><ele>397.0</ele><time>2026-03-28T12:18:05Z</time></trkpt><trkpt lat="42.095783362385184" lon="12.005059561202472"><ele>397.0</ele><time>2026-03-28T12:18:06Z</time></trkpt><trkpt lat="42.095757373054404" lon="12.004906174140572"><ele>397.0</ele><time>2026-03-28T12:18:07Z</time></trkpt><trkpt lat="42.09571770441376" lon="12.004731144952686"><ele>397.0</ele><time>2026-03-28T12:18:08Z</time></trkpt><trkpt lat="42.09566805952331" lon="12.004568375379948"><ele>397.0</ele><time>2026-03-28T12:18:09Z</time></trkpt><trkpt lat="42.095606791450855" lon="12.004434009339716"><ele>397.0</ele><time>2026-03-28T12:18:10Z</time></trkpt><trkpt lat="42.0955283977043" lon="12.004313077411854"><ele>397.0</ele><time>2026-03-28T12:18:11Z</time></trkpt><trkpt lat="42.09543457248085" lon="12.004204347337485"><ele>397.0</ele><time>2026-03-28T12:18:12Z</time></trkpt><trkpt lat="42.09535922797504" lon="12.004075755927095"><ele>397.0</ele><time>2026-03-28T12:18:13Z</time></trkpt><trkpt lat="42.0952837083604" lon="12.00393225059035"><ele>397.0</ele><time>2026-03-28T12:18:14Z</time></trkpt><trkpt lat="42.0951995113362" lon="12.00380591034757"><ele>397.0</ele><time>2026-03-28T12:18:15Z</time></trkpt><trkpt lat="42.095121952167595" lon="12.003663979746557"><ele>397.0</ele><time>2026-03-28T12:18:16Z</time></trkpt><trkpt lat="42.09504879109193" lon="12.003522142811578"><ele>397.0</ele><time>2026-03-28T12:18:17Z</time></trkpt><trkpt lat="42.09498449333284" lon="12.003385990916794"><ele>397.0</ele><time>2026-03-28T12:18:18Z</time></trkpt><trkpt lat="42.094958268996976" lon="12.003250757141846"><ele>397.0</ele><time>2026-03-28T12:18:19Z</time></trkpt><trkpt lat="42.09492858674906" lon="12.003128440885636"><ele>397.0</ele><time>2026-03-28T12:18:20Z</time></trkpt><trkpt lat="42.094920536406924" lon="12.002993012321138"><ele>397.0</ele><time>2026-03-28T12:18:21Z</time></trkpt><trkpt lat="42.09491385365008" lon="12.002836118407304"><ele>396.6</ele><time>2026-03-28T12:18:22Z</time></trkpt><trkpt lat="42.09490995434706" lon="12.00267173491954"><ele>396.20000000000005</ele><time>2026-03-28T12:18:23Z</time></trkpt><trkpt lat="42.09491419759952" lon="12.00251935555621"><ele>395.8</ele><time>2026-03-28T12:18:24Z</time></trkpt><trkpt lat="42.09492949902237" lon="12.002386317905154"><ele>395.4</ele><time>2026-03-28T12:18:25Z</time></trkpt><trkpt lat="42.09495344093946" lon="12.002243981419115"><ele>395.0</ele><time>2026-03-28T12:18:26Z</time></trkpt><trkpt lat="42.09496864532938" lon="12.002094556413423"><ele>395.0</ele><time>2026-03-28T12:18:27Z</time></trkpt><trkpt lat="42.09500573571231" lon="12.001952548504933"><ele>395.0</ele><time>2026-03-28T12:18:28Z</time></trkpt><trkpt lat="42.095039464777315" lon="12.001816209807629"><ele>395.0</ele><time>2026-03-28T12:18:29Z</time></trkpt><trkpt lat="42.095071838749256" lon="12.001697005716112"><ele>395.0</ele><time>2026-03-28T12:18:30Z</time></trkpt><trkpt lat="42.09510317914519" lon="12.001578964721773"><ele>395.0</ele><time>2026-03-28T12:18:31Z</time></trkpt><trkpt lat="42.095143650401674" lon="12.001460045024293"><ele>395.16666666666663</ele><time>2026-03-28T12:18:32Z</time></trkpt><trkpt lat="42.095186278509466" lon="12.00135040816719"><ele>395.3333333333333</ele><time>2026-03-28T12:18:33Z</time></trkpt><trkpt lat="42.095225776637534" lon="12.001232436992751"><ele>395.5</ele><time>2026-03-28T12:18:34Z</time></trkpt><trkpt lat="42.09528132314746" lon="12.001131937962883"><ele>395.66666666666663</ele><time>2026-03-28T12:18:35Z</time></trkpt><trkpt lat="42.09531370943264" lon="12.001033850365653"><ele>395.8333333333333</ele><time>2026-03-28T12:18:36Z</time></trkpt><trkpt lat="42.09532515586388" lon="12.000922688229904"><ele>396.0</ele><time>2026-03-28T12:18:37Z</time></trkpt><trkpt lat="42.09533091635411" lon="12.000799780164144"><ele>394.0</ele><time>2026-03-28T12:18:38Z</time></trkpt><trkpt lat="42.095285186964404" lon="12.00067268910743"><ele>392.0</ele><time>2026-03-28T12:18:39Z</time></trkpt><trkpt lat="42.09523916454682" lon="12.000544472164576"><ele>390.0</ele><time>2026-03-28T12:18:40Z</time></trkpt><trkpt lat="42.09519785961618" lon="12.000413693974373"><ele>388.0</ele><time>2026-03-28T12:18:41Z</time></trkpt><trkpt lat="42.09514402159112" lon="12.00027706587676"><ele>386.0</ele><time>2026-03-28T12:18:42Z</time></trkpt><trkpt lat="42.09507767726549" lon="12.000140124547064"><ele>386.0</ele><time>2026-03-28T12:18:43Z</time></trkpt><trkpt lat="42.09500713631937" lon="12.000011929325089"><ele>386.0</ele><time>2026-03-28T12:18:44Z</time></trkpt><trkpt lat="42.09493749603849" lon="11.99988601206435"><ele>386.0</ele><time>2026-03-28T12:18:45Z</time></trkpt><trkpt lat="42.09486066164817" lon="11.999774890327863"><ele>386.0</ele><time>2026-03-28T12:18:46Z</time></trkpt><trkpt lat="42.094807387612974" lon="11.999661262441538"><ele>386.0</ele><time>2026-03-28T12:18:47Z</time></trkpt><trkpt lat="42.094761851602314" lon="11.99956587514157"><ele>386.4</ele><time>2026-03-28T12:18:48Z</time></trkpt><trkpt lat="42.094724574140216" lon="11.999484763964848"><ele>386.8</ele><time>2026-03-28T12:18:49Z</time></trkpt><trkpt lat="42.09467625518278" lon="11.999363070735772"><ele>387.2</ele><time>2026-03-28T12:18:51Z</time></trkpt><trkpt lat="42.09467747740481" lon="11.99926697229856"><ele>387.59999999999997</ele><time>2026-03-28T12:18:54Z</time></trkpt><trkpt lat="42.09454483181612" lon="11.99918715397605"><ele>388.0</ele><time>2026-03-28T12:18:57Z</time></trkpt><trkpt lat="42.09444233170927" lon="11.999171361280498"><ele>387.59999999999997</ele><time>2026-03-28T12:18:58Z</time></trkpt><trkpt lat="42.094337347993864" lon="11.999148223648238"><ele>387.2</ele><time>2026-03-28T12:18:59Z</time></trkpt><trkpt lat="42.094249770567124" lon="11.999126127729276"><ele>386.8</ele><time>2026-03-28T12:19:00Z</time></trkpt><trkpt lat="42.0941376566945" lon="11.999112062953738"><ele>386.4</ele><time>2026-03-28T12:19:01Z</time></trkpt><trkpt lat="42.09400684135577" lon="11.999084256517692"><ele>386.0</ele><time>2026-03-28T12:19:02Z</time></trkpt><trkpt lat="42.09393611252427" lon="11.999059689782298"><ele>387.0</ele><time>2026-03-28T12:19:03Z</time></trkpt><trkpt lat="42.09383791403942" lon="11.999032527989758"><ele>388.0</ele><time>2026-03-28T12:19:04Z</time></trkpt><trkpt lat="42.09372085646892" lon="11.999016236076466"><ele>389.0</ele><time>2026-03-28T12:19:05Z</time></trkpt><trkpt lat="42.0935628233523" lon="11.99899234970453"><ele>390.0</ele><time>2026-03-28T12:19:06Z</time></trkpt><trkpt lat="42.0934246157467" lon="11.99895784853171"><ele>390.0</ele><time>2026-03-28T12:19:07Z</time></trkpt><trkpt lat="42.093276559573546" lon="11.998922572911786"><ele>390.0</ele><time>2026-03-28T12:19:08Z</time></trkpt><trkpt lat="42.09314153480394" lon="11.998895686275016"><ele>390.0</ele><time>2026-03-28T12:19:09Z</time></trkpt><trkpt lat="42.09301602872646" lon="11.998867292390239"><ele>390.0</ele><time>2026-03-28T12:19:10Z</time></trkpt><trkpt lat="42.0928841215008" lon="11.998845070399073"><ele>391.0</ele><time>2026-03-28T12:19:11Z</time></trkpt><trkpt lat="42.092730790481994" lon="11.99882027233161"><ele>392.0</ele><time>2026-03-28T12:19:12Z</time></trkpt><trkpt lat="42.092554382785465" lon="11.998789334443197"><ele>393.0</ele><time>2026-03-28T12:19:13Z</time></trkpt><trkpt lat="42.09237748401706" lon="11.998753893062204"><ele>393.66666666666663</ele><time>2026-03-28T12:19:14Z</time></trkpt><trkpt lat="42.09219471708805" lon="11.998714003122407"><ele>394.3333333333333</ele><time>2026-03-28T12:19:15Z</time></trkpt><trkpt lat="42.09201719915002" lon="11.99868985955872"><ele>395.0</ele><time>2026-03-28T12:19:16Z</time></trkpt><trkpt lat="42.091818040448146" lon="11.99870302294995"><ele>395.0</ele><time>2026-03-28T12:19:17Z</time></trkpt><trkpt lat="42.09161768681746" lon="11.998711891707577"><ele>395.0</ele><time>2026-03-28T12:19:18Z</time></trkpt><trkpt lat="42.09141614078677" lon="11.998759929717975"><ele>395.0</ele><time>2026-03-28T12:19:19Z</time></trkpt><trkpt lat="42.09121963253689" lon="11.998775689049294"><ele>399.0</ele><time>2026-03-28T12:19:20Z</time></trkpt><trkpt lat="42.09103419747466" lon="11.998799209898168"><ele>403.0</ele><time>2026-03-28T12:19:21Z</time></trkpt><trkpt lat="42.09085533846258" lon="11.998826192410364"><ele>407.0</ele><time>2026-03-28T12:19:22Z</time></trkpt><trkpt lat="42.090683066816155" lon="11.998843991922914"><ele>408.3333333333333</ele><time>2026-03-28T12:19:23Z</time></trkpt><trkpt lat="42.09051696239806" lon="11.99885454072413"><ele>409.66666666666663</ele><time>2026-03-28T12:19:24Z</time></trkpt><trkpt lat="42.090360629501795" lon="11.9988619311179"><ele>411.0</ele><time>2026-03-28T12:19:25Z</time></trkpt><trkpt lat="42.09021370423155" lon="11.998845551744836"><ele>411.0</ele><time>2026-03-28T12:19:26Z</time></trkpt><trkpt lat="42.09006963050245" lon="11.998819564628159"><ele>411.0</ele><time>2026-03-28T12:19:27Z</time></trkpt><trkpt lat="42.08990939382656" lon="11.998795966661417"><ele>411.0</ele><time>2026-03-28T12:19:28Z</time></trkpt><trkpt lat="42.0897506340362" lon="11.998767489485719"><ele>412.33333333333337</ele><time>2026-03-28T12:19:29Z</time></trkpt><trkpt lat="42.089587504980756" lon="11.998740101216791"><ele>413.6666666666667</ele><time>2026-03-28T12:19:30Z</time></trkpt><trkpt lat="42.08941796160467" lon="11.998716740048874"><ele>415.0</ele><time>2026-03-28T12:19:31Z</time></trkpt><trkpt lat="42.08924931453378" lon="11.998693665603787"><ele>415.6666666666667</ele><time>2026-03-28T12:19:32Z</time></trkpt><trkpt lat="42.08907945314166" lon="11.998670777666709"><ele>416.33333333333337</ele><time>2026-03-28T12:19:33Z</time></trkpt><trkpt lat="42.088912460578236" lon="11.998651543071512"><ele>417.0</ele><time>2026-03-28T12:19:34Z</time></trkpt><trkpt lat="42.08875798242056" lon="11.99864654971943"><ele>417.0</ele><time>2026-03-28T12:19:35Z</time></trkpt><trkpt lat="42.088611754526625" lon="11.998607019256971"><ele>417.0</ele><time>2026-03-28T12:19:36Z</time></trkpt><trkpt lat="42.08845606621685" lon="11.998605547676918"><ele>417.0</ele><time>2026-03-28T12:19:37Z</time></trkpt><trkpt lat="42.088295393890206" lon="11.998566324600983"><ele>414.66666666666663</ele><time>2026-03-28T12:19:38Z</time></trkpt><trkpt lat="42.08813400912215" lon="11.998518203806437"><ele>412.3333333333333</ele><time>2026-03-28T12:19:39Z</time></trkpt><trkpt lat="42.08798083099018" lon="11.998457347635032"><ele>410.0</ele><time>2026-03-28T12:19:40Z</time></trkpt><trkpt lat="42.08783038753791" lon="11.998402030081564"><ele>410.0</ele><time>2026-03-28T12:19:41Z</time></trkpt><trkpt lat="42.08768993176371" lon="11.998367099109203"><ele>410.0</ele><time>2026-03-28T12:19:42Z</time></trkpt><trkpt lat="42.087536483378315" lon="11.99832945345392"><ele>410.0</ele><time>2026-03-28T12:19:43Z</time></trkpt><trkpt lat="42.08737141717256" lon="11.998324289535596"><ele>417.3333333333333</ele><time>2026-03-28T12:19:44Z</time></trkpt><trkpt lat="42.087204703868004" lon="11.998323540788435"><ele>424.66666666666663</ele><time>2026-03-28T12:19:45Z</time></trkpt><trkpt lat="42.0870300716145" lon="11.998323540787831"><ele>432.0</ele><time>2026-03-28T12:19:46Z</time></trkpt><trkpt lat="42.08685574296541" lon="11.998322911053828"><ele>432.0</ele><time>2026-03-28T12:19:47Z</time></trkpt><trkpt lat="42.08668532879599" lon="11.998319816287065"><ele>432.0</ele><time>2026-03-28T12:19:48Z</time></trkpt><trkpt lat="42.08652586532802" lon="11.998314961996062"><ele>432.0</ele><time>2026-03-28T12:19:49Z</time></trkpt><trkpt lat="42.08637071128841" lon="11.998309163623837"><ele>432.66666666666663</ele><time>2026-03-28T12:19:50Z</time></trkpt><trkpt lat="42.08621031658624" lon="11.998302937972161"><ele>433.3333333333333</ele><time>2026-03-28T12:19:51Z</time></trkpt><trkpt lat="42.08604815856051" lon="11.998298478460972"><ele>434.0</ele><time>2026-03-28T12:19:52Z</time></trkpt><trkpt lat="42.0858897131221" lon="11.998303212657326"><ele>437.3333333333333</ele><time>2026-03-28T12:19:53Z</time></trkpt><trkpt lat="42.085737507910395" lon="11.998313065319627"><ele>440.66666666666663</ele><time>2026-03-28T12:19:54Z</time></trkpt><trkpt lat="42.085590585967054" lon="11.998341420650837"><ele>444.0</ele><time>2026-03-28T12:19:55Z</time></trkpt><trkpt lat="42.085435866731935" lon="11.998334642897966"><ele>435.33333333333337</ele><time>2026-03-28T12:19:56Z</time></trkpt><trkpt lat="42.085272963372084" lon="11.998358000355738"><ele>426.6666666666667</ele><time>2026-03-28T12:19:57Z</time></trkpt><trkpt lat="42.08510779809407" lon="11.998394959246873"><ele>418.0</ele><time>2026-03-28T12:19:58Z</time></trkpt><trkpt lat="42.084956814609306" lon="11.998447825250452"><ele>420.50000000000006</ele><time>2026-03-28T12:19:59Z</time></trkpt><trkpt lat="42.084861159404916" lon="11.998484561969546"><ele>423.0</ele><time>2026-03-28T12:20:00Z</time></trkpt><trkpt lat="42.084781983506105" lon="11.998513664809925"><ele>425.5</ele><time>2026-03-28T12:20:01Z</time></trkpt><trkpt lat="42.08470726010862" lon="11.998520932420211"><ele>428.0</ele><time>2026-03-28T12:20:02Z</time></trkpt><trkpt lat="42.08462317718486" lon="11.998502943731413"><ele>430.50000000000006</ele><time>2026-03-28T12:20:03Z</time></trkpt><trkpt lat="42.08455187231968" lon="11.998496542453687"><ele>433.0</ele><time>2026-03-28T12:20:04Z</time></trkpt><trkpt lat="42.084455090475686" lon="11.99855158192022"><ele>433.0</ele><time>2026-03-28T12:20:05Z</time></trkpt><trkpt lat="42.084374568023925" lon="11.998633173228626"><ele>432.99999999999994</ele><time>2026-03-28T12:20:06Z</time></trkpt><trkpt lat="42.08428107908809" lon="11.998713907783577"><ele>432.99999999999994</ele><time>2026-03-28T12:20:07Z</time></trkpt><trkpt lat="42.084221639878116" lon="11.99881397974836"><ele>433.0</ele><time>2026-03-28T12:20:08Z</time></trkpt><trkpt lat="42.084144677439" lon="11.998885999760212"><ele>433.0</ele><time>2026-03-28T12:20:09Z</time></trkpt><trkpt lat="42.08403587553689" lon="11.99892064105226"><ele>432.75</ele><time>2026-03-28T12:20:10Z</time></trkpt><trkpt lat="42.08392255979936" lon="11.99899253039845"><ele>432.5</ele><time>2026-03-28T12:20:11Z</time></trkpt><trkpt lat="42.08381399831615" lon="11.999064239303436"><ele>432.25</ele><time>2026-03-28T12:20:12Z</time></trkpt><trkpt lat="42.08372523222744" lon="11.999152920066388"><ele>432.0</ele><time>2026-03-28T12:20:13Z</time></trkpt><trkpt lat="42.08363591248004" lon="11.999194326053319"><ele>432.0</ele><time>2026-03-28T12:20:14Z</time></trkpt><trkpt lat="42.08354210501091" lon="11.999263290935454"><ele>432.00000000000006</ele><time>2026-03-28T12:20:15Z</time></trkpt><trkpt lat="42.08345602440845" lon="11.999324405458239"><ele>432.00000000000006</ele><time>2026-03-28T12:20:16Z</time></trkpt><trkpt lat="42.08336699797244" lon="11.999380825262051"><ele>432.0</ele><time>2026-03-28T12:20:17Z</time></trkpt><trkpt lat="42.083280620610466" lon="11.99942699557687"><ele>432.0</ele><time>2026-03-28T12:20:18Z</time></trkpt><trkpt lat="42.08317659910259" lon="11.999476015678043"><ele>433.40000000000003</ele><time>2026-03-28T12:20:19Z</time></trkpt><trkpt lat="42.0830675612405" lon="11.999518149489326"><ele>434.80000000000007</ele><time>2026-03-28T12:20:20Z</time></trkpt><trkpt lat="42.08295488714349" lon="11.999562190474863"><ele>436.2</ele><time>2026-03-28T12:20:21Z</time></trkpt><trkpt lat="42.082839874968734" lon="11.999578271038061"><ele>437.6</ele><time>2026-03-28T12:20:22Z</time></trkpt><trkpt lat="42.08274355484689" lon="11.999597048221275"><ele>439.0</ele><time>2026-03-28T12:20:23Z</time></trkpt><trkpt lat="42.082634737735525" lon="11.999627686042798"><ele>439.0</ele><time>2026-03-28T12:20:24Z</time></trkpt><trkpt lat="42.08252235535525" lon="11.99965989927538"><ele>439.0</ele><time>2026-03-28T12:20:25Z</time></trkpt><trkpt lat="42.08240880225395" lon="11.999688997429951"><ele>439.0</ele><time>2026-03-28T12:20:26Z</time></trkpt><trkpt lat="42.08231356012501" lon="11.999726611637934"><ele>439.0</ele><time>2026-03-28T12:20:27Z</time></trkpt><trkpt lat="42.08221841941046" lon="11.999784561375384"><ele>439.0</ele><time>2026-03-28T12:20:28Z</time></trkpt><trkpt lat="42.08212568836776" lon="11.99985256114204"><ele>441.79999999999995</ele><time>2026-03-28T12:20:29Z</time></trkpt><trkpt lat="42.082044827567486" lon="11.999929641983819"><ele>444.59999999999997</ele><time>2026-03-28T12:20:30Z</time></trkpt><trkpt lat="42.08196641936636" lon="12.000010133647821"><ele>447.4</ele><time>2026-03-28T12:20:31Z</time></trkpt><trkpt lat="42.081884488206214" lon="12.000083655949792"><ele>450.2</ele><time>2026-03-28T12:20:32Z</time></trkpt><trkpt lat="42.08179110245838" lon="12.000158968616788"><ele>453.0</ele><time>2026-03-28T12:20:33Z</time></trkpt><trkpt lat="42.081707633101736" lon="12.000239694756077"><ele>453.0</ele><time>2026-03-28T12:20:34Z</time></trkpt><trkpt lat="42.08162574883265" lon="12.000338033860308"><ele>453.0</ele><time>2026-03-28T12:20:35Z</time></trkpt><trkpt lat="42.08152770915574" lon="12.000447980908673"><ele>453.0</ele><time>2026-03-28T12:20:36Z</time></trkpt><trkpt lat="42.081421588050034" lon="12.000554842622293"><ele>453.0</ele><time>2026-03-28T12:20:37Z</time></trkpt><trkpt lat="42.081286878412634" lon="12.000655506321065"><ele>452.75</ele><time>2026-03-28T12:20:38Z</time></trkpt><trkpt lat="42.0811898663663" lon="12.000741819116715"><ele>452.5</ele><time>2026-03-28T12:20:39Z</time></trkpt><trkpt lat="42.081080253784336" lon="12.000830068607787"><ele>452.25</ele><time>2026-03-28T12:20:40Z</time></trkpt><trkpt lat="42.080984134006215" lon="12.00091053022806"><ele>452.0</ele><time>2026-03-28T12:20:41Z</time></trkpt><trkpt lat="42.08089071927735" lon="12.000975252204643"><ele>452.0</ele><time>2026-03-28T12:20:42Z</time></trkpt><trkpt lat="42.08078241974888" lon="12.001030766724552"><ele>452.0</ele><time>2026-03-28T12:20:43Z</time></trkpt><trkpt lat="42.08067857147199" lon="12.00107114766357"><ele>452.0</ele><time>2026-03-28T12:20:44Z</time></trkpt><trkpt lat="42.08056695147321" lon="12.001100887455735"><ele>452.0</ele><time>2026-03-28T12:20:45Z</time></trkpt><trkpt lat="42.08044840351299" lon="12.00110947358257"><ele>450.25</ele><time>2026-03-28T12:20:46Z</time></trkpt><trkpt lat="42.08032409407445" lon="12.001103763050574"><ele>448.5</ele><time>2026-03-28T12:20:47Z</time></trkpt><trkpt lat="42.08020519743665" lon="12.001078013838747"><ele>446.75</ele><time>2026-03-28T12:20:48Z</time></trkpt><trkpt lat="42.08009899931904" lon="12.001050526266676"><ele>445.0</ele><time>2026-03-28T12:20:49Z</time></trkpt><trkpt lat="42.07997895303077" lon="12.00102328697946"><ele>443.8</ele><time>2026-03-28T12:20:50Z</time></trkpt><trkpt lat="42.07984406922867" lon="12.000985832367528"><ele>442.6</ele><time>2026-03-28T12:20:51Z</time></trkpt><trkpt lat="42.07973934318624" lon="12.000946306321893"><ele>441.4</ele><time>2026-03-28T12:20:52Z</time></trkpt><trkpt lat="42.079642439326584" lon="12.000919187539928"><ele>440.2</ele><time>2026-03-28T12:20:53Z</time></trkpt><trkpt lat="42.079543828013534" lon="12.000896505641858"><ele>439.0</ele><time>2026-03-28T12:20:54Z</time></trkpt><trkpt lat="42.07944958936332" lon="12.000870164844354"><ele>439.0</ele><time>2026-03-28T12:20:55Z</time></trkpt><trkpt lat="42.07934733569493" lon="12.000843362550361"><ele>439.0</ele><time>2026-03-28T12:20:56Z</time></trkpt><trkpt lat="42.07924806719619" lon="12.000817077310487"><ele>439.0</ele><time>2026-03-28T12:20:57Z</time></trkpt><trkpt lat="42.079147309485556" lon="12.000789428898434"><ele>439.0</ele><time>2026-03-28T12:20:58Z</time></trkpt><trkpt lat="42.07904439623931" lon="12.000763996597671"><ele>439.0</ele><time>2026-03-28T12:20:59Z</time></trkpt><trkpt lat="42.07894086631478" lon="12.000734115436291"><ele>435.6</ele><time>2026-03-28T12:21:00Z</time></trkpt><trkpt lat="42.07884300655758" lon="12.000713523335806"><ele>432.2</ele><time>2026-03-28T12:21:01Z</time></trkpt><trkpt lat="42.078744535788864" lon="12.000691337517596"><ele>428.8</ele><time>2026-03-28T12:21:02Z</time></trkpt><trkpt lat="42.07865164317964" lon="12.000659311485286"><ele>425.40000000000003</ele><time>2026-03-28T12:21:03Z</time></trkpt><trkpt lat="42.07854911716248" lon="12.000631741240204"><ele>422.0</ele><time>2026-03-28T12:21:04Z</time></trkpt><trkpt lat="42.078447647314356" lon="12.000604842818214"><ele>422.0</ele><time>2026-03-28T12:21:05Z</time></trkpt><trkpt lat="42.078346136801464" lon="12.00057753783074"><ele>422.0</ele><time>2026-03-28T12:21:06Z</time></trkpt><trkpt lat="42.07824514545462" lon="12.000551869312686"><ele>422.0</ele><time>2026-03-28T12:21:07Z</time></trkpt><trkpt lat="42.07815433181318" lon="12.000521262017864"><ele>422.0</ele><time>2026-03-28T12:21:08Z</time></trkpt><trkpt lat="42.07805240320922" lon="12.000492508452417"><ele>422.0</ele><time>2026-03-28T12:21:09Z</time></trkpt><trkpt lat="42.07794570379228" lon="12.000466064768997"><ele>420.40000000000003</ele><time>2026-03-28T12:21:10Z</time></trkpt><trkpt lat="42.07784525257853" lon="12.00043804877515"><ele>418.8</ele><time>2026-03-28T12:21:11Z</time></trkpt><trkpt lat="42.077749208256364" lon="12.000409441640643"><ele>417.2</ele><time>2026-03-28T12:21:12Z</time></trkpt><trkpt lat="42.07765524714718" lon="12.000387863768456"><ele>415.6</ele><time>2026-03-28T12:21:13Z</time></trkpt><trkpt lat="42.077551639569506" lon="12.000357785817714"><ele>414.0</ele><time>2026-03-28T12:21:14Z</time></trkpt><trkpt lat="42.077452404632716" lon="12.000322873415609"><ele>413.0</ele><time>2026-03-28T12:21:15Z</time></trkpt><trkpt lat="42.07736101952884" lon="12.000282156854128"><ele>412.0</ele><time>2026-03-28T12:21:16Z</time></trkpt><trkpt lat="42.07726927326475" lon="12.000221292239276"><ele>411.0</ele><time>2026-03-28T12:21:17Z</time></trkpt><trkpt lat="42.0771752509279" lon="12.000155519657428"><ele>410.0</ele><time>2026-03-28T12:21:18Z</time></trkpt><trkpt lat="42.07708443430103" lon="12.000077467907685"><ele>409.0</ele><time>2026-03-28T12:21:19Z</time></trkpt><trkpt lat="42.076994468466566" lon="11.99997479104601"><ele>409.0</ele><time>2026-03-28T12:21:20Z</time></trkpt><trkpt lat="42.07689784671602" lon="11.999853726156111"><ele>409.0</ele><time>2026-03-28T12:21:21Z</time></trkpt><trkpt lat="42.076811573164655" lon="11.999728470011465"><ele>409.0</ele><time>2026-03-28T12:21:22Z</time></trkpt><trkpt lat="42.07672309057237" lon="11.999590730789949"><ele>409.0</ele><time>2026-03-28T12:21:23Z</time></trkpt><trkpt lat="42.07663318458432" lon="11.999441691335143"><ele>408.5</ele><time>2026-03-28T12:21:24Z</time></trkpt><trkpt lat="42.07655631977652" lon="11.999312149100646"><ele>408.0</ele><time>2026-03-28T12:21:25Z</time></trkpt><trkpt lat="42.07648778450606" lon="11.999192382191067"><ele>407.5</ele><time>2026-03-28T12:21:26Z</time></trkpt><trkpt lat="42.07641925270021" lon="11.999085118600288"><ele>407.0</ele><time>2026-03-28T12:21:27Z</time></trkpt><trkpt lat="42.07634490563455" lon="11.998963012158079"><ele>407.0</ele><time>2026-03-28T12:21:28Z</time></trkpt><trkpt lat="42.076264696588915" lon="11.998833590239961"><ele>407.0</ele><time>2026-03-28T12:21:29Z</time></trkpt><trkpt lat="42.07618995663727" lon="11.998708337560275"><ele>407.0</ele><time>2026-03-28T12:21:30Z</time></trkpt><trkpt lat="42.07611520604495" lon="11.998596003403485"><ele>407.0</ele><time>2026-03-28T12:21:31Z</time></trkpt><trkpt lat="42.07604362896548" lon="11.998497607867975"><ele>407.0</ele><time>2026-03-28T12:21:32Z</time></trkpt><trkpt lat="42.0759672145972" lon="11.998406048995307"><ele>407.0</ele><time>2026-03-28T12:21:33Z</time></trkpt><trkpt lat="42.07588519216305" lon="11.998316263746995"><ele>407.0</ele><time>2026-03-28T12:21:34Z</time></trkpt><trkpt lat="42.075796227843696" lon="11.99823388956863"><ele>407.0</ele><time>2026-03-28T12:21:35Z</time></trkpt><trkpt lat="42.07570254725244" lon="11.998153308215374"><ele>407.0</ele><time>2026-03-28T12:21:36Z</time></trkpt><trkpt lat="42.07559917248556" lon="11.998064595352062"><ele>406.25</ele><time>2026-03-28T12:21:37Z</time></trkpt><trkpt lat="42.07549404022636" lon="11.997973139522585"><ele>405.5</ele><time>2026-03-28T12:21:38Z</time></trkpt><trkpt lat="42.07536636590605" lon="11.997875558787978"><ele>404.75</ele><time>2026-03-28T12:21:39Z</time></trkpt><trkpt lat="42.075236274575204" lon="11.997782895279322"><ele>404.0</ele><time>2026-03-28T12:21:40Z</time></trkpt><trkpt lat="42.07510545269564" lon="11.99768911310374"><ele>404.0</ele><time>2026-03-28T12:21:41Z</time></trkpt><trkpt lat="42.07498734799018" lon="11.997574457009373"><ele>404.0</ele><time>2026-03-28T12:21:42Z</time></trkpt><trkpt lat="42.07488250858836" lon="11.997430082740117"><ele>404.0</ele><time>2026-03-28T12:21:43Z</time></trkpt><trkpt lat="42.0747759390603" lon="11.997296860580184"><ele>404.0</ele><time>2026-03-28T12:21:44Z</time></trkpt><trkpt lat="42.074673884800404" lon="11.997175827051516"><ele>403.75</ele><time>2026-03-28T12:21:45Z</time></trkpt><trkpt lat="42.074573242211535" lon="11.997050964791402"><ele>403.5</ele><time>2026-03-28T12:21:46Z</time></trkpt><trkpt lat="42.07447905194281" lon="11.99690809289038"><ele>403.25</ele><time>2026-03-28T12:21:47Z</time></trkpt><trkpt lat="42.07438923701938" lon="11.996770134073923"><ele>403.0</ele><time>2026-03-28T12:21:48Z</time></trkpt><trkpt lat="42.074298838774816" lon="11.996643449036698"><ele>404.25</ele><time>2026-03-28T12:21:49Z</time></trkpt><trkpt lat="42.074202915118995" lon="11.996530337710384"><ele>405.5</ele><time>2026-03-28T12:21:50Z</time></trkpt><trkpt lat="42.07409526166893" lon="11.996423181479766"><ele>406.75</ele><time>2026-03-28T12:21:51Z</time></trkpt><trkpt lat="42.073972847700006" lon="11.996331012017833"><ele>408.0</ele><time>2026-03-28T12:21:52Z</time></trkpt><trkpt lat="42.07383707658567" lon="11.996269640747615"><ele>408.0</ele><time>2026-03-28T12:21:53Z</time></trkpt><trkpt lat="42.07369745308226" lon="11.996232940096114"><ele>408.0</ele><time>2026-03-28T12:21:54Z</time></trkpt><trkpt lat="42.07354850744888" lon="11.996200372513213"><ele>408.0</ele><time>2026-03-28T12:21:55Z</time></trkpt><trkpt lat="42.0734032570739" lon="11.996177850323926"><ele>408.0</ele><time>2026-03-28T12:21:56Z</time></trkpt><trkpt lat="42.07325176021197" lon="11.996161412956873"><ele>404.5</ele><time>2026-03-28T12:21:57Z</time></trkpt><trkpt lat="42.07310379728109" lon="11.996145109616725"><ele>401.0</ele><time>2026-03-28T12:21:58Z</time></trkpt><trkpt lat="42.07295762708625" lon="11.996127036793837"><ele>397.5</ele><time>2026-03-28T12:21:59Z</time></trkpt><trkpt lat="42.072820903303466" lon="11.996112866296745"><ele>394.0</ele><time>2026-03-28T12:22:00Z</time></trkpt><trkpt lat="42.07269267892941" lon="11.996103891732574"><ele>394.0</ele><time>2026-03-28T12:22:01Z</time></trkpt><trkpt lat="42.072573853116765" lon="11.99608016311546"><ele>394.0</ele><time>2026-03-28T12:22:02Z</time></trkpt><trkpt lat="42.07246464683317" lon="11.996036753646596"><ele>394.0</ele><time>2026-03-28T12:22:03Z</time></trkpt><trkpt lat="42.072371334301" lon="11.995983719277305"><ele>394.0</ele><time>2026-03-28T12:22:04Z</time></trkpt><trkpt lat="42.07227614631578" lon="11.99592231381976"><ele>394.0</ele><time>2026-03-28T12:22:05Z</time></trkpt><trkpt lat="42.07217426484949" lon="11.995875941562026"><ele>395.6</ele><time>2026-03-28T12:22:06Z</time></trkpt><trkpt lat="42.07207236699286" lon="11.995822822166504"><ele>397.2</ele><time>2026-03-28T12:22:07Z</time></trkpt><trkpt lat="42.07197783806075" lon="11.995775127760476"><ele>398.8</ele><time>2026-03-28T12:22:08Z</time></trkpt><trkpt lat="42.07189122041418" lon="11.995735707100554"><ele>400.40000000000003</ele><time>2026-03-28T12:22:09Z</time></trkpt><trkpt lat="42.071788986342405" lon="11.995690916620875"><ele>402.0</ele><time>2026-03-28T12:22:10Z</time></trkpt><trkpt lat="42.071699492564186" lon="11.995638810900703"><ele>402.0</ele><time>2026-03-28T12:22:11Z</time></trkpt><trkpt lat="42.071613790406616" lon="11.995590497126608"><ele>402.0</ele><time>2026-03-28T12:22:12Z</time></trkpt><trkpt lat="42.071518734830875" lon="11.99560153208996"><ele>402.0</ele><time>2026-03-28T12:22:13Z</time></trkpt><trkpt lat="42.071428979080004" lon="11.995612890499869"><ele>402.0</ele><time>2026-03-28T12:22:14Z</time></trkpt><trkpt lat="42.07133916235352" lon="11.995633181625848"><ele>402.0</ele><time>2026-03-28T12:22:15Z</time></trkpt><trkpt lat="42.07124668285732" lon="11.995641796056788"><ele>401.1666666666667</ele><time>2026-03-28T12:22:16Z</time></trkpt><trkpt lat="42.07116563560955" lon="11.99567422153373"><ele>400.33333333333337</ele><time>2026-03-28T12:22:17Z</time></trkpt><trkpt lat="42.07108885612181" lon="11.995706226214981"><ele>399.5</ele><time>2026-03-28T12:22:18Z</time></trkpt><trkpt lat="42.0710132433888" lon="11.995741438193761"><ele>398.6666666666667</ele><time>2026-03-28T12:22:19Z</time></trkpt><trkpt lat="42.070927543161005" lon="11.995763182541118"><ele>397.83333333333337</ele><time>2026-03-28T12:22:20Z</time></trkpt><trkpt lat="42.070835926626465" lon="11.995741122202077"><ele>397.0</ele><time>2026-03-28T12:22:21Z</time></trkpt><trkpt lat="42.07076271094798" lon="11.99572340522368"><ele>394.50000000000006</ele><time>2026-03-28T12:22:22Z</time></trkpt><trkpt lat="42.07068600912874" lon="11.995697472896287"><ele>392.0</ele><time>2026-03-28T12:22:23Z</time></trkpt><trkpt lat="42.070609260502636" lon="11.995654327637485"><ele>389.5</ele><time>2026-03-28T12:22:24Z</time></trkpt><trkpt lat="42.070533065175134" lon="11.995600333527547"><ele>387.0</ele><time>2026-03-28T12:22:25Z</time></trkpt><trkpt lat="42.07045937326271" lon="11.995543548854963"><ele>384.5</ele><time>2026-03-28T12:22:26Z</time></trkpt><trkpt lat="42.070394962916865" lon="11.995491258403371"><ele>382.0</ele><time>2026-03-28T12:22:27Z</time></trkpt><trkpt lat="42.07033897338821" lon="11.995432641409959"><ele>382.0</ele><time>2026-03-28T12:22:28Z</time></trkpt><trkpt lat="42.07028813818817" lon="11.995369542479459"><ele>382.0</ele><time>2026-03-28T12:22:29Z</time></trkpt><trkpt lat="42.07023362778765" lon="11.995301765801079"><ele>382.0</ele><time>2026-03-28T12:22:30Z</time></trkpt><trkpt lat="42.070183184252805" lon="11.995232333068294"><ele>382.0</ele><time>2026-03-28T12:22:31Z</time></trkpt><trkpt lat="42.07013153442532" lon="11.995159204135806"><ele>382.0</ele><time>2026-03-28T12:22:32Z</time></trkpt><trkpt lat="42.070073887942854" lon="11.995056832577431"><ele>382.0</ele><time>2026-03-28T12:22:33Z</time></trkpt><trkpt lat="42.070005802749705" lon="11.994941550883185"><ele>378.25</ele><time>2026-03-28T12:22:34Z</time></trkpt><trkpt lat="42.06992481454809" lon="11.994810145712544"><ele>374.5</ele><time>2026-03-28T12:22:35Z</time></trkpt><trkpt lat="42.069841916181325" lon="11.994666111325197"><ele>370.75</ele><time>2026-03-28T12:22:36Z</time></trkpt><trkpt lat="42.06975776535108" lon="11.99452358401844"><ele>367.0</ele><time>2026-03-28T12:22:37Z</time></trkpt><trkpt lat="42.069653528917236" lon="11.994396735686951"><ele>367.0</ele><time>2026-03-28T12:22:38Z</time></trkpt><trkpt lat="42.06952818083901" lon="11.994293038698586"><ele>367.0</ele><time>2026-03-28T12:22:39Z</time></trkpt><trkpt lat="42.069394846501766" lon="11.99420704108464"><ele>367.0</ele><time>2026-03-28T12:22:40Z</time></trkpt><trkpt lat="42.069253507309455" lon="11.994145448338989"><ele>367.0</ele><time>2026-03-28T12:22:41Z</time></trkpt><trkpt lat="42.06910518197756" lon="11.994118136474784"><ele>369.66666666666663</ele><time>2026-03-28T12:22:42Z</time></trkpt><trkpt lat="42.0689354357009" lon="11.994122370385638"><ele>372.3333333333333</ele><time>2026-03-28T12:22:43Z</time></trkpt><trkpt lat="42.06875022426223" lon="11.994164637700454"><ele>375.0</ele><time>2026-03-28T12:22:44Z</time></trkpt><trkpt lat="42.06856051488535" lon="11.994217906428739"><ele>369.6666666666667</ele><time>2026-03-28T12:22:45Z</time></trkpt><trkpt lat="42.06837636996814" lon="11.994238349935339"><ele>364.33333333333337</ele><time>2026-03-28T12:22:46Z</time></trkpt><trkpt lat="42.06820229341004" lon="11.994278177988047"><ele>359.0</ele><time>2026-03-28T12:22:47Z</time></trkpt><trkpt lat="42.06803176954913" lon="11.99433485652481"><ele>358.6666666666667</ele><time>2026-03-28T12:22:48Z</time></trkpt><trkpt lat="42.06786946975265" lon="11.994402976792372"><ele>358.3333333333333</ele><time>2026-03-28T12:22:49Z</time></trkpt><trkpt lat="42.06771480945974" lon="11.994471686716695"><ele>358.0</ele><time>2026-03-28T12:22:50Z</time></trkpt><trkpt lat="42.06756054949871" lon="11.994540218748268"><ele>357.0</ele><time>2026-03-28T12:22:51Z</time></trkpt><trkpt lat="42.06740860905465" lon="11.994607720338202"><ele>356.0</ele><time>2026-03-28T12:22:52Z</time></trkpt><trkpt lat="42.06725786985929" lon="11.994670933703544"><ele>355.0</ele><time>2026-03-28T12:22:53Z</time></trkpt><trkpt lat="42.06711992938459" lon="11.99472820552033"><ele>355.0</ele><time>2026-03-28T12:22:54Z</time></trkpt><trkpt lat="42.06697532288122" lon="11.994789168697528"><ele>355.0</ele><time>2026-03-28T12:22:55Z</time></trkpt><trkpt lat="42.0668160325983" lon="11.99486070000854"><ele>355.0</ele><time>2026-03-28T12:22:56Z</time></trkpt><trkpt lat="42.06666376102822" lon="11.994948792918944"><ele>350.0</ele><time>2026-03-28T12:22:57Z</time></trkpt><trkpt lat="42.06649985282088" lon="11.995006067014518"><ele>345.0</ele><time>2026-03-28T12:22:58Z</time></trkpt><trkpt lat="42.066356801386476" lon="11.995079331808688"><ele>340.0</ele><time>2026-03-28T12:22:59Z</time></trkpt><trkpt lat="42.0662121682066" lon="11.995162555000727"><ele>340.0</ele><time>2026-03-28T12:23:00Z</time></trkpt><trkpt lat="42.066076287282215" lon="11.995253845935013"><ele>340.0</ele><time>2026-03-28T12:23:01Z</time></trkpt><trkpt lat="42.06595118707426" lon="11.995339290547717"><ele>340.0</ele><time>2026-03-28T12:23:02Z</time></trkpt><trkpt lat="42.06581536359403" lon="11.995438215184294"><ele>340.0</ele><time>2026-03-28T12:23:03Z</time></trkpt><trkpt lat="42.065683205034766" lon="11.995534173825783"><ele>339.25</ele><time>2026-03-28T12:23:04Z</time></trkpt><trkpt lat="42.065568624857605" lon="11.995639630494493"><ele>338.5</ele><time>2026-03-28T12:23:05Z</time></trkpt><trkpt lat="42.06545357201307" lon="11.995723861413534"><ele>337.75</ele><time>2026-03-28T12:23:06Z</time></trkpt><trkpt lat="42.06533693231442" lon="11.995806123337797"><ele>337.0</ele><time>2026-03-28T12:23:07Z</time></trkpt><trkpt lat="42.06522738483942" lon="11.99590130982877"><ele>335.75</ele><time>2026-03-28T12:23:08Z</time></trkpt><trkpt lat="42.065116748220845" lon="11.996003538504032"><ele>334.5</ele><time>2026-03-28T12:23:09Z</time></trkpt><trkpt lat="42.06500066113882" lon="11.996117709502906"><ele>333.25</ele><time>2026-03-28T12:23:10Z</time></trkpt><trkpt lat="42.06488188732715" lon="11.996215960276977"><ele>332.0</ele><time>2026-03-28T12:23:11Z</time></trkpt><trkpt lat="42.06477563973971" lon="11.996303474402131"><ele>331.75</ele><time>2026-03-28T12:23:12Z</time></trkpt><trkpt lat="42.06465956141535" lon="11.996368269404368"><ele>331.5</ele><time>2026-03-28T12:23:13Z</time></trkpt><trkpt lat="42.0645395957732" lon="11.99641162896922"><ele>331.25</ele><time>2026-03-28T12:23:14Z</time></trkpt><trkpt lat="42.064425305713186" lon="11.996444593081348"><ele>331.0</ele><time>2026-03-28T12:23:15Z</time></trkpt><trkpt lat="42.06429474490087" lon="11.996479900278883"><ele>331.0</ele><time>2026-03-28T12:23:16Z</time></trkpt><trkpt lat="42.06416249009002" lon="11.996495454099104"><ele>331.0</ele><time>2026-03-28T12:23:17Z</time></trkpt><trkpt lat="42.06403352157418" lon="11.996508083895172"><ele>331.0</ele><time>2026-03-28T12:23:18Z</time></trkpt><trkpt lat="42.063915006439025" lon="11.996530386783013"><ele>331.0</ele><time>2026-03-28T12:23:19Z</time></trkpt><trkpt lat="42.06379272541743" lon="11.996514363191725"><ele>329.0</ele><time>2026-03-28T12:23:20Z</time></trkpt><trkpt lat="42.063675281186434" lon="11.99650566778539"><ele>327.0</ele><time>2026-03-28T12:23:21Z</time></trkpt><trkpt lat="42.06355827791048" lon="11.996514459913863"><ele>325.0</ele><time>2026-03-28T12:23:22Z</time></trkpt><trkpt lat="42.06344180609298" lon="11.996481704996652"><ele>323.0</ele><time>2026-03-28T12:23:23Z</time></trkpt><trkpt lat="42.06332589219125" lon="11.996449734727443"><ele>320.5</ele><time>2026-03-28T12:23:24Z</time></trkpt><trkpt lat="42.063212101245504" lon="11.996433514152404"><ele>318.0</ele><time>2026-03-28T12:23:25Z</time></trkpt><trkpt lat="42.06309693649203" lon="11.996421505905724"><ele>315.5</ele><time>2026-03-28T12:23:26Z</time></trkpt><trkpt lat="42.062982485681566" lon="11.996405579931823"><ele>313.0</ele><time>2026-03-28T12:23:27Z</time></trkpt><trkpt lat="42.062878051070946" lon="11.996383575354393"><ele>313.0</ele><time>2026-03-28T12:23:28Z</time></trkpt><trkpt lat="42.062779800467105" lon="11.996352560140773"><ele>313.0</ele><time>2026-03-28T12:23:29Z</time></trkpt><trkpt lat="42.06268331886546" lon="11.996305164211075"><ele>313.0</ele><time>2026-03-28T12:23:30Z</time></trkpt><trkpt lat="42.06259411176683" lon="11.996228971250591"><ele>313.0</ele><time>2026-03-28T12:23:31Z</time></trkpt><trkpt lat="42.062503973527164" lon="11.996118161230534"><ele>313.0</ele><time>2026-03-28T12:23:32Z</time></trkpt><trkpt lat="42.06242041322609" lon="11.995990800329997"><ele>310.0</ele><time>2026-03-28T12:23:33Z</time></trkpt><trkpt lat="42.06233567021572" lon="11.995849832705208"><ele>307.0</ele><time>2026-03-28T12:23:34Z</time></trkpt><trkpt lat="42.062255798711206" lon="11.995698463747589"><ele>304.0</ele><time>2026-03-28T12:23:35Z</time></trkpt><trkpt lat="42.06217542427606" lon="11.995557491217134"><ele>301.0</ele><time>2026-03-28T12:23:36Z</time></trkpt><trkpt lat="42.06208351781118" lon="11.995432311331331"><ele>301.0</ele><time>2026-03-28T12:23:37Z</time></trkpt><trkpt lat="42.06197534264302" lon="11.995326230889532"><ele>301.0</ele><time>2026-03-28T12:23:38Z</time></trkpt><trkpt lat="42.06184752192631" lon="11.995246744150679"><ele>301.0</ele><time>2026-03-28T12:23:39Z</time></trkpt><trkpt lat="42.06171216321174" lon="11.995178509326285"><ele>301.0</ele><time>2026-03-28T12:23:40Z</time></trkpt><trkpt lat="42.061574844005776" lon="11.995097284476959"><ele>298.66666666666663</ele><time>2026-03-28T12:23:41Z</time></trkpt><trkpt lat="42.06144169110691" lon="11.995012749388364"><ele>296.3333333333333</ele><time>2026-03-28T12:23:42Z</time></trkpt><trkpt lat="42.06130113247422" lon="11.994928194787814"><ele>294.0</ele><time>2026-03-28T12:23:43Z</time></trkpt><trkpt lat="42.0611585160303" lon="11.994853149211071"><ele>294.0</ele><time>2026-03-28T12:23:44Z</time></trkpt><trkpt lat="42.061024202756215" lon="11.994787625461782"><ele>294.0</ele><time>2026-03-28T12:23:45Z</time></trkpt><trkpt lat="42.06088715633477" lon="11.994720680867923"><ele>294.0</ele><time>2026-03-28T12:23:46Z</time></trkpt><trkpt lat="42.06075578436654" lon="11.994650971597286"><ele>294.0</ele><time>2026-03-28T12:23:47Z</time></trkpt><trkpt lat="42.06061815834275" lon="11.994580967674889"><ele>289.6666666666667</ele><time>2026-03-28T12:23:48Z</time></trkpt><trkpt lat="42.06046844213224" lon="11.994513049065308"><ele>285.33333333333337</ele><time>2026-03-28T12:23:49Z</time></trkpt><trkpt lat="42.06032229455654" lon="11.994459825261107"><ele>281.0</ele><time>2026-03-28T12:23:50Z</time></trkpt><trkpt lat="42.060177501462" lon="11.994403819797888"><ele>281.0</ele><time>2026-03-28T12:23:51Z</time></trkpt><trkpt lat="42.0600147082511" lon="11.994341066094009"><ele>281.0</ele><time>2026-03-28T12:23:52Z</time></trkpt><trkpt lat="42.059861370608395" lon="11.994284826037626"><ele>281.0</ele><time>2026-03-28T12:23:53Z</time></trkpt><trkpt lat="42.059704294973834" lon="11.994232383929221"><ele>280.0</ele><time>2026-03-28T12:23:54Z</time></trkpt><trkpt lat="42.0595427606195" lon="11.994186282350137"><ele>279.0</ele><time>2026-03-28T12:23:55Z</time></trkpt><trkpt lat="42.05937876631265" lon="11.99416099727808"><ele>278.0</ele><time>2026-03-28T12:23:56Z</time></trkpt><trkpt lat="42.059221656614135" lon="11.994133123658463"><ele>276.33333333333337</ele><time>2026-03-28T12:23:57Z</time></trkpt><trkpt lat="42.059061666903645" lon="11.994151474841845"><ele>274.6666666666667</ele><time>2026-03-28T12:23:58Z</time></trkpt><trkpt lat="42.05890191491923" lon="11.994148532597013"><ele>273.0</ele><time>2026-03-28T12:23:59Z</time></trkpt><trkpt lat="42.05873789666113" lon="11.994151643258522"><ele>273.0</ele><time>2026-03-28T12:24:00Z</time></trkpt><trkpt lat="42.05856884679546" lon="11.994154032737029"><ele>273.0</ele><time>2026-03-28T12:24:01Z</time></trkpt><trkpt lat="42.0583961403151" lon="11.994155692184437"><ele>273.0</ele><time>2026-03-28T12:24:02Z</time></trkpt><trkpt lat="42.05822451050045" lon="11.994155498521199"><ele>270.6666666666667</ele><time>2026-03-28T12:24:03Z</time></trkpt><trkpt lat="42.05805264243086" lon="11.994157223207967"><ele>268.33333333333337</ele><time>2026-03-28T12:24:04Z</time></trkpt><trkpt lat="42.05788126009858" lon="11.994164251936027"><ele>266.0</ele><time>2026-03-28T12:24:05Z</time></trkpt><trkpt lat="42.057709332470644" lon="11.994182124853948"><ele>265.33333333333337</ele><time>2026-03-28T12:24:06Z</time></trkpt><trkpt lat="42.057538367618484" lon="11.994182191983787"><ele>264.6666666666667</ele><time>2026-03-28T12:24:07Z</time></trkpt><trkpt lat="42.057383667295824" lon="11.994207438794264"><ele>264.0</ele><time>2026-03-28T12:24:08Z</time></trkpt><trkpt lat="42.057233995159656" lon="11.994261736206623"><ele>262.0</ele><time>2026-03-28T12:24:09Z</time></trkpt><trkpt lat="42.057076023269836" lon="11.994314453210324"><ele>260.0</ele><time>2026-03-28T12:24:10Z</time></trkpt><trkpt lat="42.05690810879051" lon="11.994353775079425"><ele>258.0</ele><time>2026-03-28T12:24:11Z</time></trkpt><trkpt lat="42.056743616940686" lon="11.994419700807583"><ele>257.3333333333333</ele><time>2026-03-28T12:24:12Z</time></trkpt><trkpt lat="42.05657818495344" lon="11.994489529483667"><ele>256.66666666666663</ele><time>2026-03-28T12:24:13Z</time></trkpt><trkpt lat="42.056413634977226" lon="11.99456153739181"><ele>256.0</ele><time>2026-03-28T12:24:14Z</time></trkpt><trkpt lat="42.056249568231365" lon="11.994634862136706"><ele>256.0</ele><time>2026-03-28T12:24:15Z</time></trkpt><trkpt lat="42.05609180581183" lon="11.994705303532792"><ele>256.0</ele><time>2026-03-28T12:24:16Z</time></trkpt><trkpt lat="42.055939714256915" lon="11.99476792939022"><ele>256.0</ele><time>2026-03-28T12:24:17Z</time></trkpt><trkpt lat="42.05578145505125" lon="11.994833094990636"><ele>256.0</ele><time>2026-03-28T12:24:18Z</time></trkpt><trkpt lat="42.05562472783396" lon="11.994897629701631"><ele>256.0</ele><time>2026-03-28T12:24:19Z</time></trkpt><trkpt lat="42.05546389511599" lon="11.994964492130748"><ele>256.0</ele><time>2026-03-28T12:24:20Z</time></trkpt><trkpt lat="42.05530310722912" lon="11.995031517910405"><ele>254.66666666666666</ele><time>2026-03-28T12:24:21Z</time></trkpt><trkpt lat="42.055139370069746" lon="11.995099948806612"><ele>253.33333333333331</ele><time>2026-03-28T12:24:22Z</time></trkpt><trkpt lat="42.05497466352039" lon="11.995170495045429"><ele>252.0</ele><time>2026-03-28T12:24:23Z</time></trkpt><trkpt lat="42.05481557996674" lon="11.995260697583623"><ele>252.0</ele><time>2026-03-28T12:24:24Z</time></trkpt><trkpt lat="42.054647666972535" lon="11.995310552610338"><ele>252.0</ele><time>2026-03-28T12:24:25Z</time></trkpt><trkpt lat="42.05448633294037" lon="11.995379654377187"><ele>252.0</ele><time>2026-03-28T12:24:26Z</time></trkpt><trkpt lat="42.054325090425415" lon="11.995448437146138"><ele>252.0</ele><time>2026-03-28T12:24:27Z</time></trkpt><trkpt lat="42.05416271989727" lon="11.995517070172708"><ele>252.0</ele><time>2026-03-28T12:24:28Z</time></trkpt><trkpt lat="42.05399787751242" lon="11.99558674807179"><ele>252.0</ele><time>2026-03-28T12:24:29Z</time></trkpt><trkpt lat="42.05382431354029" lon="11.995660112526036"><ele>252.33333333333331</ele><time>2026-03-28T12:24:30Z</time></trkpt><trkpt lat="42.05365488249877" lon="11.99573266106763"><ele>252.66666666666666</ele><time>2026-03-28T12:24:31Z</time></trkpt><trkpt lat="42.05348117507896" lon="11.995827011069407"><ele>253.0</ele><time>2026-03-28T12:24:32Z</time></trkpt><trkpt lat="42.053294948918754" lon="11.995910783052807"><ele>250.66666666666666</ele><time>2026-03-28T12:24:33Z</time></trkpt><trkpt lat="42.05310533884557" lon="11.995969846066084"><ele>248.33333333333331</ele><time>2026-03-28T12:24:34Z</time></trkpt><trkpt lat="42.05293160074903" lon="11.996065223015597"><ele>246.0</ele><time>2026-03-28T12:24:35Z</time></trkpt><trkpt lat="42.05276828081542" lon="11.996132413284297"><ele>246.0</ele><time>2026-03-28T12:24:36Z</time></trkpt><trkpt lat="42.052627492213375" lon="11.9961948072188"><ele>246.0</ele><time>2026-03-28T12:24:37Z</time></trkpt><trkpt lat="42.052481431786205" lon="11.996261092174905"><ele>246.0</ele><time>2026-03-28T12:24:38Z</time></trkpt><trkpt lat="42.05236225090338" lon="11.996327744950747"><ele>246.0</ele><time>2026-03-28T12:24:39Z</time></trkpt><trkpt lat="42.0522245739852" lon="11.996448035049081"><ele>245.0</ele><time>2026-03-28T12:24:40Z</time></trkpt><trkpt lat="42.0520946803573" lon="11.996569653338938"><ele>244.0</ele><time>2026-03-28T12:24:41Z</time></trkpt><trkpt lat="42.05195371730932" lon="11.99670540068461"><ele>243.0</ele><time>2026-03-28T12:24:42Z</time></trkpt><trkpt lat="42.05181136788642" lon="11.996844205775021"><ele>241.0</ele><time>2026-03-28T12:24:43Z</time></trkpt><trkpt lat="42.05165814911831" lon="11.996991223309054"><ele>239.0</ele><time>2026-03-28T12:24:44Z</time></trkpt><trkpt lat="42.051507053673696" lon="11.99713623724183"><ele>237.0</ele><time>2026-03-28T12:24:45Z</time></trkpt><trkpt lat="42.051357705762825" lon="11.997279712489672"><ele>235.66666666666669</ele><time>2026-03-28T12:24:46Z</time></trkpt><trkpt lat="42.051213868873404" lon="11.997419432856214"><ele>234.33333333333334</ele><time>2026-03-28T12:24:47Z</time></trkpt><trkpt lat="42.05107878963302" lon="11.99755226493621"><ele>233.0</ele><time>2026-03-28T12:24:48Z</time></trkpt><trkpt lat="42.05094984419981" lon="11.99770077730493"><ele>231.33333333333334</ele><time>2026-03-28T12:24:49Z</time></trkpt><trkpt lat="42.050805917950456" lon="11.997822980082354"><ele>229.66666666666669</ele><time>2026-03-28T12:24:50Z</time></trkpt><trkpt lat="42.05066688862016" lon="11.997961888045268"><ele>228.0</ele><time>2026-03-28T12:24:51Z</time></trkpt><trkpt lat="42.05053287766996" lon="11.998096468734463"><ele>227.0</ele><time>2026-03-28T12:24:52Z</time></trkpt><trkpt lat="42.050411112514524" lon="11.99822216362052"><ele>226.0</ele><time>2026-03-28T12:24:53Z</time></trkpt><trkpt lat="42.050301398072676" lon="11.99834667292547"><ele>225.0</ele><time>2026-03-28T12:24:54Z</time></trkpt><trkpt lat="42.05022015229684" lon="11.998459254749022"><ele>224.0</ele><time>2026-03-28T12:24:55Z</time></trkpt><trkpt lat="42.050152779877784" lon="11.998589479047313"><ele>222.33333333333334</ele><time>2026-03-28T12:24:56Z</time></trkpt><trkpt lat="42.050081193863676" lon="11.998758997897635"><ele>220.66666666666669</ele><time>2026-03-28T12:24:57Z</time></trkpt><trkpt lat="42.04998830767002" lon="11.998976999659277"><ele>219.0</ele><time>2026-03-28T12:24:58Z</time></trkpt><trkpt lat="42.049886769717595" lon="11.999208658316041"><ele>217.66666666666669</ele><time>2026-03-28T12:24:59Z</time></trkpt><trkpt lat="42.04979933364693" lon="11.999402281829296"><ele>216.33333333333334</ele><time>2026-03-28T12:25:00Z</time></trkpt><trkpt lat="42.04971854105945" lon="11.99958014168098"><ele>215.0</ele><time>2026-03-28T12:25:01Z</time></trkpt><trkpt lat="42.04963943626583" lon="11.99975071932862"><ele>215.0</ele><time>2026-03-28T12:25:02Z</time></trkpt><trkpt lat="42.04956247189619" lon="11.999905610479695"><ele>215.0</ele><time>2026-03-28T12:25:03Z</time></trkpt><trkpt lat="42.04948146665228" lon="12.000043861933962"><ele>215.0</ele><time>2026-03-28T12:25:04Z</time></trkpt><trkpt lat="42.04939704378694" lon="12.00015294656474"><ele>215.0</ele><time>2026-03-28T12:25:05Z</time></trkpt><trkpt lat="42.04931132049365" lon="12.000253789519803"><ele>215.0</ele><time>2026-03-28T12:25:06Z</time></trkpt><trkpt lat="42.0492083790579" lon="12.000365152033261"><ele>215.0</ele><time>2026-03-28T12:25:07Z</time></trkpt><trkpt lat="42.04909163704149" lon="12.000470972636037"><ele>215.0</ele><time>2026-03-28T12:25:08Z</time></trkpt><trkpt lat="42.04896887640425" lon="12.000573579769998"><ele>215.0</ele><time>2026-03-28T12:25:09Z</time></trkpt><trkpt lat="42.04882726688477" lon="12.000681071568923"><ele>214.33333333333334</ele><time>2026-03-28T12:25:10Z</time></trkpt><trkpt lat="42.04868806206006" lon="12.000791973806786"><ele>213.66666666666669</ele><time>2026-03-28T12:25:11Z</time></trkpt><trkpt lat="42.048515467340344" lon="12.000864706915824"><ele>213.0</ele><time>2026-03-28T12:25:12Z</time></trkpt><trkpt lat="42.048346498713336" lon="12.00098176003955"><ele>210.33333333333331</ele><time>2026-03-28T12:25:13Z</time></trkpt><trkpt lat="42.04815386883312" lon="12.001073073927582"><ele>207.66666666666666</ele><time>2026-03-28T12:25:14Z</time></trkpt><trkpt lat="42.04797886185057" lon="12.001173071501482"><ele>205.0</ele><time>2026-03-28T12:25:15Z</time></trkpt><trkpt lat="42.0477896156209" lon="12.00128097442126"><ele>205.0</ele><time>2026-03-28T12:25:16Z</time></trkpt><trkpt lat="42.047601818181015" lon="12.001412031347249"><ele>205.0</ele><time>2026-03-28T12:25:17Z</time></trkpt><trkpt lat="42.04739680786665" lon="12.00149768509816"><ele>205.0</ele><time>2026-03-28T12:25:18Z</time></trkpt><trkpt lat="42.04721382088004" lon="12.00157949895028"><ele>201.66666666666666</ele><time>2026-03-28T12:25:19Z</time></trkpt><trkpt lat="42.047052713201204" lon="12.001672786639396"><ele>198.33333333333331</ele><time>2026-03-28T12:25:20Z</time></trkpt><trkpt lat="42.046916245525644" lon="12.001757985612596"><ele>195.0</ele><time>2026-03-28T12:25:21Z</time></trkpt><trkpt lat="42.04679930791772" lon="12.001830208366789"><ele>195.0</ele><time>2026-03-28T12:25:22Z</time></trkpt><trkpt lat="42.046688756472825" lon="12.00188972904139"><ele>195.0</ele><time>2026-03-28T12:25:23Z</time></trkpt><trkpt lat="42.04657535392241" lon="12.001943204507487"><ele>195.0</ele><time>2026-03-28T12:25:24Z</time></trkpt><trkpt lat="42.04642755274329" lon="12.001926192724419"><ele>195.0</ele><time>2026-03-28T12:25:25Z</time></trkpt><trkpt lat="42.04629105498752" lon="12.001901814140728"><ele>195.0</ele><time>2026-03-28T12:25:26Z</time></trkpt><trkpt lat="42.046148025243596" lon="12.001839957678337"><ele>195.0</ele><time>2026-03-28T12:25:27Z</time></trkpt><trkpt lat="42.04600184923289" lon="12.00174968681039"><ele>195.0</ele><time>2026-03-28T12:25:28Z</time></trkpt><trkpt lat="42.045860360233014" lon="12.001648457903471"><ele>192.5</ele><time>2026-03-28T12:25:29Z</time></trkpt><trkpt lat="42.045722979735686" lon="12.001557559188015"><ele>190.0</ele><time>2026-03-28T12:25:30Z</time></trkpt><trkpt lat="42.04559257997753" lon="12.001479506230448"><ele>187.5</ele><time>2026-03-28T12:25:31Z</time></trkpt><trkpt lat="42.0454527946547" lon="12.001413827159984"><ele>185.0</ele><time>2026-03-28T12:25:32Z</time></trkpt><trkpt lat="42.04530124437537" lon="12.001353000871443"><ele>185.0</ele><time>2026-03-28T12:25:33Z</time></trkpt><trkpt lat="42.04513799179495" lon="12.00128351001953"><ele>185.0</ele><time>2026-03-28T12:25:34Z</time></trkpt><trkpt lat="42.044979967961225" lon="12.001216584861242"><ele>185.0</ele><time>2026-03-28T12:25:35Z</time></trkpt><trkpt lat="42.04483297049188" lon="12.001161340018795"><ele>182.25</ele><time>2026-03-28T12:25:36Z</time></trkpt><trkpt lat="42.044694563325756" lon="12.001128799469859"><ele>179.5</ele><time>2026-03-28T12:25:37Z</time></trkpt><trkpt lat="42.04456106242262" lon="12.00111331941237"><ele>176.75</ele><time>2026-03-28T12:25:38Z</time></trkpt><trkpt lat="42.044421511548315" lon="12.001134440548801"><ele>174.0</ele><time>2026-03-28T12:25:39Z</time></trkpt><trkpt lat="42.04427100562374" lon="12.001177816664017"><ele>170.66666666666666</ele><time>2026-03-28T12:25:40Z</time></trkpt><trkpt lat="42.0441149950757" lon="12.001240420234957"><ele>167.33333333333331</ele><time>2026-03-28T12:25:41Z</time></trkpt><trkpt lat="42.0439610586149" lon="12.001330685949647"><ele>164.0</ele><time>2026-03-28T12:25:42Z</time></trkpt><trkpt lat="42.04381117186063" lon="12.001430025251688"><ele>164.0</ele><time>2026-03-28T12:25:43Z</time></trkpt><trkpt lat="42.043653929416124" lon="12.001494545395603"><ele>164.0</ele><time>2026-03-28T12:25:44Z</time></trkpt><trkpt lat="42.04350643429388" lon="12.00155890263071"><ele>164.0</ele><time>2026-03-28T12:25:45Z</time></trkpt><trkpt lat="42.04335348357754" lon="12.001611789519766"><ele>162.25</ele><time>2026-03-28T12:25:46Z</time></trkpt><trkpt lat="42.04320893895729" lon="12.001631120354977"><ele>160.5</ele><time>2026-03-28T12:25:47Z</time></trkpt><trkpt lat="42.04305807083792" lon="12.001624828408168"><ele>158.75</ele><time>2026-03-28T12:25:48Z</time></trkpt><trkpt lat="42.04290660254106" lon="12.0016026968753"><ele>157.0</ele><time>2026-03-28T12:25:49Z</time></trkpt><trkpt lat="42.042760863316595" lon="12.001574893816915"><ele>157.0</ele><time>2026-03-28T12:25:50Z</time></trkpt><trkpt lat="42.042623462056625" lon="12.00150742860047"><ele>157.0</ele><time>2026-03-28T12:25:51Z</time></trkpt><trkpt lat="42.042483203189605" lon="12.001428952344908"><ele>157.0</ele><time>2026-03-28T12:25:52Z</time></trkpt><trkpt lat="42.042343557855816" lon="12.001344932720645"><ele>155.0</ele><time>2026-03-28T12:25:53Z</time></trkpt><trkpt lat="42.042200739449505" lon="12.001267544522854"><ele>153.0</ele><time>2026-03-28T12:25:54Z</time></trkpt><trkpt lat="42.042053360783136" lon="12.001200116710377"><ele>151.0</ele><time>2026-03-28T12:25:55Z</time></trkpt><trkpt lat="42.0419025656194" lon="12.001143900790712"><ele>151.0</ele><time>2026-03-28T12:25:56Z</time></trkpt><trkpt lat="42.04175694716966" lon="12.00110281577805"><ele>151.0</ele><time>2026-03-28T12:25:57Z</time></trkpt><trkpt lat="42.041609703424896" lon="12.001063787960998"><ele>151.0</ele><time>2026-03-28T12:25:58Z</time></trkpt><trkpt lat="42.04145363064931" lon="12.001021092732485"><ele>148.66666666666669</ele><time>2026-03-28T12:25:59Z</time></trkpt><trkpt lat="42.04128763990301" lon="12.000986728019956"><ele>146.33333333333334</ele><time>2026-03-28T12:26:00Z</time></trkpt><trkpt lat="42.041119134305895" lon="12.000955269678315"><ele>144.0</ele><time>2026-03-28T12:26:01Z</time></trkpt><trkpt lat="42.040945239598784" lon="12.000927495101687"><ele>142.0</ele><time>2026-03-28T12:26:02Z</time></trkpt><trkpt lat="42.040772777189844" lon="12.000888241629964"><ele>140.0</ele><time>2026-03-28T12:26:03Z</time></trkpt><trkpt lat="42.04060404937799" lon="12.000856718134411"><ele>138.0</ele><time>2026-03-28T12:26:04Z</time></trkpt><trkpt lat="42.040450029337684" lon="12.0008479208375"><ele>138.0</ele><time>2026-03-28T12:26:05Z</time></trkpt><trkpt lat="42.04030246525915" lon="12.000841181489427"><ele>138.0</ele><time>2026-03-28T12:26:06Z</time></trkpt><trkpt lat="42.0401441088823" lon="12.00083239642678"><ele>138.0</ele><time>2026-03-28T12:26:07Z</time></trkpt><trkpt lat="42.03998214462859" lon="12.00082829839932"><ele>133.0</ele><time>2026-03-28T12:26:08Z</time></trkpt><trkpt lat="42.039816901894014" lon="12.000828048520248"><ele>128.0</ele><time>2026-03-28T12:26:09Z</time></trkpt><trkpt lat="42.039656825271244" lon="12.000818713486517"><ele>123.0</ele><time>2026-03-28T12:26:10Z</time></trkpt><trkpt lat="42.03950291984485" lon="12.000807735245806"><ele>123.0</ele><time>2026-03-28T12:26:11Z</time></trkpt><trkpt lat="42.03935341966718" lon="12.000808959209918"><ele>123.0</ele><time>2026-03-28T12:26:12Z</time></trkpt><trkpt lat="42.03919901304372" lon="12.00081138762436"><ele>123.0</ele><time>2026-03-28T12:26:13Z</time></trkpt><trkpt lat="42.039038148331294" lon="12.00081143830762"><ele>119.66666666666666</ele><time>2026-03-28T12:26:14Z</time></trkpt><trkpt lat="42.03888333908838" lon="12.000820238232613"><ele>116.33333333333333</ele><time>2026-03-28T12:26:15Z</time></trkpt><trkpt lat="42.03871755960474" lon="12.00080605169474"><ele>113.0</ele><time>2026-03-28T12:26:16Z</time></trkpt><trkpt lat="42.03855668948858" lon="12.00082065855914"><ele>112.66666666666666</ele><time>2026-03-28T12:26:17Z</time></trkpt><trkpt lat="42.03839145750081" lon="12.000839225837712"><ele>112.33333333333334</ele><time>2026-03-28T12:26:18Z</time></trkpt><trkpt lat="42.03822445749934" lon="12.000858076460718"><ele>112.0</ele><time>2026-03-28T12:26:19Z</time></trkpt><trkpt lat="42.03806153651285" lon="12.000897812493479"><ele>112.0</ele><time>2026-03-28T12:26:20Z</time></trkpt><trkpt lat="42.03789658158744" lon="12.00090570493195"><ele>112.0</ele><time>2026-03-28T12:26:21Z</time></trkpt><trkpt lat="42.03773322505228" lon="12.000936868333557"><ele>112.0</ele><time>2026-03-28T12:26:22Z</time></trkpt><trkpt lat="42.037563961073296" lon="12.000969158711378"><ele>109.66666666666667</ele><time>2026-03-28T12:26:23Z</time></trkpt><trkpt lat="42.037396487696235" lon="12.001003430040594"><ele>107.33333333333334</ele><time>2026-03-28T12:26:24Z</time></trkpt><trkpt lat="42.03723661495049" lon="12.001048709071299"><ele>105.0</ele><time>2026-03-28T12:26:25Z</time></trkpt><trkpt lat="42.03708268586726" lon="12.001091439168517"><ele>105.0</ele><time>2026-03-28T12:26:26Z</time></trkpt><trkpt lat="42.03693069266128" lon="12.00112433233735"><ele>105.0</ele><time>2026-03-28T12:26:27Z</time></trkpt><trkpt lat="42.036783986174754" lon="12.001147681766538"><ele>105.0</ele><time>2026-03-28T12:26:28Z</time></trkpt><trkpt lat="42.03663685212211" lon="12.001173842903448"><ele>104.0</ele><time>2026-03-28T12:26:29Z</time></trkpt><trkpt lat="42.03648922544844" lon="12.001166645092939"><ele>103.0</ele><time>2026-03-28T12:26:30Z</time></trkpt><trkpt lat="42.03634444189183" lon="12.001126384637685"><ele>102.0</ele><time>2026-03-28T12:26:31Z</time></trkpt><trkpt lat="42.03619773321719" lon="12.001092160682543"><ele>101.0</ele><time>2026-03-28T12:26:32Z</time></trkpt><trkpt lat="42.03604315735624" lon="12.001048235496901"><ele>101.0</ele><time>2026-03-28T12:26:33Z</time></trkpt><trkpt lat="42.03588171646919" lon="12.000999848242754"><ele>101.0</ele><time>2026-03-28T12:26:34Z</time></trkpt><trkpt lat="42.03572477240952" lon="12.000952386627741"><ele>101.0</ele><time>2026-03-28T12:26:35Z</time></trkpt><trkpt lat="42.03556667986594" lon="12.000906803390498"><ele>99.33333333333333</ele><time>2026-03-28T12:26:36Z</time></trkpt><trkpt lat="42.035409402932345" lon="12.000864171243336"><ele>97.66666666666666</ele><time>2026-03-28T12:26:37Z</time></trkpt><trkpt lat="42.03525065613083" lon="12.00082114072366"><ele>96.0</ele><time>2026-03-28T12:26:38Z</time></trkpt><trkpt lat="42.03509858792369" lon="12.000778775883818"><ele>91.66666666666667</ele><time>2026-03-28T12:26:39Z</time></trkpt><trkpt lat="42.034943220102186" lon="12.000736305220695"><ele>87.33333333333334</ele><time>2026-03-28T12:26:40Z</time></trkpt><trkpt lat="42.03479287475817" lon="12.00069949829298"><ele>83.0</ele><time>2026-03-28T12:26:41Z</time></trkpt><trkpt lat="42.03463776618827" lon="12.000684464144834"><ele>83.0</ele><time>2026-03-28T12:26:42Z</time></trkpt><trkpt lat="42.034494904527975" lon="12.000652545263394"><ele>83.0</ele><time>2026-03-28T12:26:43Z</time></trkpt><trkpt lat="42.034354359652404" lon="12.000625143465092"><ele>83.0</ele><time>2026-03-28T12:26:44Z</time></trkpt><trkpt lat="42.034208985109764" lon="12.000603803487795"><ele>83.0</ele><time>2026-03-28T12:26:45Z</time></trkpt><trkpt lat="42.03405719909998" lon="12.000589770479692"><ele>81.33333333333334</ele><time>2026-03-28T12:26:46Z</time></trkpt><trkpt lat="42.03390065005615" lon="12.000580445396599"><ele>79.66666666666667</ele><time>2026-03-28T12:26:47Z</time></trkpt><trkpt lat="42.03373722312743" lon="12.000548142896141"><ele>78.0</ele><time>2026-03-28T12:26:48Z</time></trkpt><trkpt lat="42.033575295622796" lon="12.000532455901979"><ele>78.0</ele><time>2026-03-28T12:26:49Z</time></trkpt><trkpt lat="42.033413149164076" lon="12.00051674470714"><ele>78.0</ele><time>2026-03-28T12:26:50Z</time></trkpt><trkpt lat="42.03325236274248" lon="12.000502793222475"><ele>78.0</ele><time>2026-03-28T12:26:51Z</time></trkpt><trkpt lat="42.03309283842364" lon="12.000508441249742"><ele>77.0</ele><time>2026-03-28T12:26:52Z</time></trkpt><trkpt lat="42.032934055640546" lon="12.000488220412242"><ele>76.0</ele><time>2026-03-28T12:26:53Z</time></trkpt><trkpt lat="42.03278011290559" lon="12.000471808751495"><ele>75.0</ele><time>2026-03-28T12:26:54Z</time></trkpt><trkpt lat="42.032622713294096" lon="12.000459282888368"><ele>72.66666666666667</ele><time>2026-03-28T12:26:55Z</time></trkpt><trkpt lat="42.032465908427774" lon="12.00044399691652"><ele>70.33333333333334</ele><time>2026-03-28T12:26:56Z</time></trkpt><trkpt lat="42.03230886633067" lon="12.00040310274416"><ele>68.0</ele><time>2026-03-28T12:26:57Z</time></trkpt><trkpt lat="42.03214762391741" lon="12.000406259398574"><ele>68.0</ele><time>2026-03-28T12:26:58Z</time></trkpt><trkpt lat="42.03198855219246" lon="12.000384976994978"><ele>68.0</ele><time>2026-03-28T12:26:59Z</time></trkpt><trkpt lat="42.031828491902445" lon="12.000369447182948"><ele>68.0</ele><time>2026-03-28T12:27:00Z</time></trkpt><trkpt lat="42.03166435319758" lon="12.00035446530955"><ele>66.66666666666667</ele><time>2026-03-28T12:27:01Z</time></trkpt><trkpt lat="42.031501769453946" lon="12.00033598206477"><ele>65.33333333333333</ele><time>2026-03-28T12:27:02Z</time></trkpt><trkpt lat="42.03133352750611" lon="12.000318670741823"><ele>64.0</ele><time>2026-03-28T12:27:03Z</time></trkpt><trkpt lat="42.031162272183074" lon="12.000302102604952"><ele>64.0</ele><time>2026-03-28T12:27:04Z</time></trkpt><trkpt lat="42.030989791140456" lon="12.00028653345871"><ele>64.0</ele><time>2026-03-28T12:27:05Z</time></trkpt><trkpt lat="42.030818203612135" lon="12.000280406805427"><ele>64.0</ele><time>2026-03-28T12:27:06Z</time></trkpt><trkpt lat="42.030659077067796" lon="12.00027487323322"><ele>61.666666666666664</ele><time>2026-03-28T12:27:07Z</time></trkpt><trkpt lat="42.03050157486811" lon="12.000278554928487"><ele>59.33333333333333</ele><time>2026-03-28T12:27:08Z</time></trkpt><trkpt lat="42.0303378655316" lon="12.00028485990054"><ele>57.0</ele><time>2026-03-28T12:27:09Z</time></trkpt><trkpt lat="42.03017725458891" lon="12.000293354845239"><ele>57.0</ele><time>2026-03-28T12:27:10Z</time></trkpt><trkpt lat="42.0300348444232" lon="12.000304947581354"><ele>57.0</ele><time>2026-03-28T12:27:11Z</time></trkpt><trkpt lat="42.02989177601634" lon="12.000294169211069"><ele>57.0</ele><time>2026-03-28T12:27:12Z</time></trkpt><trkpt lat="42.029748532475" lon="12.000304936830469"><ele>57.0</ele><time>2026-03-28T12:27:13Z</time></trkpt><trkpt lat="42.02959694857795" lon="12.000315535285976"><ele>55.0</ele><time>2026-03-28T12:27:14Z</time></trkpt><trkpt lat="42.029441108741075" lon="12.000323820613733"><ele>53.0</ele><time>2026-03-28T12:27:15Z</time></trkpt><trkpt lat="42.02930083115634" lon="12.00046412074721"><ele>51.0</ele><time>2026-03-28T12:27:16Z</time></trkpt><trkpt lat="42.02916654848301" lon="12.000509722950918"><ele>49.75</ele><time>2026-03-28T12:27:17Z</time></trkpt><trkpt lat="42.02902866248267" lon="12.000569885842086"><ele>48.5</ele><time>2026-03-28T12:27:18Z</time></trkpt><trkpt lat="42.02890982196186" lon="12.000629488043302"><ele>47.25</ele><time>2026-03-28T12:27:19Z</time></trkpt><trkpt lat="42.028792399005845" lon="12.000676427565086"><ele>46.0</ele><time>2026-03-28T12:27:20Z</time></trkpt><trkpt lat="42.02868857833102" lon="12.000715468610322"><ele>46.0</ele><time>2026-03-28T12:27:21Z</time></trkpt><trkpt lat="42.02859641910904" lon="12.000771710515522"><ele>46.0</ele><time>2026-03-28T12:27:22Z</time></trkpt><trkpt lat="42.02850798724663" lon="12.000835926599368"><ele>46.0</ele><time>2026-03-28T12:27:23Z</time></trkpt><trkpt lat="42.028426453466864" lon="12.000897832923721"><ele>46.0</ele><time>2026-03-28T12:27:24Z</time></trkpt><trkpt lat="42.02836305082385" lon="12.000954580930065"><ele>46.0</ele><time>2026-03-28T12:27:25Z</time></trkpt><trkpt lat="42.028311148012634" lon="12.001069826453037"><ele>47.8</ele><time>2026-03-28T12:27:27Z</time></trkpt><trkpt lat="42.028373615293425" lon="12.001279298316867"><ele>49.599999999999994</ele><time>2026-03-28T12:27:45Z</time></trkpt><trkpt lat="42.028420403462135" lon="12.001366648654251"><ele>51.4</ele><time>2026-03-28T12:27:46Z</time></trkpt><trkpt lat="42.02848173454037" lon="12.001472209516335"><ele>53.2</ele><time>2026-03-28T12:27:47Z</time></trkpt><trkpt lat="42.0285060756843" lon="12.001603470895672"><ele>55.0</ele><time>2026-03-28T12:27:48Z</time></trkpt><trkpt lat="42.02856286706296" lon="12.001715336429658"><ele>55.2</ele><time>2026-03-28T12:27:49Z</time></trkpt><trkpt lat="42.028617857756075" lon="12.001820401544673"><ele>55.4</ele><time>2026-03-28T12:27:50Z</time></trkpt><trkpt lat="42.0286736796681" lon="12.001924158400035"><ele>55.599999999999994</ele><time>2026-03-28T12:27:51Z</time></trkpt><trkpt lat="42.02873257077621" lon="12.002027787091484"><ele>55.8</ele><time>2026-03-28T12:27:52Z</time></trkpt><trkpt lat="42.028787339523454" lon="12.002122195705452"><ele>56.0</ele><time>2026-03-28T12:27:53Z</time></trkpt><trkpt lat="42.02884199414926" lon="12.002213272525015"><ele>56.0</ele><time>2026-03-28T12:27:54Z</time></trkpt><trkpt lat="42.028900814343444" lon="12.002292178769073"><ele>55.99999999999999</ele><time>2026-03-28T12:27:55Z</time></trkpt><trkpt lat="42.02894063920742" lon="12.002360917253027"><ele>55.99999999999999</ele><time>2026-03-28T12:27:56Z</time></trkpt><trkpt lat="42.02899721739386" lon="12.002443470400433"><ele>56.0</ele><time>2026-03-28T12:27:58Z</time></trkpt><trkpt lat="42.02909728211222" lon="12.002567916627703"><ele>56.0</ele><time>2026-03-28T12:28:00Z</time></trkpt><trkpt lat="42.029150753970725" lon="12.002658347435668"><ele>56.00000000000001</ele><time>2026-03-28T12:28:01Z</time></trkpt><trkpt lat="42.02920674059515" lon="12.00275261218"><ele>56.0</ele><time>2026-03-28T12:28:02Z</time></trkpt><trkpt lat="42.029255976467184" lon="12.002852105354187"><ele>56.0</ele><time>2026-03-28T12:28:03Z</time></trkpt><trkpt lat="42.02929448607258" lon="12.00294325650028"><ele>56.0</ele><time>2026-03-28T12:28:04Z</time></trkpt><trkpt lat="42.029340497745686" lon="12.00302326135067"><ele>56.00000000000001</ele><time>2026-03-28T12:28:05Z</time></trkpt><trkpt lat="42.02939485287985" lon="12.003107231990379"><ele>56.0</ele><time>2026-03-28T12:28:06Z</time></trkpt><trkpt lat="42.029438539418116" lon="12.003176506530925"><ele>56.00000000000001</ele><time>2026-03-28T12:28:07Z</time></trkpt><trkpt lat="42.02947989929213" lon="12.00325917054395"><ele>56.0</ele><time>2026-03-28T12:28:08Z</time></trkpt><trkpt lat="42.029520100328426" lon="12.003353975238717"><ele>56.0</ele><time>2026-03-28T12:28:09Z</time></trkpt><trkpt lat="42.02956126093302" lon="12.003446247617653"><ele>56.0</ele><time>2026-03-28T12:28:10Z</time></trkpt><trkpt lat="42.02960623646041" lon="12.0035276908845"><ele>56.00000000000001</ele><time>2026-03-28T12:28:11Z</time></trkpt><trkpt lat="42.02965942890319" lon="12.003659696663211"><ele>56.0</ele><time>2026-03-28T12:28:13Z</time></trkpt><trkpt lat="42.0297455191887" lon="12.003808868500883"><ele>56.199999999999996</ele><time>2026-03-28T12:28:15Z</time></trkpt><trkpt lat="42.029810228103855" lon="12.003920992053457"><ele>56.39999999999999</ele><time>2026-03-28T12:28:16Z</time></trkpt><trkpt lat="42.029877108659136" lon="12.004036713677904"><ele>56.6</ele><time>2026-03-28T12:28:17Z</time></trkpt><trkpt lat="42.02993560835668" lon="12.004137645353017"><ele>56.8</ele><time>2026-03-28T12:28:18Z</time></trkpt><trkpt lat="42.02999526601652" lon="12.004240574910709"><ele>57.0</ele><time>2026-03-28T12:28:19Z</time></trkpt><trkpt lat="42.030054333455425" lon="12.004342486136595"><ele>57.0</ele><time>2026-03-28T12:28:20Z</time></trkpt><trkpt lat="42.0301056432078" lon="12.00443044368062"><ele>57.0</ele><time>2026-03-28T12:28:21Z</time></trkpt><trkpt lat="42.03016219037594" lon="12.004500729937853"><ele>57.0</ele><time>2026-03-28T12:28:22Z</time></trkpt><trkpt lat="42.03019478195197" lon="12.004581781923665"><ele>57.0</ele><time>2026-03-28T12:28:23Z</time></trkpt><trkpt lat="42.03024946063847" lon="12.004674614454995"><ele>57.0</ele><time>2026-03-28T12:28:24Z</time></trkpt><trkpt lat="42.03030610195754" lon="12.004767301284703"><ele>57.0</ele><time>2026-03-28T12:28:25Z</time></trkpt><trkpt lat="42.030366201606775" lon="12.004862698951198"><ele>57.0</ele><time>2026-03-28T12:28:26Z</time></trkpt><trkpt lat="42.03041158667338" lon="12.004933657199361"><ele>57.0</ele><time>2026-03-28T12:28:27Z</time></trkpt><trkpt lat="42.03045486201313" lon="12.005001316952438"><ele>57.0</ele><time>2026-03-28T12:28:28Z</time></trkpt><trkpt lat="42.030499441767375" lon="12.005071998853753"><ele>57.0</ele><time>2026-03-28T12:28:29Z</time></trkpt><trkpt lat="42.030555125609" lon="12.005162358822224"><ele>57.0</ele><time>2026-03-28T12:28:30Z</time></trkpt><trkpt lat="42.03062707797292" lon="12.005240803075655"><ele>57.0</ele><time>2026-03-28T12:28:31Z</time></trkpt><trkpt lat="42.03067904413985" lon="12.00534243686363"><ele>56.833333333333336</ele><time>2026-03-28T12:28:32Z</time></trkpt><trkpt lat="42.03072616700056" lon="12.005444867075417"><ele>56.66666666666667</ele><time>2026-03-28T12:28:33Z</time></trkpt><trkpt lat="42.03075157884185" lon="12.005540187996473"><ele>56.5</ele><time>2026-03-28T12:28:34Z</time></trkpt><trkpt lat="42.03081129132833" lon="12.005664974471122"><ele>56.333333333333336</ele><time>2026-03-28T12:28:36Z</time></trkpt><trkpt lat="42.030852123574526" lon="12.005745400618776"><ele>56.16666666666667</ele><time>2026-03-28T12:28:37Z</time></trkpt><trkpt lat="42.03089825969022" lon="12.005836244313329"><ele>56.0</ele><time>2026-03-28T12:28:38Z</time></trkpt><trkpt lat="42.0309537778682" lon="12.005905933332542"><ele>57.16666666666667</ele><time>2026-03-28T12:28:39Z</time></trkpt><trkpt lat="42.030979347967175" lon="12.005995910110288"><ele>58.333333333333336</ele><time>2026-03-28T12:28:40Z</time></trkpt><trkpt lat="42.031027261282524" lon="12.00608586097442"><ele>59.5</ele><time>2026-03-28T12:28:41Z</time></trkpt><trkpt lat="42.031078450844504" lon="12.006181185121797"><ele>60.66666666666667</ele><time>2026-03-28T12:28:42Z</time></trkpt><trkpt lat="42.03112962462009" lon="12.00627235168461"><ele>61.833333333333336</ele><time>2026-03-28T12:28:43Z</time></trkpt><trkpt lat="42.031179093865326" lon="12.006360357762647"><ele>63.0</ele><time>2026-03-28T12:28:44Z</time></trkpt><trkpt lat="42.03123667083256" lon="12.006430494048496"><ele>63.0</ele><time>2026-03-28T12:28:45Z</time></trkpt><trkpt lat="42.03127862497531" lon="12.006509510623355"><ele>63.0</ele><time>2026-03-28T12:28:46Z</time></trkpt><trkpt lat="42.03131719968677" lon="12.00661601709766"><ele>63.0</ele><time>2026-03-28T12:28:47Z</time></trkpt><trkpt lat="42.031380832197556" lon="12.006705360242748"><ele>63.0</ele><time>2026-03-28T12:28:48Z</time></trkpt><trkpt lat="42.03143421999871" lon="12.006808100969522"><ele>63.0</ele><time>2026-03-28T12:28:49Z</time></trkpt><trkpt lat="42.03147201857678" lon="12.006917455417874"><ele>63.0</ele><time>2026-03-28T12:28:50Z</time></trkpt><trkpt lat="42.031522983948875" lon="12.007020585174265"><ele>63.0</ele><time>2026-03-28T12:28:51Z</time></trkpt><trkpt lat="42.031569494036155" lon="12.007118019560524"><ele>63.0</ele><time>2026-03-28T12:28:52Z</time></trkpt><trkpt lat="42.03161731423154" lon="12.007218198489662"><ele>63.0</ele><time>2026-03-28T12:28:53Z</time></trkpt><trkpt lat="42.03166558417968" lon="12.007319319606225"><ele>63.0</ele><time>2026-03-28T12:28:54Z</time></trkpt><trkpt lat="42.031713047308415" lon="12.00741815940425"><ele>63.0</ele><time>2026-03-28T12:28:55Z</time></trkpt><trkpt lat="42.03176637228811" lon="12.007525879874269"><ele>63.0</ele><time>2026-03-28T12:28:56Z</time></trkpt><trkpt lat="42.03182502485092" lon="12.00764333029924"><ele>64.0</ele><time>2026-03-28T12:28:57Z</time></trkpt><trkpt lat="42.03188082498701" lon="12.007754613511572"><ele>65.0</ele><time>2026-03-28T12:28:58Z</time></trkpt><trkpt lat="42.03193562725219" lon="12.007861844102248"><ele>66.0</ele><time>2026-03-28T12:28:59Z</time></trkpt><trkpt lat="42.03199341254241" lon="12.007974437617252"><ele>67.0</ele><time>2026-03-28T12:29:00Z</time></trkpt><trkpt lat="42.03204772365816" lon="12.00808021527356"><ele>68.0</ele><time>2026-03-28T12:29:01Z</time></trkpt><trkpt lat="42.03209948434968" lon="12.008180642459584"><ele>68.0</ele><time>2026-03-28T12:29:02Z</time></trkpt><trkpt lat="42.032155751004794" lon="12.008289812234707"><ele>68.0</ele><time>2026-03-28T12:29:03Z</time></trkpt><trkpt lat="42.03221303991084" lon="12.008400049987214"><ele>68.0</ele><time>2026-03-28T12:29:04Z</time></trkpt><trkpt lat="42.03227176892544" lon="12.008512479048056"><ele>68.0</ele><time>2026-03-28T12:29:05Z</time></trkpt><trkpt lat="42.03232844200685" lon="12.008620972301465"><ele>68.0</ele><time>2026-03-28T12:29:06Z</time></trkpt><trkpt lat="42.032384876921434" lon="12.008729249765066"><ele>68.8</ele><time>2026-03-28T12:29:07Z</time></trkpt><trkpt lat="42.03244148859062" lon="12.008840953710287"><ele>69.6</ele><time>2026-03-28T12:29:08Z</time></trkpt><trkpt lat="42.03249936285848" lon="12.008956617724316"><ele>70.4</ele><time>2026-03-28T12:29:09Z</time></trkpt><trkpt lat="42.032554985121635" lon="12.009070877019289"><ele>71.2</ele><time>2026-03-28T12:29:10Z</time></trkpt><trkpt lat="42.03260885394538" lon="12.009188264033352"><ele>72.0</ele><time>2026-03-28T12:29:11Z</time></trkpt><trkpt lat="42.03266356663754" lon="12.009307470692582"><ele>72.6</ele><time>2026-03-28T12:29:12Z</time></trkpt><trkpt lat="42.03271534777635" lon="12.009414506661676"><ele>73.2</ele><time>2026-03-28T12:29:13Z</time></trkpt><trkpt lat="42.03276095570014" lon="12.009506932402358"><ele>73.8</ele><time>2026-03-28T12:29:14Z</time></trkpt><trkpt lat="42.032823929027465" lon="12.009590741998924"><ele>74.4</ele><time>2026-03-28T12:29:15Z</time></trkpt><trkpt lat="42.032881358644566" lon="12.009700673488085"><ele>75.0</ele><time>2026-03-28T12:29:16Z</time></trkpt><trkpt lat="42.03294306924217" lon="12.009837231853663"><ele>75.0</ele><time>2026-03-28T12:29:17Z</time></trkpt><trkpt lat="42.03302437067046" lon="12.009978171595304"><ele>75.0</ele><time>2026-03-28T12:29:18Z</time></trkpt><trkpt lat="42.033117055249015" lon="12.010138207991824"><ele>75.0</ele><time>2026-03-28T12:29:19Z</time></trkpt><trkpt lat="42.0332093570927" lon="12.010299656336885"><ele>75.0</ele><time>2026-03-28T12:29:20Z</time></trkpt><trkpt lat="42.03329498270321" lon="12.01045345216218"><ele>76.25</ele><time>2026-03-28T12:29:21Z</time></trkpt><trkpt lat="42.033374469058614" lon="12.01059981054729"><ele>77.5</ele><time>2026-03-28T12:29:22Z</time></trkpt><trkpt lat="42.03345730629219" lon="12.010754216712902"><ele>78.75</ele><time>2026-03-28T12:29:23Z</time></trkpt><trkpt lat="42.03354070852752" lon="12.010909676004694"><ele>80.0</ele><time>2026-03-28T12:29:24Z</time></trkpt><trkpt lat="42.033625643224674" lon="12.011067991789986"><ele>80.0</ele><time>2026-03-28T12:29:25Z</time></trkpt><trkpt lat="42.03370993820129" lon="12.011218063631432"><ele>80.0</ele><time>2026-03-28T12:29:26Z</time></trkpt><trkpt lat="42.03378301267138" lon="12.011346696503791"><ele>80.0</ele><time>2026-03-28T12:29:27Z</time></trkpt><trkpt lat="42.033821643452875" lon="12.011462073105344"><ele>80.0</ele><time>2026-03-28T12:29:28Z</time></trkpt><trkpt lat="42.03385640590713" lon="12.01156834725704"><ele>80.0</ele><time>2026-03-28T12:29:29Z</time></trkpt><trkpt lat="42.03388864018952" lon="12.011666892375816"><ele>80.2</ele><time>2026-03-28T12:29:30Z</time></trkpt><trkpt lat="42.03385288323194" lon="12.011756654145884"><ele>80.4</ele><time>2026-03-28T12:29:31Z</time></trkpt><trkpt lat="42.03403864694397" lon="12.011807067460667"><ele>80.6</ele><time>2026-03-28T12:29:32Z</time></trkpt><trkpt lat="42.03407499227872" lon="12.011891302536647"><ele>80.8</ele><time>2026-03-28T12:29:33Z</time></trkpt><trkpt lat="42.034103680749766" lon="12.011969742407688"><ele>81.0</ele><time>2026-03-28T12:29:34Z</time></trkpt><trkpt lat="42.03413506123673" lon="12.012106844296783"><ele>81.0</ele><time>2026-03-28T12:29:36Z</time></trkpt><trkpt lat="42.03415006976462" lon="12.012257115132265"><ele>81.0</ele><time>2026-03-28T12:29:38Z</time></trkpt><trkpt lat="42.03416126279359" lon="12.012348292210502"><ele>81.0</ele><time>2026-03-28T12:29:39Z</time></trkpt><trkpt lat="42.03418937448095" lon="12.0125024054586"><ele>81.0</ele><time>2026-03-28T12:29:41Z</time></trkpt><trkpt lat="42.03425081651223" lon="12.012633283213113"><ele>81.0</ele><time>2026-03-28T12:29:43Z</time></trkpt><trkpt lat="42.034292312151464" lon="12.012698324855121"><ele>79.5</ele><time>2026-03-28T12:29:44Z</time></trkpt><trkpt lat="42.034367727267096" lon="12.012823103238132"><ele>78.0</ele><time>2026-03-28T12:29:46Z</time></trkpt><trkpt lat="42.03442868685165" lon="12.012928873550827"><ele>76.5</ele><time>2026-03-28T12:29:48Z</time></trkpt><trkpt lat="42.034469194707576" lon="12.013023201705117"><ele>75.0</ele><time>2026-03-28T12:29:50Z</time></trkpt><trkpt lat="42.03452813288061" lon="12.013074913901766"><ele>73.5</ele><time>2026-03-28T12:29:52Z</time></trkpt><trkpt lat="42.03457044458359" lon="12.013145850974142"><ele>72.0</ele><time>2026-03-28T12:30:01Z</time></trkpt><trkpt lat="42.03461905357355" lon="12.01321164120046"><ele>72.0</ele><time>2026-03-28T12:30:04Z</time></trkpt><trkpt lat="42.0346848776475" lon="12.013279268319543"><ele>72.0</ele><time>2026-03-28T12:30:08Z</time></trkpt><trkpt lat="42.03474354451293" lon="12.013330002096218"><ele>72.0</ele><time>2026-03-28T12:30:11Z</time></trkpt><trkpt lat="42.03485293851395" lon="12.013426021166868"><ele>72.0</ele><time>2026-03-28T12:30:14Z</time></trkpt><trkpt lat="42.03493244826598" lon="12.013496350094336"><ele>72.0</ele><time>2026-03-28T12:30:16Z</time></trkpt><trkpt lat="42.035025635758196" lon="12.013538830985347"><ele>70.14285714285715</ele><time>2026-03-28T12:30:18Z</time></trkpt><trkpt lat="42.03509629820976" lon="12.01355023294427"><ele>68.28571428571429</ele><time>2026-03-28T12:30:20Z</time></trkpt><trkpt lat="42.03516266817537" lon="12.013539382072738"><ele>66.42857142857143</ele><time>2026-03-28T12:30:22Z</time></trkpt><trkpt lat="42.035225691439464" lon="12.013541629841427"><ele>64.57142857142858</ele><time>2026-03-28T12:30:24Z</time></trkpt><trkpt lat="42.035300176518476" lon="12.013542096280979"><ele>62.71428571428572</ele><time>2026-03-28T12:30:27Z</time></trkpt><trkpt lat="42.03537606355167" lon="12.013573976523093"><ele>60.857142857142854</ele><time>2026-03-28T12:30:30Z</time></trkpt><trkpt lat="42.03545562286434" lon="12.013626086214549"><ele>59.0</ele><time>2026-03-28T12:30:32Z</time></trkpt><trkpt lat="42.035461979039084" lon="12.013718295313414"><ele>59.0</ele><time>2026-03-28T12:30:34Z</time></trkpt><trkpt lat="42.03547862681262" lon="12.01381233182267"><ele>59.00000000000001</ele><time>2026-03-28T12:30:37Z</time></trkpt><trkpt lat="42.03548638186949" lon="12.013931478548596"><ele>59.00000000000001</ele><time>2026-03-28T12:30:40Z</time></trkpt><trkpt lat="42.035538611572164" lon="12.014144498413584"><ele>59.0</ele><time>2026-03-28T12:30:41Z</time></trkpt><trkpt lat="42.03554731163445" lon="12.014233730731199"><ele>59.0</ele><time>2026-03-28T12:30:42Z</time></trkpt><trkpt lat="42.035565749517396" lon="12.014337708379209"><ele>58.400000000000006</ele><time>2026-03-28T12:30:43Z</time></trkpt><trkpt lat="42.03558716276143" lon="12.014434999413655"><ele>57.800000000000004</ele><time>2026-03-28T12:30:44Z</time></trkpt><trkpt lat="42.035609167787925" lon="12.0145278371569"><ele>57.199999999999996</ele><time>2026-03-28T12:30:45Z</time></trkpt><trkpt lat="42.03564551722153" lon="12.01464143569962"><ele>56.599999999999994</ele><time>2026-03-28T12:30:46Z</time></trkpt><trkpt lat="42.035691453210504" lon="12.014787138438916"><ele>56.0</ele><time>2026-03-28T12:30:48Z</time></trkpt><trkpt lat="42.03573805238051" lon="12.0149034309"><ele>56.75</ele><time>2026-03-28T12:30:49Z</time></trkpt><trkpt lat="42.035764147633934" lon="12.015034495178998"><ele>57.5</ele><time>2026-03-28T12:30:50Z</time></trkpt><trkpt lat="42.035796579325535" lon="12.015198203673656"><ele>58.25</ele><time>2026-03-28T12:30:51Z</time></trkpt><trkpt lat="42.03583035777976" lon="12.015352548499763"><ele>59.0</ele><time>2026-03-28T12:30:52Z</time></trkpt><trkpt lat="42.03585955242012" lon="12.015493228913433"><ele>59.800000000000004</ele><time>2026-03-28T12:30:53Z</time></trkpt><trkpt lat="42.035894397615905" lon="12.015620550828013"><ele>60.60000000000001</ele><time>2026-03-28T12:30:54Z</time></trkpt><trkpt lat="42.03592585324761" lon="12.015769915558975"><ele>61.4</ele><time>2026-03-28T12:30:55Z</time></trkpt><trkpt lat="42.03594124737694" lon="12.015874751167189"><ele>62.2</ele><time>2026-03-28T12:30:56Z</time></trkpt><trkpt lat="42.03597049868778" lon="12.015955464590995"><ele>63.0</ele><time>2026-03-28T12:30:57Z</time></trkpt><trkpt lat="42.0360371309736" lon="12.016103173571723"><ele>64.5</ele><time>2026-03-28T12:30:59Z</time></trkpt><trkpt lat="42.036072815869794" lon="12.016186313941239"><ele>66.0</ele><time>2026-03-28T12:31:00Z</time></trkpt><trkpt lat="42.03612882317797" lon="12.016278896944751"><ele>67.5</ele><time>2026-03-28T12:31:01Z</time></trkpt><trkpt lat="42.0361658588489" lon="12.016352473122268"><ele>69.0</ele><time>2026-03-28T12:31:02Z</time></trkpt><trkpt lat="42.03622093994577" lon="12.016465226510515"><ele>70.5</ele><time>2026-03-28T12:31:03Z</time></trkpt><trkpt lat="42.0362789931738" lon="12.016558392863935"><ele>72.0</ele><time>2026-03-28T12:31:04Z</time></trkpt><trkpt lat="42.03632371993633" lon="12.016665508880447"><ele>73.4</ele><time>2026-03-28T12:31:05Z</time></trkpt><trkpt lat="42.03637617056418" lon="12.016758367193235"><ele>74.80000000000001</ele><time>2026-03-28T12:31:06Z</time></trkpt><trkpt lat="42.03641928958553" lon="12.016849919160325"><ele>76.2</ele><time>2026-03-28T12:31:07Z</time></trkpt><trkpt lat="42.03647157254824" lon="12.01696770292539"><ele>77.60000000000001</ele><time>2026-03-28T12:31:08Z</time></trkpt><trkpt lat="42.03653664308151" lon="12.017103485665894"><ele>79.0</ele><time>2026-03-28T12:31:09Z</time></trkpt><trkpt lat="42.03659638390106" lon="12.017222457821713"><ele>80.4</ele><time>2026-03-28T12:31:10Z</time></trkpt><trkpt lat="42.03665993399437" lon="12.017334653747055"><ele>81.80000000000001</ele><time>2026-03-28T12:31:11Z</time></trkpt><trkpt lat="42.03671616472108" lon="12.01744491314971"><ele>83.19999999999999</ele><time>2026-03-28T12:31:12Z</time></trkpt><trkpt lat="42.03677488069596" lon="12.017553177526668"><ele>84.6</ele><time>2026-03-28T12:31:13Z</time></trkpt><trkpt lat="42.03684370832999" lon="12.017684179405158"><ele>86.0</ele><time>2026-03-28T12:31:14Z</time></trkpt><trkpt lat="42.0369022115752" lon="12.017813861711769"><ele>87.33333333333334</ele><time>2026-03-28T12:31:15Z</time></trkpt><trkpt lat="42.03693989629192" lon="12.01791745750495"><ele>88.66666666666667</ele><time>2026-03-28T12:31:16Z</time></trkpt><trkpt lat="42.03697939613341" lon="12.018008183694729"><ele>90.0</ele><time>2026-03-28T12:31:17Z</time></trkpt><trkpt lat="42.03702826406135" lon="12.018098782336606"><ele>91.33333333333333</ele><time>2026-03-28T12:31:18Z</time></trkpt><trkpt lat="42.037074693320754" lon="12.018188482319147"><ele>92.66666666666666</ele><time>2026-03-28T12:31:19Z</time></trkpt><trkpt lat="42.037131352265284" lon="12.018289991903492"><ele>94.0</ele><time>2026-03-28T12:31:20Z</time></trkpt><trkpt lat="42.03717651928378" lon="12.018390145947029"><ele>96.6</ele><time>2026-03-28T12:31:21Z</time></trkpt><trkpt lat="42.037223132234814" lon="12.018489480339973"><ele>99.2</ele><time>2026-03-28T12:31:22Z</time></trkpt><trkpt lat="42.03727208837507" lon="12.01859116575724"><ele>101.79999999999998</ele><time>2026-03-28T12:31:23Z</time></trkpt><trkpt lat="42.03733106941053" lon="12.018685887455199"><ele>104.39999999999999</ele><time>2026-03-28T12:31:24Z</time></trkpt><trkpt lat="42.03739708333576" lon="12.018783685505094"><ele>107.0</ele><time>2026-03-28T12:31:25Z</time></trkpt><trkpt lat="42.03744843133549" lon="12.018885399822452"><ele>107.16666666666666</ele><time>2026-03-28T12:31:26Z</time></trkpt><trkpt lat="42.037492912406876" lon="12.018981317158758"><ele>107.33333333333333</ele><time>2026-03-28T12:31:27Z</time></trkpt><trkpt lat="42.037535768067244" lon="12.019070308981075"><ele>107.5</ele><time>2026-03-28T12:31:28Z</time></trkpt><trkpt lat="42.037580285566314" lon="12.019186049812534"><ele>107.66666666666666</ele><time>2026-03-28T12:31:30Z</time></trkpt><trkpt lat="42.03763728052266" lon="12.019273629237222"><ele>107.83333333333333</ele><time>2026-03-28T12:31:32Z</time></trkpt><trkpt lat="42.03770578245849" lon="12.019310787792387"><ele>108.0</ele><time>2026-03-28T12:31:52Z</time></trkpt><trkpt lat="42.03779736827859" lon="12.019412131969172"><ele>110.60000000000001</ele><time>2026-03-28T12:31:54Z</time></trkpt><trkpt lat="42.037857075961526" lon="12.019477425138632"><ele>113.20000000000002</ele><time>2026-03-28T12:31:55Z</time></trkpt><trkpt lat="42.03792300218854" lon="12.019549974079329"><ele>115.8</ele><time>2026-03-28T12:31:56Z</time></trkpt><trkpt lat="42.03798822831067" lon="12.019602541542572"><ele>118.4</ele><time>2026-03-28T12:31:57Z</time></trkpt><trkpt lat="42.03809076390689" lon="12.019646726439333"><ele>121.0</ele><time>2026-03-28T12:31:58Z</time></trkpt><trkpt lat="42.0382044055467" lon="12.019706350898138"><ele>121.00000000000001</ele><time>2026-03-28T12:31:59Z</time></trkpt><trkpt lat="42.03828667785894" lon="12.019768949231418"><ele>121.0</ele><time>2026-03-28T12:32:00Z</time></trkpt><trkpt lat="42.03836377940267" lon="12.01988856280096"><ele>121.0</ele><time>2026-03-28T12:32:02Z</time></trkpt><trkpt lat="42.038360186139556" lon="12.020010926511366"><ele>121.0</ele><time>2026-03-28T12:32:04Z</time></trkpt><trkpt lat="42.03834090293406" lon="12.020096386972376"><ele>121.00000000000001</ele><time>2026-03-28T12:32:05Z</time></trkpt><trkpt lat="42.03831997215695" lon="12.02019933285581"><ele>121.0</ele><time>2026-03-28T12:32:06Z</time></trkpt><trkpt lat="42.03830129759885" lon="12.02029896299192"><ele>122.28571428571428</ele><time>2026-03-28T12:32:07Z</time></trkpt><trkpt lat="42.038270410811535" lon="12.020416043291686"><ele>123.57142857142856</ele><time>2026-03-28T12:32:09Z</time></trkpt><trkpt lat="42.038205020443705" lon="12.020396149077577"><ele>124.85714285714286</ele><time>2026-03-28T12:32:39Z</time></trkpt><trkpt lat="42.03821302018975" lon="12.02048421322763"><ele>126.14285714285714</ele><time>2026-03-28T12:33:17Z</time></trkpt><trkpt lat="42.038195838522675" lon="12.020573266775045"><ele>127.42857142857143</ele><time>2026-03-28T12:33:22Z</time></trkpt><trkpt lat="42.03817763013566" lon="12.020667126089931"><ele>128.71428571428572</ele><time>2026-03-28T12:33:28Z</time></trkpt><trkpt lat="42.03816744563306" lon="12.02077367577979"><ele>130.0</ele><time>2026-03-28T12:33:35Z</time></trkpt><trkpt lat="42.03816508614477" lon="12.020868644471758"><ele>131.0</ele><time>2026-03-28T12:33:41Z</time></trkpt></trkseg></trk></gpx>